<<back to data home page
Ready for warmer weather this Spring?? Stay in touch!! - DONATE ANY AMOUNT BY CLICKING THIS LINK!!!


    Month/Day/Year       Maximum   Minimum    Rel    Dew       Rainfall  Seasonal  Soil     Soil      Baro       Wind    Wind        Peak    Peak Speed Evap     Leaf     Net
    and                  Air Temp  Air Temp   Hum    Point     Inches    Rainfall  Temp     Moisture  Pressure   Speed   Direction   Speed   Direction   Pan     Wetness  Radiation
    Local Time           Deg F     Deg F      %      Deg F               Inches    Deg F    dS/m      mbar       MPH     comp  deg   MPH     comp  deg  Inches   mV       W_m2
----------------------------------------------------------------------------------------------------------------------------------------------------------------------------------
   05/19/2019 14:30      60.8      59.6       58     45.3      0.00     19.51      66.9     0.35      1012.6     5.2     SSW   206   9.7     SSW   195   9.55    268      189.7
   05/19/2019 14:20      61.1      60.2       61     47.1      0.00     19.51      66.9     0.35      1012.4     4.6       S   175   7.8     WSW   248   9.54    268      366.6
   05/19/2019 14:10      60.3      58.8       64     47.2      0.00     19.51      66.8     0.35      1012.4     4.8     SSE   166  10.8     SSW   201   9.54    268      364.7
   05/19/2019 14:00      59.5      58.8       66     47.8      0.00     19.51      66.9     0.35      1012.4     4.9       S   171  11.1     SSW   198   9.55    268      165.0
   05/19/2019 13:50      60.5      59.0       64     47.4      0.00     19.51      66.9     0.35      1012.4     5.4     SSE   160   9.5      SE   134   9.55    268      368.6
   05/19/2019 13:40      60.3      58.7       68     48.7      0.00     19.51      66.9     0.35      1012.5     5.3     SSE   160   9.9     ESE   120   9.55    268      403.7
   05/19/2019 13:30      60.3      59.4       67     48.7      0.00     19.51      67.0     0.34      1012.7     5.7     SSE   164  11.5     SSW   195   9.55    268      632.6
   05/19/2019 13:20      60.6      59.7       67     49.0      0.00     19.51      67.0     0.34      1012.7     5.4       S   177   9.4       S   174   9.55    268      709.1
   05/19/2019 13:10      60.7      59.0       69     49.5      0.00     19.51      66.9     0.34      1012.8     4.8     SSE   158  10.1       S   183   9.55    268      805.0
   05/19/2019 13:00      60.5      59.3       71     50.2      0.00     19.51      67.0     0.35      1012.8     4.4     SSE   164   8.9     SSE   157   9.55    268      816.0
   05/19/2019 12:50      59.3      58.0       72     49.6      0.00     19.51      67.1     0.34      1013.1     4.5       S   178   8.1     SSE   163   9.55    268      735.9
   05/19/2019 12:40      58.6      57.9       73     49.6      0.00     19.51      67.1     0.35      1013.2     4.1     SSE   155   7.8      SE   124   9.55    269      622.0
   05/19/2019 12:30      58.2      56.6       78     50.4      0.00     19.51      67.1     0.35      1013.2     3.8     SSE   168   7.2       S   174   9.55    268      634.0
   05/19/2019 12:20      56.6      55.7       79     49.9      0.00     19.51      67.1     0.35      1013.2     4.3     SSE   147   9.6      SE   146   9.55    270      473.5
   05/19/2019 12:10      56.1      54.6       83     50.3      0.00     19.51      67.1     0.35      1013.3     4.4      SE   145   9.0      SE   143   9.55    271      544.2
   05/19/2019 12:00      54.9      54.4       87     50.8      0.00     19.51      67.1     0.35      1013.4     3.2     SSE   153   7.5     SSW   199   9.55    281      290.6
   05/19/2019 11:50      54.3      53.1       89     50.5      0.00     19.51      67.2     0.35      1013.3     2.5     ESE   120   4.9     ENE    75   9.55    289      268.8
   05/19/2019 11:40      53.3      52.6       89     49.7      0.00     19.51      67.2     0.35      1013.4     2.5     ESE   117   5.3      SE   142   9.55    305      146.3
   05/19/2019 11:30      53.2      52.5       89     49.7      0.00     19.51      67.2     0.35      1013.3     4.0      SE   137   7.2      SE   132   9.55    295       95.4
   05/19/2019 11:20      53.5      52.7       90     50.0      0.00     19.51      67.3     0.35      1013.3     2.4     ESE   114   6.1     ESE   116   9.55    311       67.9
   05/19/2019 11:10      53.3      52.6       90     50.1      0.00     19.51      67.3     0.35      1013.2     1.0       E    83   2.7     ENE    71   9.55    303       80.1
   05/19/2019 11:00      53.0      52.5       90     49.8      0.00     19.51      67.3     0.35      1013.2     2.0     ESE   103   4.2     ENE    64   9.55    326       82.4
   05/19/2019 10:50      53.0      52.6       90     50.0      0.01     19.51      67.3     0.35      1013.2     2.3      SE   125   4.8      SE   128   9.55    423       83.0
   05/19/2019 10:40      53.0      52.4       91     50.0      0.02     19.50      67.3     0.34      1013.1     1.9       E   100   4.9     ENE    71   9.54    408      131.8
   05/19/2019 10:30      52.8      52.2       91     50.0      0.01     19.48      67.4     0.34      1013.0     0.1     ESE   107   1.2     ESE   112   9.52    487       66.7
   05/19/2019 10:20      53.0      52.2       91     50.0      0.01     19.47      67.4     0.34      1012.9     0.7     ENE    70   1.9     ENE    59   9.51    454       74.3
   05/19/2019 10:10      53.0      52.4       91     50.2      0.00     19.46      67.4     0.34      1012.9     0.7     ENE    71   2.3     ENE    73   9.51    461       90.6
   05/19/2019 10:00      52.7      52.0       91     49.9      0.01     19.46      67.5     0.34      1012.8     1.1      NE    50   2.7      NE    52   9.50    446      109.6
   05/19/2019 09:50      52.4      51.8       91     49.6      0.00     19.45      67.5     0.34      1012.7     1.6     ENE    60   3.1       N     3   9.50    491      150.2
   05/19/2019 09:40      52.2      51.7       91     49.5      0.00     19.45      67.5     0.34      1012.7     1.0     ENE    57   2.7     ENE    58   9.49    405      155.7
   05/19/2019 09:30      52.0      51.5       91     49.3      0.01     19.45      67.5     0.34      1012.7     1.8     ENE    67   3.5     NNE    30   9.49    425      162.9
   05/19/2019 09:20      51.8      51.3       91     49.0      0.01     19.44      67.6     0.34      1012.8     1.2     ENE    60   2.6      NE    48   9.48    516       91.5
   05/19/2019 09:10      51.9      51.3       91     49.0      0.00     19.43      67.6     0.34      1012.7     1.2      NE    46   3.4     ENE    65   9.47    411       83.1
   05/19/2019 09:00      51.6      51.2       91     48.7      0.01     19.43      67.7     0.34      1012.6     0.8     ENE    59   2.8     ENE    78   9.47    461       61.6
   05/19/2019 08:50      51.4      50.7       90     48.4      0.00     19.42      67.7     0.34      1012.6     0.6     ENE    76   2.5     NNE    17   9.47    451       46.4
   05/19/2019 08:40      51.1      50.6       90     47.9      0.01     19.42      67.8     0.34      1012.4     2.0     ENE    77   4.8       E    84   9.47    360       61.0
   05/19/2019 08:30      51.1      50.7       89     47.8      0.01     19.41      67.8     0.34      1012.4     2.7     ESE   110   5.3       E    93   9.46    486       78.1
   05/19/2019 08:20      51.7      50.8       90     48.4      0.00     19.40      67.8     0.34      1012.3     2.1      SE   129   4.6      SE   126   9.46    324       56.7
   05/19/2019 08:10      51.6      51.0       91     48.7      0.00     19.40      67.8     0.34      1012.3     0.3      SE   144   1.3      SE   129   9.46    306       48.9
   05/19/2019 08:00      51.6      51.0       92     48.8      0.00     19.40      67.9     0.34      1012.1     1.1     ENE    77   2.4     ESE   122   9.46    313       39.7
   05/19/2019 07:50      51.2      50.8       92     48.6      0.00     19.40      67.9     0.34      1011.9     1.5     ENE    70   3.6     ENE    60   9.46    320       75.3
   05/19/2019 07:40      50.9      50.5       92     48.3      0.00     19.40      67.9     0.34      1012.0     1.2     ENE    67   2.6     ENE    79   9.45    333       63.8
   05/19/2019 07:30      50.8      50.3       92     48.1      0.00     19.40      67.9     0.34      1012.0     0.9     NNE    29   2.0     ENE    78   9.45    337       49.1
   05/19/2019 07:20      50.6      50.1       92     47.9      0.00     19.40      68.0     0.34      1012.0     1.1     NNE    17   2.7      NW   324   9.45    358       76.8
   05/19/2019 07:10      50.3      49.4       92     47.5      0.00     19.40      68.0     0.34      1012.1     0.1     NNE    15   1.5     NNW   343   9.45    371       59.3
   05/19/2019 07:00      49.7      49.2       91     47.0      0.00     19.40      68.0     0.34      1012.0     0.6       E    84   1.9     ENE    75   9.45    413       33.6
   05/19/2019 06:50      49.5      49.1       91     46.9      0.02     19.40      68.0     0.34      1012.0     0.4     ENE    75   1.4     ENE    69   9.45    464        7.4
   05/19/2019 06:40      49.7      49.2       91     46.7      0.00     19.38      68.1     0.34      1012.0     0.6     ENE    78   2.3     ENE    69   9.44    476        2.9
   05/19/2019 06:30      49.5      49.2       91     46.7      0.02     19.38      68.1     0.34      1011.8     0.5     ESE   105   2.5     ESE   114   9.43    444        4.6
   05/19/2019 06:20      49.6      49.1       90     46.5      0.03     19.36      68.2     0.34      1011.8     0.6     ESE   103   2.3       E    88   9.42    459       -4.1
   05/19/2019 06:10      49.5      49.2       90     46.5      0.01     19.33      68.2     0.34      1011.9     0.5       E    92   1.9     ENE    73   9.39    461       -6.1
   05/19/2019 06:00      49.5      48.8       90     46.2      0.01     19.32      68.2     0.34      1011.9     0.3      NE    46   2.0      NE    54   9.38    442       -6.9
   05/19/2019 05:50      49.2      48.7       89     45.9      0.00     19.31      68.2     0.34      1011.8     0.4      NE    39   1.7      NE    52   9.38    370       -7.2
   05/19/2019 05:40      48.9      48.5       89     45.8      0.00     19.31      68.3     0.34      1011.9     0.0       N     0   0.0      NE    52   9.38    357       -7.9
   05/19/2019 05:30      48.8      48.4       89     45.6      0.00     19.31      68.3     0.34      1011.9     0.4      NE    37   2.4       N     9   9.38    362       -8.2
   05/19/2019 05:20      48.7      48.4       89     45.6      0.00     19.31      68.3     0.34      1011.9     0.3      SE   144   1.7      SE   138   9.37    371       -8.0
   05/19/2019 05:10      48.7      48.3       89     45.4      0.00     19.31      68.4     0.34      1011.9     0.7     ENE    78   2.2       E    92   9.37    421       -8.2
   05/19/2019 05:00      48.6      48.3       89     45.3      0.00     19.31      68.4     0.34      1012.1     0.8      SE   138   2.1       E    95   9.37    364       -8.5
   05/19/2019 04:50      48.7      48.3       89     45.2      0.01     19.31      68.4     0.34      1012.1     0.7     ESE   115   1.6      SE   127   9.37    384       -8.6
   05/19/2019 04:40      49.2      48.4       89     45.7      0.00     19.30      68.4     0.34      1012.1     1.1       E    91   4.7     ENE    77   9.37    471       -7.9
   05/19/2019 04:30      49.4      48.8       89     46.0      0.01     19.30      68.5     0.34      1012.2     1.0       E    96   2.7       E    82   9.36    359       -7.6
   05/19/2019 04:20      49.5      49.0       89     46.0      0.00     19.29      68.5     0.34      1012.2     0.9       E    96   2.0       E    86   9.36    368       -8.0
   05/19/2019 04:10      49.4      48.7       88     45.5      0.00     19.29      68.5     0.34      1012.6     0.5       E    86   1.7      NE    56   9.36    397       -8.7
   05/19/2019 04:00      49.2      48.6       86     45.0      0.00     19.29      68.6     0.34      1012.6     0.6     ESE   112   1.4      SE   124   9.36    385       -8.8
   05/19/2019 03:50      49.2      48.7       87     45.0      0.00     19.29      68.5     0.34      1012.9     0.8       E    91   1.6      SE   132   9.36    348       -8.9
   05/19/2019 03:40      49.5      48.9       88     45.9      0.00     19.29      68.6     0.34      1013.0     1.0     ESE   116   2.6     ESE   123   9.36    330       -8.5
   05/19/2019 03:30      49.5      49.2       88     46.0      0.00     19.29      68.6     0.34      1012.9     0.7       E    86   2.7       E    88   9.36    335       -8.6
   05/19/2019 03:20      49.9      49.1       89     46.2      0.00     19.29      68.7     0.34      1012.7     0.9       E   100   1.8       E    92   9.36    351       -8.3
   05/19/2019 03:10      49.8      49.2       89     46.2      0.00     19.29      68.7     0.34      1012.9     0.8       E    84   2.4     ENE    76   9.36    373       -8.4
   05/19/2019 03:00      49.8      49.2       88     46.1      0.00     19.29      68.8     0.34      1013.1     0.9       E    82   1.7       E    80   9.36    382       -8.6
   05/19/2019 02:50      50.0      49.6       88     46.4      0.00     19.29      68.7     0.34      1013.0     0.6     ENE    70   1.4       E    93   9.36    404       -8.5
   05/19/2019 02:40      49.9      49.5       88     46.2      0.00     19.29      68.8     0.34      1013.2     0.2     ESE   108   1.5      SE   135   9.36    380       -8.7
   05/19/2019 02:30      49.8      49.4       87     45.9      0.01     19.29      68.8     0.34      1013.4     0.1      SE   141   0.8      SE   124   9.36    317       -9.1
   05/19/2019 02:20      49.7      49.1       86     45.3      0.00     19.28      68.8     0.34      1013.4     0.4       S   180   2.2     SSW   195   9.36    328       -9.5
   05/19/2019 02:10      49.7      49.2       84     44.8      0.00     19.28      68.8     0.34      1013.3     1.7       S   175   3.0     SSE   164   9.36    386       -9.8
   05/19/2019 02:00      49.7      49.2       83     44.5      0.01     19.28      68.9     0.34      1013.4     1.9     SSW   199   3.6     SSW   206   9.35    397      -10.1
   05/19/2019 01:50      49.8      49.3       82     44.1      0.00     19.27      68.9     0.34      1013.7     2.7     SSW   203   5.3      SW   229   9.35    381      -10.4
   05/19/2019 01:40      50.1      49.7       81     44.2      0.01     19.27      68.9     0.34      1013.7     2.0     SSW   202   6.0     SSW   210   9.34    372      -10.3
   05/19/2019 01:30      50.5      49.8       78     43.4      0.01     19.26      68.9     0.34      1013.8     1.7     SSW   194   4.2       S   182   9.33    439      -10.9
   05/19/2019 01:20      51.3      50.2       73     42.4      0.01     19.25      68.9     0.34      1013.8     3.0      SW   216   5.4      SW   223   9.33    387      -12.0
   05/19/2019 01:10      52.5      51.0       67     40.8      0.01     19.24      69.0     0.34      1013.7     3.8      SW   230   7.2       S   180   9.32    355      -13.3
   05/19/2019 01:00      53.0      52.3       58     38.2      0.00     19.23      68.9     0.34      1013.7     4.2     WSW   251   7.2      SW   229   9.32    271      -16.4
   05/19/2019 00:50      53.0      52.6       54     36.7      0.00     19.23      69.0     0.34      1013.9     4.5      SW   221   8.0      SW   225   9.31    268      -17.6
   05/19/2019 00:40      53.0      52.5       54     36.6      0.00     19.23      69.0     0.34      1013.9     3.4      SW   229   6.6     SSW   208   9.32    268      -17.9
   05/19/2019 00:30      53.0      52.6       53     36.2      0.00     19.23      69.0     0.34      1013.9     4.3      SW   232   7.6     WSW   239   9.32    268      -17.5
   05/19/2019 00:20      53.3      52.6       55     37.2      0.00     19.23      69.0     0.34      1014.0     5.7      SW   235   8.9      SW   216   9.32    285      -17.4
   05/19/2019 00:10      53.9      53.0       64     41.5      0.00     19.23      69.0     0.34      1014.1     5.5     WSW   242  10.9     SSW   201   9.32    300      -17.4
   05/19/2019 00:00      54.4      53.6       74     45.8      0.00     19.23      69.0     0.34      1014.1     4.6      SW   235   8.7     WSW   257   9.32    309      -16.8
   05/18/2019 23:50      54.7      54.1       76     46.8      0.00     19.23      69.0     0.34      1014.1     5.0     SSW   213   8.3     SSW   192   9.33    313      -15.0
   05/18/2019 23:40      55.5      54.4       77     47.8      0.00     19.23      69.1     0.34      1013.9     5.2     SSW   204   8.5     SSW   197   9.33    317       -9.1
   05/18/2019 23:30      56.8      55.4       78     49.2      0.00     19.23      69.1     0.34      1013.9     4.7     WSW   237   7.9     WSW   251   9.33    320       -8.2
   05/18/2019 23:20      57.1      56.4       76     49.2      0.00     19.23      69.1     0.34      1013.9     3.6     WSW   242   7.3      SW   224   9.33    322       -7.7
   05/18/2019 23:10      57.4      56.8       74     48.7      0.00     19.23      69.1     0.34      1013.9     3.5      SW   233   6.0     WSW   239   9.33    324       -8.4
   05/18/2019 23:00      57.4      56.9       74     48.8      0.00     19.23      69.1     0.34      1013.7     2.4     WSW   238   4.0     WSW   249   9.33    326       -8.4
   05/18/2019 22:50      57.3      56.9       76     49.6      0.00     19.23      69.1     0.34      1013.7     2.4      SW   232   3.9     WSW   238   9.33    328       -8.9
   05/18/2019 22:40      57.1      56.1       80     50.4      0.00     19.23      69.1     0.34      1013.6     2.1     WSW   237   4.4     WSW   240   9.33    330       -9.4
   05/18/2019 22:30      56.7      56.1       81     50.5      0.00     19.23      69.1     0.34      1013.6     0.0       N     0   0.0     SSE   150   9.33    339      -10.1
   05/18/2019 22:20      56.9      56.2       81     50.8      0.00     19.23      69.1     0.34      1013.6     0.3       S   189   1.1     SSW   204   9.33    349       -9.8
   05/18/2019 22:10      57.4      56.6       79     50.4      0.00     19.23      69.1     0.34      1013.5     0.3     SSE   155   0.9       S   183   9.33    364      -10.3
   05/18/2019 22:00      57.7      57.0       75     49.5      0.00     19.23      69.2     0.34      1013.4     0.0       W   274   0.8     WNW   302   9.33    369      -10.9
   05/18/2019 21:50      58.0      57.4       73     49.0      0.00     19.23      69.1     0.34      1013.4     0.0       N     0   0.0      NE    45   9.33    341      -10.4
   05/18/2019 21:40      58.3      57.8       70     48.0      0.00     19.23      69.1     0.34      1013.3     0.1     NNE    33   1.0     NNE    32   9.33    334      -12.5
   05/18/2019 21:30      58.3      57.9       66     46.9      0.00     19.23      69.2     0.34      1013.5     2.0     SSE   155   3.6      SE   137   9.33    335      -16.9
   05/18/2019 21:20      58.5      58.0       65     46.6      0.00     19.23      69.2     0.34      1013.7     1.9     WSW   237   3.3     WSW   259   9.33    280      -21.2
   05/18/2019 21:10      58.7      58.2       63     45.7      0.00     19.23      69.1     0.34      1013.6     2.1     SSW   199   3.8      SW   230   9.33    286      -20.6
   05/18/2019 21:00      58.8      58.3       62     45.3      0.00     19.23      69.1     0.34      1013.5     2.8     SSW   204   4.6       S   190   9.33    280      -19.5
   05/18/2019 20:50      58.8      58.3       61     45.2      0.00     19.23      69.1     0.34      1013.6     3.0     SSW   213   5.5       S   185   9.33    268      -23.3
   05/18/2019 20:40      58.7      58.3       63     46.0      0.00     19.23      69.1     0.34      1013.4     2.6     SSW   198   5.6     SSW   204   9.33    268      -24.5
   05/18/2019 20:30      59.0      58.4       64     46.3      0.00     19.23      69.1     0.34      1013.3     2.3       S   186   3.7       S   191   9.33    268      -26.1
   05/18/2019 20:20      59.0      58.6       64     46.8      0.00     19.23      69.1     0.34      1013.3     1.4       S   170   2.7       S   179   9.33    270      -24.5
   05/18/2019 20:10      59.3      58.5       63     46.4      0.00     19.23      69.1     0.34      1013.4     1.4       S   189   2.4     SSW   203   9.34    279      -23.7
   05/18/2019 20:00      59.6      59.0       60     45.5      0.00     19.23      69.0     0.34      1013.4     0.7     SSW   195   2.3      SW   226   9.34    289      -21.9
   05/18/2019 19:50      59.7      59.3       59     45.3      0.00     19.23      69.0     0.34      1013.5     2.0      SW   218   3.2     WSW   239   9.34    270      -22.0
   05/18/2019 19:40      59.9      59.4       61     46.1      0.00     19.23      69.0     0.34      1013.5     2.6      SW   236   5.3     WSW   249   9.34    269      -21.7
   05/18/2019 19:30      60.2      59.7       61     46.3      0.00     19.23      69.0     0.34      1013.6     3.2     WSW   245   5.3       W   266   9.34    268      -21.6
   05/18/2019 19:20      60.8      59.9       59     45.8      0.00     19.23      69.0     0.34      1013.5     4.1     WSW   236   7.0       W   272   9.34    272      -21.1
   05/18/2019 19:10      61.3      60.5       62     47.6      0.00     19.23      68.9     0.34      1013.5     3.4       W   259   6.3     WSW   249   9.34    268      -11.7
   05/18/2019 19:00      62.1      61.1       63     48.7      0.00     19.23      68.9     0.34      1013.3     2.6       W   281   6.5       W   269   9.34    274       -0.3
   05/18/2019 18:50      62.5      61.9       59     47.6      0.00     19.23      68.9     0.34      1013.3     2.3     WNW   285   4.6       W   267   9.34    275       -6.5
   05/18/2019 18:40      63.2      62.2       58     47.7      0.00     19.23      68.8     0.34      1013.4     3.1     WNW   284   7.5     WNW   282   9.34    270       -6.5
   05/18/2019 18:30      64.3      62.9       59     48.7      0.00     19.23      68.8     0.34      1013.5     3.4       W   270   6.9       W   259   9.34    270        3.6
   05/18/2019 18:20      64.7      64.0       55     47.8      0.00     19.23      68.8     0.34      1013.5     3.8       W   267   7.4       W   270   9.34    269       -0.7
   05/18/2019 18:10      65.2      64.4       52     46.9      0.00     19.23      68.8     0.34      1013.7     3.4     WSW   239   6.8       W   263   9.35    266       13.5
   05/18/2019 18:00      65.3      64.9       49     45.5      0.00     19.23      68.7     0.34      1013.6     2.9     WSW   247   5.1      SW   223   9.35    266       22.8
   05/18/2019 17:50      65.5      64.9       47     44.6      0.00     19.23      68.7     0.34      1013.6     3.1      SW   219   4.9     SSW   210   9.35    266       20.8
   05/18/2019 17:40      65.8      65.2       48     45.1      0.00     19.23      68.6     0.34      1013.7     2.7      SW   217   4.7     SSE   158   9.35    266       29.6
   05/18/2019 17:30      66.5      65.5       47     45.2      0.00     19.23      68.6     0.34      1013.7     3.7     SSW   199   7.5     SSW   205   9.36    270       18.6
   05/18/2019 17:20      66.4      65.8       47     45.2      0.00     19.23      68.5     0.34      1013.8     3.5     SSW   214   6.3     SSW   212   9.36    266       25.9
   05/18/2019 17:10      67.1      66.1       45     44.9      0.00     19.23      68.5     0.34      1013.8     4.2       S   183   6.4       S   184   9.36    266       39.4
   05/18/2019 17:00      67.1      66.6       46     45.1      0.00     19.23      68.5     0.34      1013.8     3.2       S   175   7.1     ESE   112   9.36    266       80.7
   05/18/2019 16:50      67.5      66.6       45     45.1      0.00     19.23      68.4     0.34      1013.7     4.2     SSE   166   8.1       S   188   9.37    266       85.7
   05/18/2019 16:40      68.3      67.3       45     45.4      0.00     19.23      68.3     0.34      1013.6     3.6       S   181   7.0     SSW   210   9.37    266       95.9
   05/18/2019 16:30      68.2      67.6       44     45.3      0.00     19.23      68.3     0.34      1013.6     2.9      SW   223   5.5      SW   225   9.37    265      137.9
   05/18/2019 16:20      68.4      67.7       45     45.9      0.00     19.23      68.3     0.34      1013.7     3.1       S   183   5.7       S   191   9.37    266      145.1
   05/18/2019 16:10      68.5      67.8       45     45.9      0.00     19.23      68.2     0.34      1013.9     3.0      SW   219   8.0     SSW   211   9.38    266      160.9
   05/18/2019 16:00      68.7      67.9       45     46.1      0.00     19.23      68.2     0.34      1014.0     3.8       S   174   6.4     SSW   194   9.37    265      232.8
   05/18/2019 15:50      69.3      67.7       44     45.8      0.00     19.23      68.1     0.34      1014.0     4.3       S   179   8.3       S   184   9.38    265      282.9
   05/18/2019 15:40      69.3      68.2       43     45.7      0.00     19.23      68.1     0.34      1014.2     3.4       S   179   7.4     SSE   150   9.38    265      300.3
   05/18/2019 15:30      68.7      68.1       43     45.1      0.00     19.23      68.0     0.34      1014.3     4.9       S   169  10.0       S   184   9.38    265      298.5
   05/18/2019 15:20      68.7      68.0       43     45.1      0.00     19.23      68.0     0.34      1014.4     4.5     SSE   164  10.9     ESE   116   9.39    265      293.6
   05/18/2019 15:10      69.0      68.1       42     44.7      0.00     19.23      67.9     0.34      1014.5     5.0     SSE   161   8.2     SSW   207   9.39    265      323.7
   05/18/2019 15:00      69.0      68.2       43     45.2      0.00     19.23      67.8     0.34      1014.7     5.5     SSE   166   8.6     SSE   167   9.39    265      397.7
   05/18/2019 14:50      68.8      68.1       44     45.6      0.00     19.23      67.8     0.34      1014.6     4.8     SSE   166  10.0       S   170   9.39    265      333.0
   05/18/2019 14:40      69.0      68.2       42     44.8      0.00     19.23      67.7     0.34      1014.6     5.3     SSE   167   9.4     SSW   202   9.40    265      306.4
   05/18/2019 14:30      70.7      68.7       41     44.9      0.00     19.23      67.7     0.34      1014.5     5.7     SSE   166   8.6     ESE   123   9.40    265      309.6
   05/18/2019 14:20      71.3      69.8       40     44.8      0.00     19.23      67.6     0.34      1014.7     4.9     SSE   152   7.7     SSE   148   9.40    264      455.1
   05/18/2019 14:10      71.3      69.8       40     44.7      0.00     19.23      67.6     0.34      1014.7     6.1     SSE   158  11.0      SE   137   9.40    265      511.5
   05/18/2019 14:00      71.9      70.5       39     44.6      0.00     19.23      67.5     0.34      1014.6     5.7     SSE   147  10.7      SE   125   9.40    264      520.5
   05/18/2019 13:50      71.7      70.9       39     45.0      0.00     19.23      67.4     0.34      1014.6     4.8     SSE   146   8.6      SE   145   9.41    264      464.3
   05/18/2019 13:40      71.4      70.0       39     44.7      0.00     19.23      67.4     0.34      1014.6     5.4     ESE   122  13.0      SE   143   9.41    264      513.6
   05/18/2019 13:30      71.7      70.3       40     45.2      0.00     19.23      67.3     0.34      1014.6     5.8      SE   130  11.9      SE   134   9.41    264      549.5
   05/18/2019 13:20      72.2      70.9       40     45.9      0.00     19.23      67.3     0.34      1014.6     4.4      SE   124   8.5     SSE   166   9.41    264      653.3
   05/18/2019 13:10      73.2      71.9       41     47.2      0.00     19.23      67.2     0.34      1014.8     3.0      SE   129   7.6       S   172   9.42    264      476.7
   05/18/2019 13:00      73.5      71.9       39     46.0      0.00     19.23      67.2     0.34      1014.8     1.7       E    96   6.8      SE   129   9.42    263      520.8
   05/18/2019 12:50      73.1      71.7       38     45.5      0.00     19.23      67.2     0.34      1014.8     2.4     ESE   104   6.3      SE   128   9.42    264      468.0
   05/18/2019 12:40      72.0      70.6       38     44.7      0.00     19.23      67.1     0.34      1014.7     2.3     ESE   119   6.0       E    88   9.42    264      464.2
   05/18/2019 12:30      72.7      71.2       38     44.6      0.00     19.23      67.1     0.34      1014.8     3.3     ESE   102   7.5     ENE    74   9.42    263      616.3
   05/18/2019 12:20      73.0      71.6       37     44.6      0.00     19.23      67.1     0.34      1015.0     1.5       N   360   4.4     ESE   111   9.42    263      510.2
   05/18/2019 12:10      72.0      71.0       36     43.4      0.00     19.23      67.1     0.34      1015.1     1.6       N   359   4.4       N   350   9.42    264      468.6
   05/18/2019 12:00      71.5      70.5       37     43.3      0.00     19.23      67.1     0.34      1015.2     2.4     NNW   340   5.4     NNE    13   9.43    263      588.3
   05/18/2019 11:50      70.9      69.3       37     42.6      0.00     19.23      67.1     0.34      1015.3     2.0       N     4   4.6     ENE    61   9.43    263      607.2
   05/18/2019 11:40      69.6      68.3       38     42.3      0.00     19.23      67.1     0.34      1015.4     2.0      NE    40   4.8     NNE    15   9.43    263      602.4
   05/18/2019 11:30      68.8      67.0       40     42.8      0.00     19.23      67.1     0.34      1015.4     2.3     ENE    71   5.3      SE   128   9.43    264      534.6
   05/18/2019 11:20      68.7      67.4       40     42.6      0.00     19.23      67.0     0.34      1015.3     2.2      SE   128   3.9     ESE   103   9.43    263      568.6
   05/18/2019 11:10      69.0      68.3       40     43.3      0.00     19.23      67.0     0.34      1015.1     2.3     ENE    68   4.7       N   355   9.43    264      538.1
   05/18/2019 11:00      68.7      67.2       42     43.9      0.00     19.23      67.1     0.34      1015.1     1.9     NNE    19   4.1       E    90   9.43    264      538.0
   05/18/2019 10:50      67.5      66.7       43     44.0      0.00     19.23      67.1     0.34      1015.3     1.9     NNE    24   4.4     NNW   331   9.43    264      543.2
   05/18/2019 10:40      66.7      65.8       45     44.1      0.00     19.23      67.0     0.34      1015.4     1.9      NE    44   4.4     NNE    24   9.43    264      542.4
   05/18/2019 10:30      67.1      65.5       45     44.3      0.00     19.23      67.1     0.34      1015.4     2.1     ESE   107   7.0      SE   137   9.43    265      475.2
   05/18/2019 10:20      66.8      65.6       46     45.2      0.00     19.23      67.1     0.34      1015.5     1.1       N     4   3.3       N    11   9.43    264      461.3
   05/18/2019 10:10      66.2      64.6       48     45.4      0.00     19.23      67.2     0.34      1015.4     1.0     NNE    16   2.8     NNE    28   9.43    265      408.4
   05/18/2019 10:00      64.9      63.6       50     45.2      0.00     19.23      67.2     0.34      1015.5     1.4     WSW   240   4.0       W   264   9.43    265      386.6
   05/18/2019 09:50      64.1      63.1       51     45.4      0.00     19.23      67.3     0.34      1015.4     2.1      SW   231   4.2       S   191   9.43    265      353.3
   05/18/2019 09:40      64.1      62.7       52     45.6      0.00     19.23      67.3     0.34      1015.5     1.2       S   186   3.6       S   190   9.43    266      333.9
   05/18/2019 09:30      63.4      62.5       52     45.1      0.00     19.23      67.3     0.34      1015.6     1.2      NW   311   3.3      SW   230   9.43    266      357.3
   05/18/2019 09:20      63.0      61.8       53     44.9      0.00     19.23      67.3     0.34      1015.5     0.9       N   352   2.3     ENE    70   9.43    266      253.4
   05/18/2019 09:10      62.5      61.0       54     44.9      0.00     19.23      67.3     0.34      1015.5     1.0     NNW   336   2.7      NE    50   9.43    266      294.7
   05/18/2019 09:00      61.3      60.1       55     44.2      0.00     19.23      67.4     0.34      1015.5     0.6     NNE    14   2.4      NE    41   9.44    266      229.3
   05/18/2019 08:50      60.2      59.3       56     44.2      0.00     19.23      67.4     0.34      1015.5     0.3       N   357   1.2     SSE   157   9.44    267      171.3
   05/18/2019 08:40      59.6      58.4       58     44.2      0.00     19.23      67.4     0.34      1015.3     0.7       N     0   2.6     NNE    33   9.44    267      140.7
   05/18/2019 08:30      58.7      58.3       58     43.9      0.00     19.23      67.5     0.34      1015.2     1.4       N     8   2.9       N   352   9.44    268      131.1
   05/18/2019 08:20      58.4      57.5       59     43.6      0.00     19.23      67.5     0.34      1015.1     1.1     NNE    17   2.1      NE    35   9.44    268      114.5
   05/18/2019 08:10      57.8      57.3       61     44.0      0.00     19.23      67.5     0.34      1015.0     0.7       W   270   2.0       W   269   9.44    268       76.8
   05/18/2019 08:00      57.6      56.5       61     43.7      0.00     19.23      67.6     0.34      1015.0     0.2      SE   137   1.2     SSW   203   9.44    268       65.9
   05/18/2019 07:50      56.8      55.5       62     43.3      0.00     19.23      67.7     0.34      1015.1     0.4     WSW   257   1.9     WSW   249   9.44    268       77.9
   05/18/2019 07:40      55.7      55.1       62     42.6      0.00     19.23      67.7     0.34      1015.0     0.2     ESE   105   0.8       E    92   9.44    269       52.3
   05/18/2019 07:30      55.3      54.5       63     42.7      0.00     19.23      67.7     0.34      1014.8     0.2     ESE   122   1.3      SE   141   9.44    269       43.6
   05/18/2019 07:20      54.7      53.2       64     42.1      0.00     19.23      67.8     0.34      1014.7     0.0       N     0   0.0     WSW   255   9.44    270       49.6
   05/18/2019 07:10      53.3      52.3       71     43.5      0.00     19.23      67.8     0.34      1014.6     0.0       N     0   0.0      SE   135   9.44    276       36.9
   05/18/2019 07:00      52.3      50.9       78     44.8      0.00     19.23      67.9     0.34      1014.6     0.7      SE   137   1.4      SE   136   9.44    292       22.4
   05/18/2019 06:50      51.1      49.2       86     46.0      0.00     19.23      67.9     0.34      1014.7     0.5       S   169   1.2       S   173   9.44    312       20.7
   05/18/2019 06:40      49.4      47.8       88     45.0      0.00     19.23      67.9     0.34      1014.6     0.2     SSE   153   1.0      SE   145   9.44    317       20.0
   05/18/2019 06:30      48.0      46.7       88     43.9      0.00     19.23      68.0     0.34      1014.5     0.6     SSE   148   1.4      SE   136   9.44    319        0.4
   05/18/2019 06:20      47.1      46.5       88     43.3      0.00     19.23      68.0     0.34      1014.6     0.7     SSE   149   1.3      SE   140   9.44    320      -11.1
   05/18/2019 06:10      47.0      46.6       88     43.5      0.00     19.23      68.0     0.34      1014.6     0.7     SSE   157   1.6       S   184   9.44    322      -18.1
   05/18/2019 06:00      47.2      46.6       88     43.4      0.00     19.23      68.1     0.34      1014.5     0.6     SSE   157   1.4      SE   132   9.44    319      -26.6
   05/18/2019 05:50      47.2      46.8       87     43.3      0.00     19.23      68.1     0.34      1014.6     0.7     SSE   160   1.9      SE   139   9.44    315      -31.4
   05/18/2019 05:40      47.2      46.7       88     43.5      0.00     19.23      68.1     0.34      1014.7     0.6     SSE   148   1.5      SE   130   9.44    311      -32.8
   05/18/2019 05:30      47.1      46.5       87     43.3      0.00     19.23      68.2     0.34      1014.4     0.7       S   182   1.4       S   186   9.44    307      -33.4
   05/18/2019 05:20      47.0      46.5       87     43.0      0.00     19.23      68.2     0.34      1014.3     0.6       S   169   1.3       S   182   9.44    304      -37.0
   05/18/2019 05:10      46.9      46.3       86     42.6      0.00     19.23      68.2     0.34      1014.4     0.1       S   174   0.9     SSE   162   9.44    300      -41.6
   05/18/2019 05:00      47.6      46.7       85     42.7      0.00     19.23      68.3     0.34      1014.5     0.3     SSE   150   1.3      SE   143   9.44    297      -44.4
   05/18/2019 04:50      47.8      47.3       85     43.2      0.00     19.23      68.3     0.34      1014.5     0.9     SSE   168   2.0      SE   143   9.44    293      -45.4
   05/18/2019 04:40      48.0      47.5       85     43.3      0.00     19.23      68.3     0.34      1014.5     0.6     SSE   159   1.1     SSE   167   9.44    289      -48.7
   05/18/2019 04:30      48.1      47.5       84     43.3      0.00     19.23      68.4     0.35      1014.4     0.3     SSE   162   1.0       S   179   9.44    286      -53.2
   05/18/2019 04:20      47.9      47.5       84     43.0      0.00     19.23      68.4     0.34      1014.3     0.6     SSE   156   1.6      SE   143   9.44    281      -59.1
   05/18/2019 04:10      48.3      47.6       82     42.8      0.00     19.23      68.4     0.34      1014.3     1.1       S   170   2.2       S   185   9.44    277      -62.3
   05/18/2019 04:00      48.6      48.0       82     42.8      0.00     19.23      68.4     0.35      1014.3     0.2       S   170   1.2       S   177   9.44    273      -65.5
   05/18/2019 03:50      49.1      48.2       80     42.7      0.00     19.23      68.5     0.35      1014.3     0.4     SSE   162   1.4      SE   142   9.45    268      -67.0
   05/18/2019 03:40      49.7      48.8       78     42.8      0.00     19.23      68.5     0.35      1014.3     0.8       S   179   2.4       S   180   9.45    266      -67.0
   05/18/2019 03:30      50.5      49.4       77     42.9      0.00     19.23      68.5     0.35      1014.3     0.4      SE   125   1.8     SSW   210   9.45    266      -67.1
   05/18/2019 03:20      51.3      50.3       75     43.1      0.00     19.23      68.6     0.35      1014.4     0.6       S   181   2.1     SSW   210   9.45    268      -67.6
   05/18/2019 03:10      51.3      50.3       76     43.5      0.00     19.23      68.6     0.35      1014.4     1.3     WSW   238   3.0      SW   218   9.45    270      -67.4
   05/18/2019 03:00      51.0      50.4       77     43.6      0.00     19.23      68.7     0.35      1014.4     0.7      SW   217   2.1     SSW   206   9.45    268      -67.2
   05/18/2019 02:50      51.5      50.8       76     43.8      0.00     19.23      68.7     0.35      1014.3     1.0       S   174   2.1     SSW   203   9.45    266      -67.0
   05/18/2019 02:40      51.6      51.0       75     43.7      0.00     19.23      68.7     0.35      1014.3     0.8     SSE   160   1.4     SSE   150   9.45    267      -66.7
   05/18/2019 02:30      51.5      50.3       75     43.2      0.00     19.23      68.7     0.35      1014.3     0.5     SSE   167   1.3       S   180   9.45    269      -66.4
   05/18/2019 02:20      51.0      50.2       73     42.1      0.00     19.23      68.8     0.35      1014.5     0.8     SSE   151   2.1      SE   138   9.45    270      -67.3
   05/18/2019 02:10      51.1      50.7       71     41.7      0.00     19.23      68.8     0.35      1014.7     0.7      SW   214   1.9     WSW   250   9.45    269      -66.7
   05/18/2019 02:00      52.1      50.8       68     41.1      0.00     19.23      68.8     0.35      1014.8     1.1       S   181   2.7     SSW   204   9.45    270      -66.0
   05/18/2019 01:50      52.2      51.8       64     40.2      0.00     19.23      68.8     0.35      1014.9     0.6     SSW   200   1.9      SW   215   9.45    269      -65.9
   05/18/2019 01:40      51.9      51.1       63     39.4      0.00     19.23      68.8     0.35      1015.0     0.5     SSW   195   1.8     SSW   193   9.45    269      -65.6
   05/18/2019 01:30      51.3      50.5       67     40.0      0.00     19.23      68.8     0.35      1015.1     0.5      SW   227   1.5      SW   225   9.45    269      -66.1
   05/18/2019 01:20      50.8      50.4       67     40.2      0.00     19.23      68.9     0.35      1015.1     0.6      SE   145   1.4      SE   142   9.45    269      -66.7
   05/18/2019 01:10      51.1      50.2       67     40.1      0.00     19.23      68.9     0.35      1015.1     0.8     SSE   153   1.9      SE   142   9.46    269      -67.1
   05/18/2019 01:00      51.6      50.8       65     39.7      0.00     19.23      68.9     0.35      1015.2     0.8      SE   145   1.9      SE   134   9.46    269      -67.8
   05/18/2019 00:50      52.1      51.3       63     39.6      0.00     19.23      69.0     0.35      1015.2     0.9     SSW   193   1.9     SSW   202   9.46    268      -67.4
   05/18/2019 00:40      53.2      51.6       63     39.9      0.00     19.23      69.0     0.35      1015.2     0.5     SSE   151   1.6      SE   129   9.46    268      -68.2
   05/18/2019 00:30      53.7      52.9       58     38.9      0.00     19.23      69.0     0.35      1015.1     0.6     SSE   166   1.6     SSW   198   9.46    268      -66.7
   05/18/2019 00:20      53.8      53.3       58     39.0      0.00     19.23      69.0     0.35      1015.2     0.1     SSE   169   1.4       S   176   9.46    268      -67.7
   05/18/2019 00:10      54.0      53.0       59     39.6      0.00     19.23      69.0     0.35      1015.3     0.8       S   189   2.0      SW   227   9.46    268      -68.2
   05/18/2019 00:00      54.0      53.6       60     40.3      0.00     19.23      69.0     0.35      1015.3     1.7     SSW   203   2.8      SW   225   9.46    268      -67.9
   05/17/2019 23:50      53.7      53.0       65     41.8      0.00     19.23      69.1     0.35      1015.3     0.7       S   184   2.2     SSW   200   9.46    268      -69.1
   05/17/2019 23:40      54.9      53.1       64     41.7      0.00     19.23      69.1     0.35      1015.3     0.7      SE   140   2.8       S   177   9.46    268      -70.6
   05/17/2019 23:30      55.4      54.6       61     41.5      0.00     19.23      69.1     0.35      1015.3     1.0       S   187   3.2       S   189   9.47    268      -69.7
   05/17/2019 23:20      56.4      55.2       59     41.8      0.00     19.23      69.1     0.35      1015.3     0.3       S   178   1.7     SSE   167   9.47    268      -70.8
   05/17/2019 23:10      56.4      55.9       59     42.0      0.00     19.23      69.1     0.35      1015.3     1.6      SW   231   2.8      SW   218   9.47    268      -70.3
   05/17/2019 23:00      56.0      55.5       63     43.2      0.00     19.23      69.1     0.35      1015.3     1.3     SSW   193   2.2       S   184   9.47    268      -70.3
   05/17/2019 22:50      55.7      55.2       65     43.9      0.00     19.23      69.1     0.35      1015.3     0.6       S   176   1.7       S   181   9.47    268      -71.8
   05/17/2019 22:40      55.4      54.7       66     43.9      0.00     19.23      69.1     0.35      1015.3     1.3     SSE   162   2.4       S   174   9.47    268      -72.0
   05/17/2019 22:30      55.7      54.7       66     43.7      0.00     19.23      69.1     0.35      1015.4     1.1     SSE   147   2.5     SSE   150   9.47    268      -72.5
   05/17/2019 22:20      55.8      55.3       63     43.3      0.00     19.23      69.1     0.35      1015.4     1.1       S   190   2.4     SSW   196   9.47    268      -70.9
   05/17/2019 22:10      56.6      55.5       61     42.8      0.00     19.23      69.1     0.35      1015.4     0.6     SSE   162   2.3     SSW   195   9.47    268      -71.2
   05/17/2019 22:00      57.0      56.3       59     42.4      0.00     19.23      69.1     0.35      1015.4     1.2     SSW   200   2.1     SSW   194   9.47    268      -70.7
   05/17/2019 21:50      56.9      56.3       59     42.2      0.00     19.23      69.1     0.35      1015.4     0.8     SSW   194   1.5      SE   144   9.48    268      -72.2
   05/17/2019 21:40      58.3      56.6       56     41.8      0.00     19.23      69.1     0.35      1015.4     0.4     SSE   165   1.0     SSE   164   9.48    267      -73.1
   05/17/2019 21:30      60.7      57.9       52     41.6      0.00     19.23      69.1     0.35      1015.3     0.7      SE   141   1.7       E    88   9.48    267      -74.8
   05/17/2019 21:20      61.5      60.5       48     41.1      0.00     19.23      69.1     0.35      1015.3     0.7     WSW   250   1.6     WSW   239   9.48    266      -77.4
   05/17/2019 21:10      62.4      61.4       45     40.5      0.00     19.23      69.1     0.35      1015.4     1.5     WSW   259   3.2      NW   305   9.48    266      -80.1
   05/17/2019 21:00      62.8      62.1       44     40.2      0.00     19.23      69.0     0.35      1015.3     1.5     WNW   291   3.3      NW   311   9.48    266      -80.9
   05/17/2019 20:50      63.3      62.5       43     40.2      0.00     19.23      69.0     0.35      1015.2     0.9      NW   320   2.5     WNW   289   9.49    266      -81.5
   05/17/2019 20:40      63.6      62.9       43     40.0      0.00     19.23      69.0     0.35      1015.0     1.7     WNW   292   4.8       W   267   9.49    266      -82.1
   05/17/2019 20:30      63.8      63.2       42     40.2      0.00     19.23      69.0     0.35      1014.9     1.5     WNW   293   3.2       W   263   9.49    266      -82.7
   05/17/2019 20:20      64.0      63.4       43     40.5      0.00     19.23      69.0     0.35      1014.8     1.9     WNW   282   4.0      NW   323   9.49    266      -83.7
   05/17/2019 20:10      64.3      63.7       41     40.0      0.00     19.23      69.0     0.35      1014.8     2.5     WNW   285   4.4     WNW   299   9.49    266      -84.2
   05/17/2019 20:00      64.3      63.6       41     39.9      0.00     19.23      69.0     0.35      1014.8     3.6       W   272   7.7     WNW   296   9.49    266      -83.2
   05/17/2019 19:50      64.6      63.7       43     41.1      0.00     19.23      68.9     0.35      1014.8     2.9      SW   231   6.6      SW   225   9.50    266      -80.3
   05/17/2019 19:40      64.9      64.3       43     41.5      0.00     19.23      68.9     0.35      1014.8     3.7      SW   236   6.8     SSW   204   9.50    266      -75.3
   05/17/2019 19:30      65.8      64.7       43     41.8      0.00     19.23      68.9     0.35      1014.7     3.4      SW   233   6.1     WSW   237   9.50    266      -70.8
   05/17/2019 19:20      66.6      65.7       40     41.3      0.00     19.23      68.8     0.35      1014.7     3.3       W   281   8.1       W   275   9.51    266      -56.8
   05/17/2019 19:10      66.7      66.2       41     41.9      0.00     19.23      68.8     0.35      1014.6     3.0       W   278   5.9      SW   236   9.51    266      -38.3
   05/17/2019 19:00      67.1      66.3       40     41.7      0.00     19.23      68.8     0.35      1014.5     3.5       W   259   6.7     WSW   252   9.51    266      -19.0
   05/17/2019 18:50      67.3      66.8       39     41.6      0.00     19.23      68.8     0.35      1014.6     2.8     WNW   294   6.1       N   350   9.51    266        1.2
   05/17/2019 18:40      67.5      67.0       39     41.4      0.00     19.23      68.7     0.35      1014.6     3.0     WNW   282   6.8       W   268   9.52    266       27.9
   05/17/2019 18:30      67.6      67.1       39     41.6      0.00     19.23      68.7     0.35      1014.6     2.9     WNW   298   6.5      NW   311   9.52    266       53.2
   05/17/2019 18:20      67.8      67.2       39     41.7      0.00     19.23      68.6     0.35      1014.6     4.5     WNW   289   8.1     WSW   255   9.53    266       80.4
   05/17/2019 18:10      68.1      67.3       39     42.0      0.00     19.23      68.6     0.35      1014.6     4.1     WNW   302   9.3     NNE    17   9.53    266      105.9
   05/17/2019 18:00      68.5      67.4       39     42.3      0.00     19.23      68.5     0.35      1014.7     5.4       W   272   9.7       W   278   9.53    266      132.2
   05/17/2019 17:50      68.7      67.8       39     42.7      0.00     19.23      68.5     0.35      1014.7     4.7       W   273  10.9       W   280   9.54    266      158.6
   05/17/2019 17:40      68.4      67.7       40     42.6      0.00     19.23      68.5     0.35      1014.6     5.4       W   269   9.1     WSW   240   9.54    266      186.4
   05/17/2019 17:30      68.5      67.9       39     42.4      0.00     19.23      68.4     0.35      1014.6     5.3       W   263   9.6     WSW   257   9.54    266      211.8
   05/17/2019 17:20      68.6      67.7       40     42.9      0.00     19.23      68.4     0.35      1014.7     5.3     WSW   249   9.9     WSW   248   9.55    266      240.0
   05/17/2019 17:10      68.8      68.1       40     43.0      0.00     19.23      68.3     0.35      1014.8     5.4     WSW   258   9.0       W   277   9.55    266      266.3
   05/17/2019 17:00      69.1      68.2       40     43.2      0.00     19.23      68.3     0.35      1015.0     5.4     WSW   252  11.4       W   265   9.55    266      292.3
   05/17/2019 16:50      69.0      68.1       40     43.2      0.00     19.23      68.3     0.35      1015.1     6.3       W   272  11.8       W   268   9.56    265      316.6
   05/17/2019 16:40      68.6      67.7       40     43.1      0.00     19.23      68.2     0.35      1015.2     7.8       W   261  12.7       W   260   9.56    266      344.2
   05/17/2019 16:30      69.1      68.2       41     43.6      0.00     19.23      68.1     0.35      1015.3     7.4     WSW   240  11.7       W   279   9.56    266      368.6
   05/17/2019 16:20      70.1      68.8       39     43.4      0.00     19.23      68.0     0.35      1015.1     8.0     WSW   247  12.9     SSW   207   9.57    266      390.8
   05/17/2019 16:10      71.1      69.8       38     43.7      0.00     19.23      68.0     0.35      1014.9     6.7     WSW   239  10.6       W   263   9.57    266      412.5
   05/17/2019 16:00      71.2      70.2       39     44.3      0.00     19.23      68.0     0.34      1014.9     5.9     WSW   244   9.9       W   268   9.58    265      437.6
   05/17/2019 15:50      71.2      70.1       40     44.9      0.00     19.23      67.9     0.34      1014.9     4.7     WSW   242  12.0      SW   219   9.58    266      465.8
   05/17/2019 15:40      70.5      69.9       40     44.9      0.00     19.23      67.8     0.34      1014.9     5.7      SW   233   9.6     WSW   257   9.58    266      477.9
   05/17/2019 15:30      71.2      69.3       41     45.1      0.00     19.23      67.8     0.34      1014.9     5.2      SW   236  10.8      SW   214   9.59    266      505.0
   05/17/2019 15:20      70.4      69.1       41     45.1      0.00     19.23      67.7     0.34      1015.0     6.2      SW   233  11.3     WSW   238   9.59    265      537.2
   05/17/2019 15:10      69.7      69.0       41     44.9      0.00     19.23      67.6     0.34      1015.0     5.9     WSW   243  11.8       W   281   9.59    265      448.8
   05/17/2019 15:00      71.0      69.0       41     45.3      0.00     19.23      67.6     0.34      1015.1     5.5     SSW   206  10.4     SSE   168   9.60    265      550.5
   05/17/2019 14:50      70.9      69.7       41     45.3      0.00     19.23      67.5     0.34      1015.2     5.7     WSW   249  12.8      SW   222   9.60    265      582.8
   05/17/2019 14:40      71.4      70.5       38     43.8      0.00     19.23      67.4     0.34      1015.3     5.2       W   268  10.9     WNW   301   9.60    264      590.2
   05/17/2019 14:30      71.8      70.2       36     43.1      0.00     19.23      67.4     0.34      1015.4     4.2     WNW   289  11.1     WNW   296   9.60    264      605.6
   05/17/2019 14:20      71.9      69.9       37     42.8      0.00     19.23      67.3     0.34      1015.4     3.2     WSW   258   7.8       W   280   9.60    265      310.3
   05/17/2019 14:10      72.4      70.0       32     39.6      0.00     19.23      67.2     0.34      1015.5     2.2     ENE    58   5.5     SSW   203   9.61    264      536.8
   05/17/2019 14:00      71.4      69.5       32     39.4      0.00     19.23      67.2     0.34      1015.7     3.4       S   188   6.9     SSW   213   9.61    264      616.7
   05/17/2019 13:50      71.4      69.7       32     38.8      0.00     19.23      67.1     0.34      1015.8     3.6      NW   324   8.4     WSW   247   9.61    264      622.2
   05/17/2019 13:40      71.3      70.1       31     39.0      0.00     19.23      67.0     0.34      1016.0     3.1     WNW   286   6.4     SSW   213   9.61    263      628.5
   05/17/2019 13:30      70.9      69.2       32     38.9      0.00     19.23      67.0     0.34      1016.1     3.4     WNW   297   8.2       W   280   9.62    263      637.0
   05/17/2019 13:20      70.5      68.2       32     38.5      0.00     19.23      67.0     0.34      1016.1     3.7      SW   221   6.9       S   185   9.62    264      640.0
   05/17/2019 13:10      70.8      69.0       31     38.2      0.00     19.23      67.0     0.34      1016.2     2.1       N    10   6.0       N   350   9.62    263      640.7
   05/17/2019 13:00      69.5      67.5       33     38.1      0.00     19.23      66.9     0.34      1016.3     2.8       W   263   7.6       W   281   9.62    263      644.6
   05/17/2019 12:50      68.8      67.3       33     38.1      0.00     19.23      66.9     0.34      1016.4     3.8       W   279   6.9      NW   306   9.62    263      644.7
   05/17/2019 12:40      68.0      67.4       33     37.8      0.00     19.23      66.8     0.34      1016.6     2.1     ENE    74   5.2     NNW   347   9.62    263      655.1
   05/17/2019 12:30      69.4      67.6       33     38.0      0.00     19.23      66.8     0.34      1016.6     3.1     WSW   242   7.5      SW   233   9.62    263      646.0
   05/17/2019 12:20      69.5      67.0       33     38.4      0.00     19.23      66.8     0.34      1016.6     1.9     NNW   329   6.1     NNW   347   9.63    263      634.5
   05/17/2019 12:10      67.9      66.4       34     37.7      0.00     19.23      66.8     0.34      1016.7     2.2      SW   229   6.9     WSW   238   9.63    263      593.1
   05/17/2019 12:00      68.0      66.1       33     37.2      0.00     19.23      66.8     0.34      1016.9     2.2     NNW   341   7.1       N    10   9.63    263      577.6
   05/17/2019 11:50      67.8      66.8       34     38.2      0.00     19.23      66.8     0.34      1016.7     2.1     NNW   337   5.4       N   355   9.63    263      595.7
   05/17/2019 11:40      67.4      66.4       34     37.7      0.00     19.23      66.8     0.34      1016.7     2.5       N   356   6.8     NNW   338   9.63    263      606.5
   05/17/2019 11:30      67.1      66.1       35     37.9      0.00     19.23      66.8     0.34      1016.7     2.3      NW   320   6.4      NW   306   9.63    263      585.0
   05/17/2019 11:20      66.4      65.5       35     37.8      0.00     19.23      66.8     0.34      1016.8     3.0      NW   317   6.5     WNW   282   9.63    263      599.5
   05/17/2019 11:10      66.5      65.2       35     37.4      0.00     19.23      66.8     0.34      1016.8     3.0       N     1   6.9      NE    41   9.63    264      564.4
   05/17/2019 11:00      65.7      64.4       36     37.1      0.00     19.23      66.8     0.34      1016.9     2.2     NNE    13   6.5     ENE    66   9.63    263      582.7
   05/17/2019 10:50      65.2      64.7       37     38.1      0.00     19.23      66.8     0.34      1016.9     4.0     NNW   330   7.9       N     1   9.64    263      559.0
   05/17/2019 10:40      65.5      64.4       37     38.1      0.00     19.23      66.8     0.34      1016.8     3.0      NW   322   8.1       W   265   9.64    264      543.2
   05/17/2019 10:30      65.0      63.2       38     38.1      0.00     19.23      66.9     0.34      1016.8     2.7       N     3   7.4     WNW   297   9.64    264      531.2
   05/17/2019 10:20      63.7      63.0       38     37.4      0.00     19.23      66.9     0.34      1016.9     3.4       N   351   9.7       N   355   9.64    264      515.8
   05/17/2019 10:10      63.6      62.9       38     37.4      0.00     19.23      66.9     0.34      1016.8     4.2       N     5   7.5       N     4   9.64    264      498.1
   05/17/2019 10:00      63.0      62.2       39     37.6      0.00     19.23      67.0     0.34      1016.7     3.8       N   359   7.4      NW   319   9.64    264      477.0
   05/17/2019 09:50      62.7      62.1       40     37.6      0.00     19.23      67.0     0.34      1016.7     3.6      NE    36   7.8       N     3   9.64    264      456.2
   05/17/2019 09:40      62.6      61.8       41     38.1      0.00     19.23      67.0     0.34      1016.8     3.8     NNE    12   7.8       N   355   9.64    265      435.9
   05/17/2019 09:30      62.0      61.2       42     38.0      0.00     19.23      67.1     0.34      1016.8     4.4       N     7   8.5       N   350   9.64    265      419.1
   05/17/2019 09:20      61.8      60.9       42     38.3      0.00     19.23      67.1     0.34      1016.9     3.8       N   357   8.5     NNE    27   9.64    266      398.3
   05/17/2019 09:10      61.2      60.0       44     38.3      0.00     19.23      67.2     0.34      1016.9     3.8     NNE    25   6.4      NE    53   9.64    265      379.2
   05/17/2019 09:00      60.6      59.9       44     38.1      0.00     19.23      67.2     0.34      1017.0     4.0       N   356   9.3      NE    38   9.64    266      362.4
   05/17/2019 08:50      60.5      59.4       45     38.6      0.00     19.23      67.2     0.35      1016.9     2.8     NNE    12   6.6     NNE    21   9.64    266      353.3
   05/17/2019 08:40      59.5      58.4       47     39.1      0.00     19.23      67.3     0.35      1016.9     2.8       N   354   6.0      NW   319   9.64    266      166.7
   05/17/2019 08:30      58.6      57.5       49     39.0      0.00     19.23      67.3     0.35      1016.9     2.2       N   357   4.7      NE    35   9.64    268      -17.1
   05/17/2019 08:20      57.8      57.0       51     39.4      0.00     19.23      67.4     0.35      1016.9     2.5     NNE    21   5.2     NNW   334   9.65    268      -20.8
   05/17/2019 08:10      57.3      56.5       54     40.5      0.00     19.23      67.4     0.35      1016.7     1.4     NNE    27   4.7      NE    53   9.65    269      -20.1
   05/17/2019 08:00      56.7      56.0       55     40.6      0.00     19.23      67.5     0.35      1016.7     1.0     NNW   342   4.6     NNW   330   9.65    269      -21.9
   05/17/2019 07:50      56.3      55.6       56     40.4      0.00     19.23      67.5     0.35      1016.6     1.1      NW   321   3.0      NW   309   9.65    268      -26.1
   05/17/2019 07:40      55.7      54.8       58     40.8      0.00     19.23      67.5     0.34      1016.6     0.4     ESE   110   1.9       E    88   9.65    269      -26.1
   05/17/2019 07:30      54.9      53.6       60     40.5      0.00     19.23      67.5     0.34      1016.6     0.0     WNW   284   0.6     WNW   284   9.65    270      -19.0
   05/17/2019 07:20      53.7      52.1       70     43.4      0.00     19.23      67.6     0.34      1016.4     0.2       S   180   0.7      SW   228   9.65    272        0.5
   05/17/2019 07:10      52.4      50.8       79     45.2      0.00     19.23      67.6     0.34      1016.3     0.0     ENE    58   0.5     ENE    58   9.65    285        3.4
   05/17/2019 07:00      51.0      49.3       80     44.3      0.00     19.23      67.7     0.34      1016.3     0.6     ESE   101   1.3      SE   132   9.65    291       -0.8
   05/17/2019 06:50      49.6      48.2       83     43.8      0.00     19.23      67.7     0.34      1016.3     0.4     SSE   155   1.2       S   177   9.65    301       -9.7
   05/17/2019 06:40      48.4      47.6       84     43.3      0.00     19.23      67.8     0.34      1016.3     0.7      SE   129   1.4      SE   138   9.65    303      -13.7
   05/17/2019 06:30      47.7      46.9       85     43.0      0.00     19.23      67.8     0.35      1016.3     0.8      SE   139   2.6       S   180   9.65    307      -22.0
   05/17/2019 06:20      47.2      46.7       85     42.7      0.00     19.23      67.8     0.35      1016.2     0.1       S   178   1.0       S   190   9.65    311      -29.3
   05/17/2019 06:10      46.9      46.3       86     42.7      0.00     19.23      67.9     0.35      1016.0     0.3      SE   142   1.8     SSE   167   9.65    315      -32.8
   05/17/2019 06:00      46.8      46.2       87     42.7      0.00     19.23      67.9     0.35      1015.8     0.6     SSE   163   1.7     SSE   167   9.66    314      -37.0
   05/17/2019 05:50      46.6      45.8       87     42.6      0.00     19.23      68.0     0.35      1015.6     0.6     SSE   168   1.3     NNW   330   9.66    311      -42.6
   05/17/2019 05:40      46.2      45.8       86     42.0      0.00     19.23      68.0     0.35      1015.5     0.6      SE   130   1.6     SSE   148   9.66    309      -48.4
   05/17/2019 05:30      46.5      46.0       86     42.1      0.00     19.23      68.0     0.35      1015.4     0.8       S   170   2.0      SW   224   9.66    304      -50.4
   05/17/2019 05:20      46.7      46.1       85     42.3      0.00     19.23      68.1     0.35      1015.2     0.5       S   180   1.2       S   184   9.66    301      -52.2
   05/17/2019 05:10      47.1      46.4       85     42.2      0.00     19.23      68.1     0.35      1015.2     0.7      SE   138   1.6      SE   130   9.66    298      -55.8
   05/17/2019 05:00      47.6      46.8       84     42.4      0.00     19.23      68.1     0.35      1015.1     0.5       S   184   2.0     SSW   200   9.66    295      -57.7
   05/17/2019 04:50      47.8      47.0       84     42.6      0.00     19.23      68.1     0.35      1015.1     0.4     SSW   197   1.9     SSW   213   9.66    291      -58.7
   05/17/2019 04:40      47.8      47.1       85     43.0      0.00     19.23      68.2     0.35      1015.2     0.8     SSW   212   1.6     SSW   198   9.66    288      -59.5
   05/17/2019 04:30      48.1      47.0       84     42.7      0.00     19.23      68.2     0.35      1015.2     0.5     SSW   202   1.3       E    97   9.66    285      -63.6
   05/17/2019 04:20      48.4      47.6       83     43.0      0.00     19.23      68.2     0.35      1015.2     0.6      SE   126   1.6     ENE    77   9.66    282      -65.2
   05/17/2019 04:10      48.5      48.1       83     43.3      0.00     19.23      68.3     0.35      1015.4     0.9     SSW   199   1.6     SSW   212   9.66    274      -65.3
   05/17/2019 04:00      50.0      48.3       80     42.9      0.00     19.23      68.3     0.35      1015.4     0.2     SSE   158   0.9       S   186   9.66    269      -67.2
   05/17/2019 03:50      50.7      49.8       77     43.2      0.00     19.23      68.3     0.35      1015.4     0.5       S   177   1.6     SSW   197   9.66    270      -68.5
   05/17/2019 03:40      51.0      50.3       76     43.4      0.00     19.23      68.4     0.35      1015.6     0.6      SW   214   1.7       S   186   9.67    271      -68.5
   05/17/2019 03:30      50.9      50.5       77     43.6      0.00     19.23      68.4     0.35      1015.6     1.1     SSW   212   3.6     SSW   213   9.67    271      -68.9
   05/17/2019 03:20      51.0      50.5       77     43.7      0.00     19.23      68.4     0.35      1015.6     1.1     SSW   212   3.8     SSW   209   9.67    271      -68.3
   05/17/2019 03:10      51.1      50.7       77     43.9      0.00     19.23      68.4     0.35      1015.4     1.1     WSW   256   2.9     WSW   250   9.67    271      -68.9
   05/17/2019 03:00      51.1      50.8       77     43.9      0.00     19.23      68.5     0.35      1015.3     0.6      SW   221   2.0      SW   221   9.67    271      -68.7
   05/17/2019 02:50      51.6      50.8       76     43.9      0.00     19.23      68.5     0.35      1015.3     0.8     SSW   208   2.7     SSW   205   9.67    271      -69.5
   05/17/2019 02:40      51.9      51.3       76     44.2      0.00     19.23      68.5     0.35      1015.4     1.4     WSW   237   3.2       W   261   9.67    271      -70.2
   05/17/2019 02:30      51.8      50.8       77     44.4      0.00     19.23      68.6     0.35      1015.4     1.9     WSW   249   4.1     WSW   246   9.67    270      -69.7
   05/17/2019 02:20      51.0      50.4       79     44.3      0.00     19.23      68.6     0.35      1015.5     1.1     WSW   237   3.6       W   262   9.67    271      -68.0
   05/17/2019 02:10      51.0      50.3       80     44.6      0.00     19.23      68.6     0.35      1015.5     0.8     NNW   335   2.1       W   271   9.67    271      -67.9
   05/17/2019 02:00      50.7      50.3       80     44.5      0.00     19.23      68.7     0.35      1015.5     0.3      NE    43   1.3      NE    47   9.68    269      -68.0
   05/17/2019 01:50      51.0      50.2       79     44.4      0.00     19.23      68.7     0.35      1015.5     0.2     ESE   111   1.1     ESE   117   9.68    268      -67.6
   05/17/2019 01:40      51.6      50.7       78     44.5      0.00     19.23      68.8     0.35      1015.5     0.4       E    83   1.4       E    79   9.68    271      -68.4
   05/17/2019 01:30      51.5      50.8       78     44.7      0.00     19.23      68.7     0.35      1015.4     1.6       S   179   2.8     SSW   200   9.68    270      -68.0
   05/17/2019 01:20      51.2      50.7       79     44.6      0.00     19.23      68.8     0.35      1015.4     0.4     WSW   245   2.5      SW   227   9.68    270      -67.0
   05/17/2019 01:10      51.7      50.9       78     44.7      0.00     19.23      68.8     0.35      1015.4     0.5      NE    53   1.7     SSW   201   9.68    270      -67.3
   05/17/2019 01:00      52.0      51.3       78     44.7      0.00     19.23      68.8     0.35      1015.4     0.5       S   170   1.7       S   171   9.68    270      -67.3
   05/17/2019 00:50      52.5      51.6       76     44.7      0.00     19.23      68.8     0.35      1015.4     0.3      SE   134   1.6      SE   145   9.68    270      -69.3
   05/17/2019 00:40      52.5      52.1       76     44.8      0.00     19.23      68.9     0.35      1015.5     1.3       S   177   3.0     SSE   166   9.68    270      -69.4
   05/17/2019 00:30      52.7      52.1       75     44.8      0.00     19.23      68.9     0.35      1015.4     1.0       S   169   2.7       S   186   9.69    270      -69.7
   05/17/2019 00:20      52.9      52.2       75     44.8      0.00     19.23      68.9     0.35      1015.4     0.8       S   180   2.4     SSW   204   9.69    270      -69.3
   05/17/2019 00:10      52.9      52.2       75     44.8      0.00     19.23      68.9     0.35      1015.4     1.1       S   185   2.3     SSW   195   9.69    270      -69.6
   05/17/2019 00:00      53.2      52.5       74     44.8      0.00     19.23      69.0     0.35      1015.4     1.0     SSE   167   2.3     SSE   167   9.69    270      -70.2
   05/16/2019 23:50      53.7      52.7       73     44.7      0.00     19.23      69.0     0.35      1015.4     1.1     SSE   165   2.5       S   184   9.69    270      -71.5
   05/16/2019 23:40      53.8      53.4       72     44.8      0.00     19.23      69.0     0.35      1015.4     2.0     SSW   194   3.9       S   174   9.69    269      -72.6
   05/16/2019 23:30      54.1      53.5       71     44.7      0.00     19.23      69.0     0.35      1015.3     2.3     SSW   198   4.3     SSW   206   9.70    270      -72.5
   05/16/2019 23:20      54.0      53.6       72     44.8      0.00     19.23      69.1     0.35      1015.3     2.3     SSW   210   4.8      SW   230   9.69    269      -71.8
   05/16/2019 23:10      53.9      53.5       72     44.8      0.00     19.23      69.1     0.35      1015.3     1.9     SSW   195   3.3      SW   223   9.70    269      -70.5
   05/16/2019 23:00      54.0      53.5       72     44.7      0.00     19.23      69.1     0.35      1015.3     1.4       S   187   3.3      SW   219   9.70    270      -69.4
   05/16/2019 22:50      54.4      53.6       71     44.6      0.00     19.23      69.1     0.35      1015.3     1.2       S   178   2.4       S   173   9.70    269      -70.3
   05/16/2019 22:40      54.6      54.1       69     44.6      0.00     19.23      69.1     0.35      1015.3     1.7     SSW   207   4.0     SSW   207   9.70    269      -71.5
   05/16/2019 22:30      54.8      54.1       69     44.6      0.00     19.23      69.1     0.35      1015.3     1.8     SSW   212   3.8      SW   230   9.70    269      -71.7
   05/16/2019 22:20      54.9      54.3       69     44.6      0.00     19.23      69.1     0.35      1015.3     1.9     SSW   211   3.3      SW   220   9.70    269      -71.9
   05/16/2019 22:10      54.9      54.4       69     44.6      0.00     19.23      69.2     0.35      1015.3     1.6     SSW   194   3.2     SSW   206   9.70    269      -72.7
   05/16/2019 22:00      55.3      54.6       68     44.5      0.00     19.23      69.2     0.35      1015.1     1.8     SSW   205   3.8     WSW   237   9.70    269      -73.4
   05/16/2019 21:50      55.4      55.0       67     44.5      0.00     19.23      69.2     0.35      1015.0     2.1      SW   226   4.4     WSW   238   9.70    268      -74.0
   05/16/2019 21:40      55.8      55.2       66     44.3      0.00     19.23      69.2     0.35      1014.8     3.0      SW   225   6.0     WSW   258   9.70    268      -73.7
   05/16/2019 21:30      55.9      55.4       66     44.3      0.00     19.23      69.2     0.35      1014.8     2.7      SW   215   4.3      SW   235   9.71    268      -74.3
   05/16/2019 21:20      56.3      55.6       65     44.3      0.00     19.23      69.2     0.35      1014.6     2.9      SW   221   6.3     SSW   193   9.71    268      -74.9
   05/16/2019 21:10      56.6      55.9       64     44.2      0.00     19.23      69.2     0.35      1014.5     4.4      SW   231   7.0     WSW   242   9.71    268      -75.1
   05/16/2019 21:00      56.8      56.1       64     44.3      0.00     19.23      69.2     0.35      1014.3     5.6     WSW   238   9.9     WSW   244   9.71    268      -75.5
   05/16/2019 20:50      56.8      56.3       64     44.4      0.00     19.23      69.2     0.35      1014.3     5.1     WSW   244   9.7      SW   221   9.71    268      -75.9
   05/16/2019 20:40      57.2      56.4       63     44.3      0.00     19.23      69.2     0.35      1014.2     5.0      SW   232  10.4     SSW   214   9.71    268      -76.5
   05/16/2019 20:30      57.5      56.9       62     44.3      0.00     19.23      69.2     0.35      1014.1     4.9      SW   233   9.1     WSW   246   9.71    268      -77.2
   05/16/2019 20:20      57.7      57.1       62     44.3      0.00     19.23      69.2     0.35      1014.0     5.6     WSW   237  11.3      SW   235   9.71    268      -77.7
   05/16/2019 20:10      58.2      57.4       61     44.5      0.00     19.23      69.2     0.35      1014.0     5.5      SW   234   7.8      SW   230   9.72    268      -77.7
   05/16/2019 20:00      58.7      57.9       60     44.4      0.00     19.23      69.2     0.35      1014.1     5.2     WSW   238   8.6     WSW   248   9.72    268      -76.6
   05/16/2019 19:50      59.1      58.2       59     44.4      0.00     19.23      69.2     0.35      1014.0     5.2     WSW   248   9.7     WSW   238   9.72    268      -73.6
   05/16/2019 19:40      59.1      58.6       59     44.5      0.00     19.23      69.1     0.35      1013.9     5.1     WSW   254   9.2     WSW   243   9.73    268      -68.9
   05/16/2019 19:30      59.8      58.7       59     44.8      0.00     19.23      69.2     0.35      1013.7     6.6      SW   231  11.7     WSW   242   9.73    268      -62.6
   05/16/2019 19:20      60.2      59.3       58     44.9      0.00     19.23      69.1     0.35      1013.6     5.7      SW   236  11.4      SW   229   9.73    268      -45.0
   05/16/2019 19:10      60.4      59.7       57     44.7      0.00     19.23      69.2     0.35      1013.6     6.8     WSW   246  11.0      SW   223   9.74    268      -29.8
   05/16/2019 19:00      61.8      60.2       55     44.6      0.00     19.23      69.1     0.35      1013.5     6.3     WSW   237  11.8      SW   233   9.74    267      -10.4
   05/16/2019 18:50      61.8      61.0       54     44.6      0.00     19.23      69.1     0.35      1013.3     4.0     WSW   254   9.0     WNW   297   9.74    267       13.9
   05/16/2019 18:40      61.5      61.1       53     44.2      0.00     19.23      69.1     0.35      1013.3     7.4       W   270  12.4     WNW   293   9.74    267       43.0
   05/16/2019 18:30      61.7      61.0       53     44.2      0.00     19.23      69.1     0.35      1013.2     6.2     WSW   238  10.6      SW   223   9.75    267       67.5
   05/16/2019 18:20      61.8      61.1       53     44.1      0.00     19.23      69.1     0.35      1013.1     6.5     WSW   242  13.7     WNW   288   9.75    267       92.6
   05/16/2019 18:10      62.2      61.3       53     44.2      0.00     19.23      69.1     0.35      1013.0     7.6      SW   236  15.7     WSW   250   9.76    267      119.0
   05/16/2019 18:00      63.2      61.8       52     44.6      0.00     19.23      69.0     0.35      1012.9     6.4      SW   225  13.7      SW   223   9.76    267      143.3
   05/16/2019 17:50      63.0      62.0       52     44.8      0.00     19.23      69.0     0.35      1012.9     5.8     WSW   257   9.6     WSW   249   9.76    267      168.8
   05/16/2019 17:40      62.7      62.0       52     44.8      0.00     19.23      69.0     0.35      1012.9     7.7     WSW   241  12.6       W   275   9.77    267      199.0
   05/16/2019 17:30      62.9      62.3       52     44.9      0.00     19.23      69.0     0.35      1012.9     7.9     WSW   254  13.9       W   268   9.77    267      227.9
   05/16/2019 17:20      63.9      62.5       52     45.3      0.00     19.23      68.9     0.35      1012.9     8.6     WSW   242  16.0      SW   235   9.78    267      254.8
   05/16/2019 17:10      64.0      63.1       52     45.5      0.00     19.23      68.9     0.35      1012.7     7.3     WSW   258  12.2       W   265   9.78    267      274.8
   05/16/2019 17:00      63.9      62.8       52     45.2      0.00     19.23      68.9     0.35      1012.7     7.7     WSW   244  13.9      SW   222   9.78    267      303.0
   05/16/2019 16:50      64.1      62.9       52     45.5      0.00     19.23      68.8     0.35      1012.7     7.8      SW   224  16.5     WSW   239   9.79    267      330.3
   05/16/2019 16:40      63.7      62.8       52     45.3      0.00     19.23      68.8     0.35      1012.8     7.5     WSW   247  12.0       W   266   9.79    267      354.8
   05/16/2019 16:30      63.6      62.8       52     45.4      0.00     19.23      68.8     0.35      1012.8     8.1      SW   227  15.2     WNW   292   9.80    267      379.3
   05/16/2019 16:20      64.6      63.0       51     45.5      0.00     19.23      68.7     0.35      1012.7     8.2      SW   226  14.0     WSW   258   9.81    267      374.2
   05/16/2019 16:10      64.9      63.5       50     45.4      0.00     19.23      68.7     0.35      1012.7     7.7     WSW   240  14.0      SW   221   9.81    267      326.3
   05/16/2019 16:00      65.2      64.5       50     45.6      0.00     19.23      68.6     0.35      1012.7     7.4      SW   233  13.2       W   263   9.81    267      450.3
   05/16/2019 15:50      65.6      64.3       49     45.3      0.00     19.23      68.6     0.35      1012.6     8.4      SW   225  12.9      SW   230   9.81    267      471.3
   05/16/2019 15:40      65.7      64.6       49     45.5      0.00     19.23      68.6     0.35      1012.6     6.9      SW   229  10.9     WSW   248   9.82    267      494.5
   05/16/2019 15:30      65.5      64.6       48     44.9      0.00     19.23      68.5     0.35      1012.6     8.6      SW   233  14.3      SW   231   9.82    267      504.4
   05/16/2019 15:20      66.6      65.2       48     45.2      0.00     19.23      68.5     0.35      1012.6     8.5     WSW   240  14.4     WSW   241   9.83    267      541.7
   05/16/2019 15:10      66.5      65.4       47     45.2      0.00     19.23      68.5     0.35      1012.6     7.0     WSW   258  12.9     WNW   303   9.83    267      521.6
   05/16/2019 15:00      65.7      64.4       50     45.8      0.00     19.23      68.4     0.35      1012.7     7.4     WSW   241  14.2      SW   234   9.83    267      573.9
   05/16/2019 14:50      65.8      64.9       50     46.1      0.00     19.23      68.4     0.35      1012.6     7.5     WSW   238  14.9     WNW   287   9.83    267      554.1
   05/16/2019 14:40      66.3      64.7       51     46.9      0.00     19.23      68.3     0.35      1012.7     6.9     WSW   240  11.7     WSW   244   9.84    267      643.0
   05/16/2019 14:30      66.3      63.9       51     46.9      0.00     19.23      68.3     0.35      1012.7     5.8     WSW   240  14.7      SW   222   9.84    267      580.7
   05/16/2019 14:20      65.4      64.0       51     46.0      0.01     19.23      68.3     0.35      1012.7     8.2     WSW   244  17.0     WSW   242   9.84    267      472.7
   05/16/2019 14:10      65.4      64.6       49     45.7      0.00     19.22      68.3     0.35      1012.8     8.1     WSW   247  14.1      SW   226   9.85    267      620.8
   05/16/2019 14:00      65.6      64.9       48     45.0      0.00     19.22      68.2     0.35      1012.8     7.7     WSW   248  12.8     WSW   251   9.85    267      639.9
   05/16/2019 13:50      65.2      64.2       51     45.9      0.00     19.22      68.2     0.35      1012.8     7.1     WSW   237  13.0     WSW   249   9.85    267      683.1
   05/16/2019 13:40      65.1      64.6       50     46.0      0.00     19.22      68.2     0.35      1012.7     7.8     WSW   248  14.0     WSW   259   9.85    267      662.1
   05/16/2019 13:30      65.5      64.6       52     47.1      0.00     19.22      68.1     0.35      1012.6     6.5     WSW   246  12.8      SW   230   9.86    267      557.3
   05/16/2019 13:20      65.1      64.3       51     46.4      0.00     19.22      68.1     0.35      1012.4     8.1      SW   232  12.6     WSW   249   9.86    267      679.8
   05/16/2019 13:10      65.0      63.9       53     47.1      0.00     19.22      68.1     0.35      1012.4     7.8      SW   234  13.3     WSW   253   9.86    267      683.9
   05/16/2019 13:00      65.0      64.0       52     46.4      0.00     19.22      68.1     0.35      1012.6     7.4     WSW   236  11.1      SW   220   9.86    267      688.3
   05/16/2019 12:50      65.1      64.5       52     46.7      0.00     19.22      68.1     0.35      1012.6     6.6     WSW   250  13.5     WSW   239   9.87    267      605.0
   05/16/2019 12:40      65.0      64.3       53     47.3      0.00     19.22      68.1     0.35      1012.6     7.4     WSW   244  14.5      SW   216   9.86    267      696.6
   05/16/2019 12:30      64.7      63.8       55     47.6      0.00     19.22      68.1     0.35      1012.7     7.8     WSW   240  13.6      SW   233   9.87    267      686.3
   05/16/2019 12:20      64.9      64.1       56     48.4      0.00     19.22      68.1     0.35      1012.6     7.2     WSW   245  13.6      SW   236   9.87    267      686.1
   05/16/2019 12:10      64.9      63.5       57     48.8      0.00     19.22      68.1     0.35      1012.4     8.1     WSW   244  14.5      SW   226   9.87    268      629.4
   05/16/2019 12:00      64.8      63.8       61     50.3      0.00     19.22      68.1     0.35      1012.3     5.5     WSW   250  10.6     WSW   238   9.87    267      681.8
   05/16/2019 11:50      64.1      62.8       62     50.3      0.00     19.22      68.1     0.35      1012.2     6.6     WSW   249  11.6     WSW   242   9.88    268      666.4
   05/16/2019 11:40      63.3      62.4       64     50.5      0.00     19.22      68.1     0.35      1012.1     6.4     WSW   254  10.2       W   259   9.88    268      661.0
   05/16/2019 11:30      62.7      61.3       69     51.4      0.00     19.22      68.1     0.35      1012.0     6.3      SW   234  10.7     WSW   237   9.88    268      664.9
   05/16/2019 11:20      61.6      60.0       73     52.4      0.00     19.22      68.2     0.35      1012.0     7.7     WSW   244  12.8      SW   224   9.88    268      720.5
   05/16/2019 11:10      62.8      60.0       72     52.3      0.00     19.22      68.2     0.35      1011.9     8.4     WSW   243  15.5     WNW   298   9.88    270      294.0
   05/16/2019 11:00      65.4      62.4       71     53.8      0.00     19.22      68.2     0.35      1011.7     5.9     WSW   246  10.3      SW   232   9.88    282      200.4
   05/16/2019 10:50      66.1      63.8       78     58.1      0.00     19.22      68.2     0.35      1011.4     1.7      NW   310   5.6       W   275   9.88    292      581.8
   05/16/2019 10:40      63.9      61.8       81     56.8      0.00     19.22      68.3     0.35      1011.3     1.1     SSW   198   2.8     NNW   333   9.88    304      764.1
   05/16/2019 10:30      61.8      59.9       86     56.4      0.00     19.22      68.3     0.35      1011.4     1.0     ESE   106   2.6       W   265   9.88    314      451.4
   05/16/2019 10:20      60.2      59.7       89     56.5      0.00     19.22      68.3     0.35      1011.7     1.7     WNW   284   3.5     WSW   240   9.88    322      116.4
   05/16/2019 10:10      59.9      59.3       90     56.5      0.00     19.22      68.3     0.35      1011.7     2.6       W   264   6.4     WSW   250   9.88    324      132.4
   05/16/2019 10:00      59.3      58.5       90     55.9      0.00     19.22      68.3     0.35      1011.7     2.5     ESE   102   5.4       E    86   9.88    344      177.8
   05/16/2019 09:50      59.3      58.4       91     56.2      0.00     19.22      68.3     0.35      1011.8     2.3       E    96   5.5       E    98   9.88    392      194.2
   05/16/2019 09:40      58.6      57.6       91     55.5      0.00     19.22      68.4     0.35      1011.8     2.5     ESE   102   4.9     ENE    66   9.88    307      172.9
   05/16/2019 09:30      58.2      57.5       91     55.2      0.00     19.22      68.4     0.35      1011.7     1.8       E    79   3.6       E    82   9.88    312       85.6
   05/16/2019 09:20      57.9      57.5       91     55.1      0.00     19.22      68.4     0.35      1011.6     1.8       E    82   5.5       E    83   9.88    317       77.6
   05/16/2019 09:10      58.2      57.5       91     55.4      0.00     19.22      68.4     0.35      1011.7     1.6     ENE    62   4.3      NE    55   9.88    313       98.1
   05/16/2019 09:00      58.1      57.4       92     55.2      0.00     19.22      68.5     0.35      1011.7     0.9       E    82   2.3       E    88   9.88    327      145.5
   05/16/2019 08:50      58.1      56.9       92     55.1      0.00     19.22      68.5     0.35      1011.8     1.0     ENE    58   2.7      NE    49   9.88    342      136.1
   05/16/2019 08:40      57.4      56.8       92     54.8      0.00     19.22      68.5     0.35      1011.8     1.2     ENE    60   3.4     ESE   111   9.88    353      107.3
   05/16/2019 08:30      56.9      56.2       92     54.2      0.01     19.22      68.5     0.35      1012.0     0.9      NE    56   2.1      NE    54   9.88    428       97.8
   05/16/2019 08:20      56.8      56.1       92     54.1      0.00     19.21      68.5     0.35      1012.0     1.9       E    88   5.1     ENE    75   9.87    453       70.0
   05/16/2019 08:10      56.8      56.0       93     54.3      0.01     19.21      68.5     0.35      1011.8     0.0     NNE    17   1.1      NE    34   9.87    449       65.3
   05/16/2019 08:00      56.4      55.8       93     53.9      0.01     19.20      68.6     0.35      1011.7     0.9       W   265   3.0       W   281   9.86    469       25.4
   05/16/2019 07:50      56.3      56.0       93     54.1      0.00     19.19      68.6     0.35      1011.5     0.1      NW   314   1.1     WNW   292   9.85    455       31.2
   05/16/2019 07:40      56.4      55.8       93     54.1      0.01     19.19      68.6     0.35      1011.4     0.5     ESE   119   4.5       S   173   9.85    446       29.5
   05/16/2019 07:30      56.2      55.6       93     54.0      0.00     19.18      68.6     0.35      1011.4     0.9      NE    51   3.2      NE    42   9.84    403       35.2
   05/16/2019 07:20      56.0      55.6       93     53.8      0.00     19.18      68.6     0.35      1011.3     0.9     NNE    29   2.9      NE    43   9.84    454       16.1
   05/16/2019 07:10      56.0      55.4       93     53.6      0.01     19.18      68.7     0.35      1011.4     0.9      NE    36   2.0     NNE    21   9.83    442       15.2
   05/16/2019 07:00      55.7      55.2       93     53.4      0.01     19.17      68.7     0.35      1011.5     0.7      NE    52   2.2     ENE    58   9.83    446        6.1
   05/16/2019 06:50      55.9      55.2       93     53.2      0.00     19.16      68.7     0.34      1011.4     0.8      NE    55   1.6     NNE    32   9.82    445        8.7
   05/16/2019 06:40      55.6      55.0       93     53.3      0.01     19.16      68.7     0.34      1011.4     0.1     ENE    61   1.6     ENE    60   9.82    416        7.2
   05/16/2019 06:30      55.4      55.0       93     53.1      0.00     19.15      68.8     0.34      1011.5     0.0     ENE    60   0.9     ENE    77   9.81    458        3.1
   05/16/2019 06:20      55.4      55.0       93     53.1      0.01     19.15      68.7     0.34      1011.4     0.0     ENE    68   0.8     ENE    68   9.81    448       -0.7
   05/16/2019 06:10      55.5      55.0       93     53.0      0.01     19.14      68.8     0.34      1011.4     0.3       E    92   1.8     ENE    65   9.80    476       -3.4
   05/16/2019 06:00      55.3      55.0       93     53.1      0.02     19.13      68.8     0.34      1011.3     0.5     ENE    67   1.8     ESE   111   9.79    483       -4.5
   05/16/2019 05:50      55.3      55.0       92     53.0      0.01     19.11      68.8     0.34      1011.3     0.6     ENE    76   2.7      NE    42   9.77    449       -4.6
   05/16/2019 05:40      55.4      54.9       92     52.9      0.02     19.10      68.8     0.34      1011.3     0.6     ENE    66   1.9       E    89   9.76    472       -5.1
   05/16/2019 05:30      55.4      54.9       92     52.9      0.01     19.08      68.8     0.34      1011.3     0.6     ENE    68   2.0       E    96   9.74    463       -5.2
   05/16/2019 05:20      55.4      54.9       92     52.9      0.02     19.07      68.9     0.34      1011.3     1.0     ENE    73   2.6       E   100   9.74    474       -5.3
   05/16/2019 05:10      55.5      54.9       92     52.8      0.00     19.05      68.9     0.34      1011.4     1.0     ENE    70   2.3     ENE    63   9.72    440       -5.4
   05/16/2019 05:00      55.5      55.0       92     52.9      0.01     19.05      68.9     0.34      1011.4     1.0     ENE    70   2.4      NE    53   9.72    468       -5.0
   05/16/2019 04:50      55.3      55.0       92     52.9      0.00     19.04      68.9     0.34      1011.4     1.2     ENE    65   2.9       E    88   9.71    440       -5.2
   05/16/2019 04:40      55.4      55.0       92     52.8      0.01     19.04      68.9     0.34      1011.5     1.3      NE    56   2.5      NE    46   9.71    417       -5.5
   05/16/2019 04:30      55.4      54.9       91     52.6      0.01     19.03      68.9     0.34      1011.7     1.5     ENE    69   4.5       E    83   9.70    386       -5.5
   05/16/2019 04:20      55.7      55.0       91     52.7      0.00     19.02      69.0     0.34      1011.7     1.6     ENE    76   3.7      SE   141   9.70    446       -5.3
   05/16/2019 04:10      55.6      55.1       90     52.5      0.01     19.02      69.0     0.34      1011.8     1.2       E    84   3.8     ENE    75   9.70    447       -5.6
   05/16/2019 04:00      55.7      55.3       90     52.6      0.00     19.01      69.0     0.34      1012.0     1.6     ENE    70   3.8     ENE    67   9.69    480       -5.5
   05/16/2019 03:50      55.6      55.1       89     52.1      0.00     19.01      69.0     0.34      1012.1     1.0       E    93   2.3       E    89   9.68    377       -6.1
   05/16/2019 03:40      55.8      55.1       88     51.8      0.00     19.01      69.0     0.34      1012.2     1.1       E    96   3.2     ESE   115   9.68    349       -6.2
   05/16/2019 03:30      56.3      55.4       86     51.5      0.00     19.01      69.1     0.34      1012.3     2.3       E    86   5.1       E    86   9.68    380       -6.5
   05/16/2019 03:20      57.3      56.0       81     50.8      0.00     19.01      69.1     0.34      1012.5     2.8     ESE   104   5.3     ESE   104   9.68    373       -9.4
   05/16/2019 03:10      57.2      56.9       78     50.1      0.00     19.01      69.1     0.34      1012.7     2.1     ESE   114   4.6     ESE   107   9.68    278      -12.2
   05/16/2019 03:00      57.1      56.8       78     50.2      0.00     19.01      69.1     0.34      1012.7     2.0       E    92   4.8       E    79   9.68    270      -12.5
   05/16/2019 02:50      57.1      56.8       78     50.2      0.00     19.01      69.2     0.34      1012.7     2.3     ESE   114   5.6      SE   141   9.69    270      -13.0
   05/16/2019 02:40      57.0      56.6       78     50.2      0.00     19.01      69.2     0.34      1012.9     2.0     ESE   124   5.1       E    99   9.69    270      -13.8
   05/16/2019 02:30      56.9      56.5       78     50.0      0.00     19.01      69.2     0.34      1013.0     2.4      SE   126   7.4      SE   132   9.69    270      -15.2
   05/16/2019 02:20      56.9      56.5       78     49.9      0.00     19.01      69.2     0.34      1013.1     2.3     ESE   112   4.3      SE   134   9.69    270      -16.3
   05/16/2019 02:10      57.0      56.5       77     49.5      0.00     19.01      69.2     0.34      1013.2     2.0     ESE   107   4.0     ENE    60   9.69    270      -16.8
   05/16/2019 02:00      57.0      56.6       76     49.5      0.00     19.01      69.2     0.34      1013.5     1.2     ESE   104   2.7       E    99   9.69    270      -17.0
   05/16/2019 01:50      57.1      56.6       76     49.1      0.00     19.01      69.3     0.34      1013.6     2.0     ESE   111   4.9     ESE   119   9.70    270      -16.4
   05/16/2019 01:40      56.9      56.4       75     48.9      0.00     19.01      69.3     0.34      1013.6     2.0     ESE   119   3.4     ESE   112   9.70    270      -23.4
   05/16/2019 01:30      56.9      56.6       75     48.7      0.00     19.01      69.3     0.34      1013.7     0.9       E    90   2.9       E   101   9.70    270      -28.3
   05/16/2019 01:20      56.9      56.5       75     48.7      0.00     19.01      69.3     0.34      1013.7     1.0       E    80   2.3     ENE    70   9.70    270      -36.6
   05/16/2019 01:10      57.2      56.5       75     48.8      0.00     19.01      69.3     0.34      1013.9     1.6     ESE   119   4.3      SE   139   9.70    270      -31.7
   05/16/2019 01:00      57.2      56.6       73     48.5      0.00     19.01      69.3     0.34      1014.1     2.7      SE   139   5.7      SE   129   9.70    270      -31.9
   05/16/2019 00:50      57.4      56.9       72     48.1      0.00     19.01      69.4     0.34      1014.0     1.6     ESE   102   2.8     ENE    72   9.71    270      -33.0
   05/16/2019 00:40      57.4      57.0       73     48.5      0.00     19.01      69.3     0.34      1014.2     0.8     ESE   106   3.5     ESE   114   9.71    269      -23.7
   05/16/2019 00:30      57.4      57.1       74     48.8      0.00     19.01      69.4     0.34      1014.1     0.6       E    97   1.5     ENE    76   9.71    270      -22.4
   05/16/2019 00:20      57.3      56.9       74     48.7      0.00     19.01      69.3     0.34      1014.2     0.6      SE   134   1.3     SSE   158   9.71    270      -20.7
   05/16/2019 00:10      57.4      56.9       74     48.7      0.00     19.01      69.4     0.34      1014.1     1.3     ESE   115   2.2       E    95   9.71    270      -21.8
   05/16/2019 00:00      57.2      56.9       74     48.7      0.00     19.01      69.4     0.34      1014.0     1.2     ESE   117   3.9     SSE   149   9.71    270      -31.9
   05/15/2019 23:50      57.2      56.9       74     48.8      0.00     19.01      69.4     0.34      1014.0     1.2      SE   139   2.7      SE   134   9.71    270      -37.1
   05/15/2019 23:40      57.4      56.9       74     48.8      0.00     19.01      69.4     0.34      1014.1     0.8     SSE   149   2.5     SSE   162   9.72    270      -42.1
   05/15/2019 23:30      57.8      57.1       73     48.8      0.00     19.01      69.5     0.34      1014.3     1.1       S   175   2.8       S   185   9.72    270      -43.2
   05/15/2019 23:20      57.9      57.4       73     48.8      0.00     19.01      69.4     0.34      1014.5     1.6     SSW   198   2.4       S   177   9.72    269      -40.0
   05/15/2019 23:10      57.9      57.5       73     48.9      0.00     19.01      69.5     0.34      1014.7     2.0       S   187   5.3       S   178   9.72    269      -27.5
   05/15/2019 23:00      57.9      57.4       74     49.4      0.00     19.01      69.5     0.34      1014.7     1.5       S   189   4.0      SW   225   9.72    270      -17.4
   05/15/2019 22:50      57.7      57.4       75     49.6      0.00     19.01      69.5     0.34      1014.7     0.9       S   189   2.8       S   191   9.72    270      -15.8
   05/15/2019 22:40      57.7      57.2       75     49.5      0.00     19.01      69.5     0.34      1014.6     1.2       S   182   2.7      SW   226   9.73    270      -25.3
   05/15/2019 22:30      57.8      57.4       74     49.4      0.00     19.01      69.5     0.34      1014.5     1.4       S   179   2.3      SW   218   9.73    270      -37.4
   05/15/2019 22:20      57.8      57.4       74     49.5      0.00     19.01      69.5     0.34      1014.4     1.0      SE   145   2.8      SE   144   9.73    270      -27.2
   05/15/2019 22:10      57.8      57.4       75     49.6      0.00     19.01      69.5     0.34      1014.5     1.4       S   172   2.6       S   188   9.73    269      -25.3
   05/15/2019 22:00      57.9      57.5       74     49.5      0.00     19.01      69.5     0.34      1014.4     1.7       S   179   3.4     SSW   193   9.73    269      -19.2
   05/15/2019 21:50      57.9      57.5       74     49.5      0.00     19.01      69.5     0.34      1014.4     2.0     SSE   162   4.2      SE   140   9.73    269      -15.8
   05/15/2019 21:40      58.3      57.6       74     49.5      0.00     19.01      69.5     0.34      1014.5     2.5     SSW   196   5.0      SW   219   9.74    269      -15.4
   05/15/2019 21:30      58.1      57.6       74     49.6      0.00     19.01      69.5     0.34      1014.4     1.3     SSW   207   2.5     SSE   166   9.74    269      -16.6
   05/15/2019 21:20      57.9      57.5       74     49.5      0.00     19.01      69.5     0.34      1014.2     2.4       S   186   4.3       S   186   9.74    269      -17.2
   05/15/2019 21:10      58.1      57.5       74     49.6      0.00     19.01      69.5     0.34      1013.8     2.3       S   176   3.5       S   183   9.74    269      -20.2
   05/15/2019 21:00      58.2      57.8       74     49.5      0.00     19.01      69.5     0.34      1013.5     1.7     SSE   153   3.3     SSE   147   9.74    269      -23.7
   05/15/2019 20:50      58.0      57.7       74     49.7      0.00     19.01      69.5     0.34      1013.4     1.6      SE   125   3.2     ESE   109   9.74    269      -30.0
   05/15/2019 20:40      58.2      57.7       74     49.8      0.00     19.01      69.5     0.34      1013.6     1.8       S   174   3.8       S   182   9.74    269      -29.2
   05/15/2019 20:30      58.4      58.0       75     50.2      0.00     19.01      69.5     0.34      1013.7     1.6     SSE   152   5.2      SE   142   9.74    270      -38.0
   05/15/2019 20:20      58.7      58.0       76     50.6      0.00     19.01      69.5     0.34      1013.8     2.2     SSE   148   4.5       S   181   9.75    269      -32.8
   05/15/2019 20:10      58.6      58.2       76     50.8      0.00     19.01      69.5     0.34      1013.9     1.5       S   178   3.1     SSW   207   9.75    270      -18.9
   05/15/2019 20:00      58.7      58.2       75     50.5      0.00     19.01      69.5     0.34      1014.0     1.5       S   185   3.8       S   189   9.75    269      -22.2
   05/15/2019 19:50      58.7      58.3       74     50.4      0.00     19.01      69.5     0.34      1014.0     1.7      SE   145   4.3     SSE   161   9.75    269      -46.4
   05/15/2019 19:40      58.8      58.3       74     50.4      0.00     19.01      69.5     0.34      1014.0     2.9       S   174   6.0     SSW   197   9.75    269      -37.8
   05/15/2019 19:30      59.0      58.5       75     50.6      0.00     19.01      69.5     0.34      1014.0     3.4       S   174   6.5     SSW   204   9.76    269      -36.9
   05/15/2019 19:20      59.1      58.7       74     50.6      0.00     19.01      69.5     0.34      1013.8     3.6       S   174   5.9     SSW   213   9.76    269      -20.3
   05/15/2019 19:10      59.8      58.8       73     50.6      0.00     19.01      69.4     0.34      1013.8     3.5       S   182   6.4     SSW   196   9.76    269      -19.4
   05/15/2019 19:00      60.3      59.5       72     50.7      0.00     19.01      69.4     0.34      1013.7     3.2     SSE   168   6.5     ESE   107   9.76    269      -32.5
   05/15/2019 18:50      61.1      59.9       70     50.7      0.00     19.01      69.4     0.34      1013.7     3.5       S   181   8.8     SSE   167   9.76    269      -37.4
   05/15/2019 18:40      61.7      60.9       68     50.8      0.00     19.01      69.3     0.34      1013.3     4.9       S   190   8.0     SSW   195   9.77    268       14.3
   05/15/2019 18:30      62.2      61.6       67     50.9      0.00     19.01      69.3     0.34      1013.0     3.4       S   174   8.4     SSW   194   9.77    268        3.0
   05/15/2019 18:20      62.8      61.7       67     51.0      0.00     19.01      69.3     0.34      1013.1     5.0       S   186   9.0     SSW   211   9.77    268       93.1
   05/15/2019 18:10      63.5      62.6       66     51.3      0.00     19.01      69.3     0.34      1013.0     4.6       S   181   9.8     SSE   150   9.77    268      148.6
   05/15/2019 18:00      63.5      62.5       66     51.5      0.00     19.01      69.3     0.34      1013.1     4.3       S   184  10.5      SE   129   9.78    268      201.4
   05/15/2019 17:50      62.6      62.2       66     51.1      0.00     19.01      69.3     0.34      1012.7     3.8     SSE   150   7.9     SSE   149   9.78    268      111.7
   05/15/2019 17:40      62.6      61.8       67     51.2      0.00     19.01      69.3     0.34      1012.7     3.6     SSE   150   8.0      SE   135   9.78    268      134.5
   05/15/2019 17:30      62.6      61.7       67     51.1      0.00     19.01      69.2     0.34      1012.6     3.9     SSE   147   6.5      SE   128   9.78    268      117.9
   05/15/2019 17:20      62.7      62.2       67     51.3      0.00     19.01      69.2     0.34      1012.8     3.6     SSE   151   6.2       S   186   9.79    268       95.9
   05/15/2019 17:10      63.1      62.2       67     51.3      0.00     19.01      69.2     0.34      1013.1     4.2     SSE   159   7.1     SSW   196   9.79    268      119.7
   05/15/2019 17:00      63.5      62.7       66     51.6      0.00     19.01      69.2     0.34      1013.1     4.4     SSE   165   8.5     SSE   157   9.79    268      151.5
   05/15/2019 16:50      64.0      63.2       65     51.7      0.00     19.01      69.2     0.34      1013.2     4.3     SSE   158   8.1       S   179   9.80    268      141.0
   05/15/2019 16:40      64.1      63.4       65     51.6      0.00     19.01      69.1     0.34      1013.0     4.9     SSE   151   9.6      SE   145   9.80    268      168.6
   05/15/2019 16:30      64.5      63.9       65     52.2      0.00     19.01      69.1     0.34      1013.0     4.5       S   171   8.7      SE   136   9.80    268      168.5
   05/15/2019 16:20      65.0      64.2       64     52.3      0.00     19.01      69.0     0.34      1013.2     4.5     SSE   163   9.9      SE   145   9.81    268      185.5
   05/15/2019 16:10      65.4      64.4       64     52.4      0.00     19.01      69.0     0.34      1013.5     4.7       S   174   7.8       S   171   9.82    268      247.6
   05/15/2019 16:00      65.8      65.2       63     52.6      0.00     19.01      69.1     0.34      1013.5     4.9       S   170   8.8       S   170   9.82    268      349.6
   05/15/2019 15:50      66.5      65.4       62     52.6      0.00     19.01      69.0     0.34      1013.4     4.1     SSE   169   6.9     SSW   201   9.82    268      315.7
   05/15/2019 15:40      66.5      65.3       62     52.5      0.00     19.01      69.0     0.34      1013.5     3.9      SE   131   8.2       S   179   9.82    268      267.4
   05/15/2019 15:30      66.4      65.7       62     52.7      0.00     19.01      69.0     0.34      1013.7     3.1     SSE   147   5.6      SE   144   9.83    267      259.0
   05/15/2019 15:20      67.0      66.2       61     52.8      0.00     19.01      69.0     0.34      1013.7     3.0      SE   136   6.6     ENE    74   9.83    268      236.8
   05/15/2019 15:10      67.2      65.7       61     52.6      0.00     19.01      69.0     0.34      1013.7     3.1     SSE   157   7.5      SE   143   9.84    268      305.7
   05/15/2019 15:00      66.8      65.7       62     52.6      0.00     19.01      69.0     0.34      1013.8     1.9     SSE   152   5.9      SE   134   9.84    267      319.7
   05/15/2019 14:50      67.4      65.9       61     53.0      0.00     19.01      68.9     0.34      1013.9     3.5      SE   130   6.1      SE   130   9.84    267      350.9
   05/15/2019 14:40      67.1      65.9       62     53.2      0.00     19.01      69.0     0.34      1014.0     3.2      SE   127   7.6     ESE   119   9.85    268      354.3
   05/15/2019 14:30      67.3      66.5       61     53.0      0.00     19.01      68.9     0.34      1014.0     2.7       E    97   6.8      SE   135   9.85    267      321.8
   05/15/2019 14:20      67.4      66.6       61     53.3      0.00     19.01      68.9     0.34      1014.1     3.4     SSE   147   8.1      SE   146   9.85    267      380.3
   05/15/2019 14:10      67.5      66.6       62     53.5      0.00     19.01      68.8     0.34      1014.1     3.4      SE   133   7.7     ESE   102   9.85    268      358.2
   05/15/2019 14:00      67.7      66.4       62     53.5      0.00     19.01      68.9     0.34      1014.0     4.4     ESE   117   8.2     ESE   122   9.86    268      348.8
   05/15/2019 13:50      67.9      67.2       61     53.8      0.00     19.01      68.9     0.34      1014.2     2.9     ESE   109   5.7       E    80   9.86    267      388.6
   05/15/2019 13:40      67.7      67.1       62     53.9      0.00     19.01      68.9     0.34      1014.4     3.3       E    85   6.6      SE   131   9.86    267      288.7
   05/15/2019 13:30      67.9      67.1       61     53.7      0.00     19.01      68.9     0.34      1014.6     3.5     ESE   106   7.5       E    92   9.86    268      340.0
   05/15/2019 13:20      68.2      67.1       61     53.4      0.00     19.01      68.8     0.34      1014.7     2.6       E    97   6.3       E    83   9.87    268      272.4
   05/15/2019 13:10      68.4      67.3       61     53.5      0.00     19.01      68.8     0.34      1014.7     2.4     SSW   203   6.7     ESE   107   9.87    267      372.8
   05/15/2019 13:00      67.5      65.7       63     53.4      0.00     19.01      68.8     0.34      1014.8     2.2      NE    43   5.0       E   100   9.87    267      462.2
   05/15/2019 12:50      66.7      65.6       63     53.3      0.00     19.01      68.8     0.34      1014.9     3.5      SE   136   9.2      SE   144   9.87    268      355.1
   05/15/2019 12:40      66.5      65.2       64     53.5      0.00     19.01      68.9     0.34      1014.9     4.0     SSW   194   6.7     SSW   210   9.87    267      584.2
   05/15/2019 12:30      66.0      64.8       65     53.4      0.00     19.01      68.9     0.34      1015.0     3.4       S   175   7.6     SSW   194   9.87    268      415.8
   05/15/2019 12:20      66.0      64.8       65     53.4      0.00     19.01      68.9     0.34      1015.1     3.2     SSE   147   6.1       E    84   9.87    268      494.0
   05/15/2019 12:10      65.0      63.5       68     53.4      0.00     19.01      68.9     0.34      1015.3     2.9     SSE   167   6.1     SSW   193   9.88    268      510.2
   05/15/2019 12:00      64.4      63.6       68     53.3      0.00     19.01      68.9     0.34      1015.3     2.7       S   179   6.0       S   178   9.88    268      235.2
   05/15/2019 11:50      63.8      62.6       69     52.9      0.00     19.01      68.9     0.34      1015.2     1.5     SSE   149   4.9     SSE   147   9.88    268      247.8
   05/15/2019 11:40      63.3      62.4       70     52.9      0.00     19.01      69.0     0.34      1015.2     2.6      SE   135   5.3      SE   136   9.89    268      254.0
   05/15/2019 11:30      63.5      63.0       70     53.5      0.00     19.01      69.0     0.34      1015.2     2.6      SE   141   6.3       S   181   9.89    268      280.7
   05/15/2019 11:20      63.5      62.7       71     53.3      0.00     19.01      69.0     0.34      1015.3     1.8      SE   137   4.6      SE   126   9.89    269      245.8
   05/15/2019 11:10      63.1      61.7       73     53.5      0.00     19.01      69.0     0.34      1015.4     1.7       E    93   3.3       E    91   9.89    269      215.9
   05/15/2019 11:00      62.0      61.0       75     53.5      0.00     19.01      69.0     0.34      1015.5     1.7      SE   128   4.2       E    79   9.89    269      181.0
   05/15/2019 10:50      61.4      60.4       77     53.6      0.00     19.01      69.0     0.34      1015.7     1.4     SSE   160   4.2      SE   128   9.89    270      130.9
   05/15/2019 10:40      60.5      59.8       79     53.5      0.00     19.01      69.0     0.34      1015.8     2.0       S   184   3.9       S   183   9.89    270      107.0
   05/15/2019 10:30      60.2      59.4       81     54.0      0.00     19.01      69.0     0.34      1015.8     1.9     SSW   203   4.3     SSW   196   9.89    270       98.7
   05/15/2019 10:20      60.1      59.4       81     53.9      0.00     19.01      69.1     0.34      1015.8     3.4     SSW   200   5.2      SW   215   9.90    270       80.3
   05/15/2019 10:10      60.7      59.8       80     53.8      0.00     19.01      69.1     0.34      1015.7     3.1       S   184   5.5     SSE   159   9.90    270       58.8
   05/15/2019 10:00      60.5      59.8       79     53.8      0.00     19.01      69.1     0.34      1015.6     1.1     SSE   167   5.5       S   188   9.90    270       48.9
   05/15/2019 09:50      60.2      59.8       80     53.6      0.00     19.01      69.1     0.34      1015.5     1.8       S   177   3.7       S   169   9.90    270       45.9
   05/15/2019 09:40      60.1      59.7       79     53.5      0.00     19.01      69.1     0.34      1015.4     1.6     SSE   157   3.8      SE   126   9.90    270       50.6
   05/15/2019 09:30      60.0      59.5       80     53.8      0.00     19.01      69.2     0.34      1015.3     2.1      SE   126   4.0     ESE   121   9.90    270       56.4
   05/15/2019 09:20      60.0      59.5       81     54.0      0.00     19.01      69.1     0.34      1015.2     1.7     SSE   156   5.0      SE   132   9.90    270       46.4
   05/15/2019 09:10      59.9      59.4       81     53.8      0.00     19.01      69.2     0.34      1015.3     2.3       S   169   4.9     SSW   194   9.91    270       53.6
   05/15/2019 09:00      60.2      59.4       81     54.1      0.00     19.01      69.2     0.34      1015.1     2.1     SSE   159   4.8      SE   126   9.91    270       58.4
   05/15/2019 08:50      60.1      59.4       82     54.1      0.00     19.01      69.3     0.34      1015.0     0.5     ESE   103   1.8     NNE    30   9.91    271       40.9
   05/15/2019 08:40      59.8      59.0       83     54.0      0.00     19.01      69.2     0.34      1014.8     1.8     ESE   109   3.4     SSE   153   9.91    271       51.6
   05/15/2019 08:30      59.3      58.8       84     54.1      0.00     19.01      69.3     0.34      1014.8     1.7     SSE   169   4.0     SSE   163   9.91    271       30.9
   05/15/2019 08:20      59.6      58.8       83     54.0      0.00     19.01      69.3     0.34      1014.6     2.1      SE   127   4.7      SE   133   9.67    271       16.4
   05/15/2019 08:10      59.3      58.8       83     54.0      0.00     19.01      69.3     0.34      1014.2     1.8     ENE    62   3.7     ENE    69   9.68    271       24.5
   05/15/2019 08:00      59.3      58.8       84     54.1      0.00     19.01      69.3     0.34      1014.2     2.1     ESE   120   4.5      SE   133   9.68    271       30.8
   05/15/2019 07:50      59.3      58.6       84     54.1      0.00     19.01      69.3     0.34      1014.1     1.5       E    88   4.0      SE   143   9.68    271       23.6
   05/15/2019 07:40      58.8      58.3       85     53.9      0.00     19.01      69.3     0.34      1014.1     2.8     ESE   102   5.6     ENE    75   9.68    271       32.9
   05/15/2019 07:30      58.7      58.3       84     53.8      0.00     19.01      69.4     0.34      1014.3     2.0     ESE   114   5.5      SE   136   9.68    271       17.2
   05/15/2019 07:20      58.7      58.2       84     53.7      0.00     19.01      69.4     0.34      1014.5     1.8     ESE   119   4.1      SE   137   9.68    271       11.0
   05/15/2019 07:10      58.5      58.1       85     53.7      0.00     19.01      69.4     0.34      1014.2     2.1     ESE   106   4.8       E    87   9.68    271       11.2
   05/15/2019 07:00      58.5      57.9       86     53.8      0.00     19.01      69.4     0.34      1014.1     1.8       E    94   3.7      SE   129   9.68    272        5.4
   05/15/2019 06:50      58.2      58.0       86     54.0      0.00     19.01      69.5     0.34      1014.2     1.3     ENE    77   3.6      NE    55   9.68    272       -4.1
   05/15/2019 06:40      58.3      57.9       86     54.0      0.00     19.01      69.5     0.34      1014.3     1.3       E    80   3.9     ESE   103   9.69    270       -6.1
   05/15/2019 06:30      58.3      57.8       87     54.1      0.00     19.01      69.5     0.34      1014.2     1.0     ENE    73   2.3      SE   137   9.69    272       -6.8
   05/15/2019 06:20      58.2      57.9       87     54.2      0.00     19.01      69.5     0.34      1014.0     0.7     ENE    65   2.8      NE    50   9.69    271       -6.0
   05/15/2019 06:10      58.1      57.7       88     54.3      0.00     19.01      69.5     0.34      1014.2     0.6     ENE    56   2.3     NNE    33   9.69    271       -7.2
   05/15/2019 06:00      58.0      57.4       88     54.2      0.00     19.01      69.5     0.34      1014.4     0.5     ENE    58   1.8     ENE    72   9.69    271       -8.7
   05/15/2019 05:50      57.9      57.4       89     54.2      0.00     19.01      69.7     0.34      1014.2     0.8     ESE   114   2.8     ENE    64   9.69    271       -9.0
   05/15/2019 05:40      57.6      57.2       89     54.1      0.00     19.01      69.6     0.34      1014.1     1.0       E    88   2.8       E    79   9.69    260       -8.4
   05/15/2019 05:30      57.6      57.2       88     54.0      0.00     19.01      69.6     0.34      1014.2     1.4      SE   136   3.1      SE   132   9.69    271       -8.7
   05/15/2019 05:20      57.6      57.2       88     53.9      0.00     19.01      69.6     0.34      1014.1     0.5     ESE   104   1.7       E    97   9.69    271       -8.7
   05/15/2019 05:10      57.5      57.0       88     53.7      0.00     19.01      69.7     0.34      1014.1     0.7      SE   137   2.0       E    81   9.69    271       -8.8
   05/15/2019 05:00      57.3      56.9       88     53.6      0.00     19.01      69.7     0.34      1014.2     1.2     ESE   104   2.9      SE   126   9.70    270       -9.0
   05/15/2019 04:50      57.4      56.9       88     53.6      0.00     19.01      69.7     0.34      1014.4     1.4     SSE   159   3.4      SE   130   9.70    271       -9.5
   05/15/2019 04:40      57.4      56.9       88     53.6      0.00     19.01      69.7     0.34      1014.5     1.4      SE   137   3.0      SE   138   9.70    271       -9.6
   05/15/2019 04:30      57.6      57.0       88     53.6      0.00     19.01      69.8     0.34      1014.4     1.9      SE   126   4.4       E    80   9.70    271       -9.6
   05/15/2019 04:20      57.5      57.1       88     53.8      0.00     19.01      69.8     0.34      1014.5     2.2      SE   129   4.2      SE   131   9.70    272       -9.9
   05/15/2019 04:10      57.5      57.1       88     53.8      0.00     19.01      69.8     0.34      1014.5     1.7       E   100   4.0     ESE   115   9.70    271       -8.8
   05/15/2019 04:00      57.4      57.0       88     53.6      0.00     19.01      69.8     0.34      1014.5     0.3     SSE   164   1.9     ESE   118   9.70    272       -7.5
   05/15/2019 03:50      57.2      56.5       89     53.6      0.00     19.01      69.9     0.34      1014.5     0.2     ENE    78   1.9      NE    50   9.71    272       -7.1
   05/15/2019 03:40      56.8      56.3       89     53.3      0.00     19.01      69.9     0.34      1014.5     0.3     ESE   113   1.6       E    94   9.71    272       -6.4
   05/15/2019 03:30      56.5      55.9       89     53.1      0.00     19.01      69.9     0.34      1014.6     0.5       E    92   1.3       E    91   9.71    266       -6.4
   05/15/2019 03:20      56.2      55.5       89     52.7      0.00     19.01      69.9     0.34      1014.7     0.4       E   100   1.5       E    84   9.71    281      -14.5
   05/15/2019 03:10      55.8      55.2       89     52.3      0.00     19.01      69.9     0.34      1014.7     0.1     ENE    71   1.0     ENE    67   9.71    290      -22.0
   05/15/2019 03:00      55.5      55.2       89     52.1      0.00     19.01      69.9     0.34      1014.8     0.1       E    99   1.6     ESE   123   9.71    290      -29.5
   05/15/2019 02:50      55.9      55.2       88     52.1      0.00     19.01      70.0     0.34      1014.8     0.8     SSE   153   2.5       E    96   9.71    290      -41.0
   05/15/2019 02:40      56.0      55.5       88     52.2      0.00     19.01      70.0     0.34      1014.7     0.6       S   173   2.7       S   183   9.71    285      -48.4
   05/15/2019 02:30      56.3      55.8       88     52.4      0.00     19.01      70.0     0.34      1014.7     2.1       S   175   4.0      SE   138   9.71    279      -49.8
   05/15/2019 02:20      56.9      56.2       87     52.8      0.00     19.01      70.0     0.34      1014.8     0.4       S   169   2.2     SSE   163   9.71    279      -48.0
   05/15/2019 02:10      57.6      56.6       86     53.0      0.00     19.01      70.0     0.34      1014.9     0.3     SSW   201   1.1      SW   221   9.71    271      -53.3
   05/15/2019 02:00      58.0      57.3       85     53.0      0.00     19.01      70.1     0.34      1014.8     0.6     ESE   114   2.1      SE   133   9.71    260      -57.4
   05/15/2019 01:50      58.5      57.7       84     53.0      0.00     19.01      70.1     0.34      1014.7     0.2     ENE    64   1.8     ENE    57   9.71    253      -59.7
   05/15/2019 01:40      58.8      58.2       83     53.2      0.00     19.01      70.1     0.34      1014.7     0.5     ENE    66   2.0     ENE    58   9.71    261      -59.5
   05/15/2019 01:30      58.7      58.3       82     53.0      0.00     19.01      70.1     0.34      1014.7     0.9      NE    53   3.3      NE    35   9.71    264      -56.9
   05/15/2019 01:20      58.9      58.5       82     53.2      0.00     19.01      70.2     0.34      1014.8     0.2       E    80   2.1     ENE    71   9.72    262      -55.8
   05/15/2019 01:10      59.1      58.6       82     53.3      0.00     19.01      70.2     0.34      1014.8     0.5     ESE   107   1.6       E    87   9.72    271      -55.3
   05/15/2019 01:00      59.3      58.8       82     53.3      0.00     19.01      70.2     0.34      1014.8     0.1       E   101   1.2     ENE    78   9.72    270      -51.7
   05/15/2019 00:50      59.5      58.8       81     53.4      0.00     19.01      70.2     0.34      1014.8     0.5     ESE   120   3.2     ENE    78   9.72    272      -46.7
   05/15/2019 00:40      59.5      59.0       82     53.5      0.00     19.01      70.2     0.34      1014.8     0.5     ESE   103   1.8       E    84   9.72    271      -46.7
   05/15/2019 00:30      59.1      58.7       82     53.3      0.00     19.01      70.2     0.34      1014.9     0.6      SE   129   1.6     ESE   122   9.72    272      -43.6
   05/15/2019 00:20      59.3      58.6       81     53.2      0.00     19.01      70.2     0.34      1015.0     0.2     SSE   155   0.8       S   179   9.72    271      -40.0
   05/15/2019 00:10      59.1      58.8       81     53.2      0.00     19.01      70.2     0.34      1014.9     0.2      SE   135   0.9     ESE   102   9.72    271      -38.6
   05/15/2019 00:00      59.0      58.6       82     53.1      0.00     19.01      70.2     0.34      1014.9     0.0       N     0   0.0       S   191   9.72    271      -36.0
   05/14/2019 23:50      59.0      58.4       82     53.1      0.00     19.01      70.2     0.34      1014.9     0.0     SSW   213   0.5     SSW   208   9.72    266      -45.4
   05/14/2019 23:40      59.5      58.3       80     52.7      0.00     19.01      70.3     0.34      1014.9     0.2     SSE   158   1.0      SE   141   9.72    262      -56.4
   05/14/2019 23:30      59.8      59.0       80     53.1      0.00     19.01      70.2     0.34      1014.9     0.0       N     0   0.0     SSE   152   9.73    264      -61.2
   05/14/2019 23:20      60.2      59.5       79     53.0      0.00     19.01      70.2     0.34      1014.9     0.0     SSE   152   0.5      SE   144   9.73    267      -64.8
   05/14/2019 23:10      60.6      59.9       78     53.2      0.00     19.01      70.2     0.34      1014.9     0.1     ESE   112   1.0       E    84   9.73    270      -62.4
   05/14/2019 23:00      60.7      60.1       78     53.5      0.00     19.01      70.3     0.34      1015.0     0.0       E    82   0.8       E    89   9.73    270      -53.2
   05/14/2019 22:50      60.7      60.2       78     53.6      0.00     19.01      70.2     0.34      1015.0     0.0     ESE   119   0.6      SE   131   9.73    271      -46.7
   05/14/2019 22:40      61.2      60.4       78     53.8      0.00     19.01      70.2     0.34      1015.1     0.0       S   172   0.7       S   173   9.73    270      -46.2
   05/14/2019 22:30      61.3      60.7       78     53.9      0.00     19.01      70.2     0.34      1015.2     0.0       S   173   0.9       S   173   9.73    270      -49.7
   05/14/2019 22:20      61.6      60.9       77     53.8      0.00     19.01      70.3     0.34      1015.2     0.0       S   173   0.7       S   170   9.73    270      -57.5
   05/14/2019 22:10      62.6      61.3       75     53.7      0.00     19.01      70.2     0.34      1015.2     0.5       S   179   1.2     SSW   212   9.74    270      -64.0
   05/14/2019 22:00      62.9      62.4       73     53.9      0.00     19.01      70.1     0.34      1015.2     0.4     ENE    58   2.1     ENE    61   9.74    270      -66.0
   05/14/2019 21:50      63.2      62.5       74     54.2      0.00     19.01      70.2     0.34      1015.1     0.0      NE    38   1.2      NE    56   9.74    270      -57.4
   05/14/2019 21:40      63.7      62.9       73     54.4      0.00     19.01      70.1     0.34      1014.9     0.2     SSE   147   1.2      SW   220   9.74    270      -56.0
   05/14/2019 21:30      64.3      63.3       72     54.5      0.00     19.01      70.0     0.34      1014.8     0.9       E    94   1.7     ESE   119   9.74    270      -65.4
   05/14/2019 21:20      64.8      64.1       71     54.8      0.00     19.01      70.1     0.34      1014.8     1.0       S   177   2.2     SSW   211   9.74    270      -68.1
   05/14/2019 21:10      65.4      64.5       70     54.8      0.00     19.01      70.0     0.34      1014.7     0.6       S   184   1.3     SSW   199   9.75    269      -69.0
   05/14/2019 21:00      65.8      65.1       69     54.9      0.00     19.01      70.1     0.34      1014.6     1.1     SSW   198   1.9     SSW   203   9.75    269      -69.0
   05/14/2019 20:50      66.3      65.5       68     54.9      0.00     19.01      70.0     0.34      1014.5     0.9     SSW   209   1.7     SSW   197   9.75    269      -72.8
   05/14/2019 20:40      67.1      66.0       67     54.9      0.00     19.01      70.0     0.34      1014.6     2.1      SW   225   4.1       W   263   9.75    268      -75.8
   05/14/2019 20:30      67.6      66.8       65     55.1      0.00     19.01      70.0     0.34      1014.5     2.2     WSW   248   3.9     WSW   252   9.76    268      -77.5
   05/14/2019 20:20      68.2      67.3       64     55.1      0.00     19.01      70.0     0.34      1014.4     1.1      SW   220   3.5      SW   221   9.76    268      -79.1
   05/14/2019 20:10      68.6      68.0       64     55.4      0.00     19.01      70.0     0.34      1014.2     0.6     NNE    13   2.3      NW   314   9.76    268      -79.1
   05/14/2019 20:00      69.5      68.4       63     55.5      0.00     19.01      69.9     0.34      1014.1     0.6     SSW   211   2.1     WSW   240   9.77    268      -79.2
   05/14/2019 19:50      70.1      69.2       61     55.7      0.00     19.01      69.9     0.34      1014.0     2.0     WSW   250   3.5     WSW   249   9.77    268      -73.8
   05/14/2019 19:40      71.0      69.8       60     55.8      0.00     19.01      69.9     0.34      1013.9     1.7      SW   227   2.8      SW   225   9.77    268      -64.9
   05/14/2019 19:30      71.4      70.8       59     55.9      0.00     19.01      69.8     0.34      1013.7     2.8       W   268   4.7     WSW   241   9.78    268      -54.3
   05/14/2019 19:20      71.7      71.2       58     55.9      0.00     19.01      69.8     0.34      1013.7     2.4     WSW   249   4.9      SW   224   9.78    267      -23.1
   05/14/2019 19:10      71.8      71.3       58     55.9      0.00     19.01      69.8     0.34      1013.6     3.1       W   259   5.4     WSW   257   9.78    267        5.4
   05/14/2019 19:00      72.3      71.5       58     56.3      0.00     19.01      69.7     0.34      1013.7     2.7      SW   221   4.5     WSW   246   9.79    267       33.1
   05/14/2019 18:50      72.1      71.7       58     56.1      0.00     19.01      69.7     0.34      1013.8     2.7      SW   232   4.4      SW   219   9.79    267       39.0
   05/14/2019 18:40      72.0      71.5       58     56.2      0.00     19.01      69.7     0.34      1013.9     3.1      SW   226   5.9     SSW   204   9.79    267       28.3
   05/14/2019 18:30      72.1      71.5       58     56.1      0.00     19.01      69.6     0.34      1013.9     3.4      SW   229   6.6      SW   227   9.80    267       47.0
   05/14/2019 18:20      73.5      71.7       57     56.2      0.00     19.01      69.5     0.34      1013.9     4.2      SW   220   8.0      SW   234   9.80    267       79.4
   05/14/2019 18:10      73.7      72.8       56     56.4      0.00     19.01      69.5     0.34      1013.9     3.9     WSW   244   6.5      SW   233   9.80    267       63.7
   05/14/2019 18:00      74.8      73.3       54     56.6      0.00     19.01      69.5     0.34      1013.8     4.6      SW   228   8.1      SW   230   9.81    267      115.5
   05/14/2019 17:50      75.0      73.9       55     56.9      0.00     19.01      69.4     0.34      1013.8     4.8     WSW   242   8.6     WSW   247   9.81    266      128.8
   05/14/2019 17:40      77.0      74.6       53     57.1      0.00     19.01      69.4     0.34      1013.8     5.5      SW   235   8.6     WSW   249   9.81    266      179.5
   05/14/2019 17:30      77.5      77.0       51     57.5      0.00     19.01      69.3     0.34      1013.6     3.0      SW   217   9.1     WSW   243   9.82    266      204.9
   05/14/2019 17:20      77.3      76.2       51     57.0      0.00     19.01      69.3     0.34      1013.6     2.0       S   189   6.1      SW   217   9.82    266      203.2
   05/14/2019 17:10      78.6      77.1       47     55.9      0.00     19.01      69.2     0.34      1013.5     4.0     SSW   209   8.1       S   180   9.82    266      219.2
   05/14/2019 17:00      79.6      78.4       44     55.0      0.00     19.01      69.2     0.34      1013.6     4.9     WNW   286   8.8     WSW   238   9.83    266      250.8
   05/14/2019 16:50      79.5      77.3       46     55.7      0.00     19.01      69.1     0.34      1013.7     1.8     NNE    18   4.7       W   275   9.83    266      262.4
   05/14/2019 16:40      78.0      77.1       49     57.0      0.00     19.01      69.1     0.34      1013.8     2.7       S   183   5.2     SSW   194   9.83    266      315.9
   05/14/2019 16:30      78.0      76.8       49     56.7      0.00     19.01      69.0     0.34      1013.9     2.6     SSW   193   5.3       S   170   9.83    266      347.1
   05/14/2019 16:20      78.0      76.9       49     56.7      0.00     19.01      69.0     0.34      1014.0     3.5     SSE   163   6.5      SE   140   9.84    266      364.2
   05/14/2019 16:10      80.1      77.7       45     56.3      0.00     19.01      69.0     0.34      1014.0     3.0     ESE   122   6.3      SE   140   9.85    266      380.0
   05/14/2019 16:00      79.7      78.3       45     56.0      0.00     19.01      68.9     0.34      1014.0     2.7       E    85   6.1       E    83   9.86    266      428.3
   05/14/2019 15:50      79.2      77.9       45     55.5      0.00     19.01      68.8     0.34      1014.1     2.9     ESE   107   5.3     ESE   122   9.87    266      437.5
   05/14/2019 15:40      80.3      78.5       44     55.5      0.00     19.01      68.8     0.34      1014.2     3.4     ENE    76   7.0       E    89   9.87    265      456.1
   05/14/2019 15:30      80.4      79.6       43     55.4      0.00     19.01      68.7     0.34      1014.3     2.6     ENE    71   6.5       E    87   9.87    266      468.7
   05/14/2019 15:20      80.3      79.3       44     56.0      0.00     19.01      68.7     0.34      1014.4     2.6      NE    45   5.0     NNE    21   9.87    266      488.1
   05/14/2019 15:10      80.0      78.3       45     56.4      0.00     19.01      68.6     0.34      1014.6     2.4      NE    35   5.0     ENE    67   9.88    266      505.4
   05/14/2019 15:00      78.6      77.3       47     56.3      0.00     19.01      68.6     0.34      1014.8     3.8       E    88   7.3     ESE   122   9.88    266      525.5
   05/14/2019 14:50      79.0      78.0       47     56.4      0.00     19.01      68.6     0.34      1014.9     2.8       E    94   5.4       E    91   9.88    266      539.6
   05/14/2019 14:40      79.4      77.3       47     56.5      0.00     19.01      68.5     0.34      1015.0     1.8      SE   134   6.0     ESE   101   9.88    266      546.3
   05/14/2019 14:30      78.9      77.1       48     56.5      0.00     19.01      68.5     0.34      1015.2     2.2       S   177   4.5     SSW   204   9.88    266      562.2
   05/14/2019 14:20      78.9      76.8       47     56.3      0.00     19.01      68.5     0.34      1015.4     3.1       E    98   7.0      SE   140   9.88    266      578.9
   05/14/2019 14:10      79.1      77.1       48     56.6      0.00     19.01      68.4     0.34      1015.5     1.9     ENE    75   6.9     ENE    59   9.89    266      575.1
   05/14/2019 14:00      78.2      77.4       48     56.4      0.00     19.01      68.4     0.34      1015.7     3.4     NNE    29   6.6      NE    47   9.89    266      566.0
   05/14/2019 13:50      78.4      76.9       49     56.6      0.00     19.01      68.4     0.34      1015.8     2.3       N   356   5.6     ENE    57   9.89    266      586.9
   05/14/2019 13:40      78.0      76.9       49     56.4      0.00     19.01      68.3     0.34      1015.8     2.3     NNE    25   4.8       N   351   9.90    266      598.3
   05/14/2019 13:30      78.0      76.5       49     56.4      0.00     19.01      68.3     0.34      1016.0     1.7       N    10   4.9     NNE    32   9.90    266      612.8
   05/14/2019 13:20      77.4      75.7       50     56.1      0.00     19.01      68.3     0.34      1016.0     1.7       N   355   4.2     ENE    64   9.90    266      621.2
   05/14/2019 13:10      76.0      74.4       51     55.7      0.00     19.01      68.3     0.34      1016.1     1.9     NNE    13   4.4     NNE    12   9.90    266      634.6
   05/14/2019 13:00      75.3      74.0       51     55.6      0.00     19.01      68.3     0.34      1016.4     2.0       N     9   3.7     WSW   248   9.90    266      618.0
   05/14/2019 12:50      74.7      73.4       52     55.4      0.00     19.01      68.3     0.34      1016.5     1.4       E    95   3.2      SE   125   9.90    266      618.1
   05/14/2019 12:40      74.1      71.3       54     55.2      0.00     19.01      68.3     0.34      1016.6     1.5      NE    41   4.2     ENE    59   9.91    266      614.9
   05/14/2019 12:30      72.0      70.5       57     55.0      0.00     19.01      68.3     0.34      1016.9     2.5     SSE   153   5.9      SE   132   9.91    266      624.5
   05/14/2019 12:20      72.0      70.8       55     54.6      0.00     19.01      68.3     0.34      1017.0     1.8       E    89   4.7      NE    40   9.91    266      632.5
   05/14/2019 12:10      70.8      67.7       61     55.0      0.00     19.01      68.3     0.34      1017.2     2.1     WNW   302   5.8       W   276   9.91    266      607.7
   05/14/2019 12:00      67.9      66.9       64     54.7      0.00     19.01      68.3     0.34      1017.3     2.8     SSW   210   5.4      SW   217   9.91    267      615.4
   05/14/2019 11:50      68.4      66.9       63     54.8      0.00     19.01      68.3     0.34      1017.5     3.0     SSW   213   5.3     WSW   247   9.92    267      582.7
   05/14/2019 11:40      68.9      67.3       63     54.9      0.00     19.01      68.3     0.34      1017.6     1.5      NW   318   4.1       W   273   9.92    267      602.8
   05/14/2019 11:30      68.8      67.1       62     54.7      0.00     19.01      68.3     0.34      1017.6     2.0       N     6   5.4     ENE    62   9.92    268      497.1
   05/14/2019 11:20      68.7      67.3       63     54.9      0.00     19.01      68.3     0.34      1017.7     1.1     NNW   338   3.6      NW   317   9.92    267      360.8
   05/14/2019 11:10      67.5      66.5       65     54.8      0.00     19.01      68.4     0.34      1017.8     1.2      NW   322   3.1     WNW   296   9.92    267      371.3
   05/14/2019 11:00      66.8      64.8       68     54.8      0.00     19.01      68.4     0.34      1017.8     1.5       N     2   3.1       N   353   9.92    268      443.1
   05/14/2019 10:50      65.0      63.8       70     54.4      0.00     19.01      68.4     0.34      1017.8     0.7      SE   144   2.3       E    95   9.92    268      267.1
   05/14/2019 10:40      64.0      63.0       73     54.6      0.00     19.01      68.3     0.34      1017.8     1.3     NNW   329   3.2     ENE    58   9.92    269      232.4
   05/14/2019 10:30      63.1      62.5       74     54.4      0.00     19.01      68.4     0.34      1017.8     1.4       W   267   5.1     WSW   256   9.92    269      185.6
   05/14/2019 10:20      62.6      61.8       76     54.4      0.00     19.01      68.4     0.34      1017.8     1.0      NE    39   2.3      NE    55   9.93    269      156.1
   05/14/2019 10:10      62.1      61.3       77     54.4      0.00     19.01      68.5     0.34      1017.8     0.7     SSW   202   1.9     WSW   238   9.93    270      144.2
   05/14/2019 10:00      61.6      61.3       78     54.7      0.00     19.01      68.4     0.34      1017.7     1.9     ESE   114   5.0      SE   125   9.93    270      126.8
   05/14/2019 09:50      61.5      60.9       80     54.8      0.00     19.01      68.4     0.34      1017.7     1.3      SE   133   3.6     SSE   160   9.94    270       93.6
   05/14/2019 09:40      61.3      60.8       80     54.9      0.00     19.01      68.5     0.34      1017.6     1.7     ENE    78   3.8     ENE    77   9.94    270       89.8
   05/14/2019 09:30      61.0      60.2       82     54.8      0.00     19.01      68.5     0.34      1017.5     1.2     ENE    78   3.8       E    97   9.95    270       84.1
   05/14/2019 09:20      60.4      59.9       82     54.8      0.00     19.01      68.5     0.34      1017.5     2.1     ESE   122   5.3     ESE   116   9.95    270       76.8
   05/14/2019 09:10      60.4      59.8       83     54.8      0.00     19.01      68.5     0.34      1017.5     2.1       E    81   3.7       E    91   9.96    270       65.5
   05/14/2019 09:00      60.3      59.8       84     55.0      0.00     19.01      68.5     0.34      1017.5     1.4      SE   126   4.6      SE   129   9.97    271       52.3
   05/14/2019 08:50      60.2      59.5       84     54.9      0.00     19.01      68.5     0.34      1017.5     1.3      SE   130   3.5     ESE   109   9.98    271       48.9
   05/14/2019 08:40      59.9      59.4       84     54.9      0.00     19.01      68.6     0.34      1017.4     1.9       E   100   4.7     SSE   161  10.06    271       41.7
   05/14/2019 08:30      59.8      59.3       85     55.0      0.00     19.01      68.6     0.34      1017.4     2.1      SE   141   5.7      SE   141   9.01    271       36.4
   05/14/2019 08:20      59.8      59.3       86     55.1      0.00     19.01      68.6     0.34      1017.2     0.6     SSE   164   3.3      SE   143   9.02    271       33.4
   05/14/2019 08:10      59.6      58.9       86     55.1      0.00     19.01      68.5     0.34      1017.1     0.1     WNW   300   1.1     WNW   298   9.02    271       27.2
   05/14/2019 08:00      59.2      58.7       87     55.0      0.00     19.01      68.6     0.34      1017.0     0.5      SW   220   1.5     SSW   200   9.02    271       23.7
   05/14/2019 07:50      59.1      58.4       87     54.8      0.00     19.01      68.6     0.34      1016.9     0.3      SW   224   1.4     WSW   249   9.02    271       20.9
   05/14/2019 07:40      58.8      58.4       87     54.8      0.00     19.01      68.6     0.34      1016.9     0.9       S   191   1.6     WSW   253   9.02    271       16.8
   05/14/2019 07:30      58.7      58.4       87     54.7      0.00     19.01      68.6     0.34      1016.8     0.5       S   181   1.2     SSW   208   9.02    271       12.2
   05/14/2019 07:20      58.8      58.3       87     54.6      0.00     19.01      68.7     0.34      1016.8     1.0      SW   216   1.6      SW   236   9.02    271        8.4
   05/14/2019 07:10      58.6      58.3       87     54.6      0.00     19.01      68.7     0.34      1016.8     0.2      SW   215   0.9     SSW   200   9.02    271        6.4
   05/14/2019 07:00      58.6      58.0       87     54.4      0.00     19.01      68.7     0.34      1016.8     0.0       S   181   0.8      SW   235   9.02    271        2.3
   05/14/2019 06:50      58.6      58.0       87     54.3      0.00     19.01      68.7     0.34      1016.7     0.4      SE   126   2.0     SSE   149   9.02    266       -0.4
   05/14/2019 06:40      58.3      57.8       87     54.2      0.00     19.01      68.7     0.34      1016.6     0.7       S   184   2.5     SSW   199   9.02    271       -1.7
   05/14/2019 06:30      58.2      57.8       87     54.1      0.00     19.01      68.7     0.34      1016.6     1.0     SSE   162   2.4       S   189   9.02    271       -3.4
   05/14/2019 06:20      58.3      57.9       87     54.2      0.00     19.01      68.7     0.34      1016.6     1.1      SE   134   2.4      SE   140   9.02    271       -5.5
   05/14/2019 06:10      58.3      57.9       87     54.1      0.00     19.01      68.8     0.34      1016.6     1.5      SE   142   2.8     SSE   147   9.02    271       -6.7
   05/14/2019 06:00      58.3      57.9       87     54.1      0.00     19.01      68.8     0.34      1016.5     1.3      SE   131   3.5     SSE   151   9.02    271       -8.0
   05/14/2019 05:50      58.3      57.9       86     54.0      0.00     19.01      68.8     0.34      1016.4     1.6     SSE   150   3.5      SE   142   9.02    271       -8.8
   05/14/2019 05:40      58.4      58.0       86     54.0      0.00     19.01      68.8     0.34      1016.4     1.4     SSE   150   4.4     SSE   159   9.02    271       -9.4
   05/14/2019 05:30      58.5      58.0       86     54.0      0.00     19.01      68.8     0.34      1016.4     1.0       E   100   2.8      SE   134   9.02    271       -9.4
   05/14/2019 05:20      58.5      58.1       86     54.1      0.00     19.01      68.8     0.34      1016.3     1.2       E    93   3.0      SE   131   9.02    271       -9.4
   05/14/2019 05:10      58.5      58.0       87     54.2      0.00     19.01      68.8     0.34      1016.3     1.5     ESE   120   4.3      SE   125   9.02    271       -9.5
   05/14/2019 05:00      58.5      58.0       87     54.4      0.00     19.01      68.8     0.34      1016.3     1.4     ESE   115   3.1       E    96   9.02    271       -9.4
   05/14/2019 04:50      58.5      58.2       87     54.5      0.00     19.01      68.9     0.34      1016.4     1.4     ESE   105   3.9       E    96   9.02    271       -9.3
   05/14/2019 04:40      58.7      58.2       87     54.7      0.00     19.01      68.8     0.34      1016.4     1.4       E    80   3.2     ENE    75   9.02    271       -9.2
   05/14/2019 04:30      58.8      58.3       88     54.8      0.00     19.01      68.8     0.34      1016.4     1.1       E    91   3.3     ENE    73   9.02    271       -9.2
   05/14/2019 04:20      58.8      58.4       88     54.8      0.00     19.01      68.9     0.34      1016.5     1.2      SE   134   2.9     ESE   108   9.02    271       -9.1
   05/14/2019 04:10      58.8      58.3       88     54.9      0.00     19.01      68.9     0.34      1016.4     1.4       E    99   3.0     ENE    68   9.02    271       -9.2
   05/14/2019 04:00      58.7      58.3       88     54.9      0.00     19.01      69.0     0.34      1016.5     1.1     SSE   156   2.5     SSE   167   9.02    271       -9.2
   05/14/2019 03:50      58.8      58.4       88     55.0      0.00     19.01      68.9     0.34      1016.4     1.6       S   174   3.4       S   180   9.02    271       -8.5
   05/14/2019 03:40      59.1      58.6       87     55.0      0.00     19.01      69.0     0.34      1016.3     2.0      SE   139   4.5      SE   132   9.02    271       -8.7
   05/14/2019 03:30      59.3      58.8       87     55.1      0.00     19.01      69.0     0.34      1016.3     1.8       E    97   4.9     ESE   111   9.02    271       -8.6
   05/14/2019 03:20      59.7      59.0       86     55.0      0.00     19.01      69.0     0.34      1016.3     2.1       E    93   5.0      NE    53   9.03    271       -8.7
   05/14/2019 03:10      59.9      59.3       85     55.0      0.00     19.01      69.0     0.34      1016.3     2.1       E    96   4.2     ENE    74   9.02    271       -9.2
   05/14/2019 03:00      60.1      59.5       84     55.0      0.00     19.01      69.0     0.34      1016.3     1.4      NE    54   3.0      NE    51   9.02    271       -9.9
   05/14/2019 02:50      60.2      59.8       84     55.1      0.00     19.01      69.0     0.34      1016.3     1.1      NE    53   3.9     NNE    33   9.03    271       -9.8
   05/14/2019 02:40      60.4      59.8       84     55.0      0.00     19.01      69.1     0.34      1016.3     1.1       E    91   3.5     ESE   123   9.03    271       -9.8
   05/14/2019 02:30      60.5      59.9       83     55.0      0.00     19.01      69.0     0.34      1016.3     1.9     ENE    74   6.2       E    92   9.03    271       -9.3
   05/14/2019 02:20      60.4      59.9       84     55.1      0.00     19.01      69.1     0.34      1016.3     0.6       E    97   2.0       E    84   9.03    271       -9.2
   05/14/2019 02:10      60.2      59.9       84     55.1      0.00     19.01      69.1     0.34      1016.4     0.6     ESE   104   2.1     ESE   103   9.03    271       -9.3
   05/14/2019 02:00      60.2      59.8       84     55.0      0.00     19.01      69.1     0.34      1016.5     0.8       E    87   2.5       E    96   9.03    271       -9.3
   05/14/2019 01:50      60.2      59.8       84     55.0      0.00     19.01      69.1     0.34      1016.5     0.5       E   101   2.4      SE   139   9.03    271       -9.4
   05/14/2019 01:40      60.1      59.8       83     54.9      0.00     19.01      69.2     0.34      1016.7     0.3      SE   131   1.5      SE   141   9.03    271       -9.6
   05/14/2019 01:30      60.2      59.8       83     54.8      0.00     19.01      69.2     0.34      1016.7     0.6       E    94   1.5     ESE   102   9.03    271       -9.5
   05/14/2019 01:20      60.2      59.8       83     54.8      0.00     19.01      69.2     0.34      1016.8     0.3      SE   131   1.0     ENE    76   9.03    271       -9.2
   05/14/2019 01:10      60.1      59.8       83     54.8      0.00     19.01      69.2     0.34      1016.8     0.1     ESE   106   1.2     ESE   103   9.03    271       -9.0
   05/14/2019 01:00      59.9      59.4       83     54.6      0.00     19.01      69.2     0.34      1016.7     0.5       E    89   1.6     ESE   102   9.03    271       -9.7
   05/14/2019 00:50      59.8      59.4       84     54.7      0.00     19.01      69.2     0.34      1016.8     1.3     ESE   110   2.4     ESE   111   9.03    271       -9.6
   05/14/2019 00:40      59.7      59.3       84     54.7      0.00     19.01      69.3     0.34      1016.8     0.6       E    94   1.7      SE   124   9.03    271       -9.6
   05/14/2019 00:30      59.7      59.1       85     54.7      0.00     19.01      69.3     0.34      1016.7     1.0     ESE   111   2.6     ESE   118   9.03    271       -9.7
   05/14/2019 00:20      59.5      58.8       86     54.8      0.00     19.01      69.3     0.34      1016.7     1.1     ESE   103   2.3      SE   136   9.03    271      -10.2
   05/14/2019 00:10      59.1      58.4       87     55.0      0.00     19.01      69.3     0.34      1016.7     0.7       E    94   1.9      SE   135   9.03    271       -8.1
   05/14/2019 00:00      58.7      57.9       89     54.9      0.00     19.01      69.3     0.34      1016.8     0.7     SSE   166   1.9       E    92   9.03    272       -5.4
   05/13/2019 23:50      58.2      57.6       89     54.5      0.00     19.01      69.3     0.34      1016.9     0.1       S   175   1.4     SSW   208   9.03    268       -4.8
   05/13/2019 23:40      57.9      57.4       88     54.1      0.00     19.01      69.3     0.34      1016.9     0.6       S   184   1.7       S   189   9.03    280      -17.2
   05/13/2019 23:30      58.2      57.6       88     54.4      0.00     19.01      69.3     0.34      1016.9     0.2       S   172   1.7       S   187   9.03    284      -36.4
   05/13/2019 23:20      58.2      57.7       88     54.3      0.00     19.01      69.3     0.34      1016.9     0.5     SSW   192   1.5     SSW   210   9.03    281      -41.1
   05/13/2019 23:10      58.3      57.8       87     54.1      0.00     19.01      69.3     0.34      1016.9     0.0      SE   139   0.6       E    96   9.03    277      -48.7
   05/13/2019 23:00      58.7      58.0       86     54.3      0.00     19.01      69.3     0.34      1016.8     0.3     SSE   158   1.7       S   176   9.04    270      -52.3
   05/13/2019 22:50      59.0      58.2       85     54.2      0.00     19.01      69.3     0.34      1016.7     1.2       S   171   2.2       S   179   9.04    262      -54.5
   05/13/2019 22:40      59.3      58.8       85     54.5      0.00     19.01      69.3     0.34      1016.8     0.2     SSE   146   1.0       E    94   9.04    257      -56.6
   05/13/2019 22:30      59.4      59.0       85     54.6      0.00     19.01      69.3     0.34      1016.8     0.6     ESE   120   1.2       E    86   9.04    262      -58.4
   05/13/2019 22:20      59.6      59.1       85     54.8      0.00     19.01      69.3     0.34      1016.8     1.0     SSE   167   2.6       S   186   9.04    259      -56.4
   05/13/2019 22:10      59.6      59.2       85     54.8      0.00     19.01      69.3     0.34      1016.6     1.3       S   184   2.0     SSW   202   9.04    260      -55.8
   05/13/2019 22:00      59.8      59.1       83     54.4      0.00     19.01      69.3     0.34      1016.3     0.6       S   181   1.7       S   183   9.04    259      -59.0
   05/13/2019 21:50      60.4      59.5       83     54.6      0.00     19.01      69.3     0.34      1016.3     0.0      SE   135   0.8      SE   139   9.04    264      -62.3
   05/13/2019 21:40      60.5      59.9       82     54.9      0.00     19.01      69.3     0.34      1016.2     1.0       S   184   2.2      SW   216   9.04    269      -62.3
   05/13/2019 21:30      60.7      60.1       82     54.9      0.00     19.01      69.3     0.34      1016.1     1.1     SSE   162   2.0     SSE   148   9.05    270      -52.6
   05/13/2019 21:20      61.0      60.4       82     54.9      0.00     19.01      69.3     0.34      1016.1     1.1     SSE   157   2.6     SSW   193   9.05    270      -56.9
   05/13/2019 21:10      61.2      60.5       81     54.9      0.00     19.01      69.3     0.34      1016.0     1.4       S   170   4.0     SSW   201   9.05    270      -63.2
   05/13/2019 21:00      61.5      60.9       80     55.0      0.00     19.01      69.3     0.34      1015.9     1.6       S   181   4.8      SW   225   9.05    270      -64.8
   05/13/2019 20:50      61.8      61.2       80     55.1      0.00     19.01      69.3     0.34      1015.8     1.4       S   176   2.4       S   174   9.05    270      -65.9
   05/13/2019 20:40      62.2      61.6       79     55.2      0.00     19.01      69.2     0.34      1015.7     2.1       S   188   4.8     SSW   209   9.05    270      -66.9
   05/13/2019 20:30      62.7      61.9       78     55.3      0.00     19.01      69.2     0.34      1015.6     2.2     SSW   193   4.0     SSW   198   9.05    270      -67.7
   05/13/2019 20:20      63.0      62.2       77     55.2      0.00     19.01      69.2     0.34      1015.4     3.2      SW   215   5.8       S   185   9.05    270      -68.3
   05/13/2019 20:10      63.3      62.7       76     55.2      0.00     19.01      69.2     0.34      1015.3     2.8      SW   226   5.4      SW   228   9.05    269      -69.3
   05/13/2019 20:00      63.8      63.0       75     55.3      0.00     19.01      69.2     0.34      1015.2     3.3      SW   217   6.4     SSW   210   9.06    269      -69.6
   05/13/2019 19:50      64.6      63.6       74     55.5      0.00     19.01      69.1     0.34      1015.1     3.4     SSW   205   6.9     SSW   200   9.06    269      -68.4
   05/13/2019 19:40      65.0      64.3       73     55.6      0.00     19.01      69.1     0.34      1015.1     3.2     SSW   214   6.6     WSW   249   9.06    269      -63.8
   05/13/2019 19:30      65.7      64.8       71     55.7      0.00     19.01      69.1     0.34      1015.0     3.8     SSW   209   7.4      SW   216   9.07    269      -57.6
   05/13/2019 19:20      66.6      65.4       70     55.8      0.00     19.01      69.1     0.34      1014.9     4.9      SW   226   8.0     WSW   248   9.07    268      -44.2
   05/13/2019 19:10      67.4      66.3       68     55.9      0.00     19.01      69.1     0.34      1014.8     4.3      SW   221   7.2     WSW   246   9.07    268      -30.6
   05/13/2019 19:00      68.0      67.1       67     56.0      0.00     19.01      69.0     0.34      1014.7     4.1      SW   234   6.7     WSW   258   9.08    268      -12.9
   05/13/2019 18:50      68.8      67.7       65     56.1      0.00     19.01      69.0     0.34      1014.5     4.4      SW   229   7.6     SSW   203   9.08    268        7.8
   05/13/2019 18:40      69.7      68.6       64     56.3      0.00     19.01      69.0     0.34      1014.5     4.7      SW   233   7.2     WSW   240   9.08    268       31.0
   05/13/2019 18:30      70.1      69.3       64     56.6      0.00     19.01      69.0     0.34      1014.5     4.5      SW   220   7.6      SW   234   9.08    268       55.0
   05/13/2019 18:20      70.7      69.6       62     56.7      0.00     19.01      69.0     0.34      1014.5     4.8      SW   228   7.5       S   190   9.09    268       79.8
   05/13/2019 18:10      71.6      70.5       61     57.0      0.00     19.01      69.0     0.34      1014.5     4.4      SW   227   8.3     SSW   192   9.09    268      104.4
   05/13/2019 18:00      73.2      71.4       60     57.1      0.00     19.01      68.9     0.34      1014.4     5.2      SW   226   9.0      SW   227   9.09    268      129.9
   05/13/2019 17:50      73.8      72.7       58     57.4      0.00     19.01      68.9     0.34      1014.4     4.3      SW   230   7.5     SSW   202   9.09    268      156.7
   05/13/2019 17:40      74.4      73.4       57     57.6      0.00     19.01      68.9     0.34      1014.3     4.6     WSW   239   7.2     SSW   203   9.09    267      182.1
   05/13/2019 17:30      76.5      74.1       55     57.8      0.00     19.01      68.9     0.34      1014.2     4.1     WSW   242   6.4     WSW   251   9.10    267      206.9
   05/13/2019 17:20      76.6      75.8       53     57.9      0.00     19.01      68.9     0.34      1014.1     2.2       W   259   4.9      NW   306   9.10    267      233.4
   05/13/2019 17:10      76.2      74.7       53     57.2      0.00     19.01      68.8     0.34      1014.1     1.7       E    88   4.5      SE   138   9.10    267      254.9
   05/13/2019 17:00      76.4      74.8       53     57.4      0.00     19.01      68.8     0.34      1014.1     3.1       E    94   6.3     ENE    57   9.10    267      281.4
   05/13/2019 16:50      77.7      76.4       51     57.4      0.00     19.01      68.8     0.34      1014.2     2.0       E    83   5.3       E    97   9.10    267      299.0
   05/13/2019 16:40      77.8      76.0       50     57.3      0.00     19.01      68.8     0.34      1014.3     1.5     ENE    71   3.0     ENE    65   9.10    267      327.8
   05/13/2019 16:30      76.5      74.4       53     57.0      0.00     19.01      68.8     0.34      1014.5     1.6     SSE   167   3.8      SW   228   9.10    267      347.0
   05/13/2019 16:20      75.5      73.9       54     56.8      0.00     19.01      68.8     0.34      1014.6     1.9       E    91   4.4      SE   134   9.11    267      368.4
   05/13/2019 16:10      76.0      75.3       52     57.0      0.00     19.01      68.8     0.34      1014.6     2.4       N     3   5.1       N     3   9.11    267      394.3
   05/13/2019 16:00      76.4      75.2       53     57.0      0.00     19.01      68.7     0.34      1014.8     2.3      NE    35   4.6     NNE    30   9.11    267      425.1
   05/13/2019 15:50      76.5      74.9       53     57.1      0.00     19.01      68.7     0.34      1014.9     1.5     ENE    67   4.1     ENE    60   9.11    267      452.6
   05/13/2019 15:40      75.7      74.5       53     56.8      0.00     19.01      68.7     0.34      1015.0     1.3       E    86   4.3       E    92   9.11    267      446.6
   05/13/2019 15:30      75.5      73.2       55     56.9      0.00     19.01      68.7     0.34      1015.2     1.0     WNW   286   2.7       W   272   9.11    267      468.9
   05/13/2019 15:20      74.0      72.7       56     56.6      0.00     19.01      68.7     0.34      1015.4     2.0      NE    52   4.5     NNE    14   9.11    268      499.5
   05/13/2019 15:10      73.0      71.7       57     56.4      0.00     19.01      68.7     0.34      1015.5     1.6       E    95   3.7       E    97   9.11    268      487.2
   05/13/2019 15:00      72.0      71.1       59     56.4      0.00     19.01      68.7     0.34      1015.6     2.5     SSE   154   7.1     SSE   157   9.11    268      549.6
   05/13/2019 14:50      71.2      70.1       60     56.0      0.00     19.01      68.8     0.34      1015.8     2.4      SE   127   4.5     SSE   149   9.11    268      550.6
   05/13/2019 14:40      70.7      69.6       61     56.0      0.00     19.01      68.7     0.34      1015.9     2.8      SE   139   6.0      SE   126   9.11    268      529.1
   05/13/2019 14:30      71.7      69.8       61     56.4      0.00     19.01      68.7     0.34      1016.1     3.0     SSW   194   5.5       S   177   9.11    268      564.6
   05/13/2019 14:20      71.9      70.3       60     56.5      0.00     19.01      68.7     0.34      1016.3     2.0       S   170   4.5      SE   139   9.11    268      582.8
   05/13/2019 14:10      71.9      68.6       62     56.4      0.00     19.01      68.7     0.34      1016.4     1.0     NNE    33   3.9       N   355   9.11    267      682.4
   05/13/2019 14:00      68.8      68.1       65     56.0      0.00     19.01      68.7     0.34      1016.5     1.7     WNW   294   4.8     WNW   302   9.12    268      374.1
   05/13/2019 13:50      68.6      67.3       66     56.2      0.00     19.01      68.7     0.34      1016.6     1.5       W   261   3.5      SW   225   9.12    268      353.6
   05/13/2019 13:40      67.9      67.0       67     56.1      0.00     19.01      68.7     0.34      1016.7     0.9     NNW   339   2.4     NNE    16   9.12    268      295.5
   05/13/2019 13:30      67.4      66.2       69     56.2      0.00     19.01      68.7     0.34      1016.7     1.2      NW   318   3.8     NNW   341   9.12    268      243.7
   05/13/2019 13:20      66.5      65.7       70     56.0      0.00     19.01      68.8     0.34      1016.7     1.6      NW   314   3.9       W   278   9.12    268      215.4
   05/13/2019 13:10      66.0      64.9       72     56.1      0.00     19.01      68.8     0.34      1016.8     0.9       W   266   2.8       N   355   9.12    268      196.4
   05/13/2019 13:00      65.3      64.7       72     55.7      0.00     19.01      68.8     0.34      1016.9     1.7      NE    55   3.6       E    84   9.12    269      179.8
   05/13/2019 12:50      65.2      64.6       72     55.7      0.00     19.01      68.7     0.34      1017.0     1.3     ENE    65   2.6     ESE   104   9.12    269      173.3
   05/13/2019 12:40      65.0      64.4       72     55.7      0.00     19.01      68.8     0.34      1017.0     1.5      NE    46   3.5       N     7   9.12    269      157.7
   05/13/2019 12:30      64.9      63.6       75     55.9      0.00     19.01      68.8     0.34      1017.0     0.5     ENE    58   2.1     NNE    19   9.12    269      136.8
   05/13/2019 12:20      64.4      63.7       75     55.8      0.00     19.01      68.8     0.34      1017.1     1.2     SSE   160   2.9     SSW   207   9.12    269      116.9
   05/13/2019 12:10      64.2      63.6       75     55.6      0.00     19.01      68.8     0.34      1017.1     0.5       E    85   2.2     ESE   111   9.12    269      113.4
   05/13/2019 12:00      64.2      63.4       75     55.8      0.00     19.01      68.8     0.34      1017.2     0.8      NE    47   2.5     NNE    17   9.12    269      113.2
   05/13/2019 11:50      63.7      63.1       76     55.7      0.00     19.01      68.8     0.34      1017.3     1.0       E    87   2.5       E    81   9.12    269      106.1
   05/13/2019 11:40      63.4      62.9       76     55.6      0.00     19.01      68.8     0.34      1017.3     0.7      SE   134   2.6      SE   139   9.12    269       99.3
   05/13/2019 11:30      63.2      62.2       78     55.5      0.00     19.01      68.8     0.34      1017.2     0.7       N   359   2.8       E    99   9.12    269       98.0
   05/13/2019 11:20      63.1      62.4       77     55.5      0.00     19.01      68.8     0.34      1017.2     1.4     ESE   106   2.9     ESE   108   9.12    270       99.9
   05/13/2019 11:10      62.9      62.3       77     55.3      0.00     19.01      68.8     0.34      1017.2     1.3      NE    51   3.1       E    98   9.12    270       90.9
   05/13/2019 11:00      62.8      62.3       78     55.5      0.00     19.01      68.9     0.34      1017.2     0.9     NNE    31   2.8      NE    35   9.12    270       87.2
   05/13/2019 10:50      62.6      61.8       79     55.5      0.00     19.01      68.9     0.34      1017.1     0.4       S   175   2.2       E    99   9.12    270       87.4
   05/13/2019 10:40      62.1      61.5       80     55.4      0.00     19.01      68.9     0.34      1017.1     1.1     ESE   109   2.3       E    85   9.12    270       86.2
   05/13/2019 10:30      61.8      61.3       80     55.4      0.00     19.01      68.9     0.34      1017.1     0.4       N     0   1.7      NE    48   9.12    270       79.4
   05/13/2019 10:20      61.8      61.2       80     55.2      0.00     19.01      68.9     0.34      1017.2     1.5      SE   133   3.2      SE   130   9.12    270       77.7
   05/13/2019 10:10      61.8      61.2       80     55.1      0.00     19.01      68.9     0.34      1017.2     0.6      SE   130   2.3      SE   134   9.12    270       75.1
   05/13/2019 10:00      61.5      60.8       81     55.0      0.00     19.01      68.9     0.34      1017.1     1.4     ESE   120   3.1     SSE   155   9.12    270       88.3
   05/13/2019 09:50      61.5      61.0       80     55.1      0.00     19.01      69.0     0.34      1017.1     2.1     ESE   117   5.5      SE   134   9.12    270       88.6
   05/13/2019 09:40      61.3      60.9       81     55.1      0.00     19.01      69.0     0.34      1017.1     2.2      SE   138   4.5       E    99   9.12    270       80.1
   05/13/2019 09:30      61.3      60.8       81     55.1      0.00     19.01      69.0     0.34      1017.1     1.9     SSE   155   4.7       S   188   9.12    270       71.5
   05/13/2019 09:20      61.0      60.6       81     55.0      0.00     19.01      69.0     0.34      1017.0     2.2     SSE   147   5.1     SSE   148   9.12    270       65.5
   05/13/2019 09:10      61.0      60.5       82     55.1      0.00     19.01      69.0     0.34      1016.9     2.3     ESE   114   4.7     ESE   109   9.12    270       67.3
   05/13/2019 09:00      61.0      60.4       82     55.2      0.00     19.01      69.1     0.34      1016.9     1.7      SE   135   4.3       S   184   9.12    270       55.7
   05/13/2019 08:50      61.1      60.6       82     55.3      0.00     19.01      69.0     0.34      1016.8     1.1     ENE    67   2.3     NNE    15   9.12    270       44.9
   05/13/2019 08:40      61.0      60.3       83     55.4      0.00     19.01      69.1     0.34      1016.7     1.5       E    81   3.2      NE    56   9.12    270       43.2
   05/13/2019 08:30      60.8      60.4       83     55.3      0.00     19.01      69.1     0.34      1016.7     1.3     ESE   108   2.7      SE   144   9.12    270       36.1
   05/13/2019 08:20      60.7      60.2       83     55.4      0.00     19.01      69.1     0.34      1016.7     1.1      NE    52   2.6     ENE    64   9.13    270       32.0
   05/13/2019 08:10      60.5      60.2       83     55.4      0.00     19.01      69.1     0.34      1016.7     1.1       E    95   2.9      SE   132   9.13    270       27.2
   05/13/2019 08:00      60.5      60.1       84     55.3      0.00     19.01      69.2     0.34      1016.7     1.0      NE    44   3.1     ENE    75   9.13    270       21.4
   05/13/2019 07:50      60.3      59.8       84     55.1      0.00     19.01      69.1     0.34      1016.8     1.0      NE    53   3.0     ESE   102   9.13    270       16.4
   05/13/2019 07:40      60.1      59.8       84     55.1      0.00     19.01      69.2     0.34      1016.8     0.7     ENE    69   1.9     ESE   119   9.13    270       11.5
   05/13/2019 07:30      60.1      59.6       84     55.0      0.00     19.01      69.2     0.34      1016.8     0.7       E    84   1.9     ESE   107   9.13    270       10.9
   05/13/2019 07:20      59.8      59.4       84     54.9      0.00     19.01      69.2     0.34      1016.8     1.0     ENE    68   2.4     ENE    63   9.13    270        8.1
   05/13/2019 07:10      59.7      59.3       85     54.8      0.00     19.01      69.2     0.34      1016.7     0.8     ENE    60   3.2       E    99   9.13    270        5.9
   05/13/2019 07:00      59.6      59.0       85     54.9      0.00     19.01      69.2     0.34      1016.7     1.3     ENE    70   2.8      NE    36   9.13    270        2.2
   05/13/2019 06:50      59.4      59.1       85     54.7      0.00     19.01      69.2     0.34      1016.6     1.6     ESE   113   3.4       E    92   9.13    270       -0.6
   05/13/2019 06:40      59.7      59.0       85     54.7      0.00     19.01      69.3     0.34      1016.7     1.4      SE   129   3.4      SE   137   9.13    270       -3.1
   05/13/2019 06:30      59.5      59.1       85     54.8      0.00     19.01      69.3     0.34      1016.6     1.0       E    83   3.1      SE   129   9.13    270       -5.1
   05/13/2019 06:20      59.6      59.1       85     54.8      0.00     19.01      69.3     0.34      1016.5     2.0       E    98   4.6     ENE    75   9.13    270       -6.7
   05/13/2019 06:10      59.6      59.1       85     54.8      0.00     19.01      69.3     0.34      1016.4     2.1      SE   133   4.4      SE   139   9.13    270       -7.8
   05/13/2019 06:00      59.8      59.2       85     54.9      0.00     19.01      69.3     0.34      1016.3     2.1     ESE   113   3.7      SE   132   9.13    270       -8.9
   05/13/2019 05:50      59.7      59.3       85     55.0      0.00     19.01      69.4     0.34      1016.2     2.0      SE   125   4.6       E   100   9.13    270       -9.4
   05/13/2019 05:40      59.8      59.3       85     55.0      0.00     19.01      69.4     0.34      1016.1     2.2      SE   138   5.2      SE   133   9.13    270       -9.7
   05/13/2019 05:30      59.8      59.4       85     55.0      0.00     19.01      69.4     0.34      1016.0     1.5     ESE   114   2.9       E    90   9.13    270      -10.0
   05/13/2019 05:20      59.8      59.4       85     55.0      0.00     19.01      69.4     0.34      1015.9     1.6      SE   128   3.5     ESE   116   9.13    270      -10.0
   05/13/2019 05:10      59.8      59.4       85     55.0      0.00     19.01      69.4     0.34      1015.8     1.8      SE   128   3.8      SE   130   9.13    270      -10.1
   05/13/2019 05:00      59.9      59.4       85     55.0      0.00     19.01      69.4     0.34      1015.8     2.1      SE   136   4.1      SE   135   9.13    270      -10.1
   05/13/2019 04:50      59.9      59.4       85     55.0      0.00     19.01      69.5     0.34      1015.8     1.3      SE   145   2.7       S   172   9.13    270      -10.1
   05/13/2019 04:40      60.2      59.5       84     55.0      0.00     19.01      69.5     0.34      1015.7     2.4      SE   138   4.9      SE   138   9.13    270      -10.1
   05/13/2019 04:30      60.2      59.8       84     55.0      0.00     19.01      69.5     0.34      1015.7     1.8     ESE   122   4.1      SE   129   9.13    270      -10.3
   05/13/2019 04:20      60.1      59.8       84     55.0      0.00     19.01      69.5     0.34      1015.7     2.0     SSE   157   4.0      SE   133   9.13    270      -10.5
   05/13/2019 04:10      60.5      59.8       83     55.0      0.00     19.01      69.5     0.34      1015.6     2.0     ESE   120   4.2     ESE   119   9.13    270      -10.4
   05/13/2019 04:00      60.7      60.2       83     55.0      0.00     19.01      69.5     0.34      1015.6     0.8     ESE   101   2.4     ESE   114   9.14    270      -10.3
   05/13/2019 03:50      60.5      60.1       83     55.1      0.00     19.01      69.5     0.34      1015.7     1.0     ENE    70   3.7     NNE    27   9.14    270      -10.0
   05/13/2019 03:40      60.4      59.8       83     55.0      0.00     19.01      69.6     0.34      1015.7     1.4     ENE    66   3.8     NNE    18   9.14    270       -9.9
   05/13/2019 03:30      60.2      59.8       83     54.8      0.00     19.01      69.6     0.34      1015.7     0.7      SE   132   3.2     ESE   107   9.14    270      -10.4
   05/13/2019 03:20      60.2      59.7       83     54.8      0.00     19.01      69.6     0.34      1015.7     1.5      SE   132   3.4      SE   127   9.14    270      -10.3
   05/13/2019 03:10      60.1      59.7       83     54.8      0.00     19.01      69.6     0.34      1015.8     0.7     ESE   118   2.8      SE   133   9.14    270      -10.5
   05/13/2019 03:00      60.1      59.5       83     54.7      0.00     19.01      69.6     0.34      1015.8     0.6     ESE   111   2.3     ESE   110   9.14    270      -10.8
   05/13/2019 02:50      59.8      59.4       84     54.7      0.00     19.01      69.6     0.34      1015.8     0.5       E    94   2.3     ENE    71   9.14    270      -11.0
   05/13/2019 02:40      59.9      59.3       84     54.6      0.00     19.01      69.7     0.34      1015.8     2.2     SSE   146   3.7      SE   135   9.14    270      -11.2
   05/13/2019 02:30      59.9      59.4       84     54.6      0.00     19.01      69.7     0.34      1015.8     2.1      SE   126   3.7     ESE   124   9.14    270      -11.2
   05/13/2019 02:20      60.2      59.6       83     54.8      0.00     19.01      69.7     0.34      1015.8     1.7     ESE   122   3.1      SE   135   9.14    270      -10.9
   05/13/2019 02:10      60.2      59.8       84     54.9      0.00     19.01      69.7     0.34      1015.8     0.6     SSE   148   2.3      SE   129   9.14    270      -10.6
   05/13/2019 02:00      60.0      59.5       84     54.9      0.00     19.01      69.7     0.34      1015.8     0.2     ESE   107   1.3       E    87   9.14    270      -10.6
   05/13/2019 01:50      59.8      59.4       84     54.8      0.00     19.01      69.7     0.34      1015.8     0.9       S   186   2.2     SSE   155   9.14    270      -10.9
   05/13/2019 01:40      59.8      59.4       84     54.8      0.00     19.01      69.7     0.34      1015.9     0.2     SSW   196   0.7     SSW   203   9.14    270      -10.9
   05/13/2019 01:30      59.7      59.4       85     55.0      0.00     19.01      69.8     0.34      1015.9     0.3      SE   143   1.8      SE   138   9.14    270      -10.7
   05/13/2019 01:20      59.8      59.3       85     54.9      0.00     19.01      69.8     0.34      1016.0     0.8     SSW   207   1.7     SSW   199   9.14    270      -10.8
   05/13/2019 01:10      59.6      59.1       85     54.9      0.00     19.01      69.8     0.34      1016.0     0.3     SSE   155   1.6     ESE   111   9.14    270      -10.6
   05/13/2019 01:00      59.5      59.1       85     54.8      0.00     19.01      69.8     0.34      1016.0     0.8       S   177   2.2     SSE   151   9.15    270      -10.7
   05/13/2019 00:50      59.4      59.0       85     54.6      0.00     19.01      69.8     0.34      1016.1     0.9      SE   134   3.2      SE   140   9.15    270      -10.2
   05/13/2019 00:40      59.3      59.0       85     54.6      0.00     19.01      69.8     0.34      1016.2     1.4      SE   139   3.3      SE   145   9.15    270      -10.0
   05/13/2019 00:30      59.3      59.0       85     54.5      0.00     19.01      69.8     0.34      1016.3     1.4      SE   137   3.7      SE   137   9.15    270      -10.3
   05/13/2019 00:20      59.3      58.9       84     54.4      0.00     19.01      69.9     0.34      1016.3     1.9      SE   132   3.5     ESE   123   9.15    270      -12.7
   05/13/2019 00:10      59.8      59.1       84     54.6      0.00     19.01      69.9     0.34      1016.3     1.6      SE   135   3.2      SE   144   9.15    270      -20.2
   05/13/2019 00:00      59.5      59.1       85     54.6      0.00     19.01      69.9     0.34      1016.2     1.0       E    85   2.5     ENE    66   9.15    270      -25.4
   05/12/2019 23:50      59.7      59.1       84     54.5      0.00     19.01      69.9     0.34      1016.3     0.8       E    83   3.2     ENE    76   9.15    270      -42.6
   05/12/2019 23:40      59.8      59.4       84     54.5      0.00     19.01      69.9     0.34      1016.3     1.2     ENE    65   3.2      NE    55   9.15    268      -61.0
   05/12/2019 23:30      60.1      59.4       83     54.6      0.00     19.01      69.9     0.34      1016.1     1.4     ESE   105   3.2       E    91   9.15    270      -60.9
   05/12/2019 23:20      60.2      59.8       82     54.5      0.00     19.01      69.9     0.34      1016.1     0.3       E    81   1.5      NE    52   9.15    269      -60.8
   05/12/2019 23:10      60.3      59.8       82     54.5      0.00     19.01      69.9     0.34      1016.0     0.5       E   101   2.3       E    97   9.16    269      -61.3
   05/12/2019 23:00      60.2      59.8       82     54.4      0.00     19.01      69.9     0.34      1016.0     1.0     ENE    73   2.1       E    84   9.16    270      -61.1
   05/12/2019 22:50      60.2      59.8       82     54.3      0.00     19.01      69.9     0.34      1016.0     0.5     ENE    76   2.2      NE    43   9.16    268      -61.1
   05/12/2019 22:40      60.4      59.8       81     54.2      0.00     19.01      69.9     0.34      1015.9     0.4     ENE    69   2.0     ESE   122   9.16    268      -61.2
   05/12/2019 22:30      60.7      60.1       80     54.3      0.00     19.01      69.9     0.34      1015.8     0.6       E    85   2.0     ESE   104   9.16    269      -62.2
   05/12/2019 22:20      60.9      60.3       79     54.2      0.00     19.01      69.8     0.34      1015.8     0.4       E    85   2.0       E    88   9.16    269      -63.1
   05/12/2019 22:10      60.8      60.4       80     54.2      0.00     19.01      69.8     0.34      1015.7     0.4     ENE    61   2.0       E    94   9.16    269      -63.9
   05/12/2019 22:00      61.2      60.5       79     54.2      0.00     19.01      69.8     0.34      1015.6     0.4       E    80   1.6     ENE    71   9.17    269      -64.9
   05/12/2019 21:50      61.8      60.9       78     54.3      0.00     19.01      69.8     0.34      1015.5     0.6       E    93   2.2       E    95   9.17    269      -66.5
   05/12/2019 21:40      62.3      61.4       77     54.4      0.00     19.01      69.8     0.34      1015.3     1.3      NE    49   3.7      NE    54   9.17    269      -67.6
   05/12/2019 21:30      62.7      62.0       76     54.6      0.00     19.01      69.8     0.34      1015.1     1.5      NE    48   3.1     NNE    31   9.17    269      -68.0
   05/12/2019 21:20      62.7      62.3       75     54.6      0.00     19.01      69.8     0.34      1014.9     1.4      NE    44   2.8     ENE    66   9.17    269      -67.7
   05/12/2019 21:10      63.7      62.4       74     54.5      0.00     19.01      69.8     0.34      1014.8     0.2       E    94   1.4     NNE    31   9.17    269      -67.6
   05/12/2019 21:00      64.4      63.3       72     54.8      0.00     19.01      69.7     0.34      1014.7     0.9      NE    47   2.3      NE    49   9.18    269      -69.3
   05/12/2019 20:50      64.6      63.9       72     55.0      0.00     19.01      69.7     0.34      1014.6     1.1     NNE    27   2.0     NNE    27   9.18    268      -69.6
   05/12/2019 20:40      65.0      64.2       71     55.0      0.00     19.01      69.7     0.34      1014.5     0.4      NE    42   2.5      NE    51   9.18    268      -70.6
   05/12/2019 20:30      66.0      64.9       70     55.1      0.00     19.01      69.7     0.34      1014.4     1.0     ENE    57   2.0      NE    56   9.18    268      -72.1
   05/12/2019 20:20      67.0      65.7       68     55.4      0.00     19.01      69.6     0.34      1014.2     1.0      NE    49   2.6     NNE    26   9.18    268      -72.7
   05/12/2019 20:10      68.0      66.6       66     55.5      0.00     19.01      69.6     0.34      1014.0     0.5     SSE   152   2.4     SSW   211   9.19    268      -74.2
   05/12/2019 20:00      69.3      67.8       64     55.9      0.00     19.01      69.6     0.34      1013.9     0.9     SSE   158   2.6     WNW   295   9.19    268      -74.5
   05/12/2019 19:50      70.1      69.2       63     56.2      0.00     19.01      69.6     0.34      1013.7     0.8       N   353   2.6     WNW   297   9.19    268      -73.2
   05/12/2019 19:40      71.0      69.8       61     56.3      0.00     19.01      69.5     0.34      1013.5     0.8      NE    48   3.2     NNE    33   9.20    267      -70.3
   05/12/2019 19:30      72.5      70.7       59     56.6      0.00     19.01      69.5     0.34      1013.3     1.5     ENE    65   3.1       E    80   9.20    267      -67.1
   05/12/2019 19:20      73.6      72.2       57     56.7      0.00     19.01      69.4     0.34      1013.2     1.1     ENE    68   2.8       E    98   9.21    267      -57.1
   05/12/2019 19:10      75.0      73.4       53     55.8      0.00     19.01      69.4     0.34      1013.1     1.7     NNE    21   3.3     WNW   298   9.21    266      -41.6
   05/12/2019 19:00      75.1      74.5       50     55.1      0.00     19.01      69.4     0.34      1012.9     1.8     WNW   302   3.5     WNW   288   9.21    266      -23.4
   05/12/2019 18:50      75.2      74.7       50     54.9      0.00     19.01      69.3     0.34      1012.8     2.4     NNW   327   5.2     NNE    15   9.21    266       -2.0
   05/12/2019 18:40      75.7      74.8       49     54.8      0.00     19.01      69.3     0.34      1012.8     3.2      NW   326   6.3     NNE    34   9.22    266       21.8
   05/12/2019 18:30      77.0      75.2       48     54.8      0.00     19.01      69.2     0.34      1012.7     3.3      NW   326   7.6     WNW   296   9.22    266       46.0
   05/12/2019 18:20      77.6      76.8       46     55.0      0.00     19.01      69.2     0.34      1012.5     2.5     NNW   332   6.6     WNW   296   9.22    266       72.2
   05/12/2019 18:10      78.5      77.4       45     54.8      0.00     19.01      69.1     0.34      1012.5     3.4      NW   308   7.3      NW   307   9.23    265       97.5
   05/12/2019 18:00      78.7      78.1       44     54.8      0.00     19.01      69.1     0.34      1012.4     2.5      NW   304   6.3       N     3   9.23    265      124.1
   05/12/2019 17:50      79.0      78.4       44     54.7      0.00     19.01      69.0     0.34      1012.4     2.8     WNW   287   6.5       W   262   9.23    265      150.8
   05/12/2019 17:40      79.1      78.4       44     54.9      0.00     19.01      69.0     0.34      1012.4     3.1     WNW   293   6.5     NNW   329   9.24    265      178.1
   05/12/2019 17:30      80.7      78.7       43     55.1      0.00     19.01      68.9     0.34      1012.5     2.7     NNW   335   4.8     NNE    30   9.24    265      200.4
   05/12/2019 17:20      80.6      79.8       46     57.6      0.00     19.01      68.9     0.34      1012.5     1.5       N   351   4.3     NNW   341   9.24    266      224.7
   05/12/2019 17:10      80.0      78.4       47     57.2      0.00     19.01      68.8     0.34      1012.6     1.3      NW   322   3.6     NNE    20   9.24    266      251.9
   05/12/2019 17:00      79.5      78.5       48     57.3      0.00     19.01      68.8     0.34      1012.5     4.4      NW   319  10.3      NW   316   9.25    266      281.2
   05/12/2019 16:50      79.5      78.7       47     57.0      0.00     19.01      68.7     0.34      1012.5     5.6       W   279   9.4     WSW   240   9.25    266      304.8
   05/12/2019 16:40      79.5      76.9       51     58.0      0.00     19.01      68.6     0.34      1012.6     2.3       S   172   8.3      SE   133   9.25    266      330.6
   05/12/2019 16:30      77.7      76.7       51     57.8      0.00     19.01      68.5     0.34      1012.6     4.2       S   175   8.6      SE   140   9.25    266      354.1
   05/12/2019 16:20      78.0      77.3       50     57.9      0.00     19.01      68.5     0.34      1012.7     2.9       S   170   7.0      SE   145   9.26    266      371.8
   05/12/2019 16:10      77.6      76.6       51     57.6      0.00     19.01      68.4     0.34      1012.8     2.8     SSE   160   6.7      SE   128   9.26    266      394.9
   05/12/2019 16:00      77.8      76.5       51     57.6      0.00     19.01      68.4     0.34      1012.9     2.7     SSE   158   6.5      SW   220   9.26    266      416.8
   05/12/2019 15:50      78.4      76.6       51     58.0      0.00     19.01      68.3     0.34      1013.0     4.0       S   186   7.6       S   183   9.27    266      440.5
   05/12/2019 15:40      78.2      77.3       51     57.9      0.00     19.01      68.3     0.34      1013.0     3.0     SSE   168   5.7      SE   124   9.27    266      458.6
   05/12/2019 15:30      78.1      77.3       51     58.1      0.00     19.01      68.2     0.34      1013.0     4.0       S   183   9.5     SSE   165   9.27    266      477.3
   05/12/2019 15:20      77.8      77.0       51     57.9      0.00     19.01      68.1     0.34      1013.1     3.5       S   177   8.0     SSW   194   9.28    266      492.4
   05/12/2019 15:10      78.8      76.7       51     57.9      0.00     19.01      68.0     0.34      1013.3     4.3       S   185   8.1     SSW   207   9.28    266      509.6
   05/12/2019 15:00      78.8      76.3       51     57.4      0.00     19.01      67.9     0.34      1013.4     2.9      SE   146   7.7      SE   141   9.28    266      527.2
   05/12/2019 14:50      77.6      76.8       51     57.5      0.00     19.01      67.9     0.34      1013.5     4.0       S   171   6.9      SE   139   9.28    266      540.6
   05/12/2019 14:40      78.0      77.2       50     57.6      0.00     19.01      67.8     0.34      1013.5     3.7     SSE   166   8.7      SE   130   9.29    266      556.2
   05/12/2019 14:30      79.8      77.3       48     57.4      0.00     19.01      67.8     0.34      1013.5     3.1     ESE   119   7.3      SE   127   9.29    266      566.2
   05/12/2019 14:20      79.6      78.5       47     57.3      0.00     19.01      67.7     0.34      1013.6     2.5     ENE    65   4.9      NE    51   9.29    266      576.1
   05/12/2019 14:10      79.5      78.4       47     57.0      0.00     19.01      67.7     0.34      1013.6     2.6      SE   131   7.4      SE   124   9.29    266      588.3
   05/12/2019 14:00      79.4      77.9       46     56.5      0.00     19.01      67.6     0.34      1013.6     2.2     ENE    78   5.0     ESE   112   9.29    265      594.4
   05/12/2019 13:50      78.5      77.5       47     56.3      0.00     19.01      67.5     0.34      1013.8     3.4      NE    42   6.9     ENE    58   9.30    265      601.8
   05/12/2019 13:40      78.4      77.3       47     56.1      0.00     19.01      67.4     0.34      1013.8     2.6      NE    55   6.9     NNE    13   9.30    265      614.0
   05/12/2019 13:30      78.8      77.3       47     56.0      0.00     19.01      67.4     0.34      1013.8     2.8     ENE    56   6.0       E    86   9.30    265      614.8
   05/12/2019 13:20      78.0      76.6       47     55.8      0.00     19.01      67.3     0.34      1013.9     2.4     ENE    60   5.3       E    99   9.30    265      621.9
   05/12/2019 13:10      78.2      76.8       47     55.8      0.00     19.01      67.3     0.34      1014.0     1.9       E    79   5.2     ESE   108   9.30    265      628.7
   05/12/2019 13:00      77.4      75.8       48     55.6      0.00     19.01      67.2     0.34      1014.1     2.2      NE    52   4.7      NE    39   9.30    265      628.6
   05/12/2019 12:50      76.3      75.6       49     55.5      0.00     19.01      67.2     0.33      1014.2     2.3     NNE    17   4.2     WNW   303   9.30    265      629.4
   05/12/2019 12:40      76.1      74.6       50     55.6      0.00     19.01      67.1     0.34      1014.3     2.1     NNE    21   5.1       N     2   9.30    265      631.7
   05/12/2019 12:30      75.1      74.3       51     55.5      0.00     19.01      67.1     0.34      1014.4     2.2       E    80   4.4      NE    53   9.30    265      629.0
   05/12/2019 12:20      75.0      73.8       52     55.4      0.00     19.01      67.1     0.34      1014.4     1.7      NE    40   4.6       E    97   9.31    265      625.5
   05/12/2019 12:10      74.4      73.1       53     55.5      0.00     19.01      67.0     0.33      1014.4     2.0      NE    36   4.7     ENE    58   9.31    265      621.1
   05/12/2019 12:00      73.3      72.2       55     55.5      0.00     19.01      67.0     0.33      1014.6     2.1       E    89   6.6       E    99   9.31    265      617.9
   05/12/2019 11:50      73.4      71.7       55     55.4      0.00     19.01      67.0     0.33      1014.6     2.3     ENE    60   4.3       E    99   9.31    265      611.2
   05/12/2019 11:40      72.7      71.7       55     55.4      0.00     19.01      67.0     0.33      1014.7     2.5      NE    47   5.7     NNE    20   9.31    265      600.7
   05/12/2019 11:30      72.2      71.5       56     55.2      0.00     19.01      67.0     0.34      1014.9     2.6      NE    34   5.7      NE    54   9.31    265      592.4
   05/12/2019 11:20      72.1      70.7       57     55.3      0.00     19.01      67.0     0.34      1014.9     2.0      NE    40   4.6       E    81   9.31    265      583.6
   05/12/2019 11:10      71.1      70.1       58     55.1      0.00     19.01      67.0     0.34      1015.0     1.9      NE    49   5.1       E    86   9.31    265      572.1
   05/12/2019 11:00      70.3      69.1       59     54.8      0.00     19.01      67.0     0.34      1015.0     2.4      NE    44   5.5      NE    42   9.31    266      563.1
   05/12/2019 10:50      69.6      67.6       61     54.7      0.00     19.01      67.0     0.34      1015.0     1.9       E    82   4.8      NE    54   9.31    266      551.1
   05/12/2019 10:40      68.8      67.1       63     54.5      0.00     19.01      67.0     0.34      1015.0     3.2     ESE   112   8.7     SSE   147   9.31    266      537.8
   05/12/2019 10:30      69.1      67.5       62     54.7      0.00     19.01      67.0     0.34      1015.0     1.9       E    92   4.7       E    89   9.31    266      515.5
   05/12/2019 10:20      67.8      66.8       64     54.6      0.00     19.01      67.0     0.34      1014.9     2.4      NE    43   5.2     ENE    64   9.31    266      502.5
   05/12/2019 10:10      67.5      66.0       65     54.6      0.00     19.01      67.1     0.34      1014.9     2.3     NNE    24   5.3      NE    56   9.32    266      484.7
   05/12/2019 10:00      66.6      65.4       66     54.4      0.00     19.01      67.1     0.34      1014.9     2.8     NNE    25   6.2     ENE    57   9.32    267      426.6
   05/12/2019 09:50      66.5      65.3       66     54.3      0.00     19.01      67.1     0.34      1014.9     2.7     NNE    31   6.1      NE    50   9.32    266      448.2
   05/12/2019 09:40      66.3      65.8       66     54.4      0.00     19.01      67.1     0.33      1014.8     2.0      NE    35   4.4      NE    54   9.32    266      440.6
   05/12/2019 09:30      66.6      65.1       67     54.2      0.00     19.01      67.2     0.34      1014.8     3.1      NE    48   5.0      NE    34   9.32    267      448.8
   05/12/2019 09:20      66.4      63.5       69     54.8      0.00     19.01      67.2     0.34      1014.9     1.1       E    95   5.3      NE    40   9.32    267      491.1
   05/12/2019 09:10      63.7      62.5       73     54.3      0.00     19.01      67.2     0.34      1014.9     0.9     SSE   168   3.1       S   188   9.32    275      383.8
   05/12/2019 09:00      62.7      61.8       75     54.5      0.00     19.01      67.2     0.34      1014.9     0.8     ESE   118   2.2      SE   135   9.32    288      177.7
   05/12/2019 08:50      61.9      60.5       78     54.4      0.00     19.01      67.3     0.34      1014.9     0.5      NW   322   2.1     NNE    29   9.32    294      160.6
   05/12/2019 08:40      60.9      60.2       79     53.8      0.00     19.01      67.3     0.34      1014.7     1.3     NNW   333   3.0     NNE    16   9.32    297      134.9
   05/12/2019 08:30      61.2      60.6       78     53.9      0.00     19.01      67.4     0.34      1014.7     1.7       E    84   2.8      SE   131   9.32    300       98.1
   05/12/2019 08:20      61.5      61.0       78     54.3      0.00     19.01      67.3     0.34      1014.7     1.9     ENE    56   4.0     ENE    69   9.32    303      158.4
   05/12/2019 08:10      61.3      59.7       81     54.5      0.00     19.01      67.4     0.34      1014.8     1.3     ESE   113   3.8     ESE   123   9.32    309      166.2
   05/12/2019 08:00      59.9      58.9       82     53.9      0.00     19.01      67.4     0.34      1014.8     1.2     ESE   103   3.2     ENE    63   9.32    322      108.9
   05/12/2019 07:50      59.0      58.0       86     54.3      0.00     19.01      67.4     0.34      1014.8     1.0     ESE   115   2.7      SE   133   9.32    353       85.8
   05/12/2019 07:40      58.1      56.8       89     54.4      0.00     19.01      67.5     0.34      1014.8     0.4     ENE    76   2.7       E    82   9.32    374       65.1
   05/12/2019 07:30      57.1      56.2       91     54.0      0.00     19.01      67.5     0.34      1014.7     0.8     ENE    68   2.5     ESE   103   9.32    384       46.7
   05/12/2019 07:20      56.4      55.4       93     53.8      0.00     19.01      67.5     0.34      1014.6     0.2       E    79   1.1       E    79   9.32    393       40.1
   05/12/2019 07:10      55.7      54.5       93     53.1      0.00     19.01      67.5     0.34      1014.6     0.0     ENE    74   0.7       N     7   9.32    398       34.0
   05/12/2019 07:00      54.6      53.8       93     52.3      0.00     19.01      67.6     0.34      1014.6     0.3      SE   140   0.8      SE   140   9.32    401       25.8
   05/12/2019 06:50      54.0      53.5       93     52.0      0.00     19.01      67.6     0.34      1014.5     0.0      SE   140   0.8      SE   140   9.32    402       17.1
   05/12/2019 06:40      53.8      53.1       94     51.6      0.00     19.01      67.6     0.34      1014.5     0.0       N     0   0.0      SE   140   9.32    402        8.9
   05/12/2019 06:30      53.3      52.6       93     51.0      0.00     19.01      67.6     0.34      1014.4     0.0       N     0   0.0      SE   139   9.32    399        1.0
   05/12/2019 06:20      53.3      52.7       93     51.2      0.00     19.01      67.7     0.34      1014.4     0.0      SE   140   0.7      SE   139   9.32    397       -5.3
   05/12/2019 06:10      53.5      52.9       93     51.1      0.00     19.01      67.7     0.34      1014.3     0.1     SSE   147   0.7     SSE   147   9.32    393       -9.9
   05/12/2019 06:00      53.4      52.8       93     51.1      0.00     19.01      67.7     0.34      1014.2     0.1      SE   146   0.9      SE   145   9.32    390      -14.3
   05/12/2019 05:50      53.5      52.6       93     50.9      0.00     19.01      67.8     0.34      1014.0     0.1     SSE   165   0.8     SSE   167   9.32    386      -16.4
   05/12/2019 05:40      53.5      53.0       93     51.3      0.00     19.01      67.8     0.34      1014.0     0.0       N     0   0.0       S   181   9.32    382      -17.4
   05/12/2019 05:30      53.5      52.9       93     51.2      0.00     19.01      67.8     0.34      1014.0     0.3       S   184   1.1       S   186   9.32    377      -17.6
   05/12/2019 05:20      53.3      52.6       93     50.9      0.00     19.01      67.8     0.34      1013.9     0.0       S   186   0.9       S   186   9.32    373      -18.4
   05/12/2019 05:10      53.4      52.7       92     50.7      0.00     19.01      67.8     0.34      1013.8     0.0      SE   145   0.6      SE   145   9.33    367      -19.0
   05/12/2019 05:00      54.0      53.1       92     51.2      0.00     19.01      67.9     0.34      1013.7     0.3      SE   146   1.3      SE   145   9.33    362      -19.4
   05/12/2019 04:50      54.2      53.8       92     51.8      0.00     19.01      67.9     0.34      1013.7     0.1     SSE   157   0.7     SSE   157   9.33    357      -19.4
   05/12/2019 04:40      54.1      53.5       92     51.6      0.00     19.01      67.9     0.34      1013.7     0.2     SSE   163   0.9     SSE   159   9.33    351      -19.9
   05/12/2019 04:30      54.0      53.5       92     51.3      0.00     19.01      67.9     0.34      1013.7     0.0     SSE   164   0.5       S   173   9.33    345      -20.9
   05/12/2019 04:20      54.3      53.6       92     51.6      0.00     19.01      68.0     0.34      1013.7     0.4     SSE   157   1.0       S   180   9.33    341      -21.7
   05/12/2019 04:10      54.1      53.2       92     51.1      0.00     19.01      68.0     0.34      1013.7     0.5     SSE   156   1.2     SSE   150   9.33    336      -23.2
   05/12/2019 04:00      54.1      53.5       91     51.3      0.00     19.01      67.9     0.34      1013.7     0.6     SSE   156   1.8      SE   140   9.33    331      -23.4
   05/12/2019 03:50      54.3      53.9       91     51.6      0.00     19.01      68.0     0.34      1013.6     0.7     SSE   160   1.4      SE   144   9.33    326      -23.9
   05/12/2019 03:40      54.8      54.1       91     51.8      0.00     19.01      68.0     0.34      1013.5     0.7     SSE   151   1.2     SSE   147   9.33    320      -25.6
   05/12/2019 03:30      54.9      54.2       91     51.8      0.00     19.01      68.0     0.34      1013.5     0.3     SSE   150   1.0      SE   142   9.33    317      -27.6
   05/12/2019 03:20      55.1      54.5       90     52.0      0.00     19.01      68.1     0.34      1013.7     0.7     SSE   156   1.5      SE   140   9.33    312      -29.0
   05/12/2019 03:10      54.9      54.3       90     51.7      0.00     19.01      68.1     0.34      1013.7     0.4     SSE   156   1.1      SE   134   9.33    308      -32.0
   05/12/2019 03:00      55.5      54.4       89     51.7      0.00     19.01      68.1     0.34      1013.7     0.9     SSE   148   1.7      SE   136   9.33    304      -33.5
   05/12/2019 02:50      56.0      55.2       89     52.3      0.00     19.01      68.1     0.34      1013.7     0.6       S   169   1.8       S   189   9.33    300      -34.8
   05/12/2019 02:40      56.8      55.8       88     52.6      0.00     19.01      68.1     0.34      1013.7     0.8       S   186   1.8       S   190   9.33    296      -37.2
   05/12/2019 02:30      57.0      56.5       88     53.1      0.00     19.01      68.1     0.34      1013.8     0.6       S   177   1.2       S   183   9.33    292      -39.2
   05/12/2019 02:20      57.3      56.7       87     53.0      0.00     19.01      68.1     0.34      1013.7     0.2       S   172   0.9       S   178   9.33    287      -44.6
   05/12/2019 02:10      57.4      56.8       86     52.9      0.00     19.01      68.1     0.34      1013.8     0.0     SSE   152   0.8     SSE   168   9.33    282      -48.6
   05/12/2019 02:00      57.5      57.0       85     52.8      0.00     19.01      68.2     0.34      1013.8     0.2     SSE   157   1.4      SE   144   9.33    275      -52.7
   05/12/2019 01:50      58.0      57.3       85     53.0      0.00     19.01      68.2     0.34      1013.9     0.1     ESE   119   0.8      SE   135   9.34    269      -55.5
   05/12/2019 01:40      58.2      57.6       84     52.9      0.00     19.01      68.2     0.34      1013.9     0.0       N     0   0.0     ESE   114   9.34    267      -57.0
   05/12/2019 01:30      58.8      58.0       82     52.9      0.00     19.01      68.2     0.34      1014.0     0.0     ESE   103   0.7     ESE   107   9.34    267      -58.9
   05/12/2019 01:20      59.2      58.5       82     53.3      0.00     19.01      68.2     0.34      1014.0     0.6     ENE    58   2.2      NE    51   9.34    270      -58.5
   05/12/2019 01:10      59.4      58.8       81     53.1      0.00     19.01      68.2     0.34      1014.0     0.5      NE    40   1.4     ENE    71   9.34    268      -58.4
   05/12/2019 01:00      59.8      59.0       80     53.2      0.00     19.01      68.2     0.34      1014.1     0.5     ENE    67   1.9     ENE    68   9.34    270      -59.1
   05/12/2019 00:50      59.8      59.5       80     53.4      0.00     19.01      68.2     0.34      1014.1     0.9      NE    45   2.9     ENE    60   9.34    271      -59.2
   05/12/2019 00:40      59.6      59.2       80     53.3      0.00     19.01      68.3     0.34      1014.1     1.1      NE    49   2.6      NE    45   9.34    271      -57.9
   05/12/2019 00:30      59.5      58.8       81     53.3      0.00     19.01      68.3     0.34      1014.0     0.7     ENE    56   3.1       E    87   9.34    270      -58.0
   05/12/2019 00:20      59.1      58.5       81     52.8      0.00     19.01      68.3     0.34      1013.9     0.2     ENE    65   1.9     ENE    57   9.34    270      -57.9
   05/12/2019 00:10      59.7      58.8       80     52.9      0.00     19.01      68.3     0.34      1013.8     0.2     ESE   120   1.0      SE   133   9.34    270      -58.1
   05/12/2019 00:00      60.1      59.4       79     53.2      0.00     19.01      68.3     0.34      1013.7     0.0     ENE    69   0.7      NE    49   9.34    270      -58.4
   05/11/2019 23:50      60.2      59.8       79     53.4      0.00     19.01      68.3     0.34      1013.6     0.0       E   101   1.0       E    88   9.34    270      -58.9
   05/11/2019 23:40      60.7      59.9       78     53.4      0.00     19.01      68.3     0.34      1013.6     0.1     ESE   111   0.8     ENE    75   9.35    270      -59.2
   05/11/2019 23:30      61.0      60.3       77     53.3      0.00     19.01      68.3     0.34      1013.6     0.2     ENE    70   2.0      NE    44   9.35    270      -59.0
   05/11/2019 23:20      61.3      60.7       77     53.5      0.00     19.01      68.2     0.34      1013.6     0.5     ENE    72   2.4     ENE    63   9.35    270      -58.4
   05/11/2019 23:10      61.2      60.9       76     53.4      0.00     19.01      68.3     0.34      1013.5     0.4       E    82   2.6       E    90   9.35    270      -59.1
   05/11/2019 23:00      61.2      60.4       75     52.8      0.00     19.01      68.3     0.34      1013.5     0.6     ESE   109   2.5     ESE   118   9.35    269      -58.0
   05/11/2019 22:50      61.0      60.3       71     51.2      0.00     19.01      68.2     0.34      1013.5     0.0     ESE   111   1.6     ESE   122   9.35    269      -55.6
   05/11/2019 22:40      61.2      60.7       70     51.1      0.00     19.01      68.2     0.34      1013.5     0.4     SSE   167   1.2     SSW   195   9.35    269      -55.7
   05/11/2019 22:30      61.0      60.4       71     51.2      0.00     19.01      68.3     0.34      1013.3     0.5     SSE   167   1.3       S   173   9.35    269      -55.6
   05/11/2019 22:20      62.0      60.5       69     50.9      0.00     19.01      68.2     0.34      1013.3     0.5      SE   145   1.2      SE   139   9.35    269      -56.8
   05/11/2019 22:10      62.3      61.6       67     50.9      0.00     19.01      68.2     0.34      1013.2     0.5       S   186   1.2       S   186   9.36    269      -57.1
   05/11/2019 22:00      63.7      62.0       65     50.7      0.00     19.01      68.2     0.34      1013.1     0.5     SSE   151   1.5       S   184   9.36    268      -58.7
   05/11/2019 21:50      64.3      63.3       63     50.7      0.00     19.01      68.2     0.34      1013.0     0.5     SSW   212   1.2      SW   219   9.36    268      -59.5
   05/11/2019 21:40      64.8      63.9       61     50.8      0.00     19.01      68.2     0.34      1012.9     1.0     SSW   192   2.2     SSW   195   9.36    268      -62.7
   05/11/2019 21:30      64.9      64.2       61     50.8      0.00     19.01      68.2     0.34      1012.9     2.1     SSW   207   3.7     SSW   197   9.36    268      -63.7
   05/11/2019 21:20      65.2      64.6       60     50.8      0.00     19.01      68.1     0.34      1012.9     2.1     SSW   205   3.9     SSW   212   9.36    268      -64.3
   05/11/2019 21:10      65.5      64.9       60     50.8      0.00     19.01      68.2     0.34      1012.7     2.1      SW   223   3.4      SW   221   9.36    268      -65.2
   05/11/2019 21:00      66.2      65.2       59     50.8      0.00     19.01      68.1     0.34      1012.6     2.7      SW   227   4.3      SW   223   9.36    268      -66.4
   05/11/2019 20:50      66.5      65.8       58     50.9      0.00     19.01      68.1     0.34      1012.6     2.1     WSW   248   5.5     WNW   289   9.36    268      -66.2
   05/11/2019 20:40      66.7      66.1       58     51.0      0.00     19.01      68.1     0.34      1012.4     2.3     WSW   242   3.7      SW   229   9.37    268      -63.3
   05/11/2019 20:30      67.1      66.3       57     51.0      0.00     19.01      68.0     0.34      1012.4     1.8     SSW   209   4.4      SW   232   9.37    267      -58.3
   05/11/2019 20:20      67.1      66.6       56     50.9      0.00     19.01      68.0     0.34      1012.4     2.9     WSW   249   6.3       W   265   9.37    267      -50.4
   05/11/2019 20:10      67.5      66.4       57     50.9      0.00     19.01      68.0     0.34      1012.3     2.9     SSW   210   4.3      SW   216   9.37    268      -53.5
   05/11/2019 20:00      67.9      67.2       55     51.0      0.00     19.01      67.9     0.34      1012.3     1.6      SW   236   4.2     SSW   207   9.38    267      -61.2
   05/11/2019 19:50      67.9      67.3       55     50.7      0.00     19.01      67.9     0.34      1012.3     2.4     WSW   254   5.6       W   261   9.38    267      -58.2
   05/11/2019 19:40      68.4      67.4       54     50.8      0.00     19.01      67.8     0.34      1012.1     2.6      SW   216   4.3      SW   214   9.38    267      -58.3
   05/11/2019 19:30      68.6      68.1       55     51.3      0.00     19.01      67.8     0.34      1011.9     3.2     WSW   246   5.8     WNW   282   9.39    267      -57.0
   05/11/2019 19:20      69.1      68.2       54     51.4      0.00     19.01      67.8     0.34      1011.8     5.3     WSW   241   8.1      SW   230   9.39    267      -46.2
   05/11/2019 19:10      70.0      68.7       53     51.6      0.00     19.01      67.7     0.34      1011.8     4.7     WSW   250   8.1     WSW   250   9.39    267      -34.4
   05/11/2019 19:00      70.3      69.7       52     51.7      0.00     19.01      67.7     0.34      1011.7     4.0     WSW   258   8.0       W   261   9.40    267      -11.8
   05/11/2019 18:50      70.1      69.3       52     51.4      0.00     19.01      67.7     0.34      1011.7     4.6     WSW   248   8.5       W   263   9.40    266        6.1
   05/11/2019 18:40      70.7      69.5       51     50.9      0.00     19.01      67.6     0.34      1011.7     6.1       W   276  10.2     WNW   292   9.40    266      -31.7
   05/11/2019 18:30      72.3      70.3       49     51.1      0.00     19.01      67.6     0.34      1011.4     5.9       W   274  11.5     WSW   250   9.41    266      -42.6
   05/11/2019 18:20      74.5      72.1       46     51.0      0.00     19.01      67.5     0.34      1011.4     6.8       W   268  11.6       W   265   9.41    266       37.7
   05/11/2019 18:10      74.7      74.2       44     51.0      0.00     19.01      67.5     0.34      1011.4     5.2       W   274  11.9       W   269   9.42    265      148.2
   05/11/2019 18:00      74.7      73.8       44     50.9      0.00     19.01      67.4     0.34      1011.4     6.6     WSW   255  10.7       W   260   9.42    266      189.0
   05/11/2019 17:50      75.5      74.0       44     51.7      0.00     19.01      67.4     0.34      1011.3     6.8     WSW   252  11.9     WSW   237   9.42    266      145.7
   05/11/2019 17:40      76.9      75.2       44     52.5      0.00     19.01      67.3     0.34      1011.2     5.6       W   259   8.6     WNW   299   9.43    266      245.2
   05/11/2019 17:30      77.4      76.3       44     53.5      0.00     19.01      67.3     0.34      1011.1     4.9       W   280  10.8     WNW   291   9.43    265      277.6
   05/11/2019 17:20      77.0      76.0       45     53.4      0.00     19.01      67.2     0.34      1011.2     3.9     WNW   284   9.1       W   278   9.44    265      247.6
   05/11/2019 17:10      77.6      76.4       44     53.5      0.00     19.01      67.2     0.34      1011.3     4.6     WNW   301   9.7     NNW   332   9.44    265      205.9
   05/11/2019 17:00      78.3      77.1       43     53.7      0.00     19.01      67.1     0.34      1011.3     4.7      NW   308  11.8     WNW   285   9.44    265      388.0
   05/11/2019 16:50      78.2      77.3       44     54.0      0.00     19.01      67.1     0.34      1011.3     4.9     WNW   301  11.8       W   268   9.45    265      402.8
   05/11/2019 16:40      78.6      77.8       43     53.8      0.00     19.01      67.0     0.34      1011.4     4.1     WNW   294   8.5     WSW   254   9.45    265      371.9
   05/11/2019 16:30      78.4      76.8       43     53.4      0.00     19.01      67.0     0.34      1011.3     3.7      NW   312   8.9     WNW   295   9.45    265      437.4
   05/11/2019 16:20      79.3      77.5       42     53.6      0.00     19.01      66.9     0.34      1011.3     3.6       W   279   8.5       W   262   9.45    265      375.3
   05/11/2019 16:10      78.4      77.4       43     53.6      0.00     19.01      66.8     0.34      1011.1     3.6     WSW   254   8.7     WNW   292   9.46    266      468.3
   05/11/2019 16:00      78.5      76.9       43     53.6      0.00     19.01      66.8     0.34      1011.1     4.3       W   280   8.6     WSW   257   9.46    265      442.3
   05/11/2019 15:50      78.2      76.5       44     53.6      0.00     19.01      66.7     0.34      1011.3     5.7      SW   233  10.0      SW   225   9.46    266      454.9
   05/11/2019 15:40      78.5      77.8       43     53.8      0.00     19.01      66.7     0.34      1011.4     3.7      NW   320   8.9      NW   311   9.46    266      483.4
   05/11/2019 15:30      78.1      77.0       44     54.0      0.00     19.01      66.6     0.34      1011.4     4.9     WNW   282   9.6     NNW   334   9.46    266      522.7
   05/11/2019 15:20      78.7      76.8       45     54.4      0.00     19.01      66.5     0.34      1011.5     4.1       W   268  14.0      NW   305   9.46    266      233.2
   05/11/2019 15:10      78.6      76.2       47     55.4      0.00     19.01      66.5     0.34      1011.8     1.3     SSE   159   5.0      SE   127   9.47    266      453.2
   05/11/2019 15:00      76.8      75.8       49     55.4      0.00     19.01      66.4     0.34      1012.0     3.7     SSE   153   7.1     SSW   210   9.47    266      550.6
   05/11/2019 14:50      76.9      74.4       49     55.2      0.00     19.01      66.3     0.34      1012.2     2.4     ESE   109   7.4     SSE   157   9.47    266      561.8
   05/11/2019 14:40      76.2      74.4       49     55.3      0.00     19.01      66.3     0.34      1012.4     4.3      SE   126   8.1      SE   141   9.47    266      566.5
   05/11/2019 14:30      76.2      73.8       50     55.0      0.00     19.01      66.2     0.34      1012.5     3.2     ENE    72   7.7     ENE    71   9.47    266      561.9
   05/11/2019 14:20      74.6      73.8       50     54.7      0.00     19.01      66.2     0.34      1012.7     4.0       E    95   7.6       E    86   9.47    266      220.6
   05/11/2019 14:10      76.5      74.2       49     54.7      0.00     19.01      66.1     0.34      1012.7     3.8     ESE   102   7.0      NE    49   9.47    266      220.7
   05/11/2019 14:00      76.9      76.2       48     55.2      0.00     19.01      66.1     0.34      1012.8     2.7      SE   136   5.4     SSE   149   9.48    266      456.0
   05/11/2019 13:50      77.3      75.8       48     55.0      0.00     19.01      66.0     0.34      1012.9     2.2     ESE   112   5.3      SE   141   9.48    266      551.8
   05/11/2019 13:40      76.9      75.8       48     55.3      0.00     19.01      65.9     0.33      1013.0     1.8       W   274   5.0       W   274   9.48    266      637.2
   05/11/2019 13:30      76.7      74.4       50     55.5      0.00     19.01      65.8     0.33      1013.2     1.4     NNW   340   3.2     SSW   211   9.48    266      598.1
   05/11/2019 13:20      75.5      74.0       50     54.9      0.00     19.01      65.8     0.33      1013.3     1.8       N   360   3.8     NNW   342   9.48    267      185.5
   05/11/2019 13:10      75.6      74.3       50     54.8      0.00     19.01      65.8     0.33      1013.4     1.3      NW   317   3.9       N     3   9.48    266      283.2
   05/11/2019 13:00      75.4      73.8       50     54.9      0.00     19.01      65.8     0.33      1013.5     2.0       E    95   4.7     SSE   149   9.48    266      649.3
   05/11/2019 12:50      75.8      74.2       50     54.8      0.00     19.01      65.7     0.33      1013.7     2.6      NE    48   5.8       E   100   9.48    265      641.9
   05/11/2019 12:40      75.6      74.1       50     54.6      0.00     19.01      65.7     0.33      1013.8     1.2     ENE    62   3.5       E    92   9.48    265      632.4
   05/11/2019 12:30      74.3      72.8       52     54.6      0.00     19.01      65.7     0.33      1013.8     1.4       W   271   5.4     WNW   286   9.48    265      634.3
   05/11/2019 12:20      73.6      72.8       53     54.7      0.00     19.01      65.7     0.33      1014.0     1.9       N   351   3.9       N    10   9.49    265      636.8
   05/11/2019 12:10      73.0      71.4       54     54.5      0.00     19.01      65.6     0.33      1014.1     2.6     NNW   339   4.8     WSW   258   9.49    266      629.0
   05/11/2019 12:00      71.8      70.9       55     54.3      0.00     19.01      65.6     0.33      1014.2     1.4     WSW   246   4.4     NNE    26   9.49    266      625.0
   05/11/2019 11:50      71.5      70.1       56     54.4      0.00     19.01      65.6     0.33      1014.3     1.8       N   351   5.2     NNE    24   9.49    266      620.5
   05/11/2019 11:40      70.5      69.8       57     54.1      0.00     19.01      65.5     0.33      1014.4     2.6     NNE    24   5.3     NNE    23   9.49    266      614.9
   05/11/2019 11:30      70.5      68.8       58     54.2      0.00     19.01      65.6     0.33      1014.5     2.0     NNE    14   5.2     NNE    13   9.49    266      622.7
   05/11/2019 11:20      69.0      68.3       58     53.5      0.00     19.01      65.6     0.33      1014.5     1.6     NNE    12   4.1      NE    37   9.49    266      441.7
   05/11/2019 11:10      68.7      68.0       60     54.0      0.00     19.01      65.5     0.33      1014.5     1.5      NW   309   4.2     WSW   251   9.49    267      446.4
   05/11/2019 11:00      68.6      68.1       61     54.3      0.00     19.01      65.6     0.33      1014.5     2.0       N     0   4.9       N     2   9.49    266      528.5
   05/11/2019 10:50      68.5      66.5       63     54.5      0.00     19.01      65.6     0.33      1014.5     1.4     NNW   345   3.1     NNW   345   9.49    267      596.7
   05/11/2019 10:40      66.5      65.3       66     53.9      0.00     19.01      65.5     0.33      1014.6     1.5     NNE    21   3.2       W   268   9.49    268      372.1
   05/11/2019 10:30      66.0      65.2       67     54.1      0.00     19.01      65.5     0.33      1014.6     1.6     NNE    23   3.4     NNE    22   9.49    268      257.7
   05/11/2019 10:20      65.9      65.4       65     53.8      0.00     19.01      65.5     0.33      1014.7     1.8     NNE    25   4.2     NNE    18   9.49    267      411.0
   05/11/2019 10:10      65.9      65.2       66     53.8      0.00     19.01      65.6     0.33      1014.7     1.2       S   177   3.0       S   170   9.49    267      547.9
   05/11/2019 10:00      65.2      64.1       69     54.0      0.00     19.01      65.6     0.33      1014.7     1.0       W   280   5.4     WNW   288   9.49    268      380.6
   05/11/2019 09:50      65.4      64.3       69     54.3      0.00     19.01      65.6     0.33      1014.6     2.0       N   358   4.3       N     8   9.49    267      448.1
   05/11/2019 09:40      65.4      63.7       71     55.0      0.00     19.01      65.6     0.33      1014.6     0.9       N     9   3.2     NNW   340   9.49    267      462.3
   05/11/2019 09:30      64.0      62.5       73     54.2      0.00     19.01      65.7     0.33      1014.6     1.2     ENE    67   2.7     ENE    74   9.49    267      434.1
   05/11/2019 09:20      63.0      61.4       76     54.4      0.00     19.01      65.7     0.33      1014.5     0.8      NW   324   2.8       W   277   9.49    267      408.6
   05/11/2019 09:10      61.8      60.7       77     54.2      0.00     19.01      65.7     0.33      1014.5     1.2     NNE    18   3.3     NNW   329   9.49    268      412.3
   05/11/2019 09:00      60.8      59.3       81     54.0      0.00     19.01      65.7     0.33      1014.6     0.3     NNW   346   1.2     NNW   337   9.49    269      246.1
   05/11/2019 08:50      59.6      58.9       84     54.5      0.00     19.01      65.8     0.33      1014.5     0.9     NNW   337   2.3     NNW   334   9.49    270      232.9
   05/11/2019 08:40      59.2      57.9       87     54.6      0.00     19.01      65.8     0.33      1014.7     0.4       S   190   2.1      NW   315   9.49    275      196.0
   05/11/2019 08:30      58.1      57.4       89     54.5      0.00     19.01      65.8     0.33      1014.7     0.8       S   188   2.2     SSW   195   9.49    280      185.2
   05/11/2019 08:20      57.6      56.8       91     54.4      0.00     19.01      65.8     0.33      1014.7     0.6     SSE   162   2.1      SE   139   9.49    284      106.3
   05/11/2019 08:10      57.1      55.9       92     54.2      0.00     19.01      65.9     0.33      1014.7     0.7       S   171   2.2     SSE   148   9.49    292      100.4
   05/11/2019 08:00      56.2      55.0       93     53.5      0.00     19.01      65.9     0.33      1014.7     1.6      SE   137   2.4      SE   146   9.49    303      114.3
   05/11/2019 07:50      55.2      54.5       93     52.9      0.00     19.01      65.9     0.33      1014.7     0.9       S   182   2.3     SSE   168   9.49    319       88.3
   05/11/2019 07:40      54.7      54.0       93     52.3      0.00     19.01      65.9     0.33      1014.7     0.4     WNW   284   1.0      NW   307   9.49    330       50.2
   05/11/2019 07:30      54.2      53.3       93     51.8      0.00     19.01      65.9     0.33      1014.7     0.7     WNW   300   1.3      NW   316   9.49    328       35.4
   05/11/2019 07:20      53.5      53.0       93     51.2      0.00     19.01      66.0     0.33      1014.6     0.2     ENE    70   0.9     NNE    22   9.49    348       28.2
   05/11/2019 07:10      53.3      53.0       93     51.2      0.00     19.01      65.9     0.34      1014.5     0.2       S   185   1.1       S   188   9.49    346       26.0
   05/11/2019 07:00      53.2      52.6       93     50.7      0.00     19.01      66.0     0.33      1014.5     0.0     SSE   150   0.5      SE   141   9.49    344       25.2
   05/11/2019 06:50      53.0      52.5       93     50.6      0.00     19.01      66.0     0.34      1014.3     0.1       S   190   0.9       S   177   9.49    341       21.5
   05/11/2019 06:40      53.0      52.5       92     50.5      0.00     19.01      66.0     0.34      1014.2     0.4     SSE   158   1.2       S   174   9.49    339       15.8
   05/11/2019 06:30      52.9      52.2       92     50.4      0.00     19.01      66.0     0.33      1014.1     0.2      SE   146   1.6      SE   141   9.49    337        9.5
   05/11/2019 06:20      53.7      52.2       91     50.1      0.00     19.01      66.0     0.34      1013.9     0.4       S   176   1.9     SSE   152   9.49    335        4.4
   05/11/2019 06:10      53.6      53.2       92     51.0      0.00     19.01      66.1     0.34      1013.9     0.6     SSW   208   1.6      SW   234   9.49    331        0.6
   05/11/2019 06:00      54.0      53.2       91     50.9      0.00     19.01      66.1     0.34      1013.7     0.2       S   176   1.0      SE   143   9.49    326       -2.6
   05/11/2019 05:50      54.2      53.6       91     51.1      0.00     19.01      66.1     0.34      1013.7     0.0       N     0   0.0     ESE   117   9.49    321       -4.4
   05/11/2019 05:40      54.8      53.9       90     51.5      0.00     19.01      66.1     0.34      1013.7     0.0     SSE   167   0.5       S   171   9.49    315       -4.5
   05/11/2019 05:30      55.0      54.4       90     51.6      0.00     19.01      66.1     0.34      1013.7     0.6       E    98   1.3     ENE    72   9.49    310       -4.2
   05/11/2019 05:20      55.6      54.7       88     51.8      0.00     19.01      66.2     0.34      1013.6     0.6     SSE   147   1.8      SE   135   9.49    304       -4.7
   05/11/2019 05:10      55.5      55.2       89     52.1      0.00     19.01      66.2     0.34      1013.5     0.1      SE   135   1.0      SE   141   9.49    298       -4.4
   05/11/2019 05:00      55.4      55.1       89     52.2      0.00     19.01      66.2     0.34      1013.2     1.7       S   173   4.2       S   187   9.49    296       -4.2
   05/11/2019 04:50      55.3      54.9       90     52.3      0.00     19.01      66.2     0.34      1013.2     2.1       S   187   4.8     SSW   202   9.49    300       -3.9
   05/11/2019 04:40      55.2      54.6       90     52.0      0.00     19.01      66.3     0.34      1013.2     1.9       S   173   3.9       S   187   9.49    332       -3.5
   05/11/2019 04:30      55.3      54.8       90     52.1      0.00     19.01      66.3     0.34      1013.2     1.5       S   183   3.7       S   179   9.49    335       -3.3
   05/11/2019 04:20      55.3      54.8       90     52.2      0.00     19.01      66.3     0.34      1013.2     1.9      SW   234   3.7     WSW   248   9.49    328       -3.5
   05/11/2019 04:10      54.9      54.1       91     51.9      0.00     19.01      66.3     0.34      1013.3     2.9     WSW   246   5.1     WSW   255   9.49    330       -3.3
   05/11/2019 04:00      54.5      54.1       91     51.7      0.01     19.01      66.3     0.34      1013.5     2.6     SSW   197   4.3      SW   225   9.49    348       -2.4
   05/11/2019 03:50      54.5      54.0       91     51.5      0.02     19.00      66.3     0.34      1013.8     1.7     SSW   198   3.2     SSW   214   9.48    430       -2.1
   05/11/2019 03:40      54.2      53.9       92     51.6      0.00     18.98      66.4     0.34      1013.9     2.3      SW   218   4.0     WSW   237   9.47    380       -2.2
   05/11/2019 03:30      54.3      53.2       92     51.6      0.01     18.98      66.4     0.34      1013.7     0.9     SSW   210   2.3       W   270   9.47    363       -2.6
   05/11/2019 03:20      53.3      52.4       92     50.6      0.00     18.97      66.4     0.34      1013.7     1.1     SSW   192   1.8     SSW   207   9.46    362       -3.0
   05/11/2019 03:10      52.5      52.1       92     50.0      0.00     18.97      66.4     0.34      1013.7     0.5     SSE   148   1.2      SE   145   9.46    355       -3.2
   05/11/2019 03:00      52.2      51.8       92     49.7      0.00     18.97      66.4     0.34      1013.7     0.6     SSE   167   1.8      SE   140   9.47    354       -3.9
   05/11/2019 02:50      52.2      51.8       92     49.6      0.00     18.97      66.5     0.34      1013.7     0.6     SSE   167   1.4     SSE   167   9.47    353       -5.3
   05/11/2019 02:40      52.5      51.8       91     49.5      0.00     18.97      66.5     0.34      1013.7     0.5     SSE   160   1.5       S   177   9.47    352       -5.2
   05/11/2019 02:30      52.5      52.0       91     49.6      0.00     18.97      66.5     0.34      1013.8     0.8       S   178   1.7       S   184   9.47    345       -4.5
   05/11/2019 02:20      52.6      52.1       91     49.6      0.00     18.97      66.5     0.34      1013.7     0.0       N     0   0.0       E    99   9.47    342       -5.8
   05/11/2019 02:10      52.7      52.1       90     49.7      0.00     18.97      66.5     0.34      1013.5     0.0       S   172   0.6     SSE   168   9.47    340       -6.5
   05/11/2019 02:00      53.2      52.4       90     49.9      0.00     18.97      66.5     0.34      1013.4     0.6     SSE   155   1.7       S   189   9.47    336       -6.4
   05/11/2019 01:50      53.0      52.4       90     49.8      0.00     18.97      66.5     0.34      1013.4     0.5       S   175   1.3       S   179   9.47    330       -7.4
   05/11/2019 01:40      53.5      52.5       89     49.8      0.00     18.97      66.6     0.34      1013.4     0.0       N     0   0.0       S   180   9.47    326       -7.8
   05/11/2019 01:30      54.0      53.3       90     50.6      0.00     18.97      66.5     0.34      1013.6     0.4      SE   143   1.2      SE   141   9.47    320       -7.6
   05/11/2019 01:20      53.9      53.5       90     50.7      0.00     18.97      66.6     0.34      1013.6     0.8     SSE   150   1.8      SE   128   9.47    318       -6.7
   05/11/2019 01:10      53.8      53.5       90     50.6      0.00     18.97      66.6     0.34      1013.7     0.6       S   175   1.6     SSE   162   9.47    315       -5.5
   05/11/2019 01:00      54.0      53.4       90     50.7      0.00     18.97      66.6     0.34      1013.7     0.4     SSW   206   1.1     SSW   199   9.47    313       -5.7
   05/11/2019 00:50      54.4      53.6       90     50.9      0.00     18.97      66.6     0.34      1013.6     0.2     SSE   151   1.2      SE   146   9.47    313       -5.5
   05/11/2019 00:40      54.2      53.8       90     51.2      0.00     18.97      66.7     0.34      1013.6     0.2     SSE   166   0.9     SSE   149   9.47    311       -6.1
   05/11/2019 00:30      54.3      53.8       90     51.2      0.00     18.97      66.7     0.34      1013.6     0.8       S   189   2.0     SSW   206   9.47    309       -7.0
   05/11/2019 00:20      54.5      53.8       90     51.2      0.00     18.97      66.7     0.34      1013.5     0.3     SSW   203   1.1      SW   224   9.47    306       -7.6
   05/11/2019 00:10      55.1      54.1       90     51.7      0.00     18.97      66.7     0.34      1013.5     1.3     SSW   203   2.0     SSW   197   9.47    301       -6.6
   05/11/2019 00:00      55.5      54.8       89     52.1      0.00     18.97      66.7     0.34      1013.4     0.0     SSE   157   0.7       S   176   9.47    297       -8.5
   05/10/2019 23:50      55.8      55.0       89     52.1      0.00     18.97      66.7     0.34      1013.3     0.8     SSE   155   2.1      SE   136   9.47    289       -8.5
   05/10/2019 23:40      56.3      55.5       88     52.5      0.00     18.97      66.7     0.34      1013.3     0.6       S   176   1.8     SSW   205   9.47    280       -7.9
   05/10/2019 23:30      56.6      56.0       88     52.7      0.00     18.97      66.7     0.34      1013.3     0.0     SSE   161   0.5     SSE   160   9.47    271       -7.9
   05/10/2019 23:20      56.6      56.3       88     52.9      0.00     18.97      66.7     0.34      1013.1     0.0      SE   142   0.5      SE   141   9.47    262       -7.9
   05/10/2019 23:10      56.8      56.3       88     52.9      0.00     18.97      66.7     0.34      1013.2     0.3       S   182   1.1       S   186   9.47    260       -6.9
   05/10/2019 23:00      56.8      56.3       88     53.0      0.00     18.97      66.8     0.34      1013.2     0.3       S   184   0.8     SSE   162   9.47    261       -6.8
   05/10/2019 22:50      56.8      56.3       88     52.9      0.00     18.97      66.8     0.34      1013.2     0.8       S   188   1.5     SSW   204   9.47    262       -7.7
   05/10/2019 22:40      56.9      56.5       88     53.0      0.00     18.97      66.8     0.34      1013.2     0.4     SSE   158   1.2     SSE   155   9.47    263       -7.3
   05/10/2019 22:30      56.9      56.5       87     52.9      0.00     18.97      66.8     0.34      1013.1     0.0       N     0   0.0       S   176   9.47    266       -6.6
   05/10/2019 22:20      57.0      56.5       87     53.0      0.00     18.97      66.8     0.34      1013.1     0.0       N     0   0.0       S   170   9.47    267       -6.5
   05/10/2019 22:10      57.3      56.6       87     53.2      0.00     18.97      66.8     0.34      1013.1     0.0      SE   141   1.2      SE   141   9.47    268       -7.5
   05/10/2019 22:00      57.2      56.9       87     53.3      0.00     18.97      66.8     0.34      1013.1     0.7     SSE   152   2.0     SSE   147   9.47    270       -7.6
   05/10/2019 21:50      57.2      56.6       88     53.5      0.00     18.97      66.8     0.34      1013.0     1.3       S   182   2.0       S   185   9.48    273       -7.5
   05/10/2019 21:40      56.9      56.4       89     53.3      0.00     18.97      66.8     0.34      1013.0     0.6     SSE   157   1.9       S   183   9.48    278       -7.2
   05/10/2019 21:30      56.9      56.4       88     53.2      0.00     18.97      66.8     0.34      1012.9     0.0     SSE   169   0.9       S   175   9.48    279       -6.6
   05/10/2019 21:20      56.9      56.4       88     53.1      0.00     18.97      66.8     0.34      1012.8     0.3     SSE   167   1.1      SE   140   9.48    279       -5.9
   05/10/2019 21:10      57.5      56.7       88     53.6      0.00     18.97      66.8     0.34      1012.8     0.5     SSW   198   1.7     SSW   194   9.48    279       -7.7
   05/10/2019 21:00      57.7      57.0       88     53.7      0.00     18.97      66.8     0.34      1012.8     0.3     SSE   156   1.1      SE   139   9.48    275       -8.7
   05/10/2019 20:50      57.9      57.4       88     53.9      0.00     18.97      66.8     0.34      1012.7     0.5     SSE   164   1.9       S   190   9.48    268       -8.2
   05/10/2019 20:40      58.0      57.5       87     53.8      0.00     18.97      66.8     0.34      1012.6     0.2     SSE   158   1.6     SSW   199   9.48    263       -7.9
   05/10/2019 20:30      58.8      57.9       85     53.8      0.00     18.97      66.8     0.34      1012.5     0.6       S   177   1.6       S   177   9.48    261       -7.5
   05/10/2019 20:20      59.1      58.5       84     53.9      0.00     18.97      66.8     0.34      1012.4     0.0      SE   139   0.7       S   173   9.48    266       -7.5
   05/10/2019 20:10      59.4      58.6       82     53.6      0.00     18.97      66.8     0.34      1012.2     0.6     SSE   149   1.7     SSW   201   9.48    268       -7.4
   05/10/2019 20:00      60.1      59.1       81     53.7      0.00     18.97      66.8     0.34      1012.0     1.7     SSW   210   2.0     SSW   209   9.48    270       -7.0
   05/10/2019 19:50      60.8      59.8       80     54.0      0.00     18.97      66.8     0.34      1012.2     0.7     SSW   213   1.6     SSW   212   9.48    269       -5.5
   05/10/2019 19:40      60.8      60.4       80     54.2      0.00     18.97      66.8     0.34      1012.2     0.0       N     0   0.0       S   173   9.48    270       -1.3
   05/10/2019 19:30      61.1      60.5       79     54.1      0.00     18.97      66.8     0.34      1012.1     0.0       S   183   0.5       S   183   9.48    270        2.4
   05/10/2019 19:20      61.2      60.7       77     53.8      0.00     18.97      66.8     0.34      1012.1     0.5     NNE    25   1.6      NE    47   9.48    272        8.2
   05/10/2019 19:10      61.4      60.8       77     53.8      0.00     18.97      66.8     0.34      1012.0     0.4      NW   314   2.0       W   280   9.48    276       20.5
   05/10/2019 19:00      61.3      60.8       78     54.0      0.00     18.97      66.8     0.34      1011.9     0.2     NNW   338   0.9       N    11   9.48    279       23.9
   05/10/2019 18:50      61.2      60.7       78     53.8      0.00     18.97      66.8     0.34      1011.9     0.2     NNW   328   1.0     WNW   303   9.48    283       13.0
   05/10/2019 18:40      61.1      60.7       77     53.8      0.00     18.97      66.8     0.34      1011.9     0.1      NW   307   1.1      NW   306   9.48    287        7.8
   05/10/2019 18:30      61.2      60.7       78     54.0      0.00     18.97      66.7     0.34      1011.9     0.2       N   350   1.0       N     5   9.48    289        8.1
   05/10/2019 18:20      61.2      60.8       78     54.0      0.00     18.97      66.8     0.34      1011.9     0.3      NW   323   1.6      NW   312   9.48    292       10.6
   05/10/2019 18:10      61.3      60.8       77     53.8      0.00     18.97      66.8     0.34      1011.9     1.2       W   272   3.0     WSW   251   9.48    295       10.7
   05/10/2019 18:00      61.4      60.9       76     53.6      0.00     18.97      66.7     0.34      1011.9     0.6     WSW   244   1.6       W   259   9.48    298       11.3
   05/10/2019 17:50      61.6      60.9       77     53.7      0.00     18.97      66.8     0.34      1012.0     0.7       W   280   2.6       W   268   9.48    301       18.2
   05/10/2019 17:40      61.5      60.9       77     54.1      0.00     18.97      66.7     0.34      1011.9     0.5     WNW   298   1.9      NW   314   9.48    304       23.1
   05/10/2019 17:30      61.3      60.9       77     53.9      0.00     18.97      66.7     0.34      1011.9     0.9     WNW   290   1.7     WSW   256   9.48    307       44.0
   05/10/2019 17:20      61.5      60.9       77     53.7      0.00     18.97      66.7     0.34      1011.9     1.2     WNW   297   3.6     WSW   252   9.48    309       40.7
   05/10/2019 17:10      61.4      60.9       76     53.4      0.00     18.97      66.7     0.34      1011.9     0.8     WSW   257   2.0       W   259   9.48    312       29.3
   05/10/2019 17:00      61.3      60.8       76     53.3      0.00     18.97      66.7     0.34      1011.9     1.7     WSW   255   2.9     WSW   253   9.48    317       21.6
   05/10/2019 16:50      61.2      60.7       75     53.1      0.00     18.97      66.7     0.34      1011.8     1.7     WSW   238   2.8     WSW   255   9.48    324       19.2
   05/10/2019 16:40      61.3      60.9       78     54.0      0.00     18.97      66.7     0.34      1011.8     0.7      SW   215   1.9      SW   218   9.48    331       26.2
   05/10/2019 16:30      61.4      60.8       76     53.5      0.00     18.97      66.7     0.34      1011.7     1.2      SW   222   2.2     SSW   195   9.48    334       26.5
   05/10/2019 16:20      61.8      61.1       75     53.4      0.00     18.97      66.6     0.34      1011.6     1.5      SW   231   2.3      SW   221   9.48    326       30.2
   05/10/2019 16:10      62.5      61.4       69     51.9      0.00     18.97      66.6     0.34      1011.6     1.9       S   190   4.0     SSW   196   9.48    343       26.9
   05/10/2019 16:00      62.6      62.0       67     51.2      0.00     18.97      66.6     0.34      1011.6     1.7       S   186   3.7      SW   219   9.48    273       13.0
   05/10/2019 15:50      62.9      62.3       66     51.0      0.00     18.97      66.6     0.34      1011.5     1.8       S   186   3.7     SSW   196   9.48    268        6.8
   05/10/2019 15:40      62.7      62.4       66     51.1      0.00     18.97      66.6     0.34      1011.5     1.0       S   183   2.9       S   189   9.48    270       12.8
   05/10/2019 15:30      63.1      62.3       66     51.0      0.00     18.97      66.6     0.34      1011.5     2.2       S   187   4.4     SSW   206   9.48    268       12.6
   05/10/2019 15:20      63.1      62.8       64     50.8      0.00     18.97      66.5     0.34      1011.4     1.4     SSE   156   4.7       S   184   9.48    268       13.3
   05/10/2019 15:10      63.2      62.5       65     51.0      0.00     18.97      66.5     0.34      1011.4     2.0       S   176   4.3       S   177   9.48    268       13.5
   05/10/2019 15:00      63.6      62.7       66     51.3      0.00     18.97      66.5     0.34      1011.3     2.4       S   180   5.1       S   187   9.48    268       14.6
   05/10/2019 14:50      64.5      63.3       62     50.4      0.00     18.97      66.5     0.34      1011.3     2.2       S   183   4.5       S   191   9.48    268       26.3
   05/10/2019 14:40      64.6      64.2       59     49.5      0.00     18.97      66.5     0.34      1011.3     0.6      SE   137   2.7     SSW   207   9.48    268       15.3
   05/10/2019 14:30      64.8      64.1       59     49.9      0.00     18.97      66.5     0.34      1011.3     1.7     ENE    76   4.5       E    81   9.48    268       24.5
   05/10/2019 14:20      64.6      64.1       60     50.1      0.00     18.97      66.5     0.34      1011.2     1.3       E    89   3.8     SSE   157   9.48    268       49.9
   05/10/2019 14:10      65.4      64.3       60     50.6      0.00     18.97      66.5     0.34      1011.1     1.9     ESE   107   4.3      SE   130   9.48    268      102.5
   05/10/2019 14:00      65.0      63.8       60     50.6      0.00     18.97      66.4     0.34      1011.1     0.8       E    83   4.0      SE   140   9.49    268      162.5
   05/10/2019 13:50      64.0      63.3       62     50.2      0.00     18.97      66.4     0.34      1011.0     1.9       E    94   4.9     ENE    68   9.49    268      115.5
   05/10/2019 13:40      63.7      63.3       62     50.3      0.00     18.97      66.4     0.34      1011.0     1.8     ESE   120   3.2       E    89   9.49    268       37.5
   05/10/2019 13:30      64.4      63.3       62     50.4      0.00     18.97      66.4     0.34      1010.9     2.3     ESE   107   5.0      NE    56   9.49    268       47.9
   05/10/2019 13:20      64.9      64.2       60     50.4      0.00     18.97      66.4     0.34      1010.9     1.7     ESE   110   5.2     SSE   151   9.49    268       77.0
   05/10/2019 13:10      65.6      64.5       59     50.5      0.00     18.97      66.4     0.34      1011.0     2.3     ESE   117   5.8     ESE   118   9.49    267      258.8
   05/10/2019 13:00      64.8      64.2       60     50.2      0.00     18.97      66.4     0.34      1011.0     2.0       E    99   4.3     ENE    70   9.49    268      209.3
   05/10/2019 12:50      64.3      63.6       62     50.7      0.00     18.97      66.4     0.34      1011.0     2.6       E    86   5.3     ESE   116   9.49    268      190.5
   05/10/2019 12:40      64.7      63.7       61     50.2      0.00     18.97      66.4     0.34      1011.1     2.5       E    91   6.9     ENE    77   9.49    268      159.3
   05/10/2019 12:30      64.7      63.8       62     50.8      0.00     18.97      66.3     0.34      1011.1     2.4     ENE    78   6.1       E    99   9.49    267      193.0
   05/10/2019 12:20      65.5      64.5       61     51.2      0.00     18.97      66.4     0.34      1011.1     2.2     ENE    66   4.0      NE    56   9.49    267      216.1
   05/10/2019 12:10      65.4      64.9       61     51.3      0.00     18.97      66.3     0.34      1011.1     2.2     ENE    61   5.2     ENE    78   9.49    267      321.6
   05/10/2019 12:00      65.4      64.4       61     51.2      0.00     18.97      66.4     0.34      1011.1     1.9      NE    56   4.3      NE    55   9.49    267      259.8
   05/10/2019 11:50      64.9      64.5       61     51.1      0.00     18.97      66.4     0.34      1011.1     2.8      NE    54   4.8     ENE    64   9.49    267      356.2
   05/10/2019 11:40      65.1      64.3       60     50.6      0.00     18.97      66.4     0.34      1011.1     3.1      NE    42   5.8      NE    38   9.49    267      495.1
   05/10/2019 11:30      64.6      62.4       63     50.8      0.00     18.97      66.4     0.34      1011.0     3.0      NE    50   6.6     NNE    33   9.49    267      707.1
   05/10/2019 11:20      62.6      61.8       67     51.2      0.00     18.97      66.4     0.34      1011.1     2.0     ENE    73   5.3     ENE    73   9.50    268      339.0
   05/10/2019 11:10      61.9      60.9       71     51.7      0.00     18.97      66.4     0.34      1011.1     2.9       E    96   7.0     ENE    74   9.50    268      294.1
   05/10/2019 11:00      60.9      59.9       74     52.0      0.00     18.97      66.4     0.34      1011.2     3.0       E    86   5.1       E    83   9.50    272      372.4
   05/10/2019 10:50      60.0      58.6       77     51.8      0.00     18.97      66.5     0.34      1011.3     2.7       E    93   6.2     ESE   102   9.50    289      297.5
   05/10/2019 10:40      58.8      57.9       81     52.4      0.00     18.97      66.5     0.34      1011.4     3.6       E    88   6.5       E    92   9.50    300      271.3
   05/10/2019 10:30      58.2      57.5       88     54.3      0.00     18.97      66.5     0.34      1011.4     2.6     ESE   103   5.7     ESE   123   9.49    309      310.2
   05/10/2019 10:20      57.7      56.8       89     53.9      0.00     18.97      66.5     0.34      1011.4     2.9     ESE   115   4.8      SE   135   9.49    328      280.1
   05/10/2019 10:10      56.9      56.4       89     53.3      0.00     18.97      66.5     0.34      1011.4     3.5      SE   125   5.3       E    90   9.49    328      224.1
   05/10/2019 10:00      57.1      56.6       88     53.3      0.00     18.97      66.5     0.34      1011.4     2.1      SE   124   5.4     SSE   146   9.49    334      124.5
   05/10/2019 09:50      57.0      56.5       89     53.4      0.00     18.97      66.5     0.34      1011.3     1.4       E    84   3.2       E    87   9.49    337      157.7
   05/10/2019 09:40      56.9      56.3       89     53.3      0.00     18.97      66.5     0.34      1011.3     0.9     NNE    32   2.0     NNE    28   9.49    349       80.7
   05/10/2019 09:30      56.4      56.0       89     52.9      0.00     18.97      66.5     0.34      1011.3     1.5      NE    40   3.0      NE    48   9.49    348       75.4
   05/10/2019 09:20      56.7      56.1       88     52.8      0.00     18.97      66.5     0.34      1011.2     1.1      NE    36   3.1      NE    37   9.49    347       58.4
   05/10/2019 09:10      56.8      56.3       87     52.7      0.00     18.97      66.6     0.34      1011.2     1.4       N   358   3.9       N     2   9.49    364       50.8
   05/10/2019 09:00      56.9      56.3       85     52.0      0.00     18.97      66.6     0.34      1011.1     1.6       N     5   3.7       N     2   9.49    332       35.8
   05/10/2019 08:50      57.1      56.6       82     51.3      0.00     18.97      66.6     0.34      1011.1     1.8       N   351   4.1     NNW   345   9.49    262       17.3
   05/10/2019 08:40      57.2      56.8       80     50.8      0.00     18.97      66.6     0.34      1011.1     2.3     NNE    13   4.4      NW   319   9.49    274       11.1
   05/10/2019 08:30      57.3      56.9       79     50.6      0.00     18.97      66.6     0.34      1010.9     1.3       N     4   3.0      NW   325   9.49    270       13.7
   05/10/2019 08:20      57.2      56.8       79     50.7      0.00     18.97      66.6     0.34      1010.8     0.8       N     4   2.1     NNE    13   9.49    270       13.9
   05/10/2019 08:10      56.9      56.6       79     50.4      0.00     18.97      66.6     0.34      1010.6     1.4     NNE    30   2.8     NNW   336   9.49    270       18.2
   05/10/2019 08:00      57.0      56.6       79     50.2      0.00     18.97      66.7     0.34      1010.6     1.7     NNE    33   3.7     NNE    30   9.49    270        8.0
   05/10/2019 07:50      57.1      56.8       78     50.2      0.00     18.97      66.7     0.34      1010.5     1.1      NE    37   2.7      NE    51   9.49    270        5.3
   05/10/2019 07:40      57.1      56.6       78     50.1      0.00     18.97      66.7     0.34      1010.4     0.7     NNE    17   2.5     NNE    28   9.49    270        2.2
   05/10/2019 07:30      57.4      56.8       78     50.1      0.00     18.97      66.7     0.34      1010.3     1.3       N     3   2.8     NNE    28   9.49    270        1.4
   05/10/2019 07:20      57.4      56.9       77     50.0      0.00     18.97      66.7     0.34      1010.1     0.7      NE    40   2.2      NE    45   9.49    270        6.6
   05/10/2019 07:10      57.6      57.0       77     50.2      0.00     18.97      66.7     0.34      1010.0     0.2      NE    41   1.0       N   354   9.49    270        2.2
   05/10/2019 07:00      57.5      56.9       77     50.0      0.00     18.97      66.7     0.34      1009.9     0.0       E    86   0.2       E    86   9.49    270       -5.6
   05/10/2019 06:50      57.4      56.9       77     50.1      0.00     18.97      66.7     0.34      1009.8     0.0      SE   127   0.3      SE   128   9.49    270       -5.7
   05/10/2019 06:40      57.4      56.9       77     49.9      0.00     18.97      66.8     0.34      1009.7     0.0       N     0   0.0      NE    56   9.49    270       -5.6
   05/10/2019 06:30      57.2      56.9       77     49.9      0.00     18.97      66.8     0.34      1009.5     0.0       N     0   0.0      NE    56   9.50    270       -8.3
   05/10/2019 06:20      57.0      56.6       77     49.8      0.00     18.97      66.8     0.34      1009.4     0.0       N     0   0.0      SE   133   9.50    270      -10.4
   05/10/2019 06:10      56.8      56.5       78     49.7      0.00     18.97      66.8     0.34      1009.2     0.2     ESE   116   1.2       E    92   9.50    270      -11.7
   05/10/2019 06:00      56.8      56.3       78     49.8      0.00     18.97      66.8     0.34      1009.2     0.0       S   179   0.6       S   179   9.50    270      -12.4
   05/10/2019 05:50      56.8      56.4       78     49.7      0.00     18.97      66.8     0.34      1009.0     0.2       S   172   0.9     SSE   147   9.50    270      -12.4
   05/10/2019 05:40      56.8      56.4       77     49.5      0.00     18.97      66.9     0.34      1009.1     0.3     SSE   157   1.0     SSE   147   9.50    270      -11.7
   05/10/2019 05:30      56.8      56.4       77     49.5      0.00     18.97      66.8     0.34      1009.2     0.0       N     0   0.0     SSE   149   9.50    270      -11.4
   05/10/2019 05:20      56.8      56.4       78     49.8      0.00     18.97      66.9     0.34      1009.1     0.0       N     0   0.0     SSE   149   9.50    270      -12.7
   05/10/2019 05:10      56.8      56.3       77     49.5      0.00     18.97      66.9     0.34      1009.2     0.0     SSE   153   0.7     SSE   153   9.50    270      -12.4
   05/10/2019 05:00      56.9      56.4       77     49.4      0.00     18.97      66.9     0.34      1009.2     0.0       N     0   0.0       S   185   9.50    270      -12.5
   05/10/2019 04:50      56.8      56.4       77     49.4      0.00     18.97      66.9     0.34      1009.2     0.0       N     0   0.0       S   185   9.50    270      -14.1
   05/10/2019 04:40      56.8      56.3       77     49.4      0.00     18.97      66.9     0.34      1009.2     0.0       N     0   0.0       S   185   9.50    270      -14.1
   05/10/2019 04:30      56.8      56.3       77     49.4      0.00     18.97      66.9     0.34      1009.2     0.3       S   183   1.3       S   178   9.50    270      -13.7
   05/10/2019 04:20      56.8      56.3       77     49.4      0.00     18.97      66.9     0.34      1009.2     0.8       S   181   1.4       S   185   9.50    270      -14.5
   05/10/2019 04:10      56.8      56.4       77     49.5      0.00     18.97      67.0     0.34      1009.2     0.5     SSW   196   1.5     SSW   192   9.50    270      -13.5
   05/10/2019 04:00      56.8      56.4       77     49.6      0.00     18.97      67.0     0.34      1009.2     0.3      SE   131   1.4      SE   143   9.50    270      -13.6
   05/10/2019 03:50      56.8      56.4       78     49.9      0.00     18.97      67.0     0.34      1009.3     0.4     ESE   105   1.3     ESE   120   9.50    270      -14.3
   05/10/2019 03:40      56.8      56.3       79     49.9      0.00     18.97      67.0     0.34      1009.3     0.4     SSE   156   1.2       E    92   9.50    270      -15.1
   05/10/2019 03:30      56.8      56.4       78     49.8      0.00     18.97      67.0     0.34      1009.4     0.2       S   181   1.0       S   187   9.51    270      -15.1
   05/10/2019 03:20      56.9      56.4       78     49.8      0.00     18.97      67.0     0.34      1009.3     0.3     ESE   120   1.1      SE   142   9.51    270      -17.6
   05/10/2019 03:10      56.9      56.4       79     50.0      0.00     18.97      67.0     0.34      1009.3     0.0       E    97   0.7     ESE   115   9.51    270      -14.6
   05/10/2019 03:00      56.9      56.5       78     49.9      0.00     18.97      67.0     0.34      1009.4     0.0       N     0   0.0       S   186   9.51    270      -13.3
   05/10/2019 02:50      56.9      56.5       78     49.9      0.00     18.97      67.1     0.34      1009.4     0.0       N     0   0.0     ESE   106   9.51    270      -13.2
   05/10/2019 02:40      56.8      56.3       78     49.8      0.00     18.97      67.1     0.34      1009.5     0.3     ESE   123   1.7      SE   133   9.51    270      -13.2
   05/10/2019 02:30      56.7      56.3       78     49.8      0.00     18.97      67.1     0.34      1009.5     0.6      SE   136   1.4     ESE   116   9.51    270      -13.0
   05/10/2019 02:20      56.8      56.3       78     49.7      0.00     18.97      67.1     0.34      1009.7     0.5       S   177   1.3     SSE   155   9.51    270      -13.1
   05/10/2019 02:10      56.8      56.3       78     49.6      0.00     18.97      67.1     0.34      1009.8     0.4       S   177   0.9       S   173   9.51    270      -12.6
   05/10/2019 02:00      56.8      56.4       77     49.5      0.00     18.97      67.1     0.34      1009.9     0.0     SSE   164   0.3     SSE   161   9.51    270      -12.7
   05/10/2019 01:50      56.8      56.3       77     49.4      0.00     18.97      67.1     0.34      1009.9     0.0       N     0   0.0       S   172   9.51    270      -12.9
   05/10/2019 01:40      56.6      56.3       77     49.3      0.00     18.97      67.2     0.34      1010.0     0.4       S   178   1.4       S   177   9.51    270      -13.0
   05/10/2019 01:30      56.8      56.3       77     49.4      0.00     18.97      67.2     0.34      1010.1     1.1     SSW   195   1.7       S   182   9.51    270      -12.6
   05/10/2019 01:20      56.7      56.3       77     49.4      0.00     18.97      67.2     0.34      1010.2     0.9     SSW   213   1.5     SSW   210   9.51    270      -13.4
   05/10/2019 01:10      56.8      56.4       77     49.5      0.00     18.97      67.2     0.34      1010.3     0.5      SW   231   1.5     WSW   242   9.51    270      -13.4
   05/10/2019 01:00      56.6      56.2       77     49.4      0.00     18.97      67.2     0.34      1010.3     0.0     WNW   291   0.4     WNW   291   9.51    270      -14.9
   05/10/2019 00:50      56.6      56.0       78     49.5      0.00     18.97      67.2     0.34      1010.2     0.0     SSW   212   1.4     SSW   202   9.51    270      -19.8
   05/10/2019 00:40      56.4      56.0       79     49.5      0.00     18.97      67.2     0.34      1010.3     1.0     SSW   193   2.1       S   178   9.51    270      -24.3
   05/10/2019 00:30      56.4      56.0       79     49.6      0.00     18.97      67.3     0.34      1010.3     1.2       S   184   2.1       S   190   9.51    270      -24.4
   05/10/2019 00:20      56.4      56.0       78     49.5      0.00     18.97      67.3     0.34      1010.4     1.6       S   189   2.5     SSW   199   9.51    270      -25.5
   05/10/2019 00:10      56.7      56.0       78     49.6      0.00     18.97      67.3     0.34      1010.5     1.7       S   191   2.9       S   185   9.51    270      -35.5
   05/10/2019 00:00      57.1      56.4       77     49.6      0.00     18.97      67.3     0.34      1010.6     0.9     SSE   165   2.3       S   185   9.51    270      -36.8
   05/09/2019 23:50      57.2      56.7       77     49.8      0.00     18.97      67.3     0.34      1010.7     1.5     SSE   147   3.4      SE   140   9.51    270      -40.1
   05/09/2019 23:40      57.2      56.9       76     49.6      0.00     18.97      67.3     0.34      1010.8     1.7     ESE   123   4.0      SE   145   9.51    270      -29.4
   05/09/2019 23:30      57.3      56.9       76     49.5      0.00     18.97      67.3     0.34      1010.9     2.4      SE   132   3.7      SE   127   9.51    269      -22.0
   05/09/2019 23:20      57.3      56.9       76     49.4      0.00     18.97      67.3     0.34      1010.9     2.8       S   178   4.7       S   184   9.51    269      -18.8
   05/09/2019 23:10      57.5      56.9       75     49.4      0.00     18.97      67.3     0.34      1010.9     2.4     SSE   163   4.3     SSW   195   9.52    269      -19.7
   05/09/2019 23:00      57.6      57.2       73     48.8      0.00     18.97      67.3     0.34      1010.9     2.1       S   184   3.7       S   176   9.52    269      -18.3
   05/09/2019 22:50      57.7      57.3       72     48.4      0.00     18.97      67.3     0.34      1010.8     2.1       S   178   4.2     SSE   154   9.52    269      -17.9
   05/09/2019 22:40      57.9      57.4       72     48.6      0.00     18.97      67.3     0.34      1010.7     1.1       S   183   3.1      SW   221   9.52    269      -19.4
   05/09/2019 22:30      57.8      57.3       72     48.5      0.00     18.97      67.3     0.34      1010.6     1.2     SSW   194   2.1     SSW   211   9.52    269      -20.9
   05/09/2019 22:20      57.9      57.4       71     48.3      0.00     18.97      67.3     0.34      1010.6     1.4     SSW   196   2.3     SSW   203   9.52    269      -21.1
   05/09/2019 22:10      58.0      57.5       70     48.2      0.00     18.97      67.3     0.34      1010.5     2.0     SSW   198   4.0       S   178   9.52    269      -20.9
   05/09/2019 22:00      58.6      57.9       69     48.1      0.00     18.97      67.3     0.34      1010.3     1.7       S   188   2.8       S   184   9.52    269      -24.2
   05/09/2019 21:50      58.5      58.2       69     48.4      0.00     18.97      67.3     0.34      1010.2     0.6       S   177   2.0       S   182   9.52    269      -21.4
   05/09/2019 21:40      58.4      58.1       70     48.3      0.00     18.97      67.3     0.34      1010.1     1.2       S   175   2.9       S   191   9.52    269      -17.0
   05/09/2019 21:30      58.4      57.9       70     48.3      0.00     18.97      67.3     0.34      1010.0     1.3       S   171   2.5       S   170   9.52    269      -15.5
   05/09/2019 21:20      58.3      57.9       70     48.3      0.00     18.97      67.3     0.34      1009.9     1.9     SSW   205   2.9     SSW   203   9.52    269      -15.6
   05/09/2019 21:10      58.2      57.9       71     48.5      0.00     18.97      67.3     0.34      1009.8     1.3       S   191   3.3       S   187   9.52    269      -17.4
   05/09/2019 21:00      58.6      58.0       71     48.7      0.00     18.97      67.3     0.34      1009.7     1.4     SSW   193   3.9     SSW   201   9.52    269      -20.2
   05/09/2019 20:50      58.6      58.2       71     49.0      0.00     18.97      67.3     0.34      1009.6     0.4      SW   231   2.1       W   262   9.52    269      -18.0
   05/09/2019 20:40      58.7      58.2       71     49.1      0.00     18.97      67.3     0.34      1009.5     1.7     SSW   208   4.1       S   169   9.53    269      -22.2
   05/09/2019 20:30      59.1      58.3       71     49.1      0.00     18.97      67.3     0.34      1009.5     2.7       S   190   4.4     SSW   207   9.53    269      -22.5
   05/09/2019 20:20      59.5      58.9       69     49.1      0.00     18.97      67.3     0.34      1009.5     1.4     SSE   163   3.0     SSW   192   9.53    269      -19.3
   05/09/2019 20:10      59.8      59.1       69     49.2      0.00     18.97      67.3     0.34      1009.4     1.1     SSE   149   2.6     ENE    58   9.53    268      -18.4
   05/09/2019 20:00      59.9      59.4       68     49.2      0.00     18.97      67.3     0.34      1009.4     0.6     ESE   116   2.1      NE    49   9.53    268      -18.4
   05/09/2019 19:50      59.9      59.4       68     49.1      0.00     18.97      67.3     0.34      1009.3     0.6     SSE   162   1.9     SSW   192   9.53    268      -17.0
   05/09/2019 19:40      60.1      59.6       68     49.1      0.00     18.97      67.3     0.34      1009.2     0.7     SSE   159   1.7       S   174   9.53    268      -15.9
   05/09/2019 19:30      60.1      59.8       67     49.0      0.00     18.97      67.3     0.34      1009.1     0.8      SE   142   2.7      SE   138   9.53    268      -15.0
   05/09/2019 19:20      60.2      59.8       67     49.1      0.00     18.97      67.2     0.34      1009.0     1.0     SSW   199   2.4     SSW   197   9.53    268      -12.5
   05/09/2019 19:10      60.3      59.8       67     48.9      0.00     18.97      67.3     0.34      1008.9     2.1       S   189   3.6     SSW   202   9.53    268      -10.5
   05/09/2019 19:00      60.5      59.9       66     48.7      0.00     18.97      67.3     0.34      1008.8     1.8       S   191   3.2     SSW   212   9.53    268       -8.3
   05/09/2019 18:50      60.5      60.1       66     48.7      0.00     18.97      67.2     0.34      1008.8     1.0     SSW   192   2.5       S   181   9.54    268       -5.7
   05/09/2019 18:40      60.5      60.0       65     48.6      0.00     18.97      67.3     0.34      1008.8     2.3     SSW   202   4.4       S   174   9.54    268       -1.9
   05/09/2019 18:30      60.6      60.2       65     48.6      0.00     18.97      67.3     0.34      1008.7     3.1     SSW   213   5.5      SW   236   9.54    268        3.7
   05/09/2019 18:20      61.2      60.2       65     48.9      0.00     18.97      67.3     0.34      1008.7     3.2     SSW   202   5.2     SSE   157   9.54    268        7.0
   05/09/2019 18:10      61.2      60.9       65     49.0      0.00     18.97      67.3     0.34      1008.6     1.9     SSE   162   4.4     SSE   158   9.54    268       11.9
   05/09/2019 18:00      61.1      60.8       64     48.8      0.00     18.97      67.2     0.34      1008.6     2.2     SSE   150   4.5      SE   142   9.54    268       14.2
   05/09/2019 17:50      61.3      60.8       64     48.9      0.00     18.97      67.2     0.34      1008.6     3.1       S   170   5.6       S   182   9.54    268       19.3
   05/09/2019 17:40      61.4      61.0       64     49.1      0.00     18.97      67.2     0.34      1008.6     2.7       S   171   6.2      SE   145   9.54    268       25.0
   05/09/2019 17:30      61.7      61.1       64     49.0      0.00     18.97      67.2     0.34      1008.6     3.3       S   184   6.2       S   176   9.54    268       28.6
   05/09/2019 17:20      61.6      61.3       63     48.9      0.00     18.97      67.2     0.34      1008.6     2.9     SSE   166   5.2       S   181   9.54    268       35.8
   05/09/2019 17:10      61.8      61.3       63     48.8      0.00     18.97      67.2     0.34      1008.6     3.6       S   177   6.2       S   175   9.55    268       46.7
   05/09/2019 17:00      61.8      61.3       63     48.8      0.00     18.97      67.2     0.34      1008.6     3.1       S   188   6.1     SSW   211   9.55    268       52.8
   05/09/2019 16:50      61.8      61.3       63     48.9      0.00     18.97      67.2     0.34      1008.6     3.1       S   176   4.8     SSW   202   9.55    268       50.9
   05/09/2019 16:40      62.0      61.6       63     49.0      0.00     18.97      67.1     0.34      1008.6     3.1       S   170   6.8     SSW   195   9.55    268       58.6
   05/09/2019 16:30      62.5      61.7       63     49.1      0.00     18.97      67.1     0.34      1008.6     2.8       S   175   5.7       S   176   9.55    268       64.3
   05/09/2019 16:20      62.6      62.2       62     49.2      0.00     18.97      67.1     0.34      1008.7     2.3     SSE   160   4.5       S   182   9.55    268       69.3
   05/09/2019 16:10      62.7      62.3       62     49.3      0.00     18.97      67.1     0.34      1008.8     2.3     SSE   159   4.9       S   187   9.55    268       81.0
   05/09/2019 16:00      63.1      62.2       63     49.7      0.00     18.97      67.1     0.34      1008.8     3.2     SSE   167   6.0      SE   139   9.55    268       83.8
   05/09/2019 15:50      63.0      62.4       62     49.6      0.00     18.97      67.1     0.34      1008.9     2.1      SE   127   5.2      SE   136   9.55    268       79.7
   05/09/2019 15:40      62.9      62.4       62     49.4      0.00     18.97      67.1     0.34      1009.0     3.0      SE   139   6.1     SSE   165   9.55    268       94.1
   05/09/2019 15:30      62.9      62.3       62     49.5      0.00     18.97      67.1     0.34      1009.1     3.0      SE   135   7.5      SE   126   9.55    268       99.5
   05/09/2019 15:20      62.7      62.0       64     49.9      0.00     18.97      67.1     0.34      1009.2     3.0     SSE   161   7.1      SE   141   9.56    268      104.2
   05/09/2019 15:10      62.6      62.1       64     50.0      0.00     18.97      67.1     0.34      1009.3     2.5       S   179   5.2     SSW   206   9.56    268       90.8
   05/09/2019 15:00      62.6      62.0       64     50.1      0.00     18.97      67.1     0.34      1009.4     2.2       S   170   4.9     SSE   158   9.56    268       70.1
   05/09/2019 14:50      63.0      62.4       62     49.6      0.00     18.97      67.0     0.34      1009.5     2.0     ESE   124   4.1     SSW   211   9.56    268       59.6
   05/09/2019 14:40      63.4      62.4       63     50.1      0.00     18.97      67.1     0.34      1009.7     1.2     SSE   154   4.0      SE   134   9.56    268       76.1
   05/09/2019 14:30      63.0      62.4       63     49.9      0.00     18.97      67.0     0.34      1009.9     1.8       S   177   4.4       S   181   9.56    268      160.6
   05/09/2019 14:20      62.9      62.1       64     50.1      0.00     18.97      67.0     0.34      1010.1     2.0     SSW   192   4.3       S   180   9.56    268      208.2
   05/09/2019 14:10      62.3      61.4       65     49.9      0.00     18.97      67.0     0.34      1010.2     2.0     SSW   196   4.6     SSW   200   9.56    268      217.2
   05/09/2019 14:00      62.0      61.3       66     50.1      0.00     18.97      67.0     0.34      1010.2     2.9     SSW   197   5.8     SSW   212   9.56    268      212.1
   05/09/2019 13:50      61.6      61.0       67     50.3      0.00     18.97      67.0     0.34      1010.2     2.5      SW   216   5.1     SSW   208   9.56    268      201.2
   05/09/2019 13:40      61.6      60.8       67     50.3      0.00     18.97      67.0     0.34      1010.3     2.6       S   179   4.6       S   178   9.56    268      182.2
   05/09/2019 13:30      61.1      60.5       69     50.6      0.00     18.97      67.0     0.34      1010.5     2.9     SSW   199   5.3       S   181   9.56    268      134.0
   05/09/2019 13:20      61.1      60.6       69     50.6      0.00     18.97      67.0     0.34      1010.6     3.4     SSE   168   6.1      SE   146   9.56    268      139.9
   05/09/2019 13:10      61.0      60.3       69     50.5      0.00     18.97      67.0     0.34      1010.7     4.5       S   177   7.6       S   174   9.56    268      216.3
   05/09/2019 13:00      61.1      60.7       68     50.3      0.00     18.97      67.0     0.34      1010.7     3.8       S   169   7.3     ESE   119   9.57    268      231.0
   05/09/2019 12:50      61.1      60.6       68     50.3      0.00     18.97      67.0     0.34      1010.8     3.8     SSE   167   7.1       S   188   9.57    268      199.2
   05/09/2019 12:40      61.0      60.5       69     50.5      0.00     18.97      67.0     0.34      1010.9     3.0     SSE   168   5.8     SSE   164   9.57    268      203.1
   05/09/2019 12:30      60.7      60.3       70     50.7      0.00     18.97      67.0     0.34      1011.0     3.2       S   179   6.6     SSW   210   9.57    268      167.3
   05/09/2019 12:20      60.6      60.0       71     50.8      0.00     18.97      67.0     0.34      1011.1     2.3     SSW   204   3.9      SW   228   9.57    268      107.2
   05/09/2019 12:10      60.5      60.2       71     50.8      0.00     18.97      67.0     0.34      1011.2     2.6       S   171   4.5     SSE   164   9.57    268       87.2
   05/09/2019 12:00      60.7      60.1       70     50.5      0.00     18.97      67.0     0.34      1011.3     3.0       S   172   4.9       S   185   9.57    268      106.5
   05/09/2019 11:50      61.0      60.2       71     50.9      0.00     18.97      67.0     0.34      1011.4     2.8       S   183   5.4       S   182   9.57    268      124.1
   05/09/2019 11:40      61.3      60.3       70     50.9      0.00     18.97      67.0     0.34      1011.4     1.5      SE   138   5.7     SSW   198   9.57    268      161.3
   05/09/2019 11:30      60.5      59.4       73     51.0      0.00     18.97      67.0     0.34      1011.6     1.7       S   177   3.7     SSW   200   9.57    268      177.9
   05/09/2019 11:20      59.8      58.8       75     51.4      0.00     18.97      67.1     0.34      1011.7     1.5      SE   138   3.5       S   172   9.57    268      152.9
   05/09/2019 11:10      59.0      58.3       77     51.4      0.00     18.97      67.1     0.34      1011.7     2.1     SSE   151   4.7      SE   135   9.57    269      106.7
   05/09/2019 11:00      60.4      58.6       73     51.0      0.00     18.97      67.0     0.34      1011.7     3.0     SSE   162   5.8      SE   135   9.58    269       70.9
   05/09/2019 10:50      60.4      59.4       72     50.9      0.00     18.97      67.1     0.34      1011.7     1.8       E    92   4.0       E    85   9.58    268      114.3
   05/09/2019 10:40      60.3      59.4       72     50.8      0.00     18.97      67.1     0.34      1011.7     2.3     ESE   119   5.8     SSE   155   9.58    268      136.0
   05/09/2019 10:30      60.7      59.9       71     50.9      0.00     18.97      67.1     0.34      1011.7     1.7     ENE    70   3.4     ESE   116   9.58    268      118.8
   05/09/2019 10:20      60.5      60.2       71     51.0      0.00     18.97      67.1     0.34      1011.7     1.2      NE    55   3.7     ENE    73   9.58    268      114.4
   05/09/2019 10:10      60.5      59.4       73     51.0      0.00     18.97      67.1     0.34      1011.7     0.9       E    89   2.1     ESE   103   9.58    268      169.2
   05/09/2019 10:00      59.8      59.1       73     50.9      0.00     18.97      67.1     0.34      1011.7     1.5     ENE    60   2.6     ENE    65   9.59    268      153.1
   05/09/2019 09:50      59.2      58.5       74     50.8      0.00     18.97      67.1     0.34      1011.8     1.4     ENE    61   2.7     ENE    71   9.59    269       81.7
   05/09/2019 09:40      58.8      58.5       75     50.6      0.00     18.97      67.1     0.34      1011.7     1.7       E    96   2.9     ENE    68   9.59    269      105.7
   05/09/2019 09:30      58.7      58.2       75     50.7      0.00     18.97      67.1     0.34      1011.7     1.1       E    97   2.9     ENE    76   9.59    269      124.2
   05/09/2019 09:20      58.5      58.0       76     50.7      0.00     18.97      67.2     0.34      1011.8     1.0     ESE   113   3.1     ENE    76   9.59    269       95.5
   05/09/2019 09:10      58.3      57.7       77     51.0      0.00     18.97      67.2     0.34      1011.7     1.0       E    88   3.2     ENE    78   9.59    269      105.0
   05/09/2019 09:00      58.1      57.4       78     50.8      0.00     18.97      67.2     0.34      1011.7     0.8     ENE    78   2.2     ESE   103   9.59    269       45.6
   05/09/2019 08:50      57.7      57.2       78     50.8      0.00     18.97      67.2     0.34      1011.7     1.3       E    89   2.9      NE    39   9.59    269       55.3
   05/09/2019 08:40      57.7      57.2       78     50.6      0.00     18.97      67.2     0.34      1011.7     1.5     ESE   118   3.6      SE   132   9.59    270       48.4
   05/09/2019 08:30      57.7      57.0       78     50.7      0.00     18.97      67.2     0.34      1011.7     1.2     ENE    77   4.1     ENE    66   9.59    269       42.9
   05/09/2019 08:20      57.7      57.0       78     50.6      0.00     18.97      67.3     0.34      1011.7     1.7       E    97   2.8       E    88   9.59    270       53.8
   05/09/2019 08:10      57.7      57.2       79     50.9      0.00     18.97      67.3     0.34      1011.8     0.9       E    86   2.5      SE   131   9.59    269       57.2
   05/09/2019 08:00      57.5      57.1       78     50.7      0.00     18.97      67.3     0.34      1011.8     0.9     ENE    76   2.3     ENE    68   9.59    269       46.2
   05/09/2019 07:50      57.5      57.0       78     50.5      0.00     18.97      67.3     0.34      1011.9     0.8       E    85   2.5     ENE    71   9.59    270       46.7
   05/09/2019 07:40      57.3      56.9       78     50.4      0.00     18.97      67.3     0.34      1011.9     0.8      NE    55   2.7     ENE    62   9.60    269       43.0
   05/09/2019 07:30      57.2      56.9       78     50.2      0.00     18.97      67.3     0.34      1011.9     0.8      NE    53   2.1      NE    54   9.60    270       35.9
   05/09/2019 07:20      57.2      56.9       78     50.1      0.00     18.97      67.4     0.34      1011.9     0.4      NE    43   2.1     ENE    58   9.60    270       31.4
   05/09/2019 07:10      57.0      56.4       78     50.0      0.00     18.97      67.3     0.34      1011.9     0.1      NE    50   1.1      NE    47   9.60    270       12.4
   05/09/2019 07:00      56.7      56.4       78     49.9      0.00     18.97      67.4     0.34      1011.9     0.0      SE   133   1.2      NE    40   9.60    270        8.6
   05/09/2019 06:50      56.8      56.3       78     49.9      0.00     18.97      67.3     0.34      1011.9     0.5     ENE    67   2.2      NE    52   9.60    270        2.1
   05/09/2019 06:40      56.9      56.4       78     49.7      0.00     18.97      67.4     0.34      1011.8     0.3     ESE   108   1.4     ENE    59   9.60    270       -0.9
   05/09/2019 06:30      56.8      56.4       78     49.7      0.00     18.97      67.4     0.34      1011.7     0.0       N     0   0.0      NE    45   9.60    270       -5.4
   05/09/2019 06:20      56.8      56.3       78     49.6      0.00     18.97      67.4     0.34      1011.7     0.3       E    83   1.1       E    93   9.60    270       -8.8
   05/09/2019 06:10      56.8      56.3       77     49.5      0.00     18.97      67.4     0.34      1011.7     0.0       E    86   0.6       E    86   9.60    270      -10.0
   05/09/2019 06:00      56.6      56.3       78     49.5      0.00     18.97      67.4     0.34      1011.7     0.4     ENE    60   1.5     ENE    74   9.60    270      -10.9
   05/09/2019 05:50      56.7      56.3       77     49.5      0.00     18.97      67.4     0.34      1011.7     0.6     SSW   209   1.9     SSW   201   9.60    270      -11.0
   05/09/2019 05:40      56.8      56.3       77     49.5      0.00     18.97      67.5     0.34      1011.7     0.2     WNW   291   1.4       W   280   9.61    270      -11.6
   05/09/2019 05:30      56.8      56.3       77     49.4      0.00     18.97      67.5     0.34      1011.7     0.7     SSW   197   2.2     SSW   198   9.61    270      -11.9
   05/09/2019 05:20      56.8      56.3       77     49.3      0.00     18.97      67.5     0.34      1011.8     0.4       S   172   2.2     SSE   165   9.61    269      -11.8
   05/09/2019 05:10      56.7      56.3       77     49.3      0.00     18.97      67.5     0.34      1011.9     0.9     ESE   111   2.5     ENE    72   9.61    269      -11.8
   05/09/2019 05:00      56.7      56.3       77     49.2      0.00     18.97      67.5     0.34      1012.0     0.9     ESE   102   2.0       E    79   9.61    269      -12.2
   05/09/2019 04:50      56.8      56.3       77     49.2      0.00     18.97      67.5     0.34      1012.0     0.8     ESE   108   1.8     ESE   116   9.61    269      -12.2
   05/09/2019 04:40      56.8      56.3       77     49.2      0.00     18.97      67.5     0.34      1012.1     1.3       E    93   2.6     ESE   119   9.61    269      -12.3
   05/09/2019 04:30      56.8      56.4       77     49.2      0.00     18.97      67.5     0.34      1012.1     2.1       S   173   3.8       S   185   9.61    269      -11.8
   05/09/2019 04:20      57.1      56.5       75     49.0      0.00     18.97      67.6     0.34      1012.2     1.5       S   188   2.6     SSE   153   9.62    269      -12.2
   05/09/2019 04:10      57.4      56.8       74     48.8      0.00     18.97      67.6     0.34      1012.2     1.7       S   186   3.7     SSW   193   9.62    269      -12.4
   05/09/2019 04:00      57.6      57.0       73     48.6      0.00     18.97      67.6     0.34      1012.2     2.4     SSE   168   5.1     SSE   148   9.62    269      -12.6
   05/09/2019 03:50      57.7      57.2       73     48.7      0.00     18.97      67.6     0.34      1012.3     2.1       S   179   4.0       S   181   9.62    269      -12.7
   05/09/2019 03:40      57.9      57.4       72     48.7      0.00     18.97      67.6     0.34      1012.4     1.8       S   175   3.2       S   186   9.62    269      -12.6
   05/09/2019 03:30      58.1      57.5       72     48.8      0.00     18.97      67.6     0.34      1012.4     0.5     SSE   166   1.9     SSE   147   9.62    269      -12.9
   05/09/2019 03:20      58.1      57.7       71     48.7      0.00     18.97      67.7     0.34      1012.4     0.1     SSE   166   0.8       S   177   9.62    269      -13.3
   05/09/2019 03:10      58.0      57.7       71     48.6      0.00     18.97      67.7     0.34      1012.3     0.2      SE   132   0.9     ESE   102   9.63    269      -12.9
   05/09/2019 03:00      58.2      57.7       72     48.7      0.00     18.97      67.7     0.34      1012.4     0.8      SE   131   2.0      SE   124   9.63    269      -12.8
   05/09/2019 02:50      58.2      57.9       71     48.8      0.00     18.97      67.7     0.34      1012.5     0.0     SSE   148   0.9     SSW   197   9.63    269      -13.6
   05/09/2019 02:40      58.3      57.8       71     48.6      0.00     18.97      67.7     0.34      1012.5     0.0     ESE   121   0.7      SE   133   9.63    269      -13.9
   05/09/2019 02:30      58.2      57.8       71     48.5      0.00     18.97      67.7     0.34      1012.6     0.5       E    96   1.4     ENE    75   9.63    269      -14.0
   05/09/2019 02:20      58.2      57.9       71     48.5      0.00     18.97      67.7     0.34      1012.5     0.8     ESE   107   2.1       E    96   9.63    269      -14.1
   05/09/2019 02:10      58.3      57.9       71     48.5      0.00     18.97      67.7     0.34      1012.7     1.0     ESE   113   2.1      SE   127   9.64    269      -14.1
   05/09/2019 02:00      58.3      57.9       71     48.6      0.00     18.97      67.7     0.34      1012.8     0.8     ESE   110   1.6     ESE   122   9.64    269      -13.7
   05/09/2019 01:50      58.2      57.9       71     48.8      0.00     18.97      67.7     0.34      1013.0     0.3     ESE   114   0.9       E    96   9.64    269      -13.7
   05/09/2019 01:40      58.3      57.9       71     48.8      0.00     18.97      67.7     0.34      1013.0     0.0     ESE   117   0.7     ESE   123   9.64    269      -13.9
   05/09/2019 01:30      58.3      57.9       71     48.8      0.00     18.97      67.8     0.34      1013.1     0.0       N     0   0.0       E    89   9.64    269      -13.8
   05/09/2019 01:20      58.3      57.9       71     48.9      0.00     18.97      67.8     0.34      1013.2     0.0     ESE   120   0.6     ESE   121   9.64    269      -13.4
   05/09/2019 01:10      58.3      58.0       71     48.8      0.00     18.97      67.8     0.34      1013.2     0.0       N     0   0.0       E    91   9.64    269      -13.7
   05/09/2019 01:00      58.3      57.9       71     48.7      0.00     18.97      67.8     0.34      1013.3     0.0       E    89   0.2       E    89   9.64    269      -14.0
   05/09/2019 00:50      58.3      57.9       71     48.8      0.00     18.97      67.8     0.34      1013.4     0.0       N     0   0.0      SE   142   9.64    269      -14.0
   05/09/2019 00:40      58.3      57.9       71     48.6      0.00     18.97      67.8     0.34      1013.4     0.0     ESE   118   0.4     ESE   102   9.64    269      -14.0
   05/09/2019 00:30      58.2      57.7       71     48.6      0.00     18.97      67.8     0.34      1013.5     0.5       S   180   1.3     SSW   193   9.64    269      -14.1
   05/09/2019 00:20      58.2      57.8       71     48.5      0.00     18.97      67.8     0.34      1013.5     0.8       S   170   2.1     SSE   164   9.64    269      -14.1
   05/09/2019 00:10      58.3      57.9       71     48.5      0.00     18.97      67.8     0.34      1013.5     1.5       S   177   2.6       S   174   9.64    268      -14.0
   05/09/2019 00:00      58.3      57.9       70     48.5      0.00     18.97      67.8     0.34      1013.6     1.4     SSE   166   2.5       S   191   9.64    268      -13.7
   05/08/2019 23:50      58.3      57.9       71     48.7      0.00     18.97      67.8     0.34      1013.6     0.5     ESE   112   2.1     ESE   119   9.65    268      -13.8
   05/08/2019 23:40      58.3      57.9       71     48.8      0.00     18.97      67.9     0.34      1013.6     0.3       S   184   1.1       S   186   9.65    269      -14.1
   05/08/2019 23:30      58.2      57.9       71     48.8      0.00     18.97      67.9     0.34      1013.5     0.4     SSE   164   1.4       S   185   9.65    269      -14.3
   05/08/2019 23:20      58.1      57.9       71     48.8      0.00     18.97      67.9     0.34      1013.6     0.3       S   179   1.3       S   172   9.65    268      -14.0
   05/08/2019 23:10      58.1      57.5       72     48.6      0.00     18.97      67.9     0.34      1013.6     1.0     SSE   149   2.1      SE   145   9.65    268      -14.0
   05/08/2019 23:00      57.9      57.4       72     48.6      0.00     18.97      67.9     0.34      1013.6     1.7       S   188   3.0       S   173   9.65    268      -14.5
   05/08/2019 22:50      57.9      57.4       71     48.5      0.00     18.97      67.9     0.34      1013.7     1.4       S   177   2.7      SE   124   9.65    268      -14.8
   05/08/2019 22:40      58.0      57.5       71     48.3      0.00     18.97      67.9     0.34      1013.7     1.4       S   173   3.0     SSE   161   9.65    268      -15.1
   05/08/2019 22:30      58.2      57.7       70     48.3      0.00     18.97      67.9     0.34      1013.9     1.7     SSE   154   3.7     SSE   149   9.65    268      -15.2
   05/08/2019 22:20      58.4      57.9       69     48.1      0.00     18.97      67.9     0.34      1013.9     1.9     SSE   154   4.0       S   169   9.65    268      -15.4
   05/08/2019 22:10      58.4      58.0       69     47.9      0.00     18.97      67.9     0.34      1013.9     1.9     SSE   169   3.6     SSE   163   9.65    268      -15.5
   05/08/2019 22:00      58.5      58.0       69     47.8      0.00     18.97      67.9     0.34      1013.9     2.4       S   176   5.0       S   174   9.65    268      -15.5
   05/08/2019 21:50      58.4      58.0       68     47.8      0.00     18.97      67.9     0.34      1014.0     1.9       S   175   3.2       S   170   9.65    268      -15.8
   05/08/2019 21:40      58.3      57.9       69     47.8      0.00     18.97      67.9     0.34      1014.0     2.2       S   172   3.7       S   170   9.65    268      -15.8
   05/08/2019 21:30      58.5      58.0       68     47.8      0.00     18.97      67.9     0.34      1014.1     2.2       S   187   3.7     SSW   200   9.65    268      -15.9
   05/08/2019 21:20      58.5      58.0       68     47.7      0.00     18.97      67.9     0.34      1014.1     2.1       S   187   3.4       S   177   9.66    268      -16.0
   05/08/2019 21:10      58.7      58.2       67     47.6      0.00     18.97      67.9     0.34      1014.0     2.3       S   184   3.9       S   173   9.66    268      -16.4
   05/08/2019 21:00      58.9      58.3       67     47.5      0.00     18.97      67.9     0.34      1013.9     2.6     SSW   209   4.4      SW   222   9.66    268      -16.6
   05/08/2019 20:50      59.0      58.4       67     47.4      0.00     18.97      67.9     0.34      1013.8     2.4       S   187   4.5       S   181   9.66    268      -16.8
   05/08/2019 20:40      59.1      58.5       66     47.5      0.00     18.97      67.9     0.34      1013.7     2.6       S   186   4.6       S   185   9.66    268      -17.1
   05/08/2019 20:30      59.4      58.9       66     47.6      0.00     18.97      67.9     0.34      1013.6     2.3       S   190   4.6      SW   218   9.66    268      -17.3
   05/08/2019 20:20      59.6      59.1       65     47.7      0.00     18.97      67.9     0.34      1013.6     2.0       S   173   3.6       S   188   9.66    268      -17.4
   05/08/2019 20:10      59.6      59.2       66     47.9      0.00     18.97      67.9     0.34      1013.5     1.4       S   179   3.1     SSE   151   9.66    268      -17.5
   05/08/2019 20:00      59.6      59.3       65     47.8      0.00     18.97      67.9     0.34      1013.6     2.1       S   184   3.6       S   185   9.66    268      -17.7
   05/08/2019 19:50      60.0      59.3       65     47.8      0.00     18.97      67.9     0.34      1013.6     2.5       S   181   4.6       S   186   9.66    268      -17.3
   05/08/2019 19:40      60.1      59.6       65     47.9      0.00     18.97      67.9     0.34      1013.6     2.4       S   180   3.9       S   187   9.67    268      -15.9
   05/08/2019 19:30      60.2      59.8       64     47.9      0.00     18.97      67.8     0.34      1013.5     2.7       S   177   5.4       S   173   9.67    268      -14.0
   05/08/2019 19:20      60.5      59.9       64     48.0      0.00     18.97      67.9     0.34      1013.5     3.1       S   184   5.2       S   176   9.67    268      -10.7
   05/08/2019 19:10      61.0      60.3       63     48.1      0.00     18.97      67.8     0.34      1013.5     2.8       S   183   5.4       S   177   9.67    268       -8.8
   05/08/2019 19:00      61.1      60.6       63     48.2      0.00     18.97      67.8     0.34      1013.4     2.6       S   172   4.6       S   189   9.67    268       -4.5
   05/08/2019 18:50      61.1      60.8       63     48.3      0.00     18.97      67.9     0.34      1013.4     2.8       S   179   5.5       S   190   9.67    268       -0.7
   05/08/2019 18:40      61.6      60.9       63     48.4      0.00     18.97      67.8     0.34      1013.4     3.5       S   188   5.1      SW   218   9.67    268        9.3
   05/08/2019 18:30      61.9      61.3       63     48.5      0.00     18.97      67.8     0.34      1013.3     2.9     SSW   194   4.8     SSW   193   9.67    268       23.0
   05/08/2019 18:20      61.7      61.3       63     48.6      0.00     18.97      67.8     0.34      1013.3     2.5       S   176   4.3       S   183   9.68    268       33.3
   05/08/2019 18:10      61.8      61.3       62     48.5      0.00     18.97      67.8     0.34      1013.5     3.4       S   185   5.7     SSW   195   9.68    268       37.9
   05/08/2019 18:00      62.0      61.4       62     48.6      0.00     18.97      67.8     0.34      1013.5     3.4       S   181   6.1       S   179   9.68    268       50.1
   05/08/2019 17:50      62.0      61.6       62     48.7      0.00     18.97      67.8     0.34      1013.5     3.1       S   170   4.8     ESE   120   9.68    268       56.0
   05/08/2019 17:40      62.3      61.7       62     48.8      0.00     18.97      67.8     0.34      1013.6     3.8       S   187   7.1      SE   146   9.68    268       66.1
   05/08/2019 17:30      62.7      61.9       61     48.8      0.00     18.97      67.7     0.34      1013.6     3.6       S   178   6.8       S   185   9.68    268       75.1
   05/08/2019 17:20      63.0      62.4       61     49.0      0.00     18.97      67.8     0.34      1013.7     3.0       S   172   5.9     SSE   161   9.69    267       84.4
   05/08/2019 17:10      63.2      62.7       61     49.1      0.00     18.97      67.7     0.34      1013.6     2.5      SE   124   4.4     ESE   102   9.69    268       93.4
   05/08/2019 17:00      63.2      62.4       61     49.4      0.00     18.97      67.7     0.34      1013.7     2.2      SE   143   5.4      SE   133   9.69    267      100.3
   05/08/2019 16:50      63.0      62.5       62     49.4      0.00     18.97      67.7     0.34      1013.7     2.8       S   173   5.9       S   189   9.69    267      100.2
   05/08/2019 16:40      63.2      62.4       62     49.4      0.00     18.97      67.7     0.34      1013.8     2.5       S   171   5.8       S   169   9.69    268       96.1
   05/08/2019 16:30      63.1      62.4       62     49.4      0.00     18.97      67.7     0.34      1013.8     2.0       S   171   4.7     SSW   206   9.69    268       89.2
   05/08/2019 16:20      63.8      62.9       61     49.5      0.00     18.97      67.7     0.34      1013.9     2.3      SE   145   5.1      SE   129   9.69    268       84.6
   05/08/2019 16:10      63.7      62.9       61     49.4      0.00     18.97      67.6     0.34      1014.0     0.6     ESE   113   2.6      SE   137   9.70    268       92.1
   05/08/2019 16:00      64.0      63.0       61     49.6      0.00     18.97      67.7     0.34      1014.1     1.8      SE   125   3.6      SE   139   9.70    268      105.9
   05/08/2019 15:50      63.8      62.9       60     49.5      0.00     18.97      67.7     0.34      1014.2     1.0     ENE    71   3.3      SE   134   9.70    268      111.4
   05/08/2019 15:40      63.3      62.8       61     49.5      0.00     18.97      67.7     0.34      1014.3     1.8     ESE   104   3.9       E    87   9.70    268      119.4
   05/08/2019 15:30      63.6      63.0       61     49.6      0.00     18.97      67.7     0.34      1014.3     1.9       E    86   3.6     ENE    70   9.71    267      142.8
   05/08/2019 15:20      63.5      62.6       62     49.8      0.00     18.97      67.7     0.34      1014.5     1.5      SE   126   4.3      SE   137   9.71    268      150.2
   05/08/2019 15:10      63.0      62.2       63     49.6      0.00     18.97      67.6     0.34      1014.6     1.7      SE   129   3.2       S   181   9.71    268      145.1
   05/08/2019 15:00      62.7      62.2       63     49.6      0.00     18.97      67.6     0.34      1014.7     2.1     SSE   158   6.0     SSE   165   9.71    268      124.8
   05/08/2019 14:50      62.4      61.7       64     49.8      0.00     18.97      67.6     0.34      1014.9     2.1     SSE   151   5.1       S   189   9.71    268      108.1
   05/08/2019 14:40      62.0      61.6       65     49.9      0.00     18.97      67.6     0.34      1015.0     3.4     SSW   198   6.5     SSW   213   9.72    268      102.4
   05/08/2019 14:30      62.0      61.6       65     49.8      0.00     18.97      67.6     0.34      1015.1     3.0       S   181   5.4     SSE   167   9.72    268      103.4
   05/08/2019 14:20      62.7      61.8       64     49.8      0.00     18.97      67.6     0.34      1015.1     3.2       S   173   5.6       S   184   9.72    268      122.7
   05/08/2019 14:10      62.5      61.4       65     49.8      0.00     18.97      67.6     0.34      1015.2     1.9      SE   146   4.9       S   177   9.72    268      140.6
   05/08/2019 14:00      61.8      61.4       65     49.6      0.00     18.97      67.6     0.34      1015.3     3.0      SE   130   4.8      SE   140   9.73    268      145.0
   05/08/2019 13:50      62.0      61.3       65     49.6      0.00     18.97      67.6     0.34      1015.5     3.2      SE   129   6.3      SE   131   9.73    268      138.6
   05/08/2019 13:40      62.0      61.2       65     49.8      0.00     18.97      67.6     0.34      1015.6     2.7      SE   124   5.0     ESE   106   9.73    268      131.1
   05/08/2019 13:30      61.6      61.1       66     50.0      0.00     18.97      67.6     0.34      1015.6     3.3       S   179   6.1     SSE   154   9.73    268      138.1
   05/08/2019 13:20      61.5      61.0       66     49.8      0.00     18.97      67.6     0.34      1015.7     3.7     SSE   154   7.0      SE   142   9.73    268      126.6
   05/08/2019 13:10      61.7      61.1       66     50.0      0.00     18.97      67.5     0.34      1015.8     3.5     SSE   158   7.3     SSE   148   9.74    268      107.9
   05/08/2019 13:00      61.7      60.9       67     50.3      0.00     18.97      67.5     0.34      1015.9     2.6       S   171   5.4       S   181   9.74    268      102.2
   05/08/2019 12:50      61.7      61.1       67     50.4      0.00     18.97      67.5     0.34      1015.9     3.8     SSE   160   8.2      SE   127   9.74    268      103.0
   05/08/2019 12:40      61.6      61.1       68     50.5      0.00     18.97      67.5     0.34      1015.9     3.2       S   184   5.1     SSW   205   9.74    268      104.6
   05/08/2019 12:30      62.0      61.3       67     50.6      0.00     18.97      67.5     0.34      1016.0     3.6       S   179   5.7       S   191   9.74    268      109.7
   05/08/2019 12:20      62.1      61.5       67     50.7      0.00     18.97      67.5     0.34      1016.1     2.6       S   180   6.1       S   184   9.75    268      140.2
   05/08/2019 12:10      62.3      61.6       67     50.7      0.00     18.97      67.5     0.34      1016.2     2.8     SSW   194   5.5     SSW   201   9.75    268      148.7
   05/08/2019 12:00      62.0      61.3       67     50.7      0.00     18.97      67.5     0.34      1016.2     2.8     SSE   155   5.3     ESE   116   9.75    268      132.8
   05/08/2019 11:50      62.1      61.4       67     50.5      0.00     18.97      67.5     0.34      1016.2     3.3     SSE   168   5.6     SSW   195   9.75    268      134.4
   05/08/2019 11:40      62.4      61.7       67     50.7      0.00     18.97      67.5     0.34      1016.2     2.8       S   173   5.1     SSW   200   9.76    268      142.6
   05/08/2019 11:30      63.3      62.2       64     50.4      0.00     18.97      67.5     0.34      1016.2     2.2     SSE   155   4.9       S   170   9.76    268      189.2
   05/08/2019 11:20      63.6      62.8       63     50.2      0.00     18.97      67.5     0.34      1016.1     1.2      SE   146   3.4     ESE   121   9.76    267      224.0
   05/08/2019 11:10      63.6      62.7       62     49.9      0.00     18.97      67.5     0.34      1016.2     1.9       E    81   3.9      SE   138   9.76    267      242.6
   05/08/2019 11:00      63.6      62.4       63     50.2      0.00     18.97      67.6     0.34      1016.2     1.2     ENE    79   4.2       E    84   9.77    268      234.9
   05/08/2019 10:50      62.6      61.7       65     50.2      0.00     18.97      67.5     0.34      1016.2     1.1     SSW   204   2.3      SW   225   9.77    268      195.0
   05/08/2019 10:40      62.2      61.4       65     49.9      0.00     18.97      67.5     0.34      1016.2     1.6     ENE    62   3.4     ENE    57   9.78    268      163.6
   05/08/2019 10:30      62.2      61.7       64     49.6      0.00     18.97      67.6     0.34      1016.2     1.2     ENE    75   2.3       E    97   9.78    268      136.4
   05/08/2019 10:20      62.2      61.7       64     49.6      0.00     18.97      67.6     0.34      1016.2     1.6     ENE    61   3.6       N     7   9.78    268      145.3
   05/08/2019 10:10      62.0      61.0       65     49.5      0.00     18.97      67.6     0.34      1016.1     1.0     SSE   153   2.6     ENE    65   9.78    268      177.9
   05/08/2019 10:00      61.8      61.3       64     49.4      0.00     18.97      67.6     0.34      1016.2     1.0     SSE   147   3.7      SE   139   9.78    268      186.2
   05/08/2019 09:50      61.6      60.2       66     49.5      0.00     18.97      67.6     0.34      1016.3     0.8     ENE    59   2.5       N     9   9.79    268      174.1
   05/08/2019 09:40      60.6      60.2       67     49.4      0.00     18.97      67.6     0.34      1016.3     1.5     SSW   206   2.9      SW   216   9.79    268      170.0
   05/08/2019 09:30      60.7      60.3       66     49.2      0.00     18.97      67.6     0.34      1016.3     1.2     ENE    78   2.7      NW   312   9.80    268      130.6
   05/08/2019 09:20      60.6      59.9       67     49.5      0.00     18.97      67.6     0.34      1016.4     0.8     NNW   342   2.0     NNE    25   9.81    268      116.0
   05/08/2019 09:10      60.1      59.4       68     49.2      0.00     18.97      67.7     0.34      1016.6     1.3      NE    53   2.6     NNW   346   9.81    268      134.8
   05/08/2019 09:00      60.4      59.8       67     49.2      0.00     18.97      67.6     0.34      1016.7     1.2       E    82   2.6     NNE    31   9.82    268      134.5
   05/08/2019 08:50      60.3      59.4       69     49.4      0.00     18.97      67.7     0.34      1016.8     0.4       N   353   2.2      NW   316   9.83    268      131.4
   05/08/2019 08:40      59.7      59.3       69     49.5      0.00     18.97      67.7     0.34      1016.8     0.9     WNW   292   2.3       W   278   9.83    268      107.5
   05/08/2019 08:30      59.7      59.1       70     49.5      0.00     18.97      67.8     0.34      1016.8     0.9       W   270   2.5      SW   229   9.46    268       90.6
   05/08/2019 08:20      59.2      58.4       70     49.0      0.00     18.97      67.7     0.34      1016.8     0.0     NNE    18   1.1       N   352   9.46    268       80.0
   05/08/2019 08:10      58.8      58.4       71     49.2      0.00     18.97      67.8     0.34      1016.9     0.9       N   349   2.8      NW   319   9.46    268       70.6
   05/08/2019 08:00      58.8      58.3       71     49.2      0.00     18.97      67.8     0.34      1017.0     1.3     WSW   257   3.1     WNW   303   9.46    269       62.3
   05/08/2019 07:50      58.5      58.2       71     49.1      0.00     18.97      67.8     0.34      1017.0     1.2     WSW   242   2.7     WSW   245   9.46    269       59.5
   05/08/2019 07:40      58.5      58.0       72     49.2      0.00     18.97      67.8     0.34      1017.0     1.5       W   261   2.7     WSW   242   9.46    269       51.7
   05/08/2019 07:30      58.2      57.7       72     49.1      0.00     18.97      67.8     0.34      1017.0     1.3     WSW   243   2.3     SSW   206   9.46    269       45.0
   05/08/2019 07:20      57.9      57.5       72     48.9      0.00     18.97      67.8     0.34      1016.9     1.0      SW   229   2.2      SW   218   9.46    269       32.3
   05/08/2019 07:10      57.9      57.4       72     48.8      0.00     18.97      67.9     0.34      1016.9     1.6      SW   235   2.9      SW   236   9.46    269       19.3
   05/08/2019 07:00      57.9      57.4       73     48.8      0.00     18.97      67.9     0.34      1016.9     1.6     WSW   238   2.7      SW   227   9.47    269       10.7
   05/08/2019 06:50      57.6      57.2       73     48.9      0.00     18.97      67.9     0.34      1016.7     1.2     WSW   243   3.0     WSW   237   9.47    269        3.5
   05/08/2019 06:40      57.5      57.0       73     48.7      0.00     18.97      67.9     0.34      1016.6     1.2     SSW   203   2.8     SSW   206   9.47    269       -1.2
   05/08/2019 06:30      57.4      56.9       73     48.7      0.00     18.97      67.9     0.34      1016.6     0.5     SSW   206   1.4      SW   229   9.47    269       -5.2
   05/08/2019 06:20      57.3      56.9       74     48.8      0.00     18.97      67.9     0.34      1016.5     0.7     SSW   198   1.9     SSW   207   9.47    270       -7.9
   05/08/2019 06:10      57.2      56.9       74     48.8      0.00     18.97      67.9     0.34      1016.4     0.9      SW   216   2.1     SSW   214   9.47    270      -11.0
   05/08/2019 06:00      57.3      56.8       73     48.6      0.00     18.97      67.9     0.34      1016.5     0.7      SW   215   1.6      SW   220   9.47    269      -13.1
   05/08/2019 05:50      57.2      56.9       73     48.5      0.00     18.97      67.9     0.34      1016.5     1.5     SSW   210   2.1      SW   236   9.47    269      -15.7
   05/08/2019 05:40      57.2      56.8       74     48.6      0.00     18.97      68.0     0.34      1016.6     1.3      SW   215   1.9     SSW   207   9.47    269      -15.4
   05/08/2019 05:30      57.3      56.8       74     48.7      0.00     18.97      68.0     0.34      1016.7     1.0     SSW   194   1.7     SSW   209   9.47    269      -13.6
   05/08/2019 05:20      57.4      56.9       73     48.6      0.00     18.97      68.0     0.34      1016.8     0.9      SW   231   1.8     SSW   202   9.47    269      -13.1
   05/08/2019 05:10      57.2      56.9       73     48.6      0.00     18.97      68.0     0.34      1016.9     0.6      SW   235   2.2     SSW   202   9.47    269      -13.1
   05/08/2019 05:00      57.4      56.9       73     48.6      0.00     18.97      68.0     0.34      1016.9     1.4      SW   225   2.8     SSW   209   9.47    269      -13.0
   05/08/2019 04:50      57.2      57.0       73     48.7      0.00     18.97      68.0     0.34      1016.8     0.9       W   280   2.4      NW   316   9.47    269      -13.0
   05/08/2019 04:40      57.3      56.9       74     48.7      0.00     18.97      68.1     0.34      1016.8     1.6       W   260   3.0     WSW   248   9.47    269      -13.1
   05/08/2019 04:30      57.4      56.8       74     48.6      0.00     18.97      68.1     0.34      1016.8     2.2      SW   228   4.0      SW   221   9.47    269      -12.8
   05/08/2019 04:20      57.2      56.9       73     48.4      0.00     18.97      68.1     0.34      1016.9     2.3      SW   234   3.9      SW   236   9.47    269      -12.7
   05/08/2019 04:10      57.3      56.9       73     48.5      0.00     18.97      68.1     0.34      1016.9     2.1     SSW   209   3.3      SW   226   9.47    269      -13.0
   05/08/2019 04:00      57.3      56.9       74     48.8      0.00     18.97      68.1     0.34      1016.9     2.4     WSW   247   4.3       W   271   9.47    269      -13.1
   05/08/2019 03:50      57.4      57.0       73     48.7      0.00     18.97      68.1     0.34      1016.8     2.1     WSW   258   3.8       W   268   9.47    269      -12.5
   05/08/2019 03:40      57.5      56.9       74     48.8      0.00     18.97      68.1     0.34      1016.9     2.0     WNW   282   3.2     WNW   292   9.47    269      -12.5
   05/08/2019 03:30      57.5      57.0       73     48.9      0.00     18.97      68.1     0.34      1016.9     2.4     WSW   247   4.5     WSW   245   9.47    269      -12.9
   05/08/2019 03:20      57.7      57.4       73     49.1      0.00     18.97      68.2     0.34      1016.9     2.4     WSW   239   4.3       W   267   9.47    269      -12.9
   05/08/2019 03:10      57.9      57.4       73     49.1      0.00     18.97      68.2     0.34      1017.1     1.8     SSW   204   3.3       W   281   9.48    269      -12.7
   05/08/2019 03:00      58.2      57.5       71     48.7      0.00     18.97      68.2     0.34      1017.1     0.9       S   171   3.0     SSW   201   9.48    269      -12.6
   05/08/2019 02:50      58.2      57.7       69     47.9      0.00     18.97      68.2     0.34      1017.1     0.1       W   264   1.1     WSW   248   9.48    269      -12.8
   05/08/2019 02:40      58.0      57.6       68     47.2      0.00     18.97      68.3     0.34      1017.2     0.0     SSE   159   0.7     SSE   168   9.48    268      -13.0
   05/08/2019 02:30      58.0      57.5       68     47.2      0.00     18.97      68.2     0.34      1017.1     0.3       S   177   1.0      SW   219   9.48    268      -12.9
   05/08/2019 02:20      58.1      57.5       68     47.2      0.00     18.97      68.2     0.34      1017.2     1.5      SE   135   4.1      SE   127   9.48    268      -12.6
   05/08/2019 02:10      58.1      57.7       69     47.7      0.00     18.97      68.3     0.34      1017.2     1.2     SSE   166   1.9     SSE   149   9.48    268      -13.0
   05/08/2019 02:00      58.1      57.7       71     48.4      0.00     18.97      68.3     0.34      1017.3     0.9       S   183   2.6     SSW   210   9.48    269      -13.8
   05/08/2019 01:50      58.1      57.7       71     48.4      0.00     18.97      68.3     0.34      1017.4     1.7     SSW   200   2.6     SSW   208   9.48    269      -14.0
   05/08/2019 01:40      58.0      57.7       71     48.5      0.00     18.97      68.3     0.34      1017.5     1.3     SSW   194   2.2     SSW   208   9.48    269      -14.1
   05/08/2019 01:30      58.0      57.7       71     48.4      0.00     18.97      68.3     0.34      1017.6     1.3       S   177   2.8       S   173   9.48    269      -14.1
   05/08/2019 01:20      58.1      57.7       71     48.4      0.00     18.97      68.3     0.34      1017.6     1.7     SSE   155   3.7      SE   145   9.48    268      -14.6
   05/08/2019 01:10      58.1      57.7       71     48.5      0.00     18.97      68.3     0.34      1017.6     1.3     SSE   158   3.0      SE   125   9.48    269      -14.6
   05/08/2019 01:00      58.2      57.8       71     48.8      0.00     18.97      68.3     0.34      1017.5     1.6     SSE   153   3.9      SE   141   9.48    268      -16.1
   05/08/2019 00:50      58.2      57.8       71     48.8      0.00     18.97      68.3     0.34      1017.6     0.8     SSE   153   2.2     ESE   122   9.48    269      -18.1
   05/08/2019 00:40      58.3      57.9       71     48.6      0.00     18.97      68.3     0.34      1017.6     0.8     SSE   166   2.1       S   179   9.48    269      -22.4
   05/08/2019 00:30      58.3      57.9       70     48.2      0.00     18.97      68.4     0.34      1017.7     1.3       S   172   2.8       S   173   9.49    268      -28.9
   05/08/2019 00:20      58.5      58.0       68     47.9      0.00     18.97      68.4     0.34      1017.8     1.7       S   176   3.4       S   182   9.49    268      -18.3
   05/08/2019 00:10      58.6      58.2       68     47.6      0.00     18.97      68.4     0.34      1017.9     1.5       S   176   3.0     SSW   195   9.49    268      -16.1
   05/08/2019 00:00      58.8      58.3       66     47.4      0.00     18.97      68.4     0.34      1017.8     1.6       S   175   2.9     SSE   168   9.49    268      -16.4
   05/07/2019 23:50      59.0      58.4       66     47.3      0.00     18.97      68.4     0.34      1017.9     1.9     SSE   147   4.0      SE   137   9.49    268      -15.9
   05/07/2019 23:40      58.8      58.5       66     47.2      0.00     18.97      68.4     0.34      1017.9     1.5      SE   135   2.7       E    91   9.49    268      -15.9
   05/07/2019 23:30      59.1      58.5       65     47.1      0.00     18.97      68.5     0.34      1017.9     2.3       S   186   4.2     WSW   243   9.49    268      -15.9
   05/07/2019 23:20      59.2      58.8       65     47.1      0.00     18.97      68.4     0.34      1017.9     1.5      SW   222   3.3     SSW   209   9.49    268      -15.7
   05/07/2019 23:10      59.3      58.8       65     47.1      0.00     18.97      68.5     0.34      1017.9     0.7     SSW   202   2.6     SSW   200   9.49    268      -15.6
   05/07/2019 23:00      59.2      58.8       65     47.2      0.00     18.97      68.5     0.34      1017.9     0.6      SW   229   1.7     WSW   250   9.49    268      -15.7
   05/07/2019 22:50      59.2      58.8       65     47.1      0.00     18.97      68.4     0.34      1017.9     1.5     SSW   201   3.2     SSW   209   9.49    268      -15.8
   05/07/2019 22:40      59.2      58.8       65     47.2      0.00     18.97      68.5     0.34      1017.9     1.0      SW   226   2.8     WSW   240   9.49    268      -15.8
   05/07/2019 22:30      59.3      58.8       65     47.1      0.00     18.97      68.5     0.34      1018.0     1.6     SSW   191   3.8       S   184   9.49    268      -16.0
   05/07/2019 22:20      59.5      59.0       64     47.2      0.00     18.97      68.5     0.34      1018.0     1.4       S   179   3.7       S   176   9.50    268      -16.4
   05/07/2019 22:10      59.4      59.0       64     47.2      0.00     18.97      68.5     0.34      1018.0     1.1     SSE   154   3.2     SSE   161   9.50    268      -17.8
   05/07/2019 22:00      59.6      59.2       64     47.4      0.00     18.97      68.5     0.34      1018.0     1.1     SSE   163   2.7     SSE   167   9.50    268      -19.4
   05/07/2019 21:50      59.7      59.2       64     47.3      0.00     18.97      68.5     0.34      1018.1     2.1     ESE   124   3.8      SE   143   9.50    268      -17.6
   05/07/2019 21:40      59.8      59.3       64     47.2      0.00     18.97      68.5     0.34      1018.1     1.5      SE   129   3.4     ESE   109   9.50    268      -17.4
   05/07/2019 21:30      59.8      59.3       64     47.1      0.00     18.97      68.5     0.34      1018.1     1.9     SSE   158   4.2      SE   139   9.50    268      -17.5
   05/07/2019 21:20      59.8      59.3       64     47.2      0.00     18.97      68.5     0.34      1018.0     1.3      SE   145   3.2     SSE   163   9.50    268      -17.4
   05/07/2019 21:10      59.7      59.3       63     47.1      0.00     18.97      68.5     0.34      1018.0     1.6     SSE   161   4.3       S   176   9.50    268      -17.7
   05/07/2019 21:00      59.8      59.4       64     47.2      0.00     18.97      68.5     0.34      1017.9     1.8      SE   136   4.2       S   173   9.50    268      -17.9
   05/07/2019 20:50      59.8      59.4       64     47.3      0.00     18.97      68.5     0.34      1017.9     1.3     SSE   157   3.2       S   182   9.50    268      -17.9
   05/07/2019 20:40      60.1      59.5       63     47.3      0.00     18.97      68.5     0.34      1017.9     1.8      SE   140   4.1      SE   141   9.50    268      -18.3
   05/07/2019 20:30      60.1      59.8       64     47.5      0.00     18.97      68.5     0.34      1017.9     0.3     ESE   103   2.1       E   100   9.50    268      -18.3
   05/07/2019 20:20      59.9      59.6       63     47.4      0.00     18.97      68.5     0.34      1017.9     0.6      SE   144   1.6      SE   135   9.50    268      -18.7
   05/07/2019 20:10      60.1      59.6       63     47.3      0.00     18.97      68.5     0.34      1017.9     1.5       S   172   3.6     SSE   154   9.50    268      -18.9
   05/07/2019 20:00      60.3      59.8       63     47.3      0.00     18.97      68.5     0.34      1017.9     1.5       S   176   3.0       S   187   9.51    268      -19.1
   05/07/2019 19:50      60.4      59.9       63     47.4      0.00     18.97      68.5     0.34      1017.9     1.0     SSE   157   2.4      SE   145   9.51    268      -18.5
   05/07/2019 19:40      60.5      60.1       62     47.3      0.00     18.97      68.5     0.34      1017.9     0.6      SE   138   2.1     ENE    77   9.51    268      -17.6
   05/07/2019 19:30      60.6      60.2       62     47.1      0.00     18.97      68.5     0.34      1017.9     1.2       E    94   3.5       E    87   9.51    268      -15.5
   05/07/2019 19:20      60.7      60.2       61     47.0      0.00     18.97      68.5     0.34      1017.9     1.5     ESE   114   3.1      SE   125   9.51    268      -12.8
   05/07/2019 19:10      60.7      60.2       61     47.0      0.00     18.97      68.5     0.34      1017.9     2.1     ESE   121   4.2       E    93   9.51    268      -10.6
   05/07/2019 19:00      61.0      60.4       61     46.9      0.00     18.97      68.5     0.34      1017.9     1.8      SE   129   4.1      SE   138   9.51    268       -7.3
   05/07/2019 18:50      61.0      60.6       60     47.0      0.00     18.97      68.5     0.34      1017.8     1.6     ESE   117   3.8       E    98   9.51    268       -3.2
   05/07/2019 18:40      61.0      60.6       60     46.9      0.00     18.97      68.5     0.34      1017.9     1.5      SE   127   4.1     ESE   108   9.52    268       -0.0
   05/07/2019 18:30      61.0      60.5       60     46.8      0.00     18.97      68.5     0.34      1017.9     2.1      SE   144   4.8      SE   127   9.52    268        1.6
   05/07/2019 18:20      61.1      60.7       60     46.7      0.00     18.97      68.5     0.34      1017.9     2.0      SE   126   4.3     ESE   104   9.52    268        6.7
   05/07/2019 18:10      61.5      60.8       59     46.8      0.00     18.97      68.5     0.34      1017.9     2.4     ESE   110   4.3     ENE    73   9.52    268       13.1
   05/07/2019 18:00      61.5      61.1       59     46.9      0.00     18.97      68.5     0.34      1017.9     1.8     ESE   123   4.4      SE   140   9.52    268       20.5
   05/07/2019 17:50      61.6      61.0       59     46.7      0.00     18.97      68.5     0.34      1017.9     2.6      SE   138   4.7     SSE   156   9.52    268       32.4
   05/07/2019 17:40      61.8      61.3       59     46.9      0.00     18.97      68.5     0.34      1017.9     2.7      SE   138   6.0      SE   135   9.52    268       37.8
   05/07/2019 17:30      61.8      61.1       59     47.0      0.00     18.97      68.5     0.34      1017.9     2.4      SE   141   4.3     SSW   203   9.52    267       47.0
   05/07/2019 17:20      61.8      61.1       59     46.9      0.00     18.97      68.4     0.34      1017.9     3.7       S   179   8.2       S   181   9.52    267       56.8
   05/07/2019 17:10      61.9      61.4       58     46.9      0.00     18.97      68.4     0.34      1017.9     3.5       S   174   5.5     SSW   197   9.53    267       72.5
   05/07/2019 17:00      61.9      61.3       59     47.0      0.00     18.97      68.4     0.34      1018.0     3.9       S   181   7.0       S   175   9.53    267       81.8
   05/07/2019 16:50      62.1      61.7       58     47.1      0.00     18.97      68.4     0.34      1018.0     3.5       S   184   5.8     SSW   193   9.53    267       88.1
   05/07/2019 16:40      62.0      61.7       59     47.2      0.00     18.97      68.4     0.34      1018.1     3.8     SSW   194   7.4     SSW   195   9.53    267       98.8
   05/07/2019 16:30      62.2      61.7       59     47.3      0.00     18.97      68.4     0.34      1018.1     4.7     SSW   208   8.2     SSW   207   9.53    267      100.3
   05/07/2019 16:20      62.4      61.7       59     47.6      0.00     18.97      68.4     0.34      1018.1     3.2     SSW   203   5.7     SSW   207   9.54    267      102.2
   05/07/2019 16:10      62.2      61.4       59     47.4      0.00     18.97      68.4     0.34      1018.1     4.2     SSW   201   7.1     SSW   193   9.54    268      110.2
   05/07/2019 16:00      62.2      61.7       59     47.5      0.00     18.97      68.4     0.34      1018.1     3.9     SSW   193   6.6     SSE   169   9.54    267      117.5
   05/07/2019 15:50      62.6      61.9       59     47.6      0.00     18.97      68.4     0.34      1018.2     3.5       S   185   7.8     SSW   210   9.54    267      134.1
   05/07/2019 15:40      62.5      61.5       59     47.5      0.00     18.97      68.4     0.34      1018.2     3.9       S   177   7.6       S   182   9.54    267      151.5
   05/07/2019 15:30      62.0      61.4       60     47.5      0.00     18.97      68.3     0.34      1018.4     3.9       S   173   7.1       S   173   9.54    267      143.1
   05/07/2019 15:20      62.6      61.6       59     47.5      0.00     18.97      68.4     0.34      1018.5     4.7     SSW   206   8.5      SW   221   9.55    267      143.8
   05/07/2019 15:10      62.5      61.7       60     48.0      0.00     18.97      68.3     0.34      1018.6     3.3       S   191   6.1      SE   127   9.55    267      139.6
   05/07/2019 15:00      62.1      61.6       60     47.9      0.00     18.97      68.3     0.34      1018.6     3.6     SSW   198   6.6     SSW   207   9.55    267      135.0
   05/07/2019 14:50      62.0      61.3       60     47.7      0.00     18.97      68.3     0.34      1018.7     3.3       S   178   6.7      SE   135   9.55    267      126.7
   05/07/2019 14:40      61.8      61.3       61     47.7      0.00     18.97      68.3     0.34      1018.8     3.3     SSE   163   5.8       S   171   9.55    268      115.3
   05/07/2019 14:30      61.6      61.0       61     47.8      0.00     18.97      68.3     0.34      1018.8     4.5     SSE   168   8.8     SSE   159   9.55    268      113.6
   05/07/2019 14:20      61.6      61.1       61     47.9      0.00     18.97      68.3     0.34      1018.8     4.4       S   178   7.4       S   181   9.55    268      104.1
   05/07/2019 14:10      61.6      61.3       62     48.1      0.00     18.97      68.3     0.34      1018.7     4.6     SSE   165   7.3       S   174   9.55    268      103.4
   05/07/2019 14:00      61.6      61.1       62     48.2      0.00     18.97      68.3     0.34      1018.6     4.2       S   170   7.5      SW   223   9.55    268      103.3
   05/07/2019 13:50      61.7      61.0       62     48.4      0.00     18.97      68.3     0.34      1018.7     4.0       S   173   7.1       S   179   9.56    268       99.6
   05/07/2019 13:40      61.8      61.3       62     48.4      0.00     18.97      68.3     0.34      1018.7     4.5       S   169   8.0     ENE    72   9.56    268       78.9
   05/07/2019 13:30      62.2      61.3       62     48.4      0.00     18.97      68.3     0.34      1018.7     4.8       S   188   8.9      SE   134   9.56    268       64.1
   05/07/2019 13:20      63.3      61.8       60     48.3      0.00     18.97      68.2     0.34      1018.6     3.1     SSE   168   7.6      SW   227   9.56    267       72.5
   05/07/2019 13:10      63.6      63.0       58     48.1      0.00     18.97      68.2     0.34      1018.5     1.5       E    95   4.3       E    90   9.56    267      118.1
   05/07/2019 13:00      63.6      62.7       58     48.2      0.00     18.97      68.2     0.34      1018.5     2.0       E    89   4.3       E    87   9.56    267      129.4
   05/07/2019 12:50      63.7      62.7       58     48.2      0.00     18.97      68.2     0.34      1018.6     2.0     ENE    78   6.1       E    83   9.56    267      113.3
   05/07/2019 12:40      64.4      62.8       58     48.2      0.00     18.97      68.2     0.34      1018.6     2.1       E    90   3.5     ESE   115   9.57    267      120.3
   05/07/2019 12:30      64.4      63.8       57     48.4      0.00     18.97      68.2     0.34      1018.6     1.4     ENE    69   3.7     ENE    65   9.57    267      168.2
   05/07/2019 12:20      64.0      62.5       59     48.4      0.00     18.97      68.2     0.34      1018.6     2.4     ESE   117   6.4      SE   132   9.57    267      311.0
   05/07/2019 12:10      63.0      61.8       60     48.1      0.00     18.97      68.2     0.34      1018.7     2.3       E    96   6.3      SE   129   9.57    267      247.1
   05/07/2019 12:00      62.3      61.1       61     48.2      0.00     18.97      68.2     0.34      1018.7     2.3     SSE   164   4.8       S   189   9.57    267      280.2
   05/07/2019 11:50      61.4      60.8       62     48.1      0.00     18.97      68.2     0.34      1018.8     3.3     ESE   113   6.2       E    81   9.57    267      239.3
   05/07/2019 11:40      61.1      60.5       63     48.3      0.00     18.97      68.2     0.34      1018.8     3.8     SSE   151   6.6       S   179   9.57    268      186.2
   05/07/2019 11:30      61.0      60.5       63     48.2      0.00     18.97      68.2     0.34      1018.7     3.4     SSE   159   6.5      SE   138   9.57    267      165.5
   05/07/2019 11:20      60.6      60.0       64     48.2      0.00     18.97      68.3     0.34      1018.7     3.6      SE   140   8.3     SSE   156   9.58    268      146.4
   05/07/2019 11:10      61.6      60.3       63     48.4      0.00     18.97      68.2     0.34      1018.7     4.0      SE   136   7.5     ESE   106   9.58    267      192.2
   05/07/2019 11:00      61.3      60.3       64     48.5      0.00     18.97      68.3     0.34      1018.6     3.8     SSE   152   6.9       E    98   9.58    267      255.1
   05/07/2019 10:50      61.6      60.5       62     47.9      0.00     18.97      68.3     0.34      1018.6     3.3     ESE   112   6.9     ESE   116   9.58    267      218.3
   05/07/2019 10:40      61.8      61.3       61     47.8      0.00     18.97      68.3     0.34      1018.4     3.0     ENE    64   7.1       E    81   9.58    267      176.3
   05/07/2019 10:30      62.5      61.1       60     48.0      0.00     18.97      68.3     0.34      1018.3     3.5     ESE   105   7.4     SSE   165   9.58    267      230.0
   05/07/2019 10:20      62.5      61.5       60     47.7      0.00     18.97      68.3     0.34      1018.2     2.7     ESE   114   6.9      SE   129   9.58    267      321.7
   05/07/2019 10:10      62.4      60.3       62     47.9      0.00     18.97      68.3     0.34      1018.2     2.0       E    99   6.0      SE   136   9.58    266      411.2
   05/07/2019 10:00      60.7      59.9       63     47.6      0.00     18.97      68.3     0.34      1018.3     2.2       E    86   5.4     SSE   156   9.59    268      190.6
   05/07/2019 09:50      60.9      59.5       64     47.9      0.00     18.97      68.4     0.34      1018.2     2.3     SSE   150   5.7      SE   146   9.59    268      206.0
   05/07/2019 09:40      60.8      59.3       64     47.6      0.00     18.97      68.4     0.34      1018.3     1.4       E    95   4.9       S   179   9.59    267      300.0
   05/07/2019 09:30      59.5      58.5       65     47.4      0.00     18.97      68.4     0.34      1018.2     2.3       E    98   6.7     ENE    77   9.59    268      179.2
   05/07/2019 09:20      59.5      58.8       65     47.6      0.00     18.97      68.4     0.34      1018.3     2.2     ESE   109   5.5     ENE    71   9.60    268      170.6
   05/07/2019 09:10      59.3      58.3       68     48.1      0.00     18.97      68.5     0.34      1018.4     1.0     ENE    66   2.8      SE   143   9.60    268      159.4
   05/07/2019 09:00      58.9      58.3       68     48.0      0.00     18.97      68.5     0.34      1018.3     1.6     ESE   115   3.1     ENE    60   9.60    268      127.8
   05/07/2019 08:50      58.8      58.3       68     48.2      0.00     18.97      68.5     0.34      1018.3     1.1       E    87   2.9       E    82   9.60    268      126.6
   05/07/2019 08:40      58.5      57.8       70     48.2      0.00     18.97      68.5     0.34      1018.4     1.0     NNW   344   2.3       N     3   9.60    268      135.0
   05/07/2019 08:30      58.1      57.5       70     48.2      0.00     18.97      68.5     0.34      1018.3     1.4     NNE    23   3.3      NE    52   9.61    268      147.7
   05/07/2019 08:20      57.8      57.0       71     48.0      0.00     18.97      68.5     0.34      1018.2     0.8     NNE    31   2.1       N     3   9.61    268      122.2
   05/07/2019 08:10      57.3      56.5       73     48.2      0.00     18.97      68.6     0.34      1018.1     0.9       N   351   2.8       N     0   9.61    268      115.1
   05/07/2019 08:00      56.8      55.8       74     48.2      0.00     18.97      68.6     0.34      1018.0     0.7      NW   304   2.3     WNW   295   9.61    269       83.5
   05/07/2019 07:50      55.9      55.4       75     47.9      0.00     18.97      68.6     0.34      1018.0     0.1     SSW   196   1.1     SSW   203   9.61    269       51.8
   05/07/2019 07:40      55.5      54.9       76     47.8      0.00     18.97      68.7     0.34      1018.0     0.8     SSW   202   2.1     SSW   199   9.61    270       38.8
   05/07/2019 07:30      55.3      54.9       76     47.8      0.00     18.97      68.7     0.34      1018.0     1.7       S   190   3.2       S   188   9.61    270       28.7
   05/07/2019 07:20      55.3      54.8       77     48.0      0.00     18.97      68.7     0.34      1017.9     0.7     SSW   192   2.3       S   187   9.61    270       21.4
   05/07/2019 07:10      55.1      54.7       78     48.0      0.00     18.97      68.7     0.34      1017.8     0.8     SSW   201   1.9       W   271   9.62    270       15.2
   05/07/2019 07:00      54.9      54.5       78     48.1      0.00     18.97      68.7     0.34      1017.8     1.1     WNW   282   2.2     WSW   239   9.62    270       11.0
   05/07/2019 06:50      54.7      54.4       79     48.2      0.00     18.97      68.8     0.34      1017.7     1.8       W   272   3.0     WNW   288   9.62    270        4.5
   05/07/2019 06:40      54.7      54.1       80     48.2      0.00     18.97      68.8     0.34      1017.6     1.6       W   276   3.1     WSW   253   9.62    270        1.0
   05/07/2019 06:30      54.5      54.0       80     48.3      0.00     18.97      68.8     0.34      1017.5     1.0     WNW   300   2.5      NW   323   9.62    270       -6.5
   05/07/2019 06:20      54.2      53.8       81     48.3      0.00     18.97      68.8     0.34      1017.4     1.3     WSW   257   2.9     WSW   258   9.62    270       -8.7
   05/07/2019 06:10      54.1      53.7       81     48.3      0.00     18.97      68.9     0.34      1017.2     2.0     WSW   254   2.9       W   260   9.62    270      -10.6
   05/07/2019 06:00      54.0      53.6       82     48.3      0.00     18.97      68.9     0.34      1017.1     2.0     WSW   240   3.8     WSW   247   9.62    270      -11.6
   05/07/2019 05:50      54.0      53.5       82     48.3      0.00     18.97      68.9     0.34      1017.0     1.8     WSW   247   3.1     WSW   238   9.62    270      -11.8
   05/07/2019 05:40      53.8      53.5       82     48.3      0.00     18.97      69.0     0.34      1016.9     1.9     WSW   249   3.5      SW   234   9.63    270      -11.8
   05/07/2019 05:30      54.0      53.5       82     48.3      0.00     18.97      69.0     0.34      1016.8     2.1      SW   227   3.2      SW   216   9.63    271      -12.1
   05/07/2019 05:20      53.9      53.5       82     48.3      0.00     18.97      69.0     0.34      1016.8     0.7     WSW   253   1.9       W   273   9.63    271      -14.5
   05/07/2019 05:10      54.0      53.5       82     48.4      0.00     18.97      69.1     0.34      1016.7     1.5       W   277   2.9       W   263   9.63    271      -12.6
   05/07/2019 05:00      53.8      53.3       83     48.5      0.00     18.97      69.1     0.34      1016.7     0.9     WNW   287   2.1     WNW   288   9.63    271      -12.2
   05/07/2019 04:50      53.5      53.1       84     48.4      0.00     18.97      69.1     0.34      1016.5     0.9     WSW   254   1.8     SSW   213   9.63    271      -15.2
   05/07/2019 04:40      53.4      53.0       83     48.3      0.00     18.97      69.1     0.34      1016.4     0.0       N     0   0.0       S   189   9.64    271      -14.4
   05/07/2019 04:30      53.4      53.0       83     48.2      0.00     18.97      69.2     0.34      1016.3     0.1     SSW   205   1.1     WSW   237   9.64    270      -25.0
   05/07/2019 04:20      53.5      53.1       83     48.3      0.00     18.97      69.2     0.34      1016.3     0.6      SW   224   1.7      SW   222   9.64    270      -36.2
   05/07/2019 04:10      53.5      53.0       84     48.4      0.00     18.97      69.2     0.34      1016.3     0.0     SSE   153   0.8      SE   131   9.64    271      -24.9
   05/07/2019 04:00      53.4      53.0       84     48.4      0.00     18.97      69.2     0.34      1016.2     0.0     ENE    61   0.5     ENE    60   9.64    271      -18.9
   05/07/2019 03:50      53.2      52.8       84     48.4      0.00     18.97      69.3     0.34      1016.1     0.2     ESE   118   1.1      SW   224   9.64    270      -19.6
   05/07/2019 03:40      53.1      52.6       84     48.2      0.00     18.97      69.3     0.34      1016.1     0.6       E    79   1.4       E    83   9.65    271      -18.1
   05/07/2019 03:30      53.1      52.7       84     48.2      0.00     18.97      69.3     0.34      1016.0     0.3      SE   146   1.2      SE   142   9.65    268      -32.1
   05/07/2019 03:20      53.0      52.6       85     48.2      0.00     18.97      69.3     0.34      1015.9     1.1     SSW   212   2.8       S   190   9.65    263      -46.7
   05/07/2019 03:10      52.9      52.6       84     48.2      0.00     18.97      69.3     0.34      1015.8     1.2     SSW   204   3.0      SW   216   9.65    261      -56.6
   05/07/2019 03:00      53.0      52.5       84     48.1      0.00     18.97      69.3     0.34      1015.7     1.5       S   189   4.6     SSW   205   9.65    253      -61.3
   05/07/2019 02:50      53.2      52.8       84     48.2      0.00     18.97      69.3     0.34      1015.7     0.8     SSW   206   3.2     SSW   210   9.65    246      -62.4
   05/07/2019 02:40      53.1      52.6       84     48.2      0.00     18.97      69.4     0.34      1015.6     2.1     SSW   196   4.5     SSW   206   9.66    262      -62.9
   05/07/2019 02:30      53.1      52.6       84     48.2      0.00     18.97      69.4     0.34      1015.5     2.3     SSW   202   4.4       W   262   9.66    264      -62.6
   05/07/2019 02:20      53.5      52.7       83     48.1      0.00     18.97      69.5     0.34      1015.5     1.4       S   182   3.2       S   190   9.66    256      -63.0
   05/07/2019 02:10      53.5      53.1       83     48.2      0.00     18.97      69.5     0.34      1015.6     1.4     SSW   211   4.2       S   187   9.66    266      -63.2
   05/07/2019 02:00      53.5      53.0       83     48.1      0.00     18.97      69.5     0.34      1015.5     1.4      SW   220   2.7      SW   219   9.66    265      -63.6
   05/07/2019 01:50      53.8      53.2       82     48.1      0.00     18.97      69.5     0.34      1015.5     1.9     SSW   202   3.3      SW   221   9.67    265      -63.9
   05/07/2019 01:40      53.8      53.2       82     48.2      0.00     18.97      69.5     0.34      1015.6     2.4     SSW   203   4.5     SSW   198   9.67    268      -64.1
   05/07/2019 01:30      53.6      53.2       83     48.1      0.00     18.97      69.5     0.34      1015.6     2.1     SSW   196   4.4      SW   219   9.67    269      -64.0
   05/07/2019 01:20      53.7      53.1       83     48.2      0.00     18.97      69.5     0.34      1015.6     2.0     SSW   191   3.7       S   188   9.67    268      -64.0
   05/07/2019 01:10      53.8      53.5       82     48.3      0.00     18.97      69.6     0.34      1015.6     2.0       S   188   3.5       S   190   9.67    268      -64.2
   05/07/2019 01:00      54.3      53.5       81     48.2      0.00     18.97      69.6     0.34      1015.6     1.8       S   186   3.4     SSW   200   9.68    265      -64.2
   05/07/2019 00:50      54.4      53.8       81     48.3      0.00     18.97      69.6     0.34      1015.6     2.2     SSW   197   3.4      SW   221   9.68    268      -64.4
   05/07/2019 00:40      55.0      54.1       80     48.4      0.00     18.97      69.6     0.34      1015.7     1.7     SSW   193   2.7       S   181   9.68    268      -65.0
   05/07/2019 00:30      55.3      54.5       79     48.4      0.00     18.97      69.6     0.34      1015.6     1.6       S   188   3.2     SSW   197   9.68    269      -65.7
   05/07/2019 00:20      55.5      54.9       78     48.3      0.00     18.97      69.7     0.34      1015.5     2.0     SSW   193   3.8     SSW   202   9.68    270      -65.0
   05/07/2019 00:10      56.3      55.3       77     48.5      0.00     18.97      69.7     0.34      1015.6     2.3     SSW   200   3.4     SSW   211   9.68    270      -59.4
   05/07/2019 00:00      56.3      55.8       76     48.7      0.00     18.97      69.7     0.34      1015.7     1.8      SW   224   3.3     WSW   249   9.69    269      -41.9
   05/06/2019 23:50      56.3      55.9       77     48.8      0.00     18.97      69.7     0.34      1015.6     1.4      SW   223   2.8      SW   234   9.69    269      -19.0
   05/06/2019 23:40      56.3      55.8       76     48.7      0.00     18.97      69.7     0.34      1015.6     2.3      SW   228   3.8     WSW   242   9.69    269      -17.5
   05/06/2019 23:30      56.5      56.0       76     48.6      0.00     18.97      69.7     0.34      1015.6     2.6      SW   225   5.0     WSW   239   9.69    269      -25.1
   05/06/2019 23:20      56.5      56.0       76     48.6      0.00     18.97      69.7     0.34      1015.6     2.0      SW   227   5.0     SSW   208   9.69    269      -17.7
   05/06/2019 23:10      56.8      56.2       75     48.5      0.00     18.97      69.7     0.34      1015.5     2.2     SSW   211   4.3      SW   222   9.70    269      -18.4
   05/06/2019 23:00      57.2      56.4       73     48.5      0.00     18.97      69.7     0.34      1015.4     2.3      SW   219   4.5     SSW   209   9.70    268      -17.9
   05/06/2019 22:50      57.5      57.0       72     48.3      0.00     18.97      69.7     0.34      1015.4     3.1     WSW   244   5.7     WSW   254   9.70    268      -18.8
   05/06/2019 22:40      57.9      57.2       71     48.3      0.00     18.97      69.8     0.34      1015.4     3.4      SW   228   5.1      SW   224   9.70    268      -19.3
   05/06/2019 22:30      58.3      57.5       70     48.2      0.00     18.97      69.8     0.34      1015.5     2.6      SW   221   5.3      SW   220   9.70    268      -18.7
   05/06/2019 22:20      58.6      58.0       69     47.9      0.00     18.97      69.8     0.34      1015.3     2.8      SW   230   4.5     WSW   254   9.70    268      -19.1
   05/06/2019 22:10      58.6      58.1       71     48.8      0.00     18.97      69.8     0.34      1015.3     2.5      SW   229   5.0     WSW   250   9.71    268      -19.4
   05/06/2019 22:00      58.3      58.0       72     49.0      0.00     18.97      69.8     0.34      1015.2     2.1      SW   226   3.6      SW   228   9.71    268      -19.1
   05/06/2019 21:50      58.4      57.9       72     49.1      0.00     18.97      69.8     0.34      1015.2     2.4     WSW   236   4.8     WSW   248   9.71    268      -21.1
   05/06/2019 21:40      58.7      58.1       72     49.2      0.00     18.97      69.8     0.34      1015.2     3.5     WSW   237   6.1      SW   233   9.71    268      -19.9
   05/06/2019 21:30      58.9      58.4       71     49.0      0.00     18.97      69.8     0.34      1015.1     3.1      SW   221   6.3     WSW   239   9.71    268      -20.6
   05/06/2019 21:20      59.0      58.6       70     49.1      0.00     18.97      69.8     0.34      1015.0     2.8      SW   221   5.0       S   187   9.71    268      -20.9
   05/06/2019 21:10      59.0      58.6       70     49.2      0.00     18.97      69.8     0.34      1014.9     2.0      SW   219   3.7     SSW   194   9.71    268      -20.2
   05/06/2019 21:00      59.0      58.6       70     49.0      0.00     18.97      69.8     0.34      1014.8     2.1      SW   224   3.8     WSW   238   9.72    268      -20.5
   05/06/2019 20:50      59.0      58.5       69     48.7      0.00     18.97      69.8     0.34      1014.7     1.9      SW   229   3.3     WSW   257   9.72    268      -34.0
   05/06/2019 20:40      59.0      58.5       69     48.5      0.00     18.97      69.8     0.34      1014.7     2.2      SW   229   3.5     WSW   257   9.72    268      -38.8
   05/06/2019 20:30      59.4      58.7       67     48.2      0.00     18.97      69.9     0.34      1014.6     2.0      SW   220   3.7      SW   232   9.72    268      -60.5
   05/06/2019 20:20      59.6      59.1       65     47.7      0.00     18.97      69.8     0.34      1014.4     1.5      SW   216   3.2     SSW   201   9.72    268      -37.3
   05/06/2019 20:10      59.8      59.3       64     47.4      0.00     18.97      69.8     0.34      1014.3     1.7      SW   226   3.2     WSW   240   9.72    268      -24.9
   05/06/2019 20:00      59.8      59.4       64     47.3      0.00     18.97      69.8     0.34      1014.2     2.2     WSW   246   4.6       W   259   9.73    268      -20.9
   05/06/2019 19:50      59.7      59.4       64     47.2      0.00     18.97      69.8     0.34      1014.1     3.0     WSW   245   5.3     WSW   254   9.73    268      -19.0
   05/06/2019 19:40      59.9      59.3       63     47.0      0.00     18.97      69.8     0.34      1014.1     3.4      SW   230   6.6      SW   229   9.73    268      -17.3
   05/06/2019 19:30      59.9      59.4       62     46.6      0.00     18.97      69.8     0.34      1014.1     3.6      SW   233   6.8     WSW   254   9.73    268      -15.1
   05/06/2019 19:20      60.3      59.5       60     46.1      0.00     18.97      69.8     0.34      1013.9     3.9      SW   229   7.2      SW   234   9.74    267      -16.5
   05/06/2019 19:10      60.8      60.1       59     46.1      0.00     18.97      69.8     0.34      1013.9     2.9     WSW   255   6.8       W   275   9.74    267      -37.7
   05/06/2019 19:00      60.6      60.4       60     46.4      0.00     18.97      69.8     0.34      1013.8     3.3     WSW   248   6.5     WSW   244   9.74    267      -34.8
   05/06/2019 18:50      60.7      60.1       60     46.5      0.00     18.97      69.8     0.34      1013.7     3.9     WSW   242   7.3     WSW   253   9.74    267      -19.3
   05/06/2019 18:40      61.0      60.4       60     46.6      0.00     18.97      69.7     0.34      1013.6     4.7     WSW   242   8.7     WSW   248   9.75    267      -34.6
   05/06/2019 18:30      61.1      60.4       60     46.8      0.00     18.97      69.7     0.34      1013.5     5.3     WSW   240   8.5     WSW   251   9.75    267      -18.7
   05/06/2019 18:20      61.2      60.5       60     47.0      0.00     18.97      69.7     0.34      1013.5     5.6      SW   230   8.4     SSW   211   9.75    267       20.8
   05/06/2019 18:10      61.1      60.3       61     47.1      0.00     18.97      69.7     0.34      1013.7     4.5     WSW   237   6.7     WSW   237   9.76    267       54.9
   05/06/2019 18:00      61.1      60.4       61     47.1      0.00     18.97      69.7     0.34      1013.7     6.4     WSW   240  10.2      SW   234   9.76    267       22.6
   05/06/2019 17:50      61.8      60.8       60     47.3      0.00     18.97      69.6     0.34      1013.6     6.5      SW   232  11.7     WSW   255   9.77    267       78.0
   05/06/2019 17:40      62.5      61.5       59     47.4      0.00     18.97      69.6     0.34      1013.6     5.4     WSW   245  10.9      SW   227   9.77    267      129.9
   05/06/2019 17:30      62.7      61.9       60     47.9      0.00     18.97      69.7     0.34      1013.6     6.2     WSW   245  10.5     WSW   245   9.77    267      128.1
   05/06/2019 17:20      63.5      62.3       58     47.7      0.00     18.97      69.7     0.34      1013.5     6.1     WSW   239   9.6      SW   229   9.78    267      129.8
   05/06/2019 17:10      64.7      63.3       56     48.2      0.00     18.97      69.6     0.34      1013.3     6.0     WSW   241  10.6      SW   216   9.78    266      261.4
   05/06/2019 17:00      64.9      64.3       56     48.6      0.00     18.97      69.6     0.34      1013.1     5.4       W   265  10.9     WSW   255   9.78    266      186.1
   05/06/2019 16:50      65.5      64.6       54     48.0      0.00     18.97      69.6     0.34      1013.0     5.5     WSW   253   9.8       W   266   9.78    266      229.9
   05/06/2019 16:40      65.5      64.8       54     47.9      0.00     18.97      69.6     0.34      1012.9     5.5       W   263   9.4     WSW   249   9.79    266      382.9
   05/06/2019 16:30      65.3      64.4       53     47.2      0.00     18.97      69.5     0.34      1012.9     6.2     WSW   242  10.5      SW   228   9.79    266      295.7
   05/06/2019 16:20      65.8      65.1       52     47.2      0.00     18.97      69.6     0.34      1012.8     6.5       W   259  13.4     WSW   248   9.79    266      350.7
   05/06/2019 16:10      65.6      64.3       53     47.8      0.00     18.97      69.5     0.34      1012.9     5.3     WSW   237   9.8       W   264   9.80    266      404.8
   05/06/2019 16:00      64.4      63.1       56     47.5      0.00     18.97      69.5     0.34      1013.0     5.4     WSW   241   9.2     SSW   213   9.80    266      270.0
   05/06/2019 15:50      64.1      63.3       55     47.0      0.00     18.97      69.5     0.34      1013.1     5.5     WSW   239   9.2     WSW   251   9.80    266      128.9
   05/06/2019 15:40      63.8      63.2       54     46.7      0.00     18.97      69.5     0.34      1013.2     5.1      SW   227   9.6     SSW   203   9.80    266      232.6
   05/06/2019 15:30      63.6      62.7       56     47.0      0.00     18.97      69.5     0.34      1013.3     5.8      SW   234  10.8      SW   216   9.81    267      146.6
   05/06/2019 15:20      63.3      62.7       57     47.6      0.00     18.97      69.5     0.34      1013.4     7.3     WSW   240  11.4      SW   219   9.81    267      122.9
   05/06/2019 15:10      64.0      63.0       57     48.0      0.00     18.97      69.4     0.34      1013.5     6.2      SW   219  10.7      SW   227   9.81    267      177.7
   05/06/2019 15:00      64.3      63.5       58     48.8      0.00     18.97      69.4     0.34      1013.5     5.6     SSW   210   9.8     SSW   207   9.82    266      387.8
   05/06/2019 14:50      63.7      62.7       58     48.4      0.00     18.97      69.4     0.34      1013.5     5.1      SW   236   7.8     SSW   208   9.82    267      318.1
   05/06/2019 14:40      62.9      62.4       58     47.5      0.00     18.97      69.4     0.34      1013.5     4.1     SSW   205   6.9     SSW   213   9.82    267      197.5
   05/06/2019 14:30      63.2      62.4       56     46.9      0.00     18.97      69.4     0.34      1013.5     2.7     SSW   194   7.7      SW   219   9.83    266      179.9
   05/06/2019 14:20      63.0      62.2       57     47.1      0.00     18.97      69.4     0.34      1013.5     3.2     WSW   245   6.7     WNW   296   9.83    266      207.4
   05/06/2019 14:10      62.6      61.9       60     48.4      0.00     18.97      69.4     0.34      1013.5     4.5      SW   218   7.3      SW   223   9.83    266      355.0
   05/06/2019 14:00      62.0      61.0       62     48.1      0.00     18.97      69.3     0.34      1013.6     4.9     WSW   240   7.9      SW   236   9.83    267      279.4
   05/06/2019 13:50      61.6      61.3       61     47.9      0.00     18.97      69.3     0.34      1013.7     4.9     WSW   247   7.9      SW   232   9.84    267      189.6
   05/06/2019 13:40      62.2      61.3       61     47.8      0.00     18.97      69.3     0.34      1013.7     4.7      SW   235  10.5       W   263   9.84    267      145.9
   05/06/2019 13:30      62.8      61.7       58     47.3      0.00     18.97      69.3     0.34      1013.7     5.6     WSW   243   9.6     WNW   297   9.84    266      197.7
   05/06/2019 13:20      63.0      62.2       55     46.2      0.00     18.97      69.3     0.34      1013.7     4.3      SW   217   8.2       S   185   9.84    266      165.0
   05/06/2019 13:10      64.2      62.4       52     45.2      0.00     18.97      69.3     0.34      1013.7     5.9      SW   215  10.7     SSW   209   9.84    266       84.8
   05/06/2019 13:00      65.5      63.9       48     44.3      0.00     18.97      69.3     0.34      1013.6     3.9      SW   229   7.4     SSW   204   9.85    266      134.8
   05/06/2019 12:50      65.8      64.5       48     45.0      0.00     18.97      69.3     0.34      1013.5     2.9       W   270   6.8       W   267   9.85    266      339.2
   05/06/2019 12:40      65.4      64.2       49     44.9      0.00     18.97      69.2     0.34      1013.7     1.8      NW   307   4.6       W   265   9.85    266      311.0
   05/06/2019 12:30      64.4      63.5       50     44.8      0.00     18.97      69.3     0.34      1013.7     2.3      SW   214   6.0     WSW   256   9.85    266      332.7
   05/06/2019 12:20      64.4      63.1       50     45.0      0.00     18.97      69.3     0.34      1013.9     2.9      SW   230   7.1      SW   228   9.85    266      302.5
   05/06/2019 12:10      64.3      63.2       50     45.2      0.00     18.97      69.3     0.34      1014.0     3.6       W   259   7.6       W   268   9.85    266      408.7
   05/06/2019 12:00      64.9      62.8       51     45.3      0.00     18.97      69.3     0.34      1014.0     2.7      SW   221   7.2     SSW   200   9.85    266      330.0
   05/06/2019 11:50      64.4      63.5       52     45.7      0.00     18.97      69.3     0.34      1014.0     2.2      NW   304   6.7     WNW   283   9.85    266      333.9
   05/06/2019 11:40      63.8      63.1       53     45.7      0.00     18.97      69.3     0.34      1014.0     2.6      NW   317   6.4       W   280   9.85    266      302.2
   05/06/2019 11:30      64.0      63.1       52     45.7      0.00     18.97      69.3     0.34      1014.0     2.5     WNW   282   7.3     WSW   254   9.85    266      348.1
   05/06/2019 11:20      64.0      62.7       53     45.9      0.00     18.97      69.3     0.34      1013.9     2.2       W   270   5.6       W   275   9.85    266      336.9
   05/06/2019 11:10      63.7      62.7       53     45.9      0.00     18.97      69.3     0.34      1013.9     1.7      NW   321   4.1      NE    35   9.85    266      339.3
   05/06/2019 11:00      62.7      61.3       55     45.5      0.00     18.97      69.3     0.34      1013.8     1.7       N     7   4.8       N     2   9.85    266      302.7
   05/06/2019 10:50      61.6      60.8       57     45.6      0.00     18.97      69.3     0.34      1013.8     2.8       W   274   5.5       W   266   9.85    266      249.6
   05/06/2019 10:40      61.1      60.2       58     45.5      0.00     18.97      69.4     0.34      1013.8     1.7     SSW   201   3.2       S   182   9.86    267      151.1
   05/06/2019 10:30      60.6      59.8       58     45.5      0.00     18.97      69.4     0.34      1013.7     2.6       S   182   5.8     SSE   167   9.86    267      133.7
   05/06/2019 10:20      61.4      60.3       57     45.6      0.00     18.97      69.4     0.34      1013.7     2.4     SSW   203   5.3     SSW   210   9.86    267      169.4
   05/06/2019 10:10      61.8      61.0       56     45.4      0.00     18.97      69.4     0.34      1013.6     1.6     SSE   155   3.9       E    98   9.86    266      216.6
   05/06/2019 10:00      61.8      60.8       56     45.7      0.00     18.97      69.5     0.34      1013.5     2.1      SE   133   5.2       S   181   9.86    266      277.1
   05/06/2019 09:50      60.9      60.1       57     45.1      0.00     18.97      69.5     0.34      1013.5     2.1       E    95   4.4     ESE   107   9.86    266      291.1
   05/06/2019 09:40      60.3      59.4       58     44.9      0.00     18.97      69.5     0.34      1013.5     2.1      SE   126   5.0      SE   144   9.87    266      268.2
   05/06/2019 09:30      59.7      59.1       58     44.6      0.00     18.97      69.5     0.34      1013.5     2.4      SE   140   5.1     SSE   151   9.87    267      251.2
   05/06/2019 09:20      59.3      58.3       60     44.6      0.00     18.97      69.5     0.34      1013.5     3.4       S   171   6.1     SSE   154   9.87    267      197.0
   05/06/2019 09:10      58.9      58.3       60     44.7      0.00     18.97      69.5     0.34      1013.4     3.6       S   189   8.0     SSW   192   9.87    267      194.1
   05/06/2019 09:00      59.4      58.3       59     44.4      0.00     18.97      69.6     0.34      1013.4     2.8      SE   140   5.3     SSE   158   9.87    267      170.8
   05/06/2019 08:50      59.3      58.5       60     44.8      0.00     18.97      69.6     0.34      1013.3     1.5       S   190   4.0     SSW   212   9.87    267      158.5
   05/06/2019 08:40      58.7      57.8       60     44.6      0.00     18.97      69.6     0.34      1013.3     0.9     SSW   204   3.5      SE   128   9.87    267      149.6
   05/06/2019 08:30      58.3      57.4       61     44.6      0.00     18.97      69.7     0.34      1013.3     2.1     SSW   196   4.6     SSW   212   9.87    267      176.6
   05/06/2019 08:20      57.8      57.1       62     44.5      0.00     18.97      69.7     0.34      1013.4     2.6      SW   226   5.5     WSW   248   9.03    268      117.9
   05/06/2019 08:10      57.6      56.9       62     44.4      0.00     18.97      69.7     0.34      1013.5     2.4     SSW   197   4.6     SSE   162   9.03    268       81.1
   05/06/2019 08:00      57.6      57.0       61     44.1      0.00     18.97      69.7     0.34      1013.4     3.0      SW   216   6.2      SW   215   9.03    268       56.5
   05/06/2019 07:50      57.5      57.1       62     44.2      0.00     18.97      69.7     0.34      1013.4     2.5     WSW   238   4.3       W   280   9.03    268       71.2
   05/06/2019 07:40      57.3      56.9       62     44.3      0.00     18.97      69.8     0.34      1013.4     2.9      SW   229   4.9      SW   217   9.03    268       58.6
   05/06/2019 07:30      57.3      56.8       63     44.4      0.00     18.97      69.8     0.34      1013.4     2.5     WSW   248   5.4       W   262   9.03    268       54.8
   05/06/2019 07:20      56.9      56.3       67     45.7      0.00     18.97      69.8     0.34      1013.3     2.5     SSW   198   4.4       S   171   9.03    268       43.7
   05/06/2019 07:10      56.5      55.5       73     47.5      0.00     18.97      69.8     0.34      1013.2     2.1     SSW   195   3.9       S   173   9.03    269       24.5
   05/06/2019 07:00      55.8      55.4       76     48.2      0.00     18.97      69.8     0.34      1013.1     2.0     SSW   209   4.9     SSW   204   9.03    269       -6.7
   05/06/2019 06:50      55.9      55.4       77     48.4      0.00     18.97      69.9     0.34      1013.1     2.4     SSW   196   4.4     SSW   193   9.04    269       -9.2
   05/06/2019 06:40      55.9      55.4       78     48.7      0.00     18.97      69.9     0.34      1012.9     2.8       S   180   5.4       S   180   9.04    270       -3.6
   05/06/2019 06:30      55.8      55.5       78     48.8      0.00     18.97      69.9     0.34      1012.7     1.9       S   178   3.6     SSW   210   9.04    270       -7.9
   05/06/2019 06:20      55.9      55.5       77     48.5      0.00     18.97      69.9     0.34      1012.6     2.0       S   175   4.4     SSW   196   9.04    270      -11.3
   05/06/2019 06:10      55.7      55.4       76     48.1      0.00     18.97      70.0     0.34      1012.6     1.1       S   172   1.8       S   183   9.04    270      -19.9
   05/06/2019 06:00      55.7      55.1       76     48.2      0.00     18.97      70.0     0.34      1012.5     1.2       S   187   1.8     SSW   195   9.04    269      -23.1
   05/06/2019 05:50      55.4      54.6       77     47.9      0.00     18.97      70.0     0.34      1012.5     2.1      SW   222   2.7      SW   226   9.04    270      -17.1
   05/06/2019 05:40      56.0      54.7       76     47.8      0.00     18.97      70.0     0.34      1012.2     1.0       S   190   2.4      SW   221   9.04    270      -52.3
   05/06/2019 05:30      56.4      55.7       75     48.1      0.00     18.97      70.0     0.34      1012.1     0.0       N     0   0.0       S   180   9.04    268      -53.6
   05/06/2019 05:20      56.3      55.9       75     48.1      0.00     18.97      70.1     0.34      1012.2     0.0       N     0   0.0       S   180   9.04    269      -30.9
   05/06/2019 05:10      56.3      55.8       75     48.2      0.00     18.97      70.1     0.34      1012.2     0.1       S   182   1.0       S   184   9.04    269      -22.2
   05/06/2019 05:00      56.3      55.8       75     48.1      0.00     18.97      70.2     0.34      1012.3     1.1      SW   216   2.0     SSW   200   9.04    269      -18.8
   05/06/2019 04:50      56.4      55.9       74     48.0      0.00     18.97      70.2     0.34      1012.4     1.9      SW   229   3.0     WSW   257   9.04    269      -18.2
   05/06/2019 04:40      56.3      55.9       74     48.0      0.00     18.97      70.2     0.34      1012.4     1.2     WSW   253   3.2     WSW   258   9.04    269      -18.0
   05/06/2019 04:30      56.3      55.9       74     47.9      0.00     18.97      70.2     0.34      1012.4     1.9       W   263   3.6     WSW   248   9.04    269      -17.7
   05/06/2019 04:20      56.3      55.8       74     47.8      0.00     18.97      70.2     0.34      1012.4     1.9     WSW   240   3.3      SW   236   9.04    269      -17.6
   05/06/2019 04:10      56.3      55.9       73     47.6      0.00     18.97      70.3     0.34      1012.5     2.1     WSW   241   3.9     WSW   242   9.04    269      -18.0
   05/06/2019 04:00      56.2      55.8       74     47.9      0.00     18.97      70.2     0.34      1012.5     0.8      SW   219   2.1      SW   229   9.04    269      -18.8
   05/06/2019 03:50      56.3      55.8       73     47.6      0.00     18.97      70.3     0.34      1012.4     1.5     SSW   208   2.7       S   191   9.04    269      -18.7
   05/06/2019 03:40      56.3      55.8       73     47.3      0.00     18.97      70.3     0.34      1012.4     1.7      SW   222   2.9      SW   233   9.04    269      -17.3
   05/06/2019 03:30      56.1      55.8       72     47.1      0.00     18.97      70.3     0.34      1012.4     1.2     SSW   208   2.7      SW   226   9.04    269      -17.1
   05/06/2019 03:20      56.1      55.6       72     46.9      0.00     18.97      70.4     0.34      1012.3     1.3       S   182   2.7     SSE   148   9.04    269      -17.4
   05/06/2019 03:10      56.2      55.8       71     46.7      0.00     18.97      70.4     0.34      1012.3     1.5       S   170   2.5     SSW   193   9.04    269      -18.5
   05/06/2019 03:00      56.2      55.8       71     46.6      0.00     18.97      70.4     0.34      1012.4     1.4     SSW   213   3.0     SSW   191   9.04    268      -17.7
   05/06/2019 02:50      56.1      55.7       71     46.6      0.00     18.97      70.4     0.34      1012.4     0.9     SSW   192   1.9     SSW   194   9.04    268      -18.4
   05/06/2019 02:40      56.1      55.7       71     46.5      0.00     18.97      70.5     0.34      1012.3     0.8       S   187   1.7       S   182   9.04    268      -23.0
   05/06/2019 02:30      56.4      55.7       70     46.3      0.00     18.97      70.5     0.34      1012.3     1.9     SSW   198   3.2      SW   216   9.04    268      -25.6
   05/06/2019 02:20      56.3      55.8       69     46.1      0.00     18.97      70.5     0.34      1012.3     1.7      SW   232   3.9     SSW   200   9.04    268      -23.6
   05/06/2019 02:10      56.5      55.8       69     46.1      0.00     18.97      70.5     0.34      1012.4     2.0     SSW   199   3.4      SW   222   9.04    268      -25.7
   05/06/2019 02:00      56.8      56.1       69     46.2      0.00     18.97      70.5     0.34      1012.4     1.9      SW   226   3.9       W   268   9.05    268      -27.4
   05/06/2019 01:50      56.8      56.3       68     46.2      0.00     18.97      70.5     0.35      1012.5     2.8     WSW   241   4.8     SSW   205   9.05    268      -18.1
   05/06/2019 01:40      56.8      56.3       68     46.3      0.00     18.97      70.6     0.35      1012.5     2.1      SW   218   3.8     WSW   243   9.05    268      -18.7
   05/06/2019 01:30      56.8      56.3       69     46.3      0.00     18.97      70.6     0.34      1012.5     2.7     SSW   210   4.3     SSW   212   9.05    268      -31.6
   05/06/2019 01:20      57.0      56.5       70     46.9      0.00     18.97      70.6     0.35      1012.5     2.0      SW   223   3.9       W   260   9.05    268      -36.9
   05/06/2019 01:10      57.4      56.8       70     47.4      0.00     18.97      70.6     0.35      1012.5     2.1     SSW   198   3.2     SSW   204   9.05    268      -28.0
   05/06/2019 01:00      57.3      56.8       69     47.1      0.00     18.97      70.7     0.35      1012.5     2.4     SSW   209   4.1     WSW   237   9.05    269      -22.8
   05/06/2019 00:50      57.2      56.9       69     46.9      0.00     18.97      70.7     0.35      1012.5     1.8     SSW   214   2.9      SW   222   9.05    268      -20.3
   05/06/2019 00:40      57.7      57.0       70     47.5      0.00     18.97      70.7     0.35      1012.4     2.6      SW   234   5.0      SW   226   9.05    268      -19.1
   05/06/2019 00:30      57.7      57.4       70     47.9      0.00     18.97      70.7     0.35      1012.4     1.4      SW   216   3.5     WSW   244   9.05    268      -19.1
   05/06/2019 00:20      57.7      57.2       70     47.9      0.00     18.97      70.7     0.35      1012.4     2.1      SW   235   3.9      SW   233   9.05    268      -19.6
   05/06/2019 00:10      57.4      56.9       71     48.0      0.00     18.97      70.7     0.35      1012.4     2.2      SW   236   3.5      SW   233   9.05    268      -20.4
   05/06/2019 00:00      57.4      56.9       73     48.4      0.00     18.97      70.8     0.35      1012.4     1.9     SSW   203   2.9     SSW   193   9.05    268      -20.7
   05/05/2019 23:50      57.5      56.9       72     48.4      0.00     18.97      70.8     0.35      1012.5     1.8      SW   214   3.9     SSW   208   9.05    270      -21.9
   05/05/2019 23:40      57.9      57.1       72     48.4      0.00     18.97      70.8     0.35      1012.5     2.8      SW   223   4.7      SW   222   9.05    268      -26.3
   05/05/2019 23:30      57.9      57.4       70     47.8      0.00     18.97      70.8     0.35      1012.4     2.8     WSW   247   5.4     WSW   245   9.05    268      -32.0
   05/05/2019 23:20      57.9      57.5       70     48.0      0.00     18.97      70.8     0.35      1012.4     2.8     WSW   239   3.9     WSW   241   9.06    268      -28.6
   05/05/2019 23:10      58.2      57.4       70     47.9      0.00     18.97      70.8     0.35      1012.5     3.1      SW   235   6.1     SSW   202   9.06    268      -31.3
   05/05/2019 23:00      58.3      57.9       68     47.5      0.00     18.97      70.8     0.35      1012.4     3.6     WSW   244   6.2      SW   234   9.06    268      -30.9
   05/05/2019 22:50      58.4      57.9       67     47.1      0.00     18.97      70.8     0.35      1012.5     3.0      SW   223   5.2     SSW   203   9.06    268      -27.8
   05/05/2019 22:40      58.6      58.0       66     47.0      0.00     18.97      70.8     0.35      1012.4     2.5      SW   224   4.2       S   187   9.06    268      -33.5
   05/05/2019 22:30      58.8      58.2       65     46.9      0.00     18.97      70.8     0.35      1012.4     2.4      SW   227   4.4     SSW   204   9.06    268      -39.6
   05/05/2019 22:20      59.2      58.5       64     46.8      0.00     18.97      70.9     0.35      1012.3     2.4     WSW   240   5.0      SW   224   9.06    268      -38.2
   05/05/2019 22:10      59.7      58.9       62     46.3      0.00     18.97      70.9     0.35      1012.3     2.6     WSW   238   4.8     WSW   255   9.07    267      -29.9
   05/05/2019 22:00      59.6      59.3       60     45.4      0.00     18.97      70.9     0.35      1012.2     2.7       W   263   4.7     WSW   240   9.07    267      -36.2
   05/05/2019 21:50      59.8      59.4       59     45.1      0.00     18.97      70.9     0.35      1012.2     2.5       W   279   4.3      SW   235   9.07    267      -28.8
   05/05/2019 21:40      59.9      59.5       58     44.8      0.00     18.97      70.9     0.35      1012.2     2.0      NW   313   4.6     WNW   283   9.07    267      -31.4
   05/05/2019 21:30      60.1      59.5       58     44.8      0.00     18.97      70.9     0.35      1012.1     2.2     WNW   303   4.1       W   279   9.07    267      -34.4
   05/05/2019 21:20      60.1      59.7       57     44.7      0.00     18.97      70.8     0.35      1012.0     1.8     WNW   284   3.7       W   272   9.07    267      -31.9
   05/05/2019 21:10      60.2      59.5       57     44.6      0.00     18.97      70.9     0.35      1012.0     2.9     WSW   258   5.3     WSW   244   9.07    267      -33.7
   05/05/2019 21:00      60.3      59.8       55     43.9      0.00     18.97      70.9     0.35      1011.9     2.0       W   280   5.9       W   279   9.08    267      -52.4
   05/05/2019 20:50      60.6      59.9       54     43.5      0.00     18.97      70.8     0.35      1011.7     1.8     WNW   284   4.4       W   263   9.08    267      -63.5
   05/05/2019 20:40      60.8      60.3       53     43.4      0.00     18.97      70.8     0.35      1011.7     2.3     WNW   304   3.9      NW   309   9.08    266      -62.5
   05/05/2019 20:30      61.2      60.5       52     43.3      0.00     18.97      70.8     0.35      1011.5     2.5     WNW   298   4.3     WNW   291   9.08    266      -72.1
   05/05/2019 20:20      61.5      60.8       52     43.2      0.00     18.97      70.8     0.35      1011.4     2.8     WSW   255   5.4     WSW   240   9.08    266      -73.5
   05/05/2019 20:10      61.8      61.2       49     42.4      0.00     18.97      70.8     0.35      1011.2     3.8     WSW   254   7.9     WNW   287   9.08    266      -63.9
   05/05/2019 20:00      62.1      61.5       48     42.0      0.00     18.97      70.8     0.35      1011.1     2.9       W   263   7.0     WSW   242   9.09    266      -61.8
   05/05/2019 19:50      62.4      61.8       47     41.9      0.00     18.97      70.8     0.35      1011.0     3.5       W   263   5.7     WSW   257   9.09    266      -60.0
   05/05/2019 19:40      62.9      61.9       50     43.6      0.00     18.97      70.8     0.35      1010.9     2.7     SSW   205   6.2     SSW   199   9.09    266      -49.2
   05/05/2019 19:30      63.2      62.6       49     43.7      0.00     18.97      70.7     0.35      1010.8     2.5     SSW   207   4.7     WSW   245   9.10    266      -33.9
   05/05/2019 19:20      64.1      62.9       48     43.6      0.00     18.97      70.7     0.35      1010.7     2.3     SSW   199   4.5      SW   218   9.10    266      -18.2
   05/05/2019 19:10      64.3      63.6       47     43.2      0.00     18.97      70.7     0.35      1010.6     1.4     SSW   194   3.1     SSE   158   9.10    266        2.6
   05/05/2019 19:00      64.8      63.6       46     42.7      0.00     18.97      70.7     0.35      1010.5     2.3       S   180   5.6     SSE   167   9.10    266       11.1
   05/05/2019 18:50      64.7      64.2       46     43.3      0.00     18.97      70.7     0.35      1010.5     2.7      SW   227   5.5     NNE    20   9.11    266       -6.5
   05/05/2019 18:40      64.8      64.1       46     43.3      0.00     18.97      70.6     0.35      1010.5     2.5       S   188   6.4       S   178   9.11    266        1.9
   05/05/2019 18:30      65.0      64.4       47     43.9      0.00     18.97      70.6     0.35      1010.4     3.1       S   169   5.9      SE   130   9.11    266       11.6
   05/05/2019 18:20      64.9      64.1       48     44.2      0.00     18.97      70.6     0.35      1010.4     4.2     SSE   167   7.0       S   183   9.11    266       13.6
   05/05/2019 18:10      65.3      64.3       48     44.6      0.00     18.97      70.5     0.35      1010.4     4.4       S   176   7.0       S   191   9.12    266       27.8
   05/05/2019 18:00      66.3      65.0       48     45.1      0.00     18.97      70.5     0.34      1010.3     4.3     SSE   162   8.7     SSW   192   9.12    266       63.5
   05/05/2019 17:50      66.6      65.5       49     46.1      0.00     18.97      70.5     0.34      1010.4     4.1       S   180   7.3     SSE   167   9.12    266       89.1
   05/05/2019 17:40      66.7      66.2       48     46.0      0.00     18.97      70.4     0.34      1010.4     4.2     SSW   196   7.9     WSW   243   9.13    266       99.0
   05/05/2019 17:30      66.8      66.3       47     45.7      0.00     18.97      70.4     0.34      1010.5     5.3      SW   235   8.9       S   188   9.13    266      112.7
   05/05/2019 17:20      67.1      66.6       47     46.0      0.00     18.97      70.3     0.34      1010.5     5.2     WSW   245   7.7     WSW   239   9.13    266      114.3
   05/05/2019 17:10      68.4      67.0       47     46.5      0.00     18.97      70.3     0.34      1010.5     4.5      SW   222   8.5     WSW   256   9.14    266      138.7
   05/05/2019 17:00      68.6      67.6       46     46.7      0.00     18.97      70.3     0.34      1010.5     3.4      SW   218   7.3     SSW   200   9.14    266      224.6
   05/05/2019 16:50      67.9      66.3       47     46.1      0.00     18.97      70.2     0.34      1010.5     5.2     SSE   150   8.7      SE   133   9.14    266      417.6
   05/05/2019 16:40      66.5      65.8       48     46.0      0.00     18.97      70.2     0.34      1010.5     5.5      SE   144  11.2      SE   133   9.14    266      379.2
   05/05/2019 16:30      66.5      65.8       48     46.0      0.00     18.97      70.1     0.34      1010.6     5.1     SSE   159   9.7      SE   132   9.15    266      396.7
   05/05/2019 16:20      66.4      65.8       48     46.0      0.00     18.97      70.1     0.34      1010.7     5.8       S   173   9.3      SE   139   9.15    266      428.1
   05/05/2019 16:10      66.7      66.0       47     45.7      0.00     18.97      70.0     0.34      1010.7     5.1       S   177   9.1     SSW   209   9.16    266      245.7
   05/05/2019 16:00      66.8      65.9       47     45.7      0.00     18.97      69.9     0.34      1010.8     4.2     SSW   196   7.7       S   188   9.16    266      194.7
   05/05/2019 15:50      66.9      65.9       47     45.6      0.00     18.97      69.9     0.34      1010.9     4.3     SSW   198   7.1     SSW   207   9.17    266      110.1
   05/05/2019 15:40      67.6      66.8       46     45.6      0.00     18.97      69.9     0.34      1010.9     4.9     SSE   161  10.0      SE   144   9.17    266      246.4
   05/05/2019 15:30      67.1      66.2       47     45.9      0.00     18.97      69.8     0.34      1010.9     6.0       S   174  10.4       S   182   9.17    266      489.7
   05/05/2019 15:20      67.4      66.6       48     46.7      0.00     18.97      69.8     0.34      1011.0     6.3     SSE   163  11.8       S   172   9.18    266      528.1
   05/05/2019 15:10      68.1      66.9       47     46.2      0.00     18.97      69.7     0.34      1011.0     6.4     SSE   152  10.6      SE   144   9.17    266      402.2
   05/05/2019 15:00      68.8      67.5       47     47.2      0.00     18.97      69.7     0.34      1011.1     6.0     SSE   162  10.9      SW   220   9.19    266      403.5
   05/05/2019 14:50      69.4      68.2       48     48.3      0.00     18.97      69.6     0.34      1011.1     5.9       S   174  12.3      SE   135   9.18    266      567.8
   05/05/2019 14:40      69.0      67.8       49     48.4      0.00     18.97      69.5     0.34      1011.0     5.9       S   176  10.0       S   190   9.19    266      552.4
   05/05/2019 14:30      69.3      68.5       48     48.4      0.00     18.97      69.5     0.34      1011.0     5.7     SSE   157  10.1      SE   130   9.19    266      566.8
   05/05/2019 14:20      70.1      68.3       48     48.5      0.00     18.97      69.4     0.34      1011.0     5.2       S   183  10.4     SSW   191   9.20    266      574.9
   05/05/2019 14:10      69.8      68.5       47     48.0      0.00     18.97      69.4     0.34      1011.0     4.9     SSE   166   9.8       S   179   9.20    266      587.7
   05/05/2019 14:00      68.9      68.3       48     48.2      0.00     18.97      69.3     0.34      1011.0     5.1     SSE   165  10.1     SSW   197   9.20    265      597.7
   05/05/2019 13:50      70.0      68.5       48     48.9      0.00     18.97      69.3     0.34      1011.2     4.7       S   179   7.3     ESE   119   9.21    265      605.6
   05/05/2019 13:40      69.8      69.1       47     48.5      0.00     18.97      69.2     0.34      1011.2     5.2     SSE   160   9.5     SSW   208   9.21    265      611.5
   05/05/2019 13:30      69.8      68.3       48     48.6      0.00     18.97      69.2     0.34      1011.2     4.8       S   188   7.6     SSW   196   9.21    265      624.9
   05/05/2019 13:20      70.0      68.2       48     48.5      0.00     18.97      69.1     0.34      1011.2     6.0       S   178  11.2       S   173   9.22    265      632.0
   05/05/2019 13:10      70.5      69.3       47     48.7      0.00     18.97      69.1     0.34      1011.3     4.1     SSE   157   8.0      SE   124   9.21    265      651.5
   05/05/2019 13:00      70.5      68.0       48     48.3      0.00     18.97      69.0     0.34      1011.5     2.9      SE   138   5.4     SSW   202   9.22    265      662.1
   05/05/2019 12:50      69.9      68.3       49     49.0      0.00     18.97      69.0     0.34      1011.6     4.6       S   179   7.7     SSE   148   9.22    265      679.5
   05/05/2019 12:40      69.5      68.7       49     49.1      0.00     18.97      69.0     0.34      1011.6     3.3     ESE   115   8.0       S   183   9.22    265      662.9
   05/05/2019 12:30      69.4      68.2       50     49.1      0.00     18.97      68.9     0.34      1011.7     2.0     ENE    76   5.1     ENE    68   9.22    265      632.5
   05/05/2019 12:20      68.4      67.2       51     49.0      0.00     18.97      68.9     0.34      1011.7     2.6     ESE   118   7.3      SE   141   9.22    265      440.4
   05/05/2019 12:10      68.2      67.1       51     48.6      0.00     18.97      68.9     0.34      1011.7     2.2     ESE   112   5.9       E    90   9.22    265      449.8
   05/05/2019 12:00      68.2      67.1       50     48.5      0.00     18.97      68.9     0.34      1011.9     3.5       E    90   8.5       E    99   9.23    265      611.5
   05/05/2019 11:50      67.9      66.9       51     48.5      0.00     18.97      68.9     0.34      1012.1     3.9     SSE   156   9.1     ESE   122   9.23    265      722.1
   05/05/2019 11:40      68.3      67.0       49     47.9      0.00     18.97      68.9     0.34      1012.2     2.0       E    93   6.2     ENE    63   9.23    264      498.4
   05/05/2019 11:30      68.4      67.8       49     48.1      0.00     18.97      68.9     0.34      1012.1     2.8      NE    42   4.9     ENE    68   9.23    265      609.2
   05/05/2019 11:20      68.3      67.4       49     48.0      0.00     18.97      68.8     0.34      1012.1     2.2     ENE    69   6.8       E    79   9.23    265      549.0
   05/05/2019 11:10      68.2      67.6       49     48.0      0.00     18.97      68.9     0.34      1012.2     2.0       E    94   4.3      SE   145   9.23    264      561.5
   05/05/2019 11:00      68.0      66.4       50     47.8      0.00     18.97      68.9     0.34      1012.3     2.0      NE    42   5.2     NNW   346   9.23    265      558.4
   05/05/2019 10:50      67.5      66.0       50     47.6      0.00     18.97      68.9     0.34      1012.3     2.2      NE    55   5.6      NE    55   9.23    265      553.2
   05/05/2019 10:40      66.3      64.8       51     46.9      0.00     18.97      68.9     0.34      1012.5     1.5       N    10   5.0     NNE    13   9.24    265      538.5
   05/05/2019 10:30      65.5      64.3       52     47.1      0.00     18.97      68.9     0.34      1012.5     2.6     ENE    64   5.8      NE    52   9.24    265      508.3
   05/05/2019 10:20      65.2      63.7       53     47.2      0.00     18.97      69.0     0.34      1012.4     2.2     ESE   104   7.3     ESE   108   9.24    265      474.8
   05/05/2019 10:10      64.4      63.0       53     46.5      0.00     18.97      68.9     0.34      1012.4     1.8     ESE   103   4.1       E   101   9.24    265      467.2
   05/05/2019 10:00      63.6      62.9       56     47.1      0.00     18.97      69.0     0.34      1012.4     2.9      NE    52   7.0     ENE    79   9.24    266      418.8
   05/05/2019 09:50      63.5      62.4       57     47.2      0.00     18.97      69.0     0.34      1012.4     2.9      NE    48   6.5       E    92   9.24    266      422.9
   05/05/2019 09:40      63.5      62.5       58     47.8      0.00     18.97      69.0     0.34      1012.4     2.3       E    86   5.9       E   101   9.24    266      397.2
   05/05/2019 09:30      62.9      61.4       59     47.9      0.00     18.97      69.1     0.34      1012.5     2.0     ENE    66   5.7      NE    50   9.24    266      288.9
   05/05/2019 09:20      62.7      60.5       62     48.4      0.00     18.97      69.0     0.34      1012.5     1.2     ESE   109   2.8     ESE   117   9.24    266      449.0
   05/05/2019 09:10      60.9      60.2       63     47.9      0.00     18.97      69.1     0.34      1012.6     1.6     WSW   255   3.3       N     4   9.24    268      220.9
   05/05/2019 09:00      60.6      58.9       66     48.0      0.00     18.97      69.1     0.34      1012.6     0.6       S   184   2.6     ESE   103   9.24    268      246.6
   05/05/2019 08:50      59.5      58.8       66     48.0      0.00     18.97      69.2     0.34      1012.6     1.4     SSW   197   4.0       S   183   9.24    268      127.8
   05/05/2019 08:40      59.1      57.9       68     47.9      0.00     18.97      69.2     0.34      1012.6     1.0      SE   139   2.8       S   173   9.24    267      161.9
   05/05/2019 08:30      58.2      57.5       68     47.5      0.00     18.97      69.2     0.34      1012.6     1.4      SE   142   4.1      SE   135   9.24    268      137.9
   05/05/2019 08:20      57.8      57.0       70     47.7      0.00     18.97      69.2     0.34      1012.7     1.5     SSE   147   4.6      SE   125   9.24    268       80.2
   05/05/2019 08:10      57.2      56.6       71     47.8      0.00     18.97      69.2     0.34      1012.7     2.1      SE   139   4.7     ESE   120   9.24    269       92.5
   05/05/2019 08:00      56.8      56.3       73     48.1      0.00     18.97      69.2     0.34      1012.8     2.6       S   179   4.8       S   173   9.25    269       83.4
   05/05/2019 07:50      56.6      56.0       74     48.1      0.00     18.97      69.3     0.34      1012.8     2.3      SE   125   4.6       E    93   9.25    269       75.8
   05/05/2019 07:40      56.3      55.7       75     48.3      0.00     18.97      69.3     0.34      1012.8     1.6      SE   141   3.4      SE   141   9.25    269       60.1
   05/05/2019 07:30      56.0      55.5       77     48.5      0.00     18.97      69.3     0.34      1012.7     1.7     SSE   151   3.8      SE   138   9.25    270       46.7
   05/05/2019 07:20      55.7      55.2       79     48.9      0.00     18.97      69.3     0.34      1012.6     2.0      SE   145   4.7     SSE   152   9.25    270       34.3
   05/05/2019 07:10      55.4      54.9       80     49.1      0.00     18.97      69.4     0.34      1012.6     2.0       S   182   3.9     SSW   212   9.25    270       24.5
   05/05/2019 07:00      55.4      55.0       80     49.2      0.00     18.97      69.4     0.34      1012.6     0.8     ESE   109   3.1     SSE   163   9.25    270        9.8
   05/05/2019 06:50      55.2      54.7       81     49.3      0.00     18.97      69.4     0.34      1012.5     0.2     ENE    78   1.3       E    86   9.25    270       -2.0
   05/05/2019 06:40      54.9      54.4       82     49.2      0.00     18.97      69.4     0.34      1012.5     0.6       W   263   2.1       W   272   9.25    270       -5.2
   05/05/2019 06:30      54.7      54.4       82     49.0      0.00     18.97      69.5     0.34      1012.3     1.0       S   184   2.5       S   181   9.25    270       -7.0
   05/05/2019 06:20      54.6      54.3       82     49.0      0.00     18.97      69.5     0.34      1012.2     3.1       S   182   6.3       S   184   9.25    270       -9.1
   05/05/2019 06:10      54.7      54.3       81     48.8      0.00     18.97      69.5     0.34      1012.1     3.0       S   181   4.3       S   186   9.25    270      -11.0
   05/05/2019 06:00      54.9      54.3       81     48.6      0.00     18.97      69.6     0.34      1012.0     4.0       S   181   7.2       S   188   9.25    270      -12.4
   05/05/2019 05:50      54.9      54.4       81     48.7      0.00     18.97      69.6     0.34      1011.9     3.5       S   175   6.7     SSE   153   9.25    270      -13.3
   05/05/2019 05:40      54.9      54.5       80     48.7      0.00     18.97      69.6     0.34      1011.7     3.0     SSE   163   6.4     SSE   168   9.25    270      -14.7
   05/05/2019 05:30      55.1      54.5       80     48.6      0.00     18.97      69.6     0.34      1011.7     3.1     SSE   169   5.5      SE   134   9.25    270      -15.9
   05/05/2019 05:20      55.7      54.9       78     48.4      0.00     18.97      69.7     0.34      1011.7     2.5      SE   130   5.0     SSE   152   9.25    270      -15.2
   05/05/2019 05:10      55.7      55.2       77     48.5      0.00     18.97      69.7     0.34      1011.8     1.4      NE    56   2.6     ENE    60   9.26    270      -13.5
   05/05/2019 05:00      55.8      55.3       78     48.7      0.00     18.97      69.7     0.34      1012.0     0.6       E    80   1.8      NE    38   9.26    270      -13.3
   05/05/2019 04:50      55.6      55.2       78     48.7      0.00     18.97      69.7     0.34      1012.0     1.0     ENE    64   3.6       E    82   9.26    270      -13.3
   05/05/2019 04:40      55.5      55.2       79     48.8      0.00     18.97      69.8     0.34      1012.1     1.5       E   101   3.3      SE   137   9.26    270      -13.3
   05/05/2019 04:30      55.5      55.2       79     48.9      0.00     18.97      69.8     0.34      1012.2     1.8       S   170   4.4      SE   145   9.26    270      -13.2
   05/05/2019 04:20      56.2      55.3       78     49.0      0.00     18.97      69.8     0.34      1012.2     1.9       S   182   3.5       S   181   9.26    270      -13.2
   05/05/2019 04:10      56.0      55.6       78     48.9      0.00     18.97      69.8     0.34      1012.2     1.1     ENE    78   2.4     ENE    64   9.26    270      -13.1
   05/05/2019 04:00      56.0      55.7       78     49.2      0.00     18.97      69.8     0.34      1012.2     1.7     ENE    61   3.5     NNE    31   9.26    270      -12.9
   05/05/2019 03:50      56.1      55.6       79     49.4      0.00     18.97      69.9     0.34      1012.2     1.1     ENE    63   3.0       E    85   9.26    270      -12.7
   05/05/2019 03:40      56.3      55.7       80     49.7      0.00     18.97      69.9     0.34      1012.1     1.8     ENE    58   3.9     ENE    66   9.26    270      -11.9
   05/05/2019 03:30      56.3      55.9       81     50.1      0.00     18.97      70.0     0.34      1012.1     1.5     ENE    70   3.6      NE    47   9.26    270      -12.5
   05/05/2019 03:20      56.2      55.7       82     50.6      0.00     18.97      70.0     0.34      1012.0     0.9     ENE    75   2.5     ENE    75   9.26    270      -13.0
   05/05/2019 03:10      55.9      55.5       83     50.8      0.00     18.97      70.0     0.34      1012.1     1.2     ESE   104   3.3      NE    54   9.26    271      -12.6
   05/05/2019 03:00      55.9      55.5       84     50.9      0.00     18.97      70.0     0.34      1012.1     0.9     ESE   103   2.7      SE   131   9.26    271      -12.5
   05/05/2019 02:50      55.9      55.5       85     51.1      0.00     18.97      70.1     0.34      1012.1     1.2       E    96   2.7      NE    54   9.26    271      -13.0
   05/05/2019 02:40      55.8      55.5       85     51.1      0.00     18.97      70.1     0.34      1012.1     1.4       E    81   4.3     ENE    74   9.26    270      -12.3
   05/05/2019 02:30      55.8      55.4       85     51.3      0.00     18.97      70.1     0.34      1012.1     1.4     ENE    58   3.4     ESE   105   9.26    271      -10.4
   05/05/2019 02:20      55.7      54.8       87     51.4      0.00     18.97      70.1     0.34      1012.2     0.3     ENE    65   1.6     ESE   115   9.26    270       -8.6
   05/05/2019 02:10      55.0      54.0       89     51.3      0.00     18.97      70.2     0.34      1012.3     0.8     ENE    59   2.8      NE    53   9.26    264       -7.3
   05/05/2019 02:00      54.2      53.2       90     50.8      0.00     18.97      70.2     0.34      1012.4     0.1     ESE   108   0.8     ESE   106   9.26    279       -6.4
   05/05/2019 01:50      53.5      52.5       90     50.1      0.00     18.97      70.2     0.34      1012.5     0.5       E    96   1.3       E    92   9.26    296      -11.2
   05/05/2019 01:40      53.5      52.6       89     49.9      0.00     18.97      70.3     0.34      1012.6     0.3      SE   143   0.8      SE   138   9.26    303      -27.6
   05/05/2019 01:30      54.0      53.1       89     50.3      0.00     18.97      70.3     0.35      1012.6     0.5       S   172   1.1      SW   216   9.26    300      -30.9
   05/05/2019 01:20      53.9      53.4       89     50.4      0.00     18.97      70.3     0.35      1012.6     0.4      SW   214   1.0     SSW   211   9.27    291      -39.4
   05/05/2019 01:10      54.0      53.5       88     50.3      0.00     18.97      70.3     0.35      1012.6     0.2      SW   224   1.2     SSW   209   9.27    283      -45.8
   05/05/2019 01:00      54.1      53.6       88     50.3      0.00     18.97      70.4     0.35      1012.6     1.2     SSW   195   1.8     SSW   196   9.27    271      -50.4
   05/05/2019 00:50      54.4      53.7       87     50.1      0.00     18.97      70.4     0.35      1012.6     0.8       S   172   2.4     SSW   206   9.27    261      -56.5
   05/05/2019 00:40      55.0      54.0       85     49.8      0.00     18.97      70.4     0.35      1012.6     1.4       S   187   3.4     SSW   208   9.27    241      -60.5
   05/05/2019 00:30      55.2      54.5       84     50.1      0.00     18.97      70.4     0.35      1012.6     1.4       S   170   3.2       S   182   9.27    245      -61.2
   05/05/2019 00:20      55.8      54.8       84     50.4      0.00     18.97      70.4     0.35      1012.5     1.6       S   173   4.2       S   182   9.27    250      -58.8
   05/05/2019 00:10      55.9      55.4       84     50.8      0.00     18.97      70.4     0.35      1012.5     0.1       S   174   0.7     SSE   168   9.27    257      -59.5
   05/05/2019 00:00      55.9      55.5       83     50.7      0.00     18.97      70.5     0.35      1012.4     0.8     SSW   198   1.5     SSW   203   9.27    245      -61.5
   05/04/2019 23:50      56.0      55.5       83     50.5      0.00     18.97      70.4     0.35      1012.3     0.7       S   188   1.6       S   184   9.27    239      -63.8
   05/04/2019 23:40      56.6      55.5       81     50.3      0.00     18.97      70.5     0.35      1012.2     1.0       S   178   2.0     SSW   211   9.28    242      -66.6
   05/04/2019 23:30      56.9      56.3       82     50.9      0.00     18.97      70.5     0.35      1012.0     0.8       S   183   1.6      SW   215   9.28    245      -65.7
   05/04/2019 23:20      56.9      56.3       82     51.1      0.00     18.97      70.5     0.35      1012.0     0.4     SSE   169   1.1       S   178   9.28    244      -66.0
   05/04/2019 23:10      57.3      56.5       81     50.9      0.00     18.97      70.5     0.35      1012.0     0.0     SSE   151   0.7     SSE   149   9.28    243      -67.3
   05/04/2019 23:00      58.2      56.9       79     50.7      0.00     18.97      70.5     0.35      1011.9     0.2     SSE   151   0.9     SSE   148   9.28    253      -68.7
   05/04/2019 22:50      58.2      57.7       78     51.3      0.00     18.97      70.5     0.35      1011.9     0.4       S   190   1.1     SSW   193   9.28    263      -68.8
   05/04/2019 22:40      58.7      57.7       78     51.2      0.00     18.97      70.5     0.35      1011.8     0.4     SSW   209   1.2     SSW   202   9.28    265      -69.3
   05/04/2019 22:30      59.5      58.5       75     51.2      0.00     18.97      70.5     0.35      1011.8     0.0      SW   224   0.6      SW   233   9.28    266      -71.2
   05/04/2019 22:20      59.8      59.0       75     51.3      0.00     18.97      70.5     0.35      1011.8     0.3     ESE   111   1.6      NE    55   9.28    270      -72.9
   05/04/2019 22:10      60.1      59.5       74     51.3      0.00     18.97      70.5     0.35      1011.7     0.4       S   173   2.8     WSW   240   9.29    270      -74.5
   05/04/2019 22:00      60.3      59.8       73     51.4      0.00     18.97      70.5     0.35      1011.7     1.2       S   190   3.1     SSW   213   9.29    269      -74.8
   05/04/2019 21:50      60.7      60.0       73     51.4      0.00     18.97      70.5     0.35      1011.7     1.0       S   187   2.1       S   188   9.29    269      -75.2
   05/04/2019 21:40      60.8      60.3       72     51.5      0.00     18.97      70.5     0.35      1011.5     0.8       S   189   2.1     SSW   210   9.29    269      -75.7
   05/04/2019 21:30      61.2      60.5       71     51.5      0.00     18.97      70.5     0.35      1011.4     1.2       S   190   4.1     SSE   154   9.29    269      -76.5
   05/04/2019 21:20      61.6      60.9       70     51.5      0.00     18.97      70.5     0.35      1011.4     1.0       S   191   2.5     WSW   247   9.29    269      -77.3
   05/04/2019 21:10      62.2      61.3       69     51.5      0.00     18.97      70.5     0.35      1011.3     2.2     SSW   213   4.8     SSW   199   9.30    268      -78.5
   05/04/2019 21:00      62.6      61.8       68     51.6      0.00     18.97      70.5     0.35      1011.2     3.3     SSW   210   5.7      SW   222   9.30    268      -79.2
   05/04/2019 20:50      63.2      62.3       67     51.6      0.00     18.97      70.4     0.35      1011.2     3.1     SSW   206   6.0      SW   235   9.30    268      -79.0
   05/04/2019 20:40      63.7      62.8       66     51.5      0.00     18.97      70.5     0.35      1011.2     2.3      SW   217   4.8      SW   233   9.30    268      -79.4
   05/04/2019 20:30      64.4      63.3       65     51.6      0.00     18.97      70.4     0.35      1011.1     2.1     SSW   209   3.5      SW   225   9.30    268      -80.1
   05/04/2019 20:20      65.2      64.1       63     51.8      0.00     18.97      70.4     0.35      1010.9     2.6      SW   229   4.7     WSW   248   9.31    268      -81.4
   05/04/2019 20:10      66.2      65.0       61     51.9      0.00     18.97      70.4     0.35      1010.9     2.9     WSW   241   4.4     WNW   287   9.31    268      -81.9
   05/04/2019 20:00      66.6      65.8       60     52.0      0.00     18.97      70.3     0.35      1010.8     2.0     WNW   284   4.6       W   269   9.31    267      -82.7
   05/04/2019 19:50      67.1      66.1       59     52.0      0.00     18.97      70.3     0.35      1010.8     2.3     WNW   300   6.0     WNW   293   9.32    267      -81.6
   05/04/2019 19:40      67.8      66.9       58     52.1      0.00     18.97      70.3     0.35      1010.7     2.8     WNW   299   5.1       W   269   9.32    267      -78.4
   05/04/2019 19:30      68.6      67.5       57     52.3      0.00     18.97      70.3     0.35      1010.7     3.1     WNW   282   5.9     WNW   298   9.32    267      -74.1
   05/04/2019 19:20      70.0      68.3       56     52.4      0.00     18.97      70.2     0.35      1010.6     2.6     WNW   301   6.1     WNW   294   9.33    267      -69.0
   05/04/2019 19:10      70.8      69.6       54     52.8      0.00     18.97      70.2     0.35      1010.6     2.6      NW   313   5.4     WSW   251   9.33    266      -53.4
   05/04/2019 19:00      71.4      70.5       53     53.1      0.00     18.97      70.2     0.35      1010.6     2.5     WNW   284   5.0       W   264   9.33    266      -35.6
   05/04/2019 18:50      72.0      71.1       52     53.2      0.00     18.97      70.2     0.35      1010.6     3.5     WNW   288   7.4     WSW   247   9.34    266      -16.3
   05/04/2019 18:40      72.3      71.5       52     53.2      0.00     18.97      70.1     0.35      1010.6     3.0     WSW   253   5.5     WSW   238   9.34    266        6.3
   05/04/2019 18:30      73.0      71.8       50     52.6      0.00     18.97      70.0     0.35      1010.6     2.4     SSW   192   6.0     WSW   241   9.34    266       29.6
   05/04/2019 18:20      72.9      72.0       49     52.4      0.00     18.97      70.0     0.35      1010.7     2.0      SW   223   4.9       S   183   9.35    266       54.4
   05/04/2019 18:10      72.5      71.8       50     52.6      0.00     18.97      70.0     0.34      1010.7     3.2       S   176   6.1       S   175   9.35    266       80.0
   05/04/2019 18:00      72.7      72.3       50     52.9      0.00     18.97      70.0     0.34      1010.7     3.5       S   175   6.6     SSW   202   9.35    266      105.8
   05/04/2019 17:50      73.2      72.3       50     53.0      0.00     18.97      69.9     0.34      1010.7     4.2       S   172   6.9       S   183   9.36    266      130.8
   05/04/2019 17:40      73.3      72.6       50     52.9      0.00     18.97      69.8     0.34      1010.7     3.8       S   180   6.2      SW   231   9.36    266      159.0
   05/04/2019 17:30      73.3      72.5       50     53.2      0.00     18.97      69.8     0.34      1010.6     4.1     SSE   160   8.2      SE   142   9.36    265      190.7
   05/04/2019 17:20      73.5      72.8       49     52.8      0.00     18.97      69.8     0.34      1010.6     5.0       S   181   7.9       S   189   9.37    265      215.3
   05/04/2019 17:10      74.2      73.2       48     52.9      0.00     18.97      69.7     0.34      1010.6     4.4       S   178   8.4     SSW   203   9.37    265      238.8
   05/04/2019 17:00      74.4      73.5       49     53.3      0.00     18.97      69.7     0.34      1010.6     3.7       S   171   6.3      SE   143   9.37    265      262.2
   05/04/2019 16:50      74.0      73.2       49     53.2      0.00     18.97      69.5     0.34      1010.6     4.0       S   177   8.5       S   174   9.38    265      287.4
   05/04/2019 16:40      74.4      73.5       48     53.3      0.00     18.97      69.5     0.34      1010.7     3.9       S   187   6.9       S   188   9.38    265      307.9
   05/04/2019 16:30      74.3      73.3       49     53.2      0.00     18.97      69.5     0.34      1010.7     4.1     SSW   204   8.5      SW   221   9.39    265      332.0
   05/04/2019 16:20      74.9      73.8       48     53.3      0.00     18.97      69.4     0.34      1010.8     4.3     SSW   193   8.9      SW   215   9.39    265      355.6
   05/04/2019 16:10      75.3      73.8       48     53.5      0.00     18.97      69.4     0.34      1010.9     3.4       S   191   7.2      SE   146   9.39    265      381.7
   05/04/2019 16:00      75.1      73.9       48     53.3      0.00     18.97      69.3     0.34      1011.0     4.8     SSW   196   8.4      SW   227   9.40    265      404.1
   05/04/2019 15:50      75.1      74.1       48     53.5      0.00     18.97      69.2     0.34      1011.1     3.6     SSW   210   6.9      SW   215   9.40    265      423.5
   05/04/2019 15:40      74.9      74.1       47     53.0      0.00     18.97      69.2     0.34      1011.2     3.8      SW   217   9.6     SSW   213   9.40    265      438.6
   05/04/2019 15:30      74.7      73.8       48     53.1      0.00     18.97      69.1     0.34      1011.3     3.0       S   171   7.5     SSW   209   9.41    265      458.9
   05/04/2019 15:20      74.3      73.3       48     53.1      0.00     18.97      69.0     0.34      1011.4     3.8     SSE   157   7.0     ESE   106   9.41    265      477.8
   05/04/2019 15:10      74.6      72.9       49     53.2      0.00     18.97      69.0     0.34      1011.6     5.3     SSE   158  10.6      SE   128   9.41    265      493.8
   05/04/2019 15:00      74.4      73.7       48     53.4      0.00     18.97      68.9     0.34      1011.6     4.5     SSE   164   9.9     SSE   160   9.41    265      511.8
   05/04/2019 14:50      75.2      73.8       48     53.5      0.00     18.97      68.8     0.34      1011.6     5.0     SSE   157   9.1      SE   136   9.42    265      526.9
   05/04/2019 14:40      76.9      74.9       47     54.0      0.00     18.97      68.8     0.34      1011.7     3.9       S   173   8.1     SSE   156   9.42    265      530.6
   05/04/2019 14:30      77.6      76.5       45     53.9      0.00     18.97      68.7     0.34      1011.7     3.0     ENE    67   6.6      NE    50   9.42    265      521.8
   05/04/2019 14:20      79.2      77.1       43     54.1      0.00     18.97      68.7     0.34      1011.8     2.4      NE    44   6.2       N   352   9.43    265      548.1
   05/04/2019 14:10      77.4      76.2       44     53.3      0.00     18.97      68.6     0.34      1011.9     3.2      NE    53   6.8     NNE    15   9.43    265      568.5
   05/04/2019 14:00      77.6      76.4       44     53.1      0.00     18.97      68.5     0.34      1011.9     3.1     ENE    68   6.7     ENE    68   9.43    265      579.0
   05/04/2019 13:50      77.6      76.6       42     52.6      0.00     18.97      68.5     0.34      1011.9     2.1      NE    45   4.9      NE    53   9.43    265      581.1
   05/04/2019 13:40      76.8      75.2       44     52.4      0.00     18.97      68.4     0.34      1012.0     2.6     NNW   334   5.9     NNE    12   9.43    265      593.9
   05/04/2019 13:30      75.4      74.1       45     52.0      0.00     18.97      68.4     0.34      1012.1     2.7      NE    38   5.4      NE    39   9.44    265      597.0
   05/04/2019 13:20      75.5      74.1       45     52.0      0.00     18.97      68.3     0.34      1012.2     2.6      NE    47   5.8      NE    46   9.44    265      606.1
   05/04/2019 13:10      75.3      73.9       45     52.0      0.00     18.97      68.3     0.34      1012.3     3.0      NE    54   7.1      NE    53   9.44    265      610.6
   05/04/2019 13:00      74.7      73.6       45     51.6      0.00     18.97      68.2     0.34      1012.4     2.9     NNE    24   6.1     NNE    29   9.44    265      606.8
   05/04/2019 12:50      74.1      73.3       46     51.5      0.00     18.97      68.2     0.34      1012.5     2.9      NE    40   6.0       E    87   9.44    265      610.7
   05/04/2019 12:40      74.3      72.8       45     51.3      0.00     18.97      68.2     0.34      1012.6     1.9       N   358   5.3      NE    43   9.44    265      613.0
   05/04/2019 12:30      73.9      71.3       47     51.0      0.00     18.97      68.1     0.34      1012.8     1.8     ENE    64   3.9     NNE    18   9.44    265      614.1
   05/04/2019 12:20      73.2      71.7       48     51.3      0.00     18.97      68.1     0.34      1012.9     2.9     ESE   105   7.1     ESE   110   9.44    265      609.5
   05/04/2019 12:10      73.2      70.6       49     51.5      0.00     18.97      68.1     0.34      1013.0     2.1      NE    41   6.9     NNE    16   9.44    265      608.1
   05/04/2019 12:00      71.3      70.2       50     51.3      0.00     18.97      68.1     0.34      1013.1     2.8     ENE    70   5.5      SE   137   9.44    265      590.7
   05/04/2019 11:50      71.4      70.0       51     51.4      0.00     18.97      68.1     0.34      1013.2     2.0       N     9   7.1     NNE    32   9.45    265      557.9
   05/04/2019 11:40      70.8      70.0       51     51.4      0.00     18.97      68.0     0.34      1013.4     2.8      NE    39   5.7     NNE    33   9.45    265      576.1
   05/04/2019 11:30      71.2      69.8       51     51.5      0.00     18.97      68.1     0.34      1013.5     1.6     NNE    20   4.5       N   352   9.45    265      567.5
   05/04/2019 11:20      70.3      68.7       52     51.1      0.00     18.97      68.1     0.34      1013.7     1.8     ENE    70   4.5       N     3   9.45    266      570.2
   05/04/2019 11:10      68.8      67.1       54     51.0      0.00     18.97      68.1     0.34      1013.8     1.5     WNW   303   3.4     NNW   340   9.45    265      553.6
   05/04/2019 11:00      67.3      66.3       56     50.4      0.00     18.97      68.0     0.34      1013.9     1.7      NW   325   5.0       N     0   9.45    266      528.4
   05/04/2019 10:50      67.1      66.4       56     50.5      0.00     18.97      68.1     0.34      1013.9     2.0     ESE   102   3.9       E    91   9.45    266      529.4
   05/04/2019 10:40      66.9      65.7       57     50.8      0.00     18.97      68.0     0.34      1014.0     1.9      NE    41   4.3     NNE    17   9.45    266      512.4
   05/04/2019 10:30      66.6      65.4       58     50.7      0.00     18.97      68.1     0.34      1014.0     2.7     NNE    27   5.1      NE    48   9.46    266      496.5
   05/04/2019 10:20      66.5      64.1       60     50.8      0.00     18.97      68.1     0.34      1014.0     0.9      SE   140   3.0       W   280   9.46    266      469.3
   05/04/2019 10:10      64.3      63.3       62     50.7      0.00     18.97      68.1     0.34      1014.0     1.7      NW   305   4.2     NNW   338   9.46    266      464.9
   05/04/2019 10:00      63.5      62.7       64     50.6      0.00     18.97      68.2     0.34      1014.0     1.8       N   353   3.4       W   263   9.46    266      430.3
   05/04/2019 09:50      63.2      62.4       64     50.5      0.00     18.97      68.2     0.34      1014.0     1.8       N     1   3.6       N   352   9.46    266      419.1
   05/04/2019 09:40      62.9      62.1       64     50.3      0.00     18.97      68.1     0.34      1014.2     1.4     ESE   107   3.4       E    83   9.46    266      362.9
   05/04/2019 09:30      63.4      61.4       65     50.5      0.00     18.97      68.2     0.34      1014.2     1.2     ESE   122   3.1     NNE    13   9.46    266      365.2
   05/04/2019 09:20      61.4      59.6       69     50.2      0.00     18.97      68.2     0.34      1014.2     1.2      SW   215   3.9      SE   125   9.46    266      455.9
   05/04/2019 09:10      60.1      58.8       72     50.5      0.00     18.97      68.2     0.34      1014.2     2.4     SSW   192   5.3      SE   133   9.46    268      333.8
   05/04/2019 09:00      59.0      57.8       74     50.1      0.00     18.97      68.3     0.34      1014.3     1.5      SW   230   4.7     SSW   201   9.46    269      179.2
   05/04/2019 08:50      58.1      57.1       75     49.9      0.00     18.97      68.3     0.34      1014.3     1.0     ESE   113   3.2     ESE   121   9.46    269      131.0
   05/04/2019 08:40      57.7      57.1       76     50.1      0.00     18.97      68.3     0.34      1014.3     2.3      SE   141   4.5      SE   135   9.46    269      135.2
   05/04/2019 08:30      57.7      57.1       77     50.2      0.00     18.97      68.3     0.34      1014.2     3.2      SE   128   5.6      SE   137   9.46    270      115.6
   05/04/2019 08:20      57.9      57.1       78     50.5      0.00     18.97      68.3     0.34      1014.1     1.3     ESE   119   4.3       E   101   9.46    270       95.4
   05/04/2019 08:10      57.4      56.9       79     50.8      0.00     18.97      68.3     0.34      1014.1     1.2     ESE   114   2.6      SE   130   9.47    270       73.3
   05/04/2019 08:00      57.2      56.8       80     50.8      0.00     18.97      68.4     0.34      1014.1     1.2     SSE   150   2.9      SE   143   9.47    270       52.6
   05/04/2019 07:50      57.2      56.4       80     50.9      0.00     18.97      68.4     0.34      1014.0     0.4     SSE   153   1.4       S   182   9.47    270       44.1
   05/04/2019 07:40      56.8      56.2       81     50.7      0.00     18.97      68.4     0.34      1014.0     0.5     ESE   117   1.9      SE   145   9.47    270       35.5
   05/04/2019 07:30      56.5      56.0       82     50.8      0.00     18.97      68.4     0.34      1014.0     0.8     ESE   114   1.7     ENE    70   9.47    270       25.1
   05/04/2019 07:20      56.3      55.6       82     50.6      0.00     18.97      68.5     0.34      1013.9     1.0     SSE   157   2.8     SSW   198   9.47    270       22.7
   05/04/2019 07:10      55.9      55.5       82     50.3      0.00     18.97      68.5     0.34      1013.8     1.1     SSE   154   2.5      SE   130   9.47    270       18.1
   05/04/2019 07:00      56.1      55.6       83     50.6      0.00     18.97      68.5     0.34      1013.7     1.2      SE   128   2.8      SE   138   9.47    270       12.8
   05/04/2019 06:50      56.0      55.7       83     50.8      0.00     18.97      68.5     0.34      1013.7     0.7     ESE   111   2.4      SE   129   9.47    270        3.8
   05/04/2019 06:40      56.0      55.5       84     50.8      0.00     18.97      68.5     0.34      1013.6     0.7       E    84   2.3     ENE    74   9.47    270       -1.8
   05/04/2019 06:30      55.9      55.5       84     50.8      0.00     18.97      68.6     0.34      1013.5     1.3       E    94   2.9     SSE   153   9.47    270       -4.8
   05/04/2019 06:20      55.9      55.5       84     50.9      0.00     18.97      68.6     0.34      1013.5     1.2       E    91   3.3      NE    54   9.47    270       -7.1
   05/04/2019 06:10      56.0      55.5       84     50.8      0.00     18.97      68.6     0.34      1013.5     0.7     ESE   122   2.1      SE   136   9.47    270       -9.0
   05/04/2019 06:00      56.0      55.6       84     50.9      0.00     18.97      68.6     0.34      1013.5     0.6      NE    45   2.5      NE    47   9.47    270      -10.3
   05/04/2019 05:50      55.9      55.4       85     51.1      0.00     18.97      68.6     0.34      1013.5     1.4      NE    44   3.2      NE    47   9.47    270      -11.3
   05/04/2019 05:40      55.7      55.2       85     51.1      0.00     18.97      68.7     0.34      1013.5     0.5     ESE   112   2.8     ESE   115   9.47    270      -10.4
   05/04/2019 05:30      55.4      55.2       86     51.0      0.00     18.97      68.7     0.34      1013.6     0.5       S   174   1.5       S   182   9.47    270      -10.5
   05/04/2019 05:20      55.5      55.0       86     51.1      0.00     18.97      68.7     0.34      1013.5     0.3     SSW   192   1.1     SSW   197   9.47    270      -10.3
   05/04/2019 05:10      55.3      55.0       87     51.2      0.00     18.97      68.7     0.34      1013.5     0.9       S   190   2.1       S   185   9.47    270       -9.8
   05/04/2019 05:00      55.2      54.6       87     51.3      0.00     18.97      68.8     0.34      1013.6     1.2     SSW   191   2.5     SSW   209   9.47    270       -9.5
   05/04/2019 04:50      54.9      54.5       88     51.2      0.00     18.97      68.8     0.34      1013.6     2.0       S   188   3.5       S   184   9.47    270       -9.6
   05/04/2019 04:40      54.9      54.4       88     51.1      0.00     18.97      68.8     0.34      1013.6     2.3       S   188   3.4     SSW   204   9.47    268       -9.9
   05/04/2019 04:30      54.9      54.4       88     51.0      0.00     18.97      68.8     0.34      1013.6     2.0       S   175   3.9     SSE   168   9.47    269      -10.1
   05/04/2019 04:20      55.1      54.5       88     51.1      0.00     18.97      68.8     0.34      1013.6     2.4       S   169   4.2      SE   131   9.47    268      -11.3
   05/04/2019 04:10      55.5      54.9       87     51.5      0.00     18.97      68.9     0.34      1013.6     2.1     SSE   162   3.5      SE   129   9.47    269      -13.4
   05/04/2019 04:00      55.8      55.4       88     52.0      0.00     18.97      68.9     0.34      1013.6     1.9      SE   129   4.3     SSE   161   9.47    268      -14.7
   05/04/2019 03:50      55.8      55.4       88     52.1      0.00     18.97      68.9     0.34      1013.6     1.1       E    95   3.6       E    91   9.47    268      -14.2
   05/04/2019 03:40      56.0      55.4       88     52.2      0.00     18.97      68.9     0.34      1013.6     1.7       E    95   3.9       E    93   9.47    268      -12.2
   05/04/2019 03:30      56.3      55.7       88     52.6      0.00     18.97      69.0     0.34      1013.5     1.7     ESE   105   4.7       E    84   9.48    267      -15.1
   05/04/2019 03:20      56.3      55.9       89     52.9      0.00     18.97      69.0     0.34      1013.5     1.0     ENE    58   1.9     NNE    32   9.48    268      -16.8
   05/04/2019 03:10      56.1      55.6       90     52.9      0.00     18.97      69.0     0.34      1013.6     1.3     ENE    78   3.0       E    93   9.48    266      -13.2
   05/04/2019 03:00      56.2      55.5       89     52.6      0.00     18.97      69.1     0.34      1013.6     1.5     ESE   110   3.7     SSE   149   9.48    264       -9.4
   05/04/2019 02:50      56.4      55.9       89     52.8      0.00     18.97      69.1     0.34      1013.6     1.5     ESE   106   3.0       E    82   9.48    265       -8.1
   05/04/2019 02:40      56.7      56.0       88     52.8      0.00     18.97      69.1     0.34      1013.7     0.9     ESE   102   2.7       E    87   9.48    265       -8.4
   05/04/2019 02:30      56.8      56.2       88     53.0      0.00     18.97      69.1     0.34      1013.7     1.5       E   100   3.4       E    92   9.48    264       -8.8
   05/04/2019 02:20      56.8      56.3       89     53.3      0.00     18.97      69.2     0.34      1013.7     1.2     ENE    79   3.8      NE    40   9.48    268       -6.9
   05/04/2019 02:10      56.5      56.0       90     53.2      0.00     18.97      69.2     0.34      1013.8     0.8       E    88   1.9       E    87   9.48    290       -5.7
   05/04/2019 02:00      56.2      55.6       90     53.0      0.00     18.97      69.2     0.34      1013.9     1.3     ESE   120   2.1       E    86   9.48    319      -10.5
   05/04/2019 01:50      55.9      55.4       90     52.6      0.00     18.97      69.2     0.34      1014.0     0.9     ESE   122   2.1     ENE    69   9.48    342      -12.8
   05/04/2019 01:40      55.8      55.4       90     52.5      0.00     18.97      69.3     0.34      1014.1     0.7     ESE   118   1.6     ESE   113   9.48    356      -27.3
   05/04/2019 01:30      55.7      55.1       89     52.1      0.00     18.97      69.3     0.34      1014.1     0.7     ESE   123   1.5      SE   129   9.48    339      -33.6
   05/04/2019 01:20      55.5      55.1       89     52.0      0.00     18.97      69.3     0.34      1014.2     0.4     ESE   114   1.2       E    89   9.49    322      -35.4
   05/04/2019 01:10      55.5      55.0       88     51.7      0.00     18.97      69.3     0.34      1014.2     0.5      SE   132   1.2      SE   144   9.49    309      -36.9
   05/04/2019 01:00      55.3      54.9       87     51.4      0.00     18.97      69.3     0.34      1014.2     0.5      SE   133   1.2      SE   136   9.49    299      -39.1
   05/04/2019 00:50      55.8      55.0       87     51.4      0.00     18.97      69.3     0.34      1014.3     0.7      SE   141   1.4      SE   144   9.49    290      -41.0
   05/04/2019 00:40      55.9      55.4       86     51.5      0.00     18.97      69.3     0.34      1014.3     0.4      SE   141   1.1     ESE   122   9.49    284      -43.7
   05/04/2019 00:30      56.5      55.7       85     51.6      0.00     18.97      69.3     0.34      1014.4     0.3      SE   141   1.4     ESE   122   9.49    277      -45.2
   05/04/2019 00:20      57.1      56.4       85     52.1      0.00     18.97      69.3     0.34      1014.4     0.0     ESE   119   0.6     ESE   114   9.49    270      -47.0
   05/04/2019 00:10      57.2      56.8       85     52.5      0.00     18.97      69.4     0.34      1014.4     0.0     SSE   148   0.6      SE   134   9.49    261      -50.6
   05/04/2019 00:00      57.3      56.9       84     52.1      0.00     18.97      69.4     0.34      1014.5     0.4       S   169   1.2       S   171   9.49    253      -54.5
   05/03/2019 23:50      57.8      57.0       82     51.7      0.00     18.97      69.4     0.34      1014.5     0.0     SSE   151   0.4     SSE   148   9.49    250      -59.5
   05/03/2019 23:40      58.1      57.4       81     51.9      0.00     18.97      69.4     0.34      1014.4     0.0      SE   141   0.7      SE   137   9.49    244      -61.3
   05/03/2019 23:30      58.1      57.9       80     51.9      0.00     18.97      69.4     0.34      1014.4     0.0     ESE   103   0.8       E    95   9.49    243      -63.0
   05/03/2019 23:20      58.2      57.8       80     51.9      0.00     18.97      69.4     0.34      1014.3     0.2     ESE   105   1.8       E    79   9.49    250      -64.1
   05/03/2019 23:10      58.4      57.9       79     51.7      0.00     18.97      69.4     0.34      1014.2     0.0      SE   132   1.0     ESE   121   9.50    255      -64.3
   05/03/2019 23:00      58.6      57.9       77     51.1      0.00     18.97      69.4     0.34      1014.3     0.4      SE   135   1.4      SE   127   9.50    262      -65.2
   05/03/2019 22:50      59.4      58.5       75     51.0      0.00     18.97      69.4     0.35      1014.2     0.2     SSE   147   1.2      SE   143   9.50    265      -65.3
   05/03/2019 22:40      59.8      59.2       73     50.9      0.00     18.97      69.4     0.34      1014.2     0.0     SSE   147   1.1     SSE   149   9.50    266      -64.4
   05/03/2019 22:30      60.1      59.4       72     50.9      0.00     18.97      69.4     0.34      1014.1     0.0       N     0   0.0     SSE   156   9.50    267      -64.9
   05/03/2019 22:20      60.5      59.8       72     50.9      0.00     18.97      69.4     0.34      1014.1     0.5     SSE   150   1.3      SE   127   9.50    268      -64.8
   05/03/2019 22:10      60.9      60.2       71     50.9      0.00     18.97      69.4     0.34      1014.1     0.0     SSW   198   0.8       S   189   9.50    268      -65.2
   05/03/2019 22:00      60.8      60.3       70     50.9      0.00     18.97      69.4     0.34      1014.1     0.1       S   186   0.8       S   186   9.51    268      -65.0
   05/03/2019 21:50      60.8      60.2       71     51.0      0.00     18.97      69.4     0.35      1014.0     0.3       S   187   0.9       S   191   9.51    268      -65.8
   05/03/2019 21:40      61.8      60.6       69     50.8      0.00     18.97      69.3     0.35      1013.9     0.0     SSE   146   0.5     SSE   150   9.51    268      -68.0
   05/03/2019 21:30      62.5      61.5       67     51.0      0.00     18.97      69.3     0.34      1013.8     0.0     SSE   168   1.0       S   172   9.51    268      -69.4
   05/03/2019 21:20      63.2      62.2       67     51.3      0.00     18.97      69.3     0.34      1013.6     0.1       S   184   1.1       S   179   9.51    268      -70.5
   05/03/2019 21:10      63.4      62.8       65     51.3      0.00     18.97      69.3     0.34      1013.4     0.5      SE   145   1.9     SSW   209   9.51    268      -72.6
   05/03/2019 21:00      63.7      63.2       65     51.5      0.00     18.97      69.3     0.35      1013.3     0.8     SSE   153   1.7     SSW   203   9.52    268      -72.7
   05/03/2019 20:50      64.6      63.3       63     51.2      0.00     18.97      69.3     0.34      1013.2     0.3     SSE   166   1.2     SSW   193   9.52    267      -75.1
   05/03/2019 20:40      65.2      64.2       60     50.5      0.00     18.97      69.3     0.35      1013.1     0.2      SE   134   1.8       S   183   9.52    267      -76.8
   05/03/2019 20:30      66.3      65.0       55     49.2      0.00     18.97      69.2     0.34      1012.9     0.6     SSE   148   1.2      SW   235   9.52    267      -78.5
   05/03/2019 20:20      68.6      66.0       51     48.8      0.00     18.97      69.2     0.34      1012.8     0.4      SW   215   1.8      SW   215   9.53    266      -80.8
   05/03/2019 20:10      69.3      68.2       49     48.8      0.00     18.97      69.2     0.34      1012.6     0.5     WNW   285   2.5       W   266   9.53    266      -84.3
   05/03/2019 20:00      70.0      69.1       47     48.2      0.00     18.97      69.2     0.34      1012.5     1.2     WNW   282   3.2     WSW   239   9.53    266      -86.1
   05/03/2019 19:50      70.3      69.7       44     47.3      0.00     18.97      69.1     0.34      1012.4     2.0     WNW   282   4.3     WSW   258   9.54    266      -86.8
   05/03/2019 19:40      71.3      70.1       43     46.9      0.00     18.97      69.1     0.34      1012.3     1.4     SSW   211   3.4     SSW   211   9.54    266      -84.5
   05/03/2019 19:30      72.5      71.2       41     46.7      0.00     18.97      69.1     0.34      1012.2     2.4      SW   234   4.6      SW   225   9.54    266      -81.8
   05/03/2019 19:20      73.6      72.3       39     46.6      0.00     18.97      69.0     0.34      1012.1     2.5       W   266   4.7     WNW   293   9.54    266      -78.8
   05/03/2019 19:10      73.9      73.3       38     46.2      0.00     18.97      69.0     0.34      1012.1     2.1     WNW   298   5.4       W   276   9.55    265      -64.0
   05/03/2019 19:00      74.7      73.5       36     45.6      0.00     18.97      69.0     0.34      1012.1     3.2     WNW   289   6.0       W   266   9.55    265      -45.3
   05/03/2019 18:50      75.1      74.3       35     45.1      0.00     18.97      69.0     0.34      1012.1     3.1      NW   308   7.8     WNW   297   9.56    265      -24.4
   05/03/2019 18:40      75.6      74.8       35     45.9      0.00     18.97      68.9     0.34      1012.0     3.1      NW   317   7.1     NNW   344   9.56    265        0.0
   05/03/2019 18:30      75.8      75.1       35     46.2      0.00     18.97      68.8     0.34      1012.0     2.7      NW   313   5.7      NW   307   9.56    265       25.9
   05/03/2019 18:20      76.7      75.2       35     45.9      0.00     18.97      68.8     0.34      1012.0     3.9     WNW   294   7.5     NNW   330   9.57    265       50.7
   05/03/2019 18:10      76.8      76.0       34     45.9      0.00     18.97      68.7     0.34      1011.9     2.8      NW   304   4.9      NW   317   9.57    264       75.7
   05/03/2019 18:00      77.3      76.4       34     46.2      0.00     18.97      68.7     0.34      1011.9     3.4      NW   324   6.6     WNW   283   9.57    264      102.2
   05/03/2019 17:50      77.5      76.8       34     46.5      0.00     18.97      68.6     0.34      1011.9     3.1     NNW   329   8.5      NW   325   9.58    265      128.0
   05/03/2019 17:40      78.2      77.1       33     46.4      0.00     18.97      68.6     0.34      1012.0     3.7      NW   309   8.1     NNW   336   9.58    264      153.8
   05/03/2019 17:30      78.6      77.8       32     46.4      0.00     18.97      68.5     0.34      1012.0     2.8      NW   320   6.0     WNW   304   9.59    264      179.6
   05/03/2019 17:20      78.5      78.0       33     47.0      0.00     18.97      68.5     0.34      1012.1     3.0     NNW   336   6.4       N   351   9.59    265      203.5
   05/03/2019 17:10      78.5      77.9       35     48.0      0.00     18.97      68.4     0.34      1012.1     3.0     NNW   337   6.6       N     2   9.60    265      230.3
   05/03/2019 17:00      79.4      77.9       35     48.4      0.00     18.97      68.3     0.34      1012.1     4.3     NNW   332   8.8       N   351   9.60    264      256.8
   05/03/2019 16:50      79.3      78.5       35     48.8      0.00     18.97      68.3     0.34      1012.1     3.1      NW   324   7.2      NW   318   9.60    265      282.7
   05/03/2019 16:40      80.2      79.1       34     48.5      0.00     18.97      68.2     0.34      1012.1     4.1      NW   325  10.0     WSW   238   9.61    264      305.5
   05/03/2019 16:30      80.7      80.0       32     48.0      0.00     18.97      68.2     0.34      1012.1     2.4      NW   321   6.8     WNW   300   9.61    264      328.9
   05/03/2019 16:20      80.3      78.8       33     47.6      0.00     18.97      68.1     0.34      1012.2     3.1     WNW   283   9.6       W   271   9.61    265      357.1
   05/03/2019 16:10      79.8      79.0       35     49.5      0.00     18.97      68.0     0.34      1012.3     3.1     WSW   253   7.2     WSW   245   9.62    265      376.4
   05/03/2019 16:00      79.6      78.6       38     51.2      0.00     18.97      68.0     0.34      1012.4     3.1       W   263   8.2     WSW   237   9.62    265      395.3
   05/03/2019 15:50      79.8      78.8       38     51.3      0.00     18.97      67.9     0.34      1012.6     3.5     WSW   256   9.1     WNW   283   9.63    265      417.3
   05/03/2019 15:40      79.8      78.7       39     51.9      0.00     18.97      67.8     0.34      1012.7     3.9       W   268   8.2       W   270   9.63    265      435.8
   05/03/2019 15:30      79.5      78.7       39     52.3      0.00     18.97      67.8     0.34      1012.7     4.1       W   277   8.1      NW   309   9.64    265      454.9
   05/03/2019 15:20      79.9      78.4       40     52.9      0.00     18.97      67.7     0.34      1012.8     4.3       W   265   7.0      NW   313   9.64    265      471.3
   05/03/2019 15:10      80.2      79.3       40     53.3      0.00     18.97      67.6     0.34      1013.0     2.6     NNW   328   5.4       N     5   9.64    265      486.7
   05/03/2019 15:00      80.2      79.2       41     53.7      0.00     18.97      67.6     0.34      1013.1     2.7     NNW   342   7.9     WSW   256   9.65    265      496.6
   05/03/2019 14:50      80.0      78.4       42     53.9      0.00     18.97      67.5     0.34      1013.2     2.8       W   260  10.0     WNW   286   9.65    265      515.2
   05/03/2019 14:40      79.2      78.5       42     53.7      0.00     18.97      67.4     0.34      1013.3     3.0     WSW   244   7.4       W   263   9.65    265      533.4
   05/03/2019 14:30      79.6      77.8       43     54.0      0.00     18.97      67.3     0.34      1013.4     2.7     ESE   123   6.5      SE   134   9.65    265      544.8
   05/03/2019 14:20      79.0      77.9       43     54.2      0.00     18.97      67.3     0.34      1013.6     2.2      SE   126   5.3       E    85   9.66    265      558.5
   05/03/2019 14:10      78.4      77.1       44     54.1      0.00     18.97      67.2     0.34      1013.7     2.5     ESE   108   6.4      SE   135   9.66    265      568.5
   05/03/2019 14:00      78.5      76.4       45     54.0      0.00     18.97      67.2     0.34      1013.7     3.4     SSE   155   6.7     SSW   196   9.67    265      572.5
   05/03/2019 13:50      79.0      77.3       43     53.6      0.00     18.97      67.1     0.34      1013.8     2.0     ENE    76   5.7     ENE    76   9.67    265      586.9
   05/03/2019 13:40      78.1      76.8       43     53.4      0.00     18.97      67.0     0.34      1013.9     2.8     ENE    62   5.0     NNW   327   9.67    265      591.2
   05/03/2019 13:30      78.4      76.4       43     52.9      0.00     18.97      67.0     0.34      1013.9     2.5       E    81   6.5     ESE   114   9.67    265      553.2
   05/03/2019 13:20      78.4      77.3       42     52.6      0.00     18.97      66.9     0.34      1013.9     2.6      NE    42   5.8       E    99   9.68    264      607.4
   05/03/2019 13:10      78.1      77.1       42     52.5      0.00     18.97      66.8     0.34      1014.0     2.0     ESE   102   6.1       E    82   9.68    265      599.9
   05/03/2019 13:00      77.7      75.7       43     52.1      0.00     18.97      66.8     0.34      1014.2     2.0     NNW   347   4.6       W   274   9.68    264      615.0
   05/03/2019 12:50      75.8      74.7       44     51.9      0.00     18.97      66.8     0.34      1014.4     2.9       N     9   6.8       N    11   9.68    265      607.9
   05/03/2019 12:40      75.7      73.9       45     52.1      0.00     18.97      66.8     0.34      1014.5     2.1       N   358   4.7       N     4   9.68    265      609.2
   05/03/2019 12:30      74.2      73.3       47     52.1      0.00     18.97      66.8     0.34      1014.6     2.8       E    88   6.9      SE   142   9.68    265      615.9
   05/03/2019 12:20      76.2      73.9       45     52.0      0.00     18.97      66.7     0.34      1014.6     2.3       E    84   6.2     ENE    77   9.69    265      608.6
   05/03/2019 12:10      75.9      73.5       46     52.5      0.00     18.97      66.7     0.34      1014.8     1.5       E   100   3.6     SSE   148   9.69    265      605.1
   05/03/2019 12:00      74.3      71.8       49     52.6      0.00     18.97      66.7     0.34      1014.9     1.7     ENE    67   4.3       E    98   9.69    265      604.3
   05/03/2019 11:50      72.4      70.5       51     52.6      0.00     18.97      66.7     0.34      1015.0     3.1     ESE   109   5.7       E    84   9.69    265      608.6
   05/03/2019 11:40      72.2      71.2       51     52.5      0.00     18.97      66.7     0.34      1015.3     2.0      NE    37   4.6     NNE    34   9.69    265      609.9
   05/03/2019 11:30      71.5      70.2       52     52.5      0.00     18.97      66.6     0.34      1015.5     1.6      NE    42   3.9     NNE    12   9.70    265      564.7
   05/03/2019 11:20      70.4      68.7       54     52.4      0.00     18.97      66.7     0.34      1015.6     2.2     NNW   347   5.6       N   353   9.70    265      570.5
   05/03/2019 11:10      70.1      68.0       55     52.1      0.00     18.97      66.6     0.34      1015.7     1.9     NNW   348   4.1       N   355   9.70    266      570.4
   05/03/2019 11:00      69.0      67.4       56     52.0      0.00     18.97      66.7     0.34      1015.6     2.0       N     8   5.4     NNW   331   9.70    266      510.4
   05/03/2019 10:50      67.9      66.7       57     51.8      0.00     18.97      66.7     0.34      1015.6     1.8     NNE    13   4.1      NW   311   9.70    266      525.6
   05/03/2019 10:40      66.9      65.2       60     51.7      0.00     18.97      66.7     0.34      1015.6     1.7     NNE    28   4.5      NE    52   9.70    266      504.0
   05/03/2019 10:30      65.4      64.8       62     51.6      0.00     18.97      66.7     0.34      1015.5     2.1     NNE    17   4.9     ESE   118   9.70    266      499.9
   05/03/2019 10:20      65.2      63.6       63     51.7      0.00     18.97      66.7     0.34      1015.4     2.2      NE    54   4.3     ENE    71   9.70    266      486.5
   05/03/2019 10:10      63.8      63.2       66     51.8      0.00     18.97      66.8     0.34      1015.5     1.8      NE    54   3.8       N     7   9.70    266      462.8
   05/03/2019 10:00      63.2      61.2       69     51.9      0.00     18.97      66.8     0.34      1015.5     1.7     NNE    20   4.5      SE   124   9.71    266      452.8
   05/03/2019 09:50      61.5      59.8       73     51.6      0.00     18.97      66.8     0.34      1015.5     2.4      NE    40   4.8      NE    42   9.71    267      428.2
   05/03/2019 09:40      60.1      58.8       75     51.6      0.00     18.97      66.8     0.34      1015.6     2.2     NNE    33   3.9     NNE    22   9.71    267      399.3
   05/03/2019 09:30      59.2      58.0       77     51.5      0.00     18.97      66.9     0.34      1015.7     2.2      NE    42   3.9      NE    43   9.71    285      330.5
   05/03/2019 09:20      58.1      57.4       80     51.3      0.00     18.97      66.9     0.34      1015.7     2.2      NE    37   5.1      NE    48   9.71    301      343.0
   05/03/2019 09:10      57.6      56.0       83     51.7      0.00     18.97      66.9     0.34      1015.7     1.6     NNE    17   3.3     NNE    14   9.71    306      288.7
   05/03/2019 09:00      56.3      55.2       86     51.7      0.00     18.97      66.9     0.34      1015.7     1.2     NNW   348   3.3      NE    54   9.71    312      202.0
   05/03/2019 08:50      55.5      54.6       88     51.3      0.00     18.97      67.0     0.34      1015.8     1.0      NE    50   2.8     ESE   101   9.71    314      164.5
   05/03/2019 08:40      54.9      54.5       88     51.2      0.00     18.97      67.0     0.34      1015.8     1.0     SSE   147   2.3     SSE   156   9.72    318      171.1
   05/03/2019 08:30      54.8      54.2       88     51.0      0.00     18.97      67.1     0.34      1015.8     1.5      NE    55   3.5      NE    43   9.72    320      124.5
   05/03/2019 08:20      54.6      54.2       87     50.7      0.00     18.97      67.1     0.34      1015.8     1.1     NNE    26   2.7      NE    35   9.72    320       94.3
   05/03/2019 08:10      54.9      54.3       86     50.6      0.00     18.97      67.1     0.34      1015.6     1.4     ENE    65   4.1       E    87   9.72    322      112.1
   05/03/2019 08:00      54.9      54.1       88     50.9      0.00     18.97      67.1     0.34      1015.6     1.2     ENE    66   2.6       E    88   9.72    335      121.2
   05/03/2019 07:50      54.3      54.0       89     51.0      0.00     18.97      67.2     0.34      1015.6     1.1     ENE    57   2.7      NE    48   9.72    366      107.1
   05/03/2019 07:40      54.2      53.5       91     51.4      0.00     18.97      67.2     0.34      1015.6     0.8       E    93   2.2       E    89   9.72    389       98.9
   05/03/2019 07:30      53.7      53.0       92     51.1      0.00     18.97      67.2     0.34      1015.6     0.4      SE   136   1.7     ESE   115   9.72    409       82.2
   05/03/2019 07:20      53.3      52.9       93     51.0      0.00     18.97      67.3     0.34      1015.4     1.7     ESE   121   3.9     ENE    71   9.72    420       67.7
   05/03/2019 07:10      53.2      51.7       93     50.5      0.00     18.97      67.3     0.34      1015.4     0.9     ESE   107   2.4      SE   125   9.72    430       50.9
   05/03/2019 07:00      51.9      50.2       93     49.2      0.00     18.97      67.3     0.34      1015.3     0.6     SSE   158   2.0     SSW   195   9.73    435       39.1
   05/03/2019 06:50      50.4      49.7       93     48.1      0.00     18.97      67.4     0.34      1015.2     0.7       S   184   2.0       S   187   9.73    440       22.9
   05/03/2019 06:40      49.9      49.2       93     47.7      0.00     18.97      67.4     0.34      1015.1     0.5     SSE   168   1.5     SSE   169   9.73    442       11.3
   05/03/2019 06:30      49.4      48.8       93     47.1      0.00     18.97      67.4     0.34      1015.0     0.2     SSE   155   0.9      SE   144   9.73    441       -0.6
   05/03/2019 06:20      49.5      49.2       93     47.4      0.00     18.97      67.5     0.34      1014.9     0.4     SSE   163   1.1       S   177   9.73    440       -8.2
   05/03/2019 06:10      49.5      49.0       93     47.3      0.00     18.97      67.5     0.34      1014.9     0.2     SSE   156   0.7      SE   139   9.74    438      -13.8
   05/03/2019 06:00      49.4      48.9       93     47.2      0.00     18.97      67.5     0.34      1014.8     0.2     SSE   163   0.9     SSE   157   9.74    440      -16.7
   05/03/2019 05:50      49.5      49.0       92     47.1      0.00     18.97      67.6     0.34      1014.8     0.5       S   172   1.2       S   186   9.74    436      -17.1
   05/03/2019 05:40      49.6      49.2       93     47.3      0.00     18.97      67.6     0.34      1014.8     0.2       S   174   0.8       S   184   9.74    431      -17.3
   05/03/2019 05:30      50.0      49.2       92     47.2      0.00     18.97      67.6     0.34      1014.8     0.0     SSE   148   0.7     SSE   149   9.74    429      -18.0
   05/03/2019 05:20      50.2      49.6       92     47.7      0.00     18.97      67.7     0.34      1014.8     0.0     SSE   153   0.7     SSE   154   9.75    436      -18.3
   05/03/2019 05:10      50.1      49.7       92     47.8      0.00     18.97      67.7     0.34      1014.8     0.2       S   178   0.8      SE   135   9.75    435      -18.4
   05/03/2019 05:00      50.1      49.7       92     47.8      0.00     18.97      67.7     0.34      1014.8     0.2     SSE   154   0.9     SSE   160   9.75    431      -18.4
   05/03/2019 04:50      49.9      49.5       92     47.5      0.00     18.97      67.7     0.34      1014.8     0.7     SSE   157   1.5      SE   140   9.75    439      -18.8
   05/03/2019 04:40      50.3      49.5       92     47.5      0.00     18.97      67.8     0.34      1014.8     0.7     SSE   152   1.3      SE   143   9.75    443      -19.0
   05/03/2019 04:30      50.1      49.8       92     47.6      0.00     18.97      67.8     0.34      1014.7     0.5     SSE   153   1.1     SSE   148   9.75    439      -19.0
   05/03/2019 04:20      50.1      49.7       92     47.5      0.00     18.97      67.8     0.34      1014.7     0.8     SSE   152   1.3      SE   140   9.75    436      -19.7
   05/03/2019 04:10      50.4      49.9       92     47.7      0.00     18.97      67.9     0.34      1014.6     1.0       S   171   1.7     SSW   205   9.76    433      -19.5
   05/03/2019 04:00      50.3      49.6       92     47.6      0.00     18.97      67.9     0.34      1014.5     0.6       S   187   1.5     SSW   203   9.76    432      -19.7
   05/03/2019 03:50      50.0      49.5       91     47.3      0.00     18.97      67.9     0.34      1014.6     0.2     SSE   158   0.9     SSE   149   9.76    426      -21.2
   05/03/2019 03:40      50.6      49.7       91     47.5      0.00     18.97      67.9     0.34      1014.7     0.5     SSE   153   1.0     SSE   156   9.76    423      -21.5
   05/03/2019 03:30      50.8      50.3       91     47.8      0.00     18.97      67.9     0.34      1014.7     0.3     SSE   164   1.0     SSE   147   9.76    420      -21.1
   05/03/2019 03:20      51.1      50.5       91     48.1      0.00     18.97      68.0     0.34      1014.7     0.4       S   179   1.3       S   181   9.77    415      -21.3
   05/03/2019 03:10      51.1      50.7       90     48.2      0.00     18.97      68.0     0.34      1014.7     0.0     SSE   152   0.5     SSE   152   9.77    411      -21.9
   05/03/2019 03:00      51.3      50.9       90     48.4      0.00     18.97      68.1     0.34      1014.8     0.1     SSE   152   0.7     SSE   152   9.77    406      -22.3
   05/03/2019 02:50      51.6      51.1       90     48.7      0.00     18.97      68.1     0.34      1014.8     0.3     SSE   158   1.0       S   174   9.77    400      -22.2
   05/03/2019 02:40      51.4      51.0       90     48.4      0.00     18.97      68.1     0.34      1014.8     0.3     SSE   161   0.8       S   172   9.77    381      -23.3
   05/03/2019 02:30      51.8      51.1       90     48.5      0.00     18.97      68.1     0.34      1014.7     0.2     SSE   154   0.9     SSE   147   9.78    392      -24.8
   05/03/2019 02:20      52.1      51.5       90     48.8      0.00     18.97      68.2     0.34      1014.8     0.6     SSE   148   1.2      SE   130   9.78    390      -25.1
   05/03/2019 02:10      52.3      51.6       89     48.7      0.00     18.97      68.2     0.34      1014.8     0.7     SSE   162   1.9      SW   236   9.78    381      -25.5
   05/03/2019 02:00      52.2      51.6       90     48.9      0.00     18.97      68.2     0.34      1014.8     0.4       S   180   1.1      SW   225   9.78    375      -26.1
   05/03/2019 01:50      52.4      51.6       89     48.7      0.00     18.97      68.2     0.34      1014.9     0.4      SE   137   1.0      SE   138   9.78    365      -28.0
   05/03/2019 01:40      52.4      51.8       89     48.8      0.00     18.97      68.2     0.34      1015.1     0.0       N     0   0.0      SE   141   9.78    358      -29.3
   05/03/2019 01:30      52.9      52.0       88     49.1      0.00     18.97      68.2     0.34      1015.2     0.7     SSE   159   1.4      SE   141   9.79    349      -30.7
   05/03/2019 01:20      53.0      52.5       89     49.5      0.00     18.97      68.3     0.34      1015.3     1.0      SE   144   1.8      SE   139   9.79    340      -31.1
   05/03/2019 01:10      53.2      52.7       89     49.5      0.00     18.97      68.3     0.34      1015.3     0.8       S   175   1.4       S   175   9.79    333      -32.4
   05/03/2019 01:00      53.5      52.7       88     49.7      0.00     18.97      68.3     0.34      1015.4     0.4     SSE   165   1.2     SSE   159   9.79    324      -34.3
   05/03/2019 00:50      53.5      52.9       88     49.7      0.00     18.97      68.3     0.34      1015.4     0.8     SSE   147   1.3      SE   142   9.79    316      -36.9
   05/03/2019 00:40      54.0      53.0       87     49.5      0.00     18.97      68.3     0.34      1015.4     0.3     SSE   150   1.1     SSE   150   9.80    308      -39.7
   05/03/2019 00:30      54.4      53.5       87     49.8      0.00     18.97      68.4     0.34      1015.3     0.5       S   170   1.6     SSW   205   9.80    300      -40.8
   05/03/2019 00:20      54.5      54.0       86     50.1      0.00     18.97      68.4     0.34      1015.2     0.4       S   189   1.2     SSW   196   9.80    293      -42.5
   05/03/2019 00:10      54.9      54.3       86     50.4      0.00     18.97      68.4     0.34      1015.2     0.4     SSE   163   1.0     SSE   155   9.80    286      -44.9
   05/03/2019 00:00      55.1      54.6       86     50.5      0.00     18.97      68.4     0.34      1015.2     0.3     SSE   155   1.0       S   170   9.81    279      -48.5
   05/02/2019 23:50      54.9      54.5       85     50.4      0.00     18.97      68.4     0.34      1015.3     0.0     SSE   162   1.0     SSE   151   9.81    271      -52.9
   05/02/2019 23:40      55.4      54.6       84     50.5      0.00     18.97      68.4     0.34      1015.3     0.4     SSE   163   1.0       S   172   9.81    260      -56.1
   05/02/2019 23:30      55.6      55.2       84     50.7      0.00     18.97      68.4     0.34      1015.3     0.2       S   188   1.2     SSW   193   9.81    253      -57.9
   05/02/2019 23:20      56.0      55.1       83     50.5      0.00     18.97      68.4     0.34      1015.3     0.4       S   176   0.8     SSE   168   9.81    247      -59.5
   05/02/2019 23:10      56.1      55.5       83     50.6      0.00     18.97      68.5     0.34      1015.2     0.2       S   171   0.9     SSE   163   9.82    248      -62.6
   05/02/2019 23:00      56.4      55.8       81     50.4      0.00     18.97      68.5     0.34      1015.2     0.1     SSE   148   0.8     SSE   148   9.82    248      -65.3
   05/02/2019 22:50      57.4      56.3       80     50.5      0.00     18.97      68.4     0.34      1015.1     0.4       S   173   1.0       S   172   9.82    254      -65.5
   05/02/2019 22:40      57.6      57.0       79     50.7      0.00     18.97      68.5     0.34      1015.1     0.1     SSE   165   1.0     SSE   160   9.82    260      -66.1
   05/02/2019 22:30      57.9      57.2       78     50.7      0.00     18.97      68.5     0.34      1015.2     0.0      SW   222   0.7      SE   140   9.82    262      -67.8
   05/02/2019 22:20      58.8      57.6       76     50.5      0.00     18.97      68.5     0.34      1015.1     0.0      SE   139   0.7      SE   139   9.83    264      -69.6
   05/02/2019 22:10      59.2      58.5       75     50.8      0.00     18.97      68.4     0.34      1015.1     0.3     ESE   107   1.6      SE   128   9.83    266      -71.8
   05/02/2019 22:00      59.7      58.9       74     50.8      0.00     18.97      68.5     0.34      1015.0     0.5       E    90   2.0     ESE   115   9.83    268      -73.3
   05/02/2019 21:50      59.9      59.3       72     50.7      0.00     18.97      68.5     0.34      1015.0     0.6     ENE    75   2.0     ENE    73   9.83    268      -73.8
   05/02/2019 21:40      60.5      59.7       71     50.6      0.00     18.97      68.4     0.34      1015.0     0.4       E    96   1.5     ESE   117   9.84    268      -74.3
   05/02/2019 21:30      60.9      60.3       70     50.7      0.00     18.97      68.4     0.34      1014.9     1.3       E   100   3.2      SE   140   9.84    268      -74.6
   05/02/2019 21:20      61.4      60.6       69     50.7      0.00     18.97      68.4     0.34      1014.7     1.2     ESE   103   2.7       E    83   9.84    268      -74.2
   05/02/2019 21:10      61.5      61.0       67     50.3      0.00     18.97      68.4     0.34      1014.6     1.2     ESE   118   3.1       E    79   9.85    268      -72.7
   05/02/2019 21:00      62.0      61.2       64     49.4      0.00     18.97      68.4     0.34      1014.5     0.2      SE   145   1.5      SE   139   9.85    268      -71.5
   05/02/2019 20:50      62.7      61.6       62     48.8      0.00     18.97      68.4     0.34      1014.3     0.3     SSE   153   1.1       S   183   9.85    268      -71.6
   05/02/2019 20:40      63.7      62.5       59     48.6      0.00     18.97      68.4     0.34      1014.1     0.2     SSE   159   1.5     SSE   152   9.85    268      -73.1
   05/02/2019 20:30      64.7      63.5       57     48.6      0.00     18.97      68.3     0.34      1014.0     0.2     WSW   249   1.6     WSW   256   9.86    267      -76.5
   05/02/2019 20:20      65.8      64.3       55     48.6      0.00     18.97      68.3     0.34      1013.9     0.3     WSW   247   1.8     WSW   253   9.86    267      -78.9
   05/02/2019 20:10      66.0      65.5       55     48.9      0.00     18.97      68.3     0.34      1013.7     0.9     WSW   242   4.4     SSW   214   9.86    267      -81.0
   05/02/2019 20:00      66.4      65.7       54     49.0      0.00     18.97      68.3     0.34      1013.6     0.5     SSW   214   2.1     WSW   244   9.87    267      -81.7
   05/02/2019 19:50      67.1      66.2       51     48.0      0.00     18.97      68.3     0.34      1013.4     2.1      SW   219   4.2     SSW   212   9.87    266      -81.0
   05/02/2019 19:40      68.6      66.8       47     46.7      0.00     18.97      68.2     0.34      1013.4     2.7      SW   227   4.4     WSW   238   9.87    266      -78.8
   05/02/2019 19:30      69.0      68.2       45     46.6      0.00     18.97      68.2     0.34      1013.3     2.1     WNW   289   4.4       W   271   9.88    266      -75.5
   05/02/2019 19:20      69.5      68.7       45     46.7      0.00     18.97      68.2     0.34      1013.2     2.2     WNW   302   4.0     NNW   327   9.88    266      -70.2
   05/02/2019 19:10      70.1      69.2       44     46.9      0.00     18.97      68.2     0.34      1013.1     2.9      NW   304   5.8       W   274   9.88    266      -57.4
   05/02/2019 19:00      71.2      69.7       43     47.0      0.00     18.97      68.2     0.34      1013.0     4.2      NW   313   7.4       W   279   9.89    266      -38.3
   05/02/2019 18:50      72.0      70.9       42     47.0      0.00     18.97      68.1     0.34      1013.0     3.4      NW   306   7.4     WNW   303   9.89    266      -19.7
   05/02/2019 18:40      72.9      71.8       41     47.2      0.00     18.97      68.1     0.34      1013.0     3.4      NW   314   7.5       W   265   9.90    266        2.3
   05/02/2019 18:30      73.9      72.6       39     46.8      0.00     18.97      68.1     0.34      1013.1     3.7      NW   314   8.5      NW   316   9.91    266       26.5
   05/02/2019 18:20      74.6      73.4       37     46.2      0.00     18.97      68.0     0.34      1013.1     3.1      NW   319   6.6       N   353   9.91    266       50.1
   05/02/2019 18:10      74.8      74.2       36     45.9      0.00     18.97      68.0     0.34      1013.1     3.0     WNW   296   9.4     WNW   284   9.92    266       76.3
   05/02/2019 18:00      75.0      74.1       38     47.2      0.00     18.97      68.0     0.34      1013.2     4.2       W   266   9.8     WSW   248   9.92    265      107.0
   05/02/2019 17:50      75.4      74.7       39     48.2      0.00     18.97      67.9     0.34      1013.2     4.4     WSW   256   8.2     WSW   252   9.92    265      132.8
   05/02/2019 17:40      75.6      75.0       40     48.9      0.00     18.97      67.9     0.34      1013.1     4.1     WSW   240   7.1      SW   221   9.93    265      161.4
   05/02/2019 17:30      75.5      74.1       43     50.5      0.00     18.97      67.9     0.34      1013.0     3.8      SW   215   7.1      SW   230   9.93    265      189.0
   05/02/2019 17:20      74.9      74.2       44     51.2      0.00     18.97      67.8     0.34      1013.0     3.7     SSE   146   6.7      SE   127   9.93    265      215.9
   05/02/2019 17:10      75.3      74.4       46     52.3      0.00     18.97      67.8     0.34      1013.0     4.1       S   173   6.7     SSW   195   9.93    265      232.9
   05/02/2019 17:00      78.4      75.1       44     53.2      0.00     18.97      67.7     0.34      1013.0     4.0      SE   145   9.1      SE   142   9.94    265      261.1
   05/02/2019 16:50      78.2      76.8       44     53.9      0.00     18.97      67.7     0.34      1013.0     0.7      SE   142   2.5     ESE   120   9.94    265      288.5
   05/02/2019 16:40      78.2      76.5       43     53.5      0.00     18.97      67.6     0.34      1013.0     1.6       E    80   4.3     NNE    29   9.95    265      270.0
   05/02/2019 16:30      78.0      76.9       44     54.0      0.00     18.97      67.6     0.34      1013.0     1.5     ENE    61   5.1      NE    51   9.95    265      326.5
   05/02/2019 16:20      77.4      76.2       45     54.1      0.00     18.97      67.6     0.34      1013.1     2.2     ENE    68   4.7     NNE    27   9.95    265      364.1
   05/02/2019 16:10      76.7      75.7       46     53.9      0.00     18.97      67.6     0.34      1013.2     2.5       E    80   4.7     ENE    72   9.95    265      385.8
   05/02/2019 16:00      77.1      75.8       46     54.0      0.00     18.97      67.5     0.34      1013.3     4.2     NNW   336  11.6     NNE    17   9.95    265      414.1
   05/02/2019 15:50      75.8      75.0       46     53.0      0.00     18.97      67.5     0.34      1013.5     3.7      SW   220   7.1     WSW   258   9.95    265      421.7
   05/02/2019 15:40      76.3      75.0       46     53.6      0.00     18.97      67.5     0.34      1013.7     3.4       S   187   7.6      SW   222   9.95    265      461.5
   05/02/2019 15:30      76.4      75.3       46     53.4      0.00     18.97      67.4     0.34      1013.8     2.4       W   275   5.1      NW   317   9.96    265      477.4
   05/02/2019 15:20      76.3      74.1       47     53.5      0.00     18.97      67.4     0.34      1013.9     2.5     ESE   117   6.1       E    98   9.96    265      500.5
   05/02/2019 15:10      74.5      73.2       48     53.0      0.00     18.97      67.3     0.34      1014.1     2.5     WSW   258   5.0     WSW   254   9.96    265      504.9
   05/02/2019 15:00      73.7      73.2       49     53.3      0.00     18.97      67.3     0.34      1014.2     3.2     SSE   163   6.1     WSW   240   9.96    265      458.8
   05/02/2019 14:50      73.6      72.5       49     52.9      0.00     18.97      67.3     0.34      1014.3     2.8      SE   138   5.1     SSE   160   9.96    265      441.3
   05/02/2019 14:40      74.3      72.5       49     53.3      0.00     18.97      67.2     0.34      1014.5     3.1       S   175   6.9      SW   215   9.97    266      517.3
   05/02/2019 14:30      72.7      71.8       51     52.8      0.00     18.97      67.2     0.34      1014.6     2.5     SSW   193   6.0     SSE   167   9.97    266      512.3
   05/02/2019 14:20      72.9      71.9       51     53.5      0.00     18.97      67.2     0.34      1014.7     3.1     ESE   116   6.4      SE   146   9.97    265      356.9
   05/02/2019 14:10      72.6      71.8       51     53.3      0.00     18.97      67.1     0.34      1014.8     1.9     ESE   116   5.0       E    82   9.97    265      335.7
   05/02/2019 14:00      72.6      71.3       52     53.0      0.00     18.97      67.1     0.34      1014.9     2.0     ENE    77   3.9     ENE    79   9.97    266      367.9
   05/02/2019 13:50      72.4      71.4       51     52.8      0.00     18.97      67.0     0.34      1014.9     1.9      NE    49   4.6       E    84   9.97    266      297.6
   05/02/2019 13:40      72.3      71.3       51     52.6      0.00     18.97      67.0     0.34      1015.0     2.1      NE    51   4.6      NE    50   9.97    266      332.7
   05/02/2019 13:30      72.0      70.9       52     52.7      0.00     18.97      67.0     0.34      1015.0     2.0       E    84   4.4       E    99   9.97    266      413.9
   05/02/2019 13:20      71.1      70.3       52     52.1      0.00     18.97      66.9     0.34      1015.1     2.1       E    93   5.3      SW   233   9.97    266      411.9
   05/02/2019 13:10      70.8      69.4       52     51.5      0.00     18.97      66.9     0.34      1015.3     2.6     ENE    70   5.8     NNE    23   9.97    266      348.2
   05/02/2019 13:00      70.1      68.7       53     51.5      0.00     18.97      66.8     0.34      1015.3     2.5     ESE   111   4.4      SE   136   9.98    266      291.7
   05/02/2019 12:50      69.7      69.1       53     51.3      0.00     18.97      66.8     0.34      1015.4     2.7       E   100   5.4      SE   141   9.98    265      329.7
   05/02/2019 12:40      69.8      69.3       51     50.8      0.00     18.97      66.8     0.34      1015.5     2.3     ESE   119   4.4       E    99   9.98    265      218.9
   05/02/2019 12:30      70.0      69.4       50     50.4      0.00     18.97      66.7     0.34      1015.6     1.8       E    88   3.7     ENE    56   9.98    265      202.8
   05/02/2019 12:20      71.0      69.7       50     50.7      0.00     18.97      66.7     0.34      1015.7     2.4      NE    45   6.2       N    11   9.98    265      222.5
   05/02/2019 12:10      72.4      70.7       47     50.4      0.00     18.97      66.7     0.34      1015.8     2.4     NNE    18   4.6     ENE    58   9.98    265      276.0
   05/02/2019 12:00      72.0      70.2       47     49.8      0.00     18.97      66.7     0.34      1015.8     2.1     NNE    14   4.5     NNW   329   9.98    265      590.2
   05/02/2019 11:50      70.5      69.1       49     49.6      0.00     18.97      66.7     0.34      1016.0     2.1      NE    36   4.6      NE    37   9.98    265      634.4
   05/02/2019 11:40      69.2      67.9       51     49.5      0.00     18.97      66.7     0.34      1016.1     1.9       N     9   4.8     ENE    57   9.99    266      377.2
   05/02/2019 11:30      70.0      67.7       50     49.4      0.00     18.97      66.7     0.34      1016.1     2.3       E    97   5.5      SE   137   9.99    266      294.9
   05/02/2019 11:20      69.8      67.8       50     49.3      0.00     18.97      66.7     0.34      1016.2     1.6     NNW   336   3.8     NNE    24  10.00    265      539.8
   05/02/2019 11:10      69.3      67.5       50     49.2      0.00     18.97      66.7     0.34      1016.2     2.1      NE    40   4.6     SSE   147  10.00    266      464.3
   05/02/2019 11:00      68.2      67.2       51     49.1      0.00     18.97      66.7     0.34      1016.2     1.8      NW   325   3.8       N   355  10.01    266      346.2
   05/02/2019 10:50      68.2      66.1       53     49.5      0.00     18.97      66.7     0.34      1016.3     2.0      SE   132   5.0      SE   132  10.01    266      540.8
   05/02/2019 10:40      67.3      66.2       53     49.3      0.00     18.97      66.7     0.34      1016.2     2.0     ESE   105   4.2       E    99  10.02    266      550.1
   05/02/2019 10:30      66.5      64.9       56     49.2      0.00     18.97      66.7     0.34      1016.4     1.4       W   262   3.0     SSW   197  10.02    265      510.8
   05/02/2019 10:20      65.3      63.6       57     49.1      0.00     18.97      66.8     0.34      1016.4     1.6     NNW   346   4.3     NNE    30  10.03    266      518.7
   05/02/2019 10:10      64.3      63.3       59     49.3      0.00     18.97      66.8     0.34      1016.5     2.0       N     0   3.7       N   351  10.03    266      455.1
   05/02/2019 10:00      63.5      62.9       60     49.2      0.00     18.97      66.8     0.34      1016.6     1.2       N   358   2.3       N   355  10.03    266      377.1
   05/02/2019 09:50      63.1      62.3       61     49.1      0.00     18.97      66.9     0.34      1016.6     2.2       N     5   4.2       N   354  10.03    266      461.7
   05/02/2019 09:40      62.7      61.7       62     49.1      0.00     18.97      66.9     0.34      1016.6     1.3       N     7   3.0     SSW   203  10.03    266      342.2
   05/02/2019 09:30      62.8      62.3       61     49.0      0.00     18.97      66.9     0.34      1016.7     1.8       E    96   3.2     ENE    75  10.03    266      364.3
   05/02/2019 09:20      62.4      60.3       65     49.1      0.00     18.97      67.0     0.34      1016.8     1.2     NNW   342   3.5     NNE    12  10.04    266      356.9
   05/02/2019 09:10      60.9      60.1       65     48.8      0.00     18.97      67.0     0.34      1016.7     1.5     NNW   347   3.3     NNW   339  10.04    267      299.6
   05/02/2019 09:00      60.4      59.0       67     48.8      0.00     18.97      67.0     0.34      1016.7     0.8      SE   126   2.2     ESE   114  10.04    267      266.2
   05/02/2019 08:50      59.5      58.7       68     48.6      0.00     18.97      67.0     0.34      1016.7     1.1     NNE    34   3.6       E    82  10.04    268      246.9
   05/02/2019 08:40      58.7      57.4       70     48.3      0.00     18.97      67.1     0.34      1016.7     1.5       E    83   4.2     NNW   329  10.04    269      321.8
   05/02/2019 08:30      57.8      56.4       72     48.3      0.00     18.97      67.1     0.34      1016.7     1.0     NNE    31   2.8     NNW   333  10.04    285      157.7
   05/02/2019 08:20      56.8      55.9       73     47.8      0.00     18.97      67.2     0.34      1016.7     0.8       E    93   2.1      SE   128  10.04    291       71.3
   05/02/2019 08:10      55.9      54.9       75     47.6      0.00     18.97      67.2     0.34      1016.7     0.4       N     2   2.0       N     0   9.94    294       62.0
   05/02/2019 08:00      55.3      54.3       76     47.3      0.00     18.97      67.2     0.34      1016.6     0.8     SSW   199   2.0       S   183   9.50    297       77.2
   05/02/2019 07:50      54.4      53.2       78     47.1      0.00     18.97      67.3     0.34      1016.4     0.3     WNW   300   1.7      NW   322   9.49    307      130.1
   05/02/2019 07:40      53.4      52.4       80     47.0      0.00     18.97      67.3     0.34      1016.4     0.8     NNE    18   2.1       N     4   9.50    326       73.0
   05/02/2019 07:30      52.5      51.6       84     47.3      0.00     18.97      67.3     0.34      1016.5     0.2     NNW   335   1.2     NNE    16   9.49    352       45.6
   05/02/2019 07:20      51.8      50.6       87     47.4      0.00     18.97      67.3     0.34      1016.4     0.0       N   359   1.2       N   355   9.50    384       44.5
   05/02/2019 07:10      50.8      49.7       89     46.9      0.00     18.97      67.4     0.34      1016.3     0.0       S   184   0.6       S   182   9.50    403       36.0
   05/02/2019 07:00      49.9      49.4       90     46.8      0.00     18.97      67.5     0.34      1016.2     0.0     ENE    74   0.2     ENE    73   9.50    412       20.8
   05/02/2019 06:50      49.7      48.8       91     46.5      0.00     18.97      67.5     0.34      1016.2     0.0       N     0   0.0     SSE   151   9.50    411       16.8
   05/02/2019 06:40      49.0      48.2       91     46.1      0.00     18.97      67.5     0.34      1016.0     0.0     SSE   153   0.6     SSE   153   9.50    408       11.7
   05/02/2019 06:30      48.3      47.5       91     45.3      0.00     18.97      67.5     0.34      1015.8     0.6     SSE   160   1.9     SSW   198   9.50    403        2.5
   05/02/2019 06:20      47.6      47.2       91     45.0      0.00     18.97      67.6     0.34      1015.7     1.0       S   190   2.1     SSW   195   9.50    404       -8.0
   05/02/2019 06:10      47.8      47.0       91     44.8      0.00     18.97      67.6     0.34      1015.6     0.2     SSE   160   1.0     SSE   163   9.50    396      -15.8
   05/02/2019 06:00      48.1      47.4       91     45.0      0.00     18.97      67.6     0.34      1015.5     0.0       N     0   0.0     SSE   148   9.50    391      -18.8
   05/02/2019 05:50      47.9      47.4       91     45.1      0.00     18.97      67.7     0.34      1015.6     0.1       S   177   0.7       S   181   9.50    392      -20.3
   05/02/2019 05:40      47.7      47.1       90     44.7      0.00     18.97      67.7     0.34      1015.6     0.0     SSE   154   0.8     SSE   152   9.50    378      -21.6
   05/02/2019 05:30      48.3      47.2       90     44.7      0.00     18.97      67.7     0.34      1015.5     0.3      SE   144   1.0     SSE   161   9.50    377      -22.5
   05/02/2019 05:20      48.5      47.9       90     45.3      0.00     18.97      67.8     0.34      1015.6     0.3       S   169   1.1       S   181   9.50    374      -22.2
   05/02/2019 05:10      48.5      47.8       90     45.4      0.00     18.97      67.8     0.34      1015.6     0.1     SSE   155   0.8     SSE   147   9.51    371      -23.2
   05/02/2019 05:00      48.5      47.8       90     45.2      0.00     18.97      67.8     0.34      1015.7     0.5     SSW   194   1.1       S   171   9.51    367      -23.7
   05/02/2019 04:50      48.3      47.8       90     45.3      0.00     18.97      67.8     0.34      1015.8     0.3       S   182   1.0      SW   219   9.51    377      -24.1
   05/02/2019 04:40      48.6      47.8       89     45.1      0.00     18.97      67.9     0.34      1015.8     0.0     SSE   149   0.7     SSE   147   9.51    371      -25.6
   05/02/2019 04:30      48.9      48.3       89     45.6      0.00     18.97      67.9     0.34      1016.0     0.1      SE   132   0.7      SE   125   9.51    362      -26.1
   05/02/2019 04:20      48.9      48.5       89     45.7      0.00     18.97      67.9     0.34      1016.0     0.2       S   171   1.0     SSE   167   9.51    349      -25.9
   05/02/2019 04:10      49.0      48.3       89     45.6      0.00     18.97      68.0     0.34      1016.0     0.4     SSE   152   1.0     SSE   158   9.51    341      -27.7
   05/02/2019 04:00      49.1      48.4       89     45.5      0.00     18.97      68.0     0.34      1016.1     0.4     SSE   161   1.1     SSE   161   9.51    332      -28.5
   05/02/2019 03:50      49.2      48.4       88     45.4      0.00     18.97      68.0     0.34      1016.0     0.4     SSE   149   1.4      SE   146   9.51    326      -29.9
   05/02/2019 03:40      49.2      48.8       88     45.5      0.00     18.97      68.1     0.34      1016.0     0.3     SSE   154   0.8     SSE   158   9.51    320      -31.1
   05/02/2019 03:30      49.0      48.7       88     45.3      0.00     18.97      68.1     0.34      1016.0     0.5     SSE   161   1.4       S   174   9.51    313      -32.3
   05/02/2019 03:20      49.5      48.7       87     45.5      0.00     18.97      68.1     0.34      1016.0     1.0     SSE   159   1.7     SSE   147   9.51    308      -33.2
   05/02/2019 03:10      49.6      49.2       87     45.7      0.00     18.97      68.1     0.34      1016.1     0.4     SSE   153   1.0     SSE   147   9.51    304      -34.0
   05/02/2019 03:00      49.5      48.8       87     45.4      0.00     18.97      68.2     0.34      1016.1     0.0     SSE   162   0.7     SSE   154   9.51    299      -36.7
   05/02/2019 02:50      49.5      49.2       86     45.4      0.00     18.97      68.2     0.34      1016.2     0.5       S   175   1.1       S   189   9.51    293      -37.0
   05/02/2019 02:40      49.6      49.2       86     45.2      0.00     18.97      68.2     0.34      1016.2     0.2       S   176   1.0       S   172   9.51    288      -39.6
   05/02/2019 02:30      50.0      49.3       85     45.4      0.00     18.97      68.3     0.34      1016.4     0.6       S   170   0.9       S   170   9.51    282      -41.0
   05/02/2019 02:20      50.1      49.4       85     45.4      0.00     18.97      68.3     0.34      1016.4     0.4       S   188   1.0     SSW   194   9.51    277      -43.1
   05/02/2019 02:10      50.0      49.2       84     45.1      0.00     18.97      68.3     0.34      1016.5     0.4     SSE   165   1.2       S   172   9.52    275      -45.5
   05/02/2019 02:00      50.6      49.7       84     45.2      0.00     18.97      68.3     0.34      1016.5     0.2     SSE   155   0.7       S   172   9.52    272      -47.0
   05/02/2019 01:50      50.6      50.2       84     45.6      0.00     18.97      68.3     0.34      1016.6     0.0       N     0   0.0       S   177   9.52    267      -48.1
   05/02/2019 01:40      50.9      50.3       84     45.8      0.00     18.97      68.4     0.34      1016.7     0.1       S   176   0.9       S   176   9.52    264      -50.1
   05/02/2019 01:30      50.8      50.3       84     45.8      0.00     18.97      68.4     0.34      1016.8     0.3     SSE   164   0.9     SSE   168   9.52    262      -51.1
   05/02/2019 01:20      51.3      50.5       83     46.0      0.00     18.97      68.4     0.34      1016.9     0.0     SSE   147   0.6     SSE   156   9.52    260      -52.9
   05/02/2019 01:10      51.5      50.9       84     46.4      0.00     18.97      68.4     0.34      1016.8     0.3     SSE   166   1.1     SSW   201   9.52    258      -52.6
   05/02/2019 01:00      51.8      51.2       84     46.8      0.00     18.97      68.4     0.34      1016.9     0.3       S   174   1.1       S   181   9.52    257      -52.6
   05/02/2019 00:50      51.8      51.1       84     46.8      0.00     18.97      68.5     0.34      1016.9     0.0       N     0   0.0     SSW   202   9.52    256      -54.3
   05/02/2019 00:40      51.7      51.3       84     46.7      0.00     18.97      68.5     0.34      1017.0     0.0     SSW   202   0.5     SSW   202   9.52    255      -57.8
   05/02/2019 00:30      52.4      51.4       83     47.0      0.00     18.97      68.5     0.34      1017.0     0.3     SSE   152   1.1      SE   144   9.53    253      -59.2
   05/02/2019 00:20      52.6      52.1       83     47.2      0.00     18.97      68.5     0.34      1017.1     0.3       S   181   1.3       S   181   9.53    251      -59.4
   05/02/2019 00:10      52.9      52.2       82     47.2      0.00     18.97      68.5     0.34      1017.2     0.0       S   184   0.9       S   184   9.53    253      -61.2
   05/02/2019 00:00      53.2      52.4       81     47.1      0.00     18.97      68.5     0.34      1017.4     0.0      SE   129   0.9     ESE   119   9.53    258      -63.2
   05/01/2019 23:50      53.5      52.7       80     47.2      0.00     18.97      68.5     0.34      1017.6     1.2       S   171   2.2       S   177   9.53    266      -63.6
   05/01/2019 23:40      54.0      53.1       79     47.0      0.00     18.97      68.5     0.34      1017.6     0.3       S   186   0.9     SSE   153   9.53    264      -63.7
   05/01/2019 23:30      54.5      53.7       78     47.1      0.00     18.97      68.6     0.34      1017.7     0.5       S   180   1.8     SSW   192   9.53    266      -65.8
   05/01/2019 23:20      54.8      54.1       76     47.2      0.00     18.97      68.6     0.34      1017.8     1.2     SSW   211   3.1     WSW   241   9.53    268      -67.6
   05/01/2019 23:10      54.8      54.4       76     47.0      0.00     18.97      68.6     0.34      1017.9     2.2     WSW   238   4.7       W   264   9.53    268      -67.8
   05/01/2019 23:00      54.9      54.4       75     46.9      0.00     18.97      68.6     0.34      1018.0     1.3      SW   221   3.6     SSW   210   9.53    268      -68.7
   05/01/2019 22:50      54.9      54.4       76     47.2      0.00     18.97      68.6     0.34      1018.1     2.5     SSW   198   4.4      SW   214   9.54    268      -69.1
   05/01/2019 22:40      55.2      54.5       76     47.5      0.00     18.97      68.5     0.34      1018.0     2.3     SSW   205   4.4     WSW   241   9.54    268      -69.5
   05/01/2019 22:30      55.3      54.9       75     47.3      0.00     18.97      68.6     0.34      1017.9     3.1      SW   229   5.6     WSW   242   9.54    268      -69.9
   05/01/2019 22:20      55.4      55.0       74     47.2      0.00     18.97      68.6     0.34      1017.9     3.8      SW   236   7.7       W   266   9.54    268      -70.1
   05/01/2019 22:10      55.6      55.0       75     47.4      0.00     18.97      68.6     0.34      1017.7     3.7      SW   230   7.0     SSW   197   9.54    268      -70.1
   05/01/2019 22:00      55.8      55.3       74     47.4      0.00     18.97      68.6     0.34      1017.5     4.2      SW   232   6.4      SW   234   9.54    268      -70.2
   05/01/2019 21:50      56.0      55.5       74     47.5      0.00     18.97      68.6     0.34      1017.4     4.4      SW   232   8.2     SSW   207   9.54    268      -70.4
   05/01/2019 21:40      56.2      55.5       74     47.6      0.00     18.97      68.6     0.34      1017.2     3.4      SW   225   5.5     SSW   206   9.54    268      -70.8
   05/01/2019 21:30      56.6      55.9       74     47.9      0.00     18.97      68.6     0.34      1017.1     4.3      SW   228   7.6     SSW   213   9.55    268      -71.3
   05/01/2019 21:20      56.9      56.3       73     48.1      0.00     18.97      68.6     0.34      1016.9     3.4      SW   235   5.1      SW   235   9.55    268      -72.3
   05/01/2019 21:10      57.4      56.6       72     48.0      0.00     18.97      68.5     0.34      1016.8     4.6     WSW   238   6.9       W   261   9.55    268      -72.8
   05/01/2019 21:00      57.9      57.1       70     47.8      0.00     18.97      68.5     0.34      1016.6     4.7      SW   233   7.8      SW   236   9.55    268      -73.8
   05/01/2019 20:50      58.3      57.5       69     47.8      0.00     18.97      68.5     0.34      1016.3     5.7     WSW   246   8.2       W   277   9.56    268      -74.1
   05/01/2019 20:40      59.3      58.3       67     47.8      0.00     18.97      68.5     0.34      1016.1     4.1     WSW   249   8.2      SW   228   9.56    268      -74.9
   05/01/2019 20:30      60.2      59.1       66     48.1      0.00     18.97      68.5     0.34      1015.9     5.3       W   265   8.3     WSW   250   9.56    268      -75.1
   05/01/2019 20:20      60.4      59.8       65     48.3      0.00     18.97      68.4     0.34      1015.7     5.2       W   262   9.0       W   264   9.56    268      -75.3
   05/01/2019 20:10      60.7      60.1       64     48.3      0.00     18.97      68.5     0.34      1015.3     4.5       W   267   8.9     WSW   252   9.57    268      -76.0
   05/01/2019 20:00      61.4      60.4       63     48.2      0.00     18.97      68.4     0.34      1015.0     5.7     WSW   258  10.0     WSW   255   9.57    267      -76.9
   05/01/2019 19:50      62.0      61.1       62     48.2      0.00     18.97      68.4     0.34      1014.8     4.2       W   276   7.9       W   266   9.57    267      -77.5
   05/01/2019 19:40      63.1      61.7       60     48.1      0.00     18.97      68.4     0.34      1014.6     5.8       W   263  10.0       W   269   9.58    267      -75.4
   05/01/2019 19:30      64.1      62.8       58     48.2      0.00     18.97      68.3     0.34      1014.5     5.2       W   266   9.7     WNW   297   9.58    267      -71.8
   05/01/2019 19:20      65.4      63.8       56     48.2      0.00     18.97      68.3     0.34      1014.3     4.5       W   262   8.4     WSW   244   9.58    267      -66.6
   05/01/2019 19:10      66.5      65.2       53     48.2      0.00     18.97      68.3     0.34      1014.1     4.0       W   278   7.1      NW   310   9.59    266      -55.3
   05/01/2019 19:00      67.1      66.2       52     48.3      0.00     18.97      68.2     0.34      1014.0     3.4     WNW   291   6.8       W   277   9.59    266      -38.5
   05/01/2019 18:50      67.4      66.8       51     48.3      0.00     18.97      68.2     0.34      1013.9     3.4     WNW   285   7.0       N     5   9.60    266      -18.4
   05/01/2019 18:40      67.8      66.8       51     48.3      0.00     18.97      68.2     0.34      1013.8     4.8     WSW   240   9.9     WSW   243   9.60    266        5.3
   05/01/2019 18:30      68.4      67.6       49     48.3      0.00     18.97      68.1     0.34      1013.8     4.4     WSW   246   7.2     SSW   204   9.60    266       30.0
   05/01/2019 18:20      69.2      68.1       48     48.3      0.00     18.97      68.1     0.34      1013.8     4.7     WSW   252   9.5       W   263   9.61    266       54.7
   05/01/2019 18:10      69.3      68.6       48     48.4      0.00     18.97      68.0     0.34      1013.9     3.7       W   278   8.5      NW   324   9.61    266       81.8
   05/01/2019 18:00      69.4      68.9       47     48.2      0.00     18.97      68.0     0.34      1014.0     4.8       W   260  10.5     WSW   258   9.61    266      100.9
   05/01/2019 17:50      70.2      68.7       46     48.0      0.00     18.97      68.0     0.34      1013.9     4.6     WSW   248   7.2      SW   233   9.62    266      131.4
   05/01/2019 17:40      70.6      69.6       46     48.0      0.00     18.97      67.9     0.34      1013.8     4.4       W   272   9.3     WSW   257   9.62    266      159.9
   05/01/2019 17:30      70.9      70.0       45     47.9      0.00     18.97      67.9     0.34      1013.8     3.4       W   259   6.8     WNW   287   9.63    266      185.3
   05/01/2019 17:20      70.9      69.0       45     47.6      0.00     18.97      67.9     0.34      1013.9     2.1       W   262   5.7      NW   316   9.63    266      211.4
   05/01/2019 17:10      69.5      68.6       46     47.6      0.00     18.97      67.8     0.34      1013.9     2.8     SSW   208   7.5     SSW   204   9.63    266      239.0
   05/01/2019 17:00      69.7      68.5       47     47.9      0.00     18.97      67.8     0.34      1014.0     4.1     SSW   206   7.1     SSW   212   9.64    266      265.3
   05/01/2019 16:50      70.2      69.3       46     48.2      0.00     18.97      67.7     0.34      1014.1     3.9      SW   222   7.4     WSW   253   9.64    266      292.3
   05/01/2019 16:40      69.8      68.8       47     48.0      0.00     18.97      67.6     0.34      1014.2     3.5     SSW   200   8.5     SSW   206   9.64    266      316.7
   05/01/2019 16:30      69.9      69.1       46     48.0      0.00     18.97      67.6     0.34      1014.2     3.7      SW   236   9.0     WSW   244   9.65    266      341.5
   05/01/2019 16:20      69.8      68.6       47     48.2      0.00     18.97      67.5     0.34      1014.4     2.9       S   188   8.2     SSW   204   9.65    266      372.7
   05/01/2019 16:10      69.9      68.7       47     48.4      0.00     18.97      67.5     0.34      1014.6     5.0      SW   232   8.7      SW   218   9.65    266      396.5
   05/01/2019 16:00      69.2      68.0       49     48.4      0.00     18.97      67.4     0.34      1014.7     3.9      SW   226   7.7     SSW   197   9.66    266      405.3
   05/01/2019 15:50      68.3      67.4       50     48.4      0.00     18.97      67.3     0.34      1014.9     4.5     SSW   212   8.5     SSW   199   9.66    266      392.0
   05/01/2019 15:40      68.7      67.8       49     48.5      0.00     18.97      67.3     0.34      1015.0     4.9      SW   230  11.8     SSW   206   9.66    266      378.4
   05/01/2019 15:30      68.8      68.0       50     48.8      0.00     18.97      67.2     0.34      1015.1     5.2       S   185   8.1     SSW   196   9.67    266      439.4
   05/01/2019 15:20      68.7      68.0       50     48.8      0.00     18.97      67.1     0.34      1015.2     5.4       S   188   9.2      SE   134   9.67    266      493.6
   05/01/2019 15:10      69.3      68.0       49     48.9      0.00     18.97      67.1     0.34      1015.4     5.3       S   187  10.1     SSE   167   9.68    266      521.1
   05/01/2019 15:00      69.3      68.2       49     48.6      0.00     18.97      67.0     0.34      1015.4     5.5       S   170  11.2       S   171   9.67    266      505.4
   05/01/2019 14:50      69.1      67.5       50     48.6      0.00     18.97      66.9     0.34      1015.6     5.4     SSE   169   8.8       S   189   9.68    266      478.6
   05/01/2019 14:40      69.2      67.7       49     48.4      0.00     18.97      66.8     0.34      1015.6     4.8     SSE   163   9.0     SSE   153   9.68    266      403.5
   05/01/2019 14:30      69.9      68.4       48     48.5      0.00     18.97      66.8     0.34      1015.6     4.4     SSW   205   8.4     SSW   211   9.68    265      505.4
   05/01/2019 14:20      69.1      67.9       49     48.5      0.00     18.97      66.7     0.34      1015.7     5.9     SSW   201  11.2     SSW   212   9.69    265      533.4
   05/01/2019 14:10      68.8      67.8       49     48.3      0.00     18.97      66.7     0.34      1015.6     6.0       S   172  10.5     SSW   200   9.69    265      572.0
   05/01/2019 14:00      69.3      68.0       48     48.0      0.00     18.97      66.5     0.34      1015.5     5.6     SSE   162   9.7      SE   134   9.69    265      554.4
   05/01/2019 13:50      69.6      68.7       47     48.1      0.00     18.97      66.5     0.34      1015.5     5.9     SSE   147   8.5     ESE   119   9.69    265      585.8
   05/01/2019 13:40      70.5      69.1       45     47.8      0.00     18.97      66.5     0.34      1015.4     5.9       S   174  10.1       S   181   9.70    265      582.8
   05/01/2019 13:30      71.2      69.8       44     47.2      0.00     18.97      66.4     0.34      1015.5     3.1       S   171   8.6     SSW   195   9.70    264      578.3
   05/01/2019 13:20      70.5      69.3       40     44.4      0.00     18.97      66.4     0.34      1015.5     3.1     ESE   116   6.9      SE   135   9.70    264      588.4
   05/01/2019 13:10      70.5      69.5       40     44.6      0.00     18.97      66.3     0.34      1015.5     2.1     SSE   155   5.8     SSE   161   9.71    264      587.3
   05/01/2019 13:00      72.3      69.3       39     44.9      0.00     18.97      66.2     0.34      1015.6     2.8     SSE   151   6.5      SE   134   9.71    264      557.0
   05/01/2019 12:50      71.9      71.1       39     44.9      0.00     18.97      66.2     0.34      1015.7     0.7       W   279   2.5     SSW   196   9.71    264      529.7
   05/01/2019 12:40      71.1      67.9       41     44.7      0.00     18.97      66.2     0.34      1015.8     1.7       W   269   5.8     SSW   205   9.72    264      592.7
   05/01/2019 12:30      70.3      68.9       40     44.6      0.00     18.97      66.2     0.34      1016.0     2.1     WSW   240   4.8       W   264   9.72    264      582.3
   05/01/2019 12:20      71.0      69.2       41     45.1      0.00     18.97      66.1     0.34      1016.3     1.1     NNE    14   3.3       N   354   9.72    264      578.4
   05/01/2019 12:10      69.5      68.4       42     45.1      0.00     18.97      66.1     0.34      1016.3     2.4      NW   306   5.7     WNW   288   9.72    264      600.1
   05/01/2019 12:00      69.3      68.5       42     45.2      0.00     18.97      66.1     0.34      1016.4     2.3     NNW   328   6.2      NW   316   9.73    264      577.7
   05/01/2019 11:50      68.6      67.5       44     45.1      0.00     18.97      66.0     0.34      1016.6     2.1       W   264   5.0     WSW   252   9.73    264      600.6
   05/01/2019 11:40      68.5      67.0       44     44.9      0.00     18.97      66.1     0.34      1016.7     2.2       E    85   5.1       E    94   9.73    264      579.6
   05/01/2019 11:30      68.5      66.2       44     45.0      0.00     18.97      66.1     0.34      1016.7     1.7     ENE    72   4.0     ENE    78   9.73    264      586.9
   05/01/2019 11:20      66.6      65.8       46     44.8      0.00     18.97      66.1     0.34      1016.7     2.4       E    93   4.8     ESE   122   9.73    264      567.6
   05/01/2019 11:10      66.7      65.3       47     44.9      0.00     18.97      66.1     0.34      1016.7     2.6     NNE    13   5.4      NE    53   9.73    264      565.9
   05/01/2019 11:00      66.5      65.6       46     44.9      0.00     18.97      66.1     0.34      1016.7     2.0      NW   311   6.1     WNW   294   9.73    264      549.7
   05/01/2019 10:50      65.7      64.8       47     44.6      0.00     18.97      66.1     0.34      1016.8     1.6     NNW   327   4.1     WSW   254   9.73    264      534.1
   05/01/2019 10:40      65.2      63.7       49     44.6      0.00     18.97      66.1     0.34      1016.9     2.4     NNW   328   5.5       W   276   9.73    265      522.6
   05/01/2019 10:30      65.2      63.6       48     44.4      0.00     18.97      66.1     0.34      1016.9     1.7     NNW   343   5.6     WNW   286   9.73    264      505.2
   05/01/2019 10:20      64.0      63.3       50     44.5      0.00     18.97      66.2     0.34      1016.9     2.9      NW   308   7.1       W   264   9.73    265      487.4
   05/01/2019 10:10      63.8      62.9       50     44.5      0.00     18.97      66.1     0.34      1016.9     1.3     ENE    79   3.0     SSW   205   9.74    265      472.6
   05/01/2019 10:00      63.0      62.5       51     44.3      0.00     18.97      66.2     0.34      1017.0     1.3       W   275   3.2     WSW   242   9.74    266      451.9
   05/01/2019 09:50      63.1      61.4       52     44.3      0.00     18.97      66.2     0.34      1017.0     1.4       S   183   3.6     SSE   150   9.74    265      433.1
   05/01/2019 09:40      61.7      60.3       54     44.6      0.00     18.97      66.3     0.34      1017.1     1.2     SSE   146   3.3       W   259   9.74    265      420.2
   05/01/2019 09:30      60.6      59.8       57     44.7      0.00     18.97      66.3     0.34      1017.1     1.9     SSE   148   3.6      SE   135   9.74    266      393.2
   05/01/2019 09:20      60.6      59.6       57     44.6      0.00     18.97      66.3     0.34      1017.1     1.4       E   101   3.1      SE   129   9.74    266      370.1
   05/01/2019 09:10      60.5      58.6       59     45.3      0.00     18.97      66.4     0.34      1017.1     1.3     ESE   107   3.4     SSW   210   9.75    266      349.7
   05/01/2019 09:00      59.0      57.8       62     45.4      0.00     18.97      66.4     0.34      1017.2     1.3      SE   130   2.9     ESE   109   9.75    266      322.9
   05/01/2019 08:50      57.9      56.9       67     46.3      0.00     18.97      66.4     0.34      1017.1     2.0       S   188   4.4      SW   222   9.75    267      299.9
   05/01/2019 08:40      57.3      55.9       70     47.1      0.00     18.97      66.5     0.34      1017.2     2.0      SW   232   4.4     WSW   243   9.75    274      294.2
   05/01/2019 08:30      56.2      54.5       74     47.1      0.00     18.97      66.5     0.34      1017.2     2.0     WSW   249   5.2       W   277   9.75    285       86.3
   05/01/2019 08:20      54.6      54.0       77     47.1      0.00     18.97      66.5     0.34      1017.0     1.6       W   281   3.5     WSW   247   9.75    290       11.5
   05/01/2019 08:10      54.0      53.5       77     46.9      0.00     18.97      66.6     0.34      1017.1     2.2       W   274   3.6     WNW   289   9.75    295        9.2
   05/01/2019 08:00      53.8      53.1       79     47.1      0.00     18.97      66.6     0.34      1017.1     1.5       W   273   3.6     WSW   251   9.75    297       44.7
   05/01/2019 07:50      53.3      52.4       80     46.9      0.00     18.97      66.6     0.34      1017.1     2.2      SW   230   4.6      SW   233   9.75    320       73.4
   05/01/2019 07:40      52.6      51.8       82     46.8      0.00     18.97      66.7     0.34      1017.0     2.9      SW   227   4.8      SW   222   9.75    342       44.1
   05/01/2019 07:30      52.1      51.4       84     47.0      0.00     18.97      66.7     0.34      1017.0     1.4      SW   224   5.1     WSW   241   9.75    363       22.9
   05/01/2019 07:20      51.6      50.6       86     47.1      0.00     18.97      66.8     0.34      1016.9     1.5      SW   234   3.8       W   271   9.75    379       16.2
   05/01/2019 07:10      50.8      49.9       89     47.2      0.00     18.97      66.8     0.34      1016.7     1.2     WSW   258   4.1     WSW   256   9.75    384       14.9
   05/01/2019 07:00      49.9      48.7       91     46.8      0.00     18.97      66.8     0.34      1016.7     2.0       W   260   4.1      SW   228   9.75    386        8.3
   05/01/2019 06:50      49.0      47.4       92     45.8      0.00     18.97      66.8     0.34      1016.6     0.3      NW   321   1.3      NW   324   9.75    387        3.2
   05/01/2019 06:40      47.4      46.5       92     44.5      0.00     18.97      66.9     0.34      1016.5     0.2       S   177   0.9     SSE   167   9.75    386       -3.2
   05/01/2019 06:30      46.7      45.9       91     43.7      0.00     18.97      66.9     0.34      1016.5     0.2      SE   125   1.7      NW   313   9.75    383       -8.6
   05/01/2019 06:20      46.3      45.8       91     43.6      0.00     18.97      67.0     0.34      1016.5     0.0     SSE   167   0.8       S   175   9.75    379      -14.3
   05/01/2019 06:10      46.4      45.9       91     43.6      0.00     18.97      67.0     0.34      1016.3     0.0       S   185   0.8       S   187   9.75    376      -19.0
   05/01/2019 06:00      46.3      45.9       90     43.4      0.00     18.97      67.0     0.34      1016.3     0.1     SSW   197   0.8     SSW   198   9.75    373      -22.1
   05/01/2019 05:50      46.7      46.0       90     43.6      0.00     18.97      67.1     0.34      1016.3     0.0       N     0   0.0     SSE   159   9.75    369      -23.2
   05/01/2019 05:40      46.8      46.4       90     43.8      0.00     18.97      67.1     0.34      1016.2     0.1     SSW   202   0.9      SW   227   9.75    363      -23.9
   05/01/2019 05:30      46.7      46.2       89     43.3      0.00     18.97      67.1     0.34      1016.2     0.2      SE   143   1.0     ENE    76   9.75    357      -25.0
   05/01/2019 05:20      47.1      46.4       88     43.4      0.00     18.97      67.2     0.34      1016.2     0.2     ESE   116   0.9       E    79   9.75    355      -25.8
   05/01/2019 05:10      47.7      46.8       88     43.7      0.00     18.97      67.2     0.34      1016.0     0.1     ESE   113   1.1     ENE    61   9.76    349      -26.4
   05/01/2019 05:00      47.5      46.9       88     43.7      0.00     18.97      67.2     0.34      1016.0     0.7     SSE   151   1.4      SE   146   9.76    348      -26.7
   05/01/2019 04:50      48.3      47.0       87     43.9      0.00     18.97      67.3     0.34      1016.0     0.3      SE   135   0.9      SE   141   9.76    344      -27.3
   05/01/2019 04:40      48.5      47.5       88     44.7      0.00     18.97      67.3     0.34      1016.0     0.4       S   180   2.0      SW   216   9.76    340      -28.1
   05/01/2019 04:30      47.7      46.3       89     44.0      0.00     18.97      67.3     0.34      1016.1     0.9       S   170   2.0     SSE   165   9.76    337      -28.5
   05/01/2019 04:20      46.7      46.2       89     43.4      0.00     18.97      67.4     0.34      1016.1     0.5      SE   145   1.6      SE   134   9.76    332      -28.9
   05/01/2019 04:10      46.6      46.1       88     43.0      0.00     18.97      67.4     0.34      1016.1     0.5     SSE   156   1.1       S   180   9.76    326      -30.2
   05/01/2019 04:00      47.2      46.4       88     43.3      0.00     18.97      67.4     0.34      1016.2     0.3      SE   142   0.9      SE   132   9.76    324      -31.4
   05/01/2019 03:50      47.3      46.7       88     43.5      0.00     18.97      67.5     0.34      1016.0     0.0       S   170   0.5       S   174   9.76    318      -33.0
   05/01/2019 03:40      47.5      46.9       88     43.8      0.00     18.97      67.5     0.34      1016.0     0.3     ESE   113   1.1      SE   133   9.76    315      -34.1
   05/01/2019 03:30      47.5      46.7       89     43.9      0.00     18.97      67.5     0.34      1016.0     0.6       S   171   1.8       S   176   9.76    309      -35.7
   05/01/2019 03:20      47.5      46.5       88     43.5      0.00     18.97      67.5     0.34      1016.0     0.5     SSE   163   1.0     SSE   165   9.76    304      -37.1
   05/01/2019 03:10      47.6      47.0       87     43.6      0.00     18.97      67.5     0.34      1016.1     0.2     SSE   161   0.8     SSE   158   9.76    297      -39.5
   05/01/2019 03:00      48.0      47.3       86     43.7      0.00     18.97      67.6     0.34      1016.2     0.6       S   169   1.8     SSW   192   9.76    292      -41.3
   05/01/2019 02:50      48.4      47.8       86     43.9      0.00     18.97      67.6     0.34      1016.2     0.7       S   171   1.7       S   189   9.76    286      -43.9
   05/01/2019 02:40      48.6      48.0       85     44.1      0.00     18.97      67.6     0.34      1016.2     0.0       S   175   0.6       S   174   9.76    281      -46.4
   05/01/2019 02:30      48.7      48.2       85     44.0      0.00     18.97      67.6     0.34      1016.2     0.1       S   185   1.2     SSW   193   9.76    277      -49.2
   05/01/2019 02:20      49.0      48.4       85     44.3      0.00     18.97      67.7     0.34      1016.2     0.5       S   177   1.5     SSW   196   9.76    275      -51.7
   05/01/2019 02:10      49.2      48.4       84     44.1      0.00     18.97      67.7     0.34      1016.2     0.2       S   190   1.0       S   190   9.76    268      -55.9
   05/01/2019 02:00      49.5      48.9       83     44.4      0.00     18.97      67.7     0.34      1016.3     0.0       N     0   0.0     SSE   165   9.77    266      -57.0
   05/01/2019 01:50      49.9      49.0       82     44.2      0.00     18.97      67.7     0.34      1016.4     0.1     SSE   162   0.9     SSE   154   9.77    258      -61.0
   05/01/2019 01:40      50.8      49.7       81     44.3      0.00     18.97      67.8     0.34      1016.5     0.2     SSE   164   0.9       S   180   9.77    257      -63.2
   05/01/2019 01:30      50.8      50.3       80     44.6      0.00     18.97      67.8     0.34      1016.5     0.4     SSE   163   1.1       S   178   9.77    266      -63.9
   05/01/2019 01:20      51.0      50.5       80     44.6      0.00     18.97      67.8     0.34      1016.6     0.3     SSE   169   0.9       S   180   9.77    269      -56.5
   05/01/2019 01:10      51.3      50.6       79     44.5      0.00     18.97      67.8     0.34      1016.7     0.3       S   181   1.6       S   186   9.77    271      -50.2
   05/01/2019 01:00      51.6      51.0       78     44.7      0.00     18.97      67.8     0.34      1016.6     0.0     SSE   162   0.6       S   173   9.77    270      -49.3
   05/01/2019 00:50      51.8      51.2       78     44.9      0.00     18.97      67.9     0.34      1016.6     0.6     SSE   162   1.1     SSE   159   9.78    270      -49.2
   05/01/2019 00:40      51.5      50.8       79     44.9      0.00     18.97      67.9     0.34      1016.6     0.6       S   172   1.2     SSE   167   9.78    270      -50.5
   05/01/2019 00:30      51.0      50.3       80     44.8      0.00     18.97      67.9     0.34      1016.5     0.7     SSE   166   1.5     SSE   154   9.78    270      -43.6
   05/01/2019 00:20      50.5      49.8       81     44.4      0.00     18.97      68.0     0.34      1016.6     0.2     SSE   161   0.8     SSE   155   9.78    270      -40.6
   05/01/2019 00:10      50.3      49.7       80     44.1      0.00     18.97      68.0     0.34      1016.5     0.0     SSE   151   0.5     SSE   154   9.78    270      -48.7
   05/01/2019 00:00      50.1      49.8       81     44.3      0.00     18.97      68.0     0.34      1016.4     0.0       S   184   0.8     SSW   200   9.78    271      -54.7


Back to data home page